<?xml version="1.0" encoding="UTF-8" standalone="no" ?>
<gpx xmlns="http://www.topografix.com/GPX/1/1" xmlns:xsi="http://www.w3.org/2001/XMLSchema-instance" xsi:schemaLocation="http://www.topografix.com/GPX/1/1 http://www.topografix.com/GPX/1/1/gpx.xsd" version="1.1" creator="VisuGPX - https://www.visugpx.com">
  <metadata>
    <name>VTT du mercredi 12 septembre 2018 (à 2 de Auxon)</name>
    <desc><![CDATA[Jacques étant à Londres pour l'anniversaire d'Elisabeth, Chris et moi sommes partis depuis Auxon pour un parcours sympa dans le bois de Breurey. Les 8 premiers km ne sont qu'une longue montée atteignant l'altitude de 400 m
J'avoue avoir marché quelques mètres au km 8,5 (croisée de Charmilles) et avoir fait demi-tour 2 fois (suite à des tentatives de variantes mal venues).
Par contre on a emprunté un chemin très bien (km 14 à km 16) ]]></desc>
  </metadata>
  <wpt lat="47.68215" lon="6.16603">
    <ele>233.79</ele>
    <name><![CDATA[0000030]]></name>
  </wpt>
  <wpt lat="47.6822" lon="6.16602">
    <ele>242.39</ele>
    <name><![CDATA[0000031]]></name>
  </wpt>
  <trk>
    <name><![CDATA[2018-09-12 09:49]]></name>
    <trkseg>
      <trkpt lat="47.68215" lon="6.16603">
        <ele>233.79</ele>
        <time>2018-09-12T07:49:28Z</time>
      </trkpt>
      <trkpt lat="47.6822" lon="6.166">
        <ele>234.5</ele>
        <time>2018-09-12T07:49:48Z</time>
      </trkpt>
      <trkpt lat="47.68227" lon="6.16599">
        <ele>234.78</ele>
        <time>2018-09-12T07:49:52Z</time>
      </trkpt>
      <trkpt lat="47.68234" lon="6.16598">
        <ele>234.97</ele>
        <time>2018-09-12T07:49:55Z</time>
      </trkpt>
      <trkpt lat="47.6824" lon="6.16595">
        <ele>235.18</ele>
        <time>2018-09-12T07:49:58Z</time>
      </trkpt>
      <trkpt lat="47.68246" lon="6.16593">
        <ele>235.4</ele>
        <time>2018-09-12T07:50:01Z</time>
      </trkpt>
      <trkpt lat="47.68251" lon="6.16592">
        <ele>235.55</ele>
        <time>2018-09-12T07:50:03Z</time>
      </trkpt>
      <trkpt lat="47.68256" lon="6.16589">
        <ele>235.7</ele>
        <time>2018-09-12T07:50:05Z</time>
      </trkpt>
      <trkpt lat="47.68261" lon="6.16585">
        <ele>235.85</ele>
        <time>2018-09-12T07:50:07Z</time>
      </trkpt>
      <trkpt lat="47.68264" lon="6.16579">
        <ele>236.01</ele>
        <time>2018-09-12T07:50:09Z</time>
      </trkpt>
      <trkpt lat="47.68266" lon="6.1657">
        <ele>236.24</ele>
        <time>2018-09-12T07:50:12Z</time>
      </trkpt>
      <trkpt lat="47.68265" lon="6.16559">
        <ele>236.45</ele>
        <time>2018-09-12T07:50:15Z</time>
      </trkpt>
      <trkpt lat="47.68262" lon="6.16551">
        <ele>236.63</ele>
        <time>2018-09-12T07:50:18Z</time>
      </trkpt>
      <trkpt lat="47.68257" lon="6.16549">
        <ele>236.79</ele>
        <time>2018-09-12T07:50:21Z</time>
      </trkpt>
      <trkpt lat="47.68253" lon="6.16548">
        <ele>236.88</ele>
        <time>2018-09-12T07:50:23Z</time>
      </trkpt>
      <trkpt lat="47.68248" lon="6.16549">
        <ele>236.96</ele>
        <time>2018-09-12T07:50:25Z</time>
      </trkpt>
      <trkpt lat="47.68242" lon="6.16549">
        <ele>237.03</ele>
        <time>2018-09-12T07:50:27Z</time>
      </trkpt>
      <trkpt lat="47.68237" lon="6.16546">
        <ele>237.09</ele>
        <time>2018-09-12T07:50:29Z</time>
      </trkpt>
      <trkpt lat="47.68233" lon="6.1654">
        <ele>237.15</ele>
        <time>2018-09-12T07:50:31Z</time>
      </trkpt>
      <trkpt lat="47.6823" lon="6.16533">
        <ele>237.19</ele>
        <time>2018-09-12T07:50:33Z</time>
      </trkpt>
      <trkpt lat="47.68229" lon="6.16526">
        <ele>237.24</ele>
        <time>2018-09-12T07:50:35Z</time>
      </trkpt>
      <trkpt lat="47.6823" lon="6.16519">
        <ele>237.28</ele>
        <time>2018-09-12T07:50:37Z</time>
      </trkpt>
      <trkpt lat="47.68232" lon="6.16513">
        <ele>237.33</ele>
        <time>2018-09-12T07:50:39Z</time>
      </trkpt>
      <trkpt lat="47.68236" lon="6.16508">
        <ele>237.37</ele>
        <time>2018-09-12T07:50:41Z</time>
      </trkpt>
      <trkpt lat="47.6824" lon="6.16505">
        <ele>237.4</ele>
        <time>2018-09-12T07:50:43Z</time>
      </trkpt>
      <trkpt lat="47.68246" lon="6.165">
        <ele>237.44</ele>
        <time>2018-09-12T07:50:45Z</time>
      </trkpt>
      <trkpt lat="47.68252" lon="6.16495">
        <ele>237.48</ele>
        <time>2018-09-12T07:50:47Z</time>
      </trkpt>
      <trkpt lat="47.68257" lon="6.16491">
        <ele>237.52</ele>
        <time>2018-09-12T07:50:49Z</time>
      </trkpt>
      <trkpt lat="47.68263" lon="6.16488">
        <ele>237.56</ele>
        <time>2018-09-12T07:50:51Z</time>
      </trkpt>
      <trkpt lat="47.68268" lon="6.16484">
        <ele>237.6</ele>
        <time>2018-09-12T07:50:53Z</time>
      </trkpt>
      <trkpt lat="47.68274" lon="6.16482">
        <ele>237.64</ele>
        <time>2018-09-12T07:50:55Z</time>
      </trkpt>
      <trkpt lat="47.6828" lon="6.16478">
        <ele>237.68</ele>
        <time>2018-09-12T07:50:57Z</time>
      </trkpt>
      <trkpt lat="47.68285" lon="6.16475">
        <ele>237.72</ele>
        <time>2018-09-12T07:50:59Z</time>
      </trkpt>
      <trkpt lat="47.68289" lon="6.1647">
        <ele>237.76</ele>
        <time>2018-09-12T07:51:01Z</time>
      </trkpt>
      <trkpt lat="47.68294" lon="6.16465">
        <ele>237.81</ele>
        <time>2018-09-12T07:51:03Z</time>
      </trkpt>
      <trkpt lat="47.683" lon="6.16461">
        <ele>237.87</ele>
        <time>2018-09-12T07:51:06Z</time>
      </trkpt>
      <trkpt lat="47.68304" lon="6.16456">
        <ele>237.94</ele>
        <time>2018-09-12T07:51:09Z</time>
      </trkpt>
      <trkpt lat="47.68306" lon="6.1645">
        <ele>238.02</ele>
        <time>2018-09-12T07:51:12Z</time>
      </trkpt>
      <trkpt lat="47.68305" lon="6.16443">
        <ele>238.1</ele>
        <time>2018-09-12T07:51:15Z</time>
      </trkpt>
      <trkpt lat="47.68301" lon="6.16435">
        <ele>238.18</ele>
        <time>2018-09-12T07:51:18Z</time>
      </trkpt>
      <trkpt lat="47.68299" lon="6.16426">
        <ele>238.27</ele>
        <time>2018-09-12T07:51:21Z</time>
      </trkpt>
      <trkpt lat="47.68297" lon="6.16419">
        <ele>238.32</ele>
        <time>2018-09-12T07:51:23Z</time>
      </trkpt>
      <trkpt lat="47.68295" lon="6.16412">
        <ele>238.37</ele>
        <time>2018-09-12T07:51:25Z</time>
      </trkpt>
      <trkpt lat="47.68293" lon="6.16404">
        <ele>238.42</ele>
        <time>2018-09-12T07:51:27Z</time>
      </trkpt>
      <trkpt lat="47.68292" lon="6.16397">
        <ele>238.46</ele>
        <time>2018-09-12T07:51:29Z</time>
      </trkpt>
      <trkpt lat="47.68291" lon="6.1639">
        <ele>238.51</ele>
        <time>2018-09-12T07:51:31Z</time>
      </trkpt>
      <trkpt lat="47.6829" lon="6.16381">
        <ele>238.55</ele>
        <time>2018-09-12T07:51:33Z</time>
      </trkpt>
      <trkpt lat="47.6829" lon="6.1637">
        <ele>238.71</ele>
        <time>2018-09-12T07:51:35Z</time>
      </trkpt>
      <trkpt lat="47.68292" lon="6.16359">
        <ele>238.91</ele>
        <time>2018-09-12T07:51:37Z</time>
      </trkpt>
      <trkpt lat="47.68294" lon="6.16349">
        <ele>238.95</ele>
        <time>2018-09-12T07:51:39Z</time>
      </trkpt>
      <trkpt lat="47.68298" lon="6.1634">
        <ele>238.97</ele>
        <time>2018-09-12T07:51:41Z</time>
      </trkpt>
      <trkpt lat="47.68303" lon="6.16332">
        <ele>238.99</ele>
        <time>2018-09-12T07:51:43Z</time>
      </trkpt>
      <trkpt lat="47.68309" lon="6.16326">
        <ele>239.01</ele>
        <time>2018-09-12T07:51:45Z</time>
      </trkpt>
      <trkpt lat="47.68315" lon="6.16325">
        <ele>239.03</ele>
        <time>2018-09-12T07:51:47Z</time>
      </trkpt>
      <trkpt lat="47.68321" lon="6.16327">
        <ele>239.05</ele>
        <time>2018-09-12T07:51:49Z</time>
      </trkpt>
      <trkpt lat="47.68327" lon="6.1633">
        <ele>239.07</ele>
        <time>2018-09-12T07:51:51Z</time>
      </trkpt>
      <trkpt lat="47.68331" lon="6.16334">
        <ele>239.09</ele>
        <time>2018-09-12T07:51:53Z</time>
      </trkpt>
      <trkpt lat="47.68335" lon="6.16337">
        <ele>239.11</ele>
        <time>2018-09-12T07:51:55Z</time>
      </trkpt>
      <trkpt lat="47.6834" lon="6.1634">
        <ele>239.15</ele>
        <time>2018-09-12T07:51:57Z</time>
      </trkpt>
      <trkpt lat="47.68345" lon="6.16345">
        <ele>239.2</ele>
        <time>2018-09-12T07:52:00Z</time>
      </trkpt>
      <trkpt lat="47.6835" lon="6.16349">
        <ele>239.26</ele>
        <time>2018-09-12T07:52:03Z</time>
      </trkpt>
      <trkpt lat="47.68356" lon="6.1635">
        <ele>239.32</ele>
        <time>2018-09-12T07:52:06Z</time>
      </trkpt>
      <trkpt lat="47.68361" lon="6.1635">
        <ele>239.37</ele>
        <time>2018-09-12T07:52:08Z</time>
      </trkpt>
      <trkpt lat="47.68366" lon="6.16351">
        <ele>239.42</ele>
        <time>2018-09-12T07:52:10Z</time>
      </trkpt>
      <trkpt lat="47.68372" lon="6.16351">
        <ele>239.47</ele>
        <time>2018-09-12T07:52:12Z</time>
      </trkpt>
      <trkpt lat="47.68377" lon="6.16353">
        <ele>239.53</ele>
        <time>2018-09-12T07:52:14Z</time>
      </trkpt>
      <trkpt lat="47.68381" lon="6.16355">
        <ele>239.59</ele>
        <time>2018-09-12T07:52:16Z</time>
      </trkpt>
      <trkpt lat="47.68386" lon="6.16358">
        <ele>239.65</ele>
        <time>2018-09-12T07:52:18Z</time>
      </trkpt>
      <trkpt lat="47.68391" lon="6.16361">
        <ele>239.71</ele>
        <time>2018-09-12T07:52:20Z</time>
      </trkpt>
      <trkpt lat="47.68395" lon="6.16364">
        <ele>239.77</ele>
        <time>2018-09-12T07:52:22Z</time>
      </trkpt>
      <trkpt lat="47.68399" lon="6.16368">
        <ele>239.84</ele>
        <time>2018-09-12T07:52:24Z</time>
      </trkpt>
      <trkpt lat="47.68404" lon="6.16371">
        <ele>239.91</ele>
        <time>2018-09-12T07:52:26Z</time>
      </trkpt>
      <trkpt lat="47.68409" lon="6.16374">
        <ele>239.98</ele>
        <time>2018-09-12T07:52:28Z</time>
      </trkpt>
      <trkpt lat="47.68413" lon="6.16377">
        <ele>240.06</ele>
        <time>2018-09-12T07:52:30Z</time>
      </trkpt>
      <trkpt lat="47.68417" lon="6.16381">
        <ele>240.13</ele>
        <time>2018-09-12T07:52:32Z</time>
      </trkpt>
      <trkpt lat="47.68422" lon="6.16386">
        <ele>240.25</ele>
        <time>2018-09-12T07:52:35Z</time>
      </trkpt>
      <trkpt lat="47.68428" lon="6.16392">
        <ele>240.37</ele>
        <time>2018-09-12T07:52:38Z</time>
      </trkpt>
      <trkpt lat="47.68434" lon="6.16397">
        <ele>240.49</ele>
        <time>2018-09-12T07:52:41Z</time>
      </trkpt>
      <trkpt lat="47.68437" lon="6.16401">
        <ele>240.58</ele>
        <time>2018-09-12T07:52:43Z</time>
      </trkpt>
      <trkpt lat="47.68441" lon="6.16407">
        <ele>240.66</ele>
        <time>2018-09-12T07:52:45Z</time>
      </trkpt>
      <trkpt lat="47.68445" lon="6.16412">
        <ele>240.74</ele>
        <time>2018-09-12T07:52:47Z</time>
      </trkpt>
      <trkpt lat="47.68449" lon="6.16417">
        <ele>240.82</ele>
        <time>2018-09-12T07:52:49Z</time>
      </trkpt>
      <trkpt lat="47.68452" lon="6.16423">
        <ele>240.9</ele>
        <time>2018-09-12T07:52:51Z</time>
      </trkpt>
      <trkpt lat="47.68456" lon="6.16428">
        <ele>240.98</ele>
        <time>2018-09-12T07:52:53Z</time>
      </trkpt>
      <trkpt lat="47.6846" lon="6.16434">
        <ele>241.06</ele>
        <time>2018-09-12T07:52:55Z</time>
      </trkpt>
      <trkpt lat="47.68465" lon="6.16439">
        <ele>241.14</ele>
        <time>2018-09-12T07:52:57Z</time>
      </trkpt>
      <trkpt lat="47.68468" lon="6.16444">
        <ele>241.23</ele>
        <time>2018-09-12T07:52:59Z</time>
      </trkpt>
      <trkpt lat="47.68472" lon="6.16451">
        <ele>241.31</ele>
        <time>2018-09-12T07:53:01Z</time>
      </trkpt>
      <trkpt lat="47.68475" lon="6.16459">
        <ele>241.66</ele>
        <time>2018-09-12T07:53:03Z</time>
      </trkpt>
      <trkpt lat="47.68479" lon="6.16467">
        <ele>242.29</ele>
        <time>2018-09-12T07:53:05Z</time>
      </trkpt>
      <trkpt lat="47.68484" lon="6.16475">
        <ele>242.64</ele>
        <time>2018-09-12T07:53:07Z</time>
      </trkpt>
      <trkpt lat="47.68489" lon="6.16481">
        <ele>242.7</ele>
        <time>2018-09-12T07:53:09Z</time>
      </trkpt>
      <trkpt lat="47.68493" lon="6.16485">
        <ele>242.74</ele>
        <time>2018-09-12T07:53:11Z</time>
      </trkpt>
      <trkpt lat="47.68498" lon="6.16488">
        <ele>242.78</ele>
        <time>2018-09-12T07:53:13Z</time>
      </trkpt>
      <trkpt lat="47.68502" lon="6.16489">
        <ele>242.81</ele>
        <time>2018-09-12T07:53:15Z</time>
      </trkpt>
      <trkpt lat="47.68507" lon="6.16492">
        <ele>242.84</ele>
        <time>2018-09-12T07:53:17Z</time>
      </trkpt>
      <trkpt lat="47.68513" lon="6.16493">
        <ele>242.87</ele>
        <time>2018-09-12T07:53:19Z</time>
      </trkpt>
      <trkpt lat="47.68519" lon="6.16495">
        <ele>242.9</ele>
        <time>2018-09-12T07:53:21Z</time>
      </trkpt>
      <trkpt lat="47.68525" lon="6.16496">
        <ele>242.93</ele>
        <time>2018-09-12T07:53:23Z</time>
      </trkpt>
      <trkpt lat="47.6853" lon="6.16497">
        <ele>242.96</ele>
        <time>2018-09-12T07:53:25Z</time>
      </trkpt>
      <trkpt lat="47.68537" lon="6.16498">
        <ele>243</ele>
        <time>2018-09-12T07:53:27Z</time>
      </trkpt>
      <trkpt lat="47.68544" lon="6.16499">
        <ele>243.03</ele>
        <time>2018-09-12T07:53:29Z</time>
      </trkpt>
      <trkpt lat="47.6855" lon="6.165">
        <ele>243.07</ele>
        <time>2018-09-12T07:53:31Z</time>
      </trkpt>
      <trkpt lat="47.68557" lon="6.165">
        <ele>243.12</ele>
        <time>2018-09-12T07:53:33Z</time>
      </trkpt>
      <trkpt lat="47.68562" lon="6.165">
        <ele>243.17</ele>
        <time>2018-09-12T07:53:35Z</time>
      </trkpt>
      <trkpt lat="47.68567" lon="6.165">
        <ele>243.22</ele>
        <time>2018-09-12T07:53:37Z</time>
      </trkpt>
      <trkpt lat="47.68572" lon="6.16499">
        <ele>243.27</ele>
        <time>2018-09-12T07:53:39Z</time>
      </trkpt>
      <trkpt lat="47.68577" lon="6.16499">
        <ele>243.32</ele>
        <time>2018-09-12T07:53:41Z</time>
      </trkpt>
      <trkpt lat="47.68582" lon="6.16499">
        <ele>243.38</ele>
        <time>2018-09-12T07:53:43Z</time>
      </trkpt>
      <trkpt lat="47.68587" lon="6.16499">
        <ele>243.44</ele>
        <time>2018-09-12T07:53:45Z</time>
      </trkpt>
      <trkpt lat="47.68592" lon="6.16499">
        <ele>243.5</ele>
        <time>2018-09-12T07:53:47Z</time>
      </trkpt>
      <trkpt lat="47.68599" lon="6.16498">
        <ele>243.59</ele>
        <time>2018-09-12T07:53:50Z</time>
      </trkpt>
      <trkpt lat="47.68605" lon="6.16496">
        <ele>243.69</ele>
        <time>2018-09-12T07:53:53Z</time>
      </trkpt>
      <trkpt lat="47.68609" lon="6.16494">
        <ele>243.75</ele>
        <time>2018-09-12T07:53:55Z</time>
      </trkpt>
      <trkpt lat="47.68615" lon="6.16491">
        <ele>243.84</ele>
        <time>2018-09-12T07:53:58Z</time>
      </trkpt>
      <trkpt lat="47.68621" lon="6.16488">
        <ele>243.93</ele>
        <time>2018-09-12T07:54:01Z</time>
      </trkpt>
      <trkpt lat="47.68626" lon="6.16485">
        <ele>243.99</ele>
        <time>2018-09-12T07:54:03Z</time>
      </trkpt>
      <trkpt lat="47.6863" lon="6.16483">
        <ele>244.04</ele>
        <time>2018-09-12T07:54:05Z</time>
      </trkpt>
      <trkpt lat="47.68634" lon="6.16481">
        <ele>244.1</ele>
        <time>2018-09-12T07:54:07Z</time>
      </trkpt>
      <trkpt lat="47.68639" lon="6.16478">
        <ele>244.15</ele>
        <time>2018-09-12T07:54:09Z</time>
      </trkpt>
      <trkpt lat="47.68643" lon="6.16474">
        <ele>244.2</ele>
        <time>2018-09-12T07:54:11Z</time>
      </trkpt>
      <trkpt lat="47.68646" lon="6.1647">
        <ele>244.25</ele>
        <time>2018-09-12T07:54:13Z</time>
      </trkpt>
      <trkpt lat="47.6865" lon="6.16466">
        <ele>244.31</ele>
        <time>2018-09-12T07:54:15Z</time>
      </trkpt>
      <trkpt lat="47.68656" lon="6.16461">
        <ele>244.38</ele>
        <time>2018-09-12T07:54:18Z</time>
      </trkpt>
      <trkpt lat="47.68659" lon="6.16457">
        <ele>244.43</ele>
        <time>2018-09-12T07:54:20Z</time>
      </trkpt>
      <trkpt lat="47.68664" lon="6.16454">
        <ele>244.48</ele>
        <time>2018-09-12T07:54:22Z</time>
      </trkpt>
      <trkpt lat="47.68669" lon="6.16449">
        <ele>244.56</ele>
        <time>2018-09-12T07:54:25Z</time>
      </trkpt>
      <trkpt lat="47.68673" lon="6.16445">
        <ele>244.61</ele>
        <time>2018-09-12T07:54:27Z</time>
      </trkpt>
      <trkpt lat="47.68677" lon="6.16442">
        <ele>244.66</ele>
        <time>2018-09-12T07:54:29Z</time>
      </trkpt>
      <trkpt lat="47.68681" lon="6.16438">
        <ele>244.7</ele>
        <time>2018-09-12T07:54:31Z</time>
      </trkpt>
      <trkpt lat="47.68686" lon="6.16435">
        <ele>244.75</ele>
        <time>2018-09-12T07:54:33Z</time>
      </trkpt>
      <trkpt lat="47.68691" lon="6.16434">
        <ele>244.8</ele>
        <time>2018-09-12T07:54:35Z</time>
      </trkpt>
      <trkpt lat="47.68698" lon="6.16433">
        <ele>244.84</ele>
        <time>2018-09-12T07:54:37Z</time>
      </trkpt>
      <trkpt lat="47.68704" lon="6.16433">
        <ele>244.9</ele>
        <time>2018-09-12T07:54:39Z</time>
      </trkpt>
      <trkpt lat="47.6871" lon="6.16434">
        <ele>244.95</ele>
        <time>2018-09-12T07:54:41Z</time>
      </trkpt>
      <trkpt lat="47.68716" lon="6.16436">
        <ele>245</ele>
        <time>2018-09-12T07:54:43Z</time>
      </trkpt>
      <trkpt lat="47.68721" lon="6.16437">
        <ele>245.05</ele>
        <time>2018-09-12T07:54:45Z</time>
      </trkpt>
      <trkpt lat="47.68727" lon="6.16439">
        <ele>245.11</ele>
        <time>2018-09-12T07:54:47Z</time>
      </trkpt>
      <trkpt lat="47.68732" lon="6.16442">
        <ele>245.16</ele>
        <time>2018-09-12T07:54:49Z</time>
      </trkpt>
      <trkpt lat="47.68738" lon="6.16444">
        <ele>245.22</ele>
        <time>2018-09-12T07:54:51Z</time>
      </trkpt>
      <trkpt lat="47.68743" lon="6.16446">
        <ele>245.28</ele>
        <time>2018-09-12T07:54:53Z</time>
      </trkpt>
      <trkpt lat="47.68748" lon="6.16448">
        <ele>245.34</ele>
        <time>2018-09-12T07:54:55Z</time>
      </trkpt>
      <trkpt lat="47.68753" lon="6.16451">
        <ele>245.41</ele>
        <time>2018-09-12T07:54:57Z</time>
      </trkpt>
      <trkpt lat="47.68759" lon="6.16453">
        <ele>245.47</ele>
        <time>2018-09-12T07:54:59Z</time>
      </trkpt>
      <trkpt lat="47.68765" lon="6.16457">
        <ele>245.54</ele>
        <time>2018-09-12T07:55:01Z</time>
      </trkpt>
      <trkpt lat="47.68771" lon="6.16459">
        <ele>245.61</ele>
        <time>2018-09-12T07:55:03Z</time>
      </trkpt>
      <trkpt lat="47.68777" lon="6.16462">
        <ele>245.67</ele>
        <time>2018-09-12T07:55:05Z</time>
      </trkpt>
      <trkpt lat="47.68783" lon="6.16464">
        <ele>245.74</ele>
        <time>2018-09-12T07:55:07Z</time>
      </trkpt>
      <trkpt lat="47.68789" lon="6.16465">
        <ele>245.82</ele>
        <time>2018-09-12T07:55:09Z</time>
      </trkpt>
      <trkpt lat="47.68795" lon="6.16466">
        <ele>245.89</ele>
        <time>2018-09-12T07:55:11Z</time>
      </trkpt>
      <trkpt lat="47.68801" lon="6.16467">
        <ele>245.96</ele>
        <time>2018-09-12T07:55:13Z</time>
      </trkpt>
      <trkpt lat="47.68807" lon="6.16466">
        <ele>246.03</ele>
        <time>2018-09-12T07:55:15Z</time>
      </trkpt>
      <trkpt lat="47.68813" lon="6.16465">
        <ele>246.11</ele>
        <time>2018-09-12T07:55:17Z</time>
      </trkpt>
      <trkpt lat="47.68819" lon="6.16462">
        <ele>246.18</ele>
        <time>2018-09-12T07:55:19Z</time>
      </trkpt>
      <trkpt lat="47.68825" lon="6.1646">
        <ele>246.25</ele>
        <time>2018-09-12T07:55:21Z</time>
      </trkpt>
      <trkpt lat="47.6883" lon="6.16457">
        <ele>246.32</ele>
        <time>2018-09-12T07:55:23Z</time>
      </trkpt>
      <trkpt lat="47.68835" lon="6.16453">
        <ele>246.39</ele>
        <time>2018-09-12T07:55:25Z</time>
      </trkpt>
      <trkpt lat="47.68841" lon="6.1645">
        <ele>246.45</ele>
        <time>2018-09-12T07:55:27Z</time>
      </trkpt>
      <trkpt lat="47.68845" lon="6.16447">
        <ele>246.52</ele>
        <time>2018-09-12T07:55:29Z</time>
      </trkpt>
      <trkpt lat="47.68851" lon="6.16444">
        <ele>246.59</ele>
        <time>2018-09-12T07:55:31Z</time>
      </trkpt>
      <trkpt lat="47.68855" lon="6.1644">
        <ele>246.65</ele>
        <time>2018-09-12T07:55:33Z</time>
      </trkpt>
      <trkpt lat="47.68859" lon="6.16438">
        <ele>246.71</ele>
        <time>2018-09-12T07:55:35Z</time>
      </trkpt>
      <trkpt lat="47.68864" lon="6.16435">
        <ele>246.78</ele>
        <time>2018-09-12T07:55:37Z</time>
      </trkpt>
      <trkpt lat="47.68869" lon="6.16431">
        <ele>246.87</ele>
        <time>2018-09-12T07:55:40Z</time>
      </trkpt>
      <trkpt lat="47.68876" lon="6.16427">
        <ele>246.96</ele>
        <time>2018-09-12T07:55:43Z</time>
      </trkpt>
      <trkpt lat="47.6888" lon="6.16425">
        <ele>247.02</ele>
        <time>2018-09-12T07:55:45Z</time>
      </trkpt>
      <trkpt lat="47.68886" lon="6.16421">
        <ele>247.11</ele>
        <time>2018-09-12T07:55:48Z</time>
      </trkpt>
      <trkpt lat="47.68892" lon="6.16417">
        <ele>247.2</ele>
        <time>2018-09-12T07:55:51Z</time>
      </trkpt>
      <trkpt lat="47.68897" lon="6.16415">
        <ele>247.26</ele>
        <time>2018-09-12T07:55:53Z</time>
      </trkpt>
      <trkpt lat="47.68903" lon="6.16414">
        <ele>247.32</ele>
        <time>2018-09-12T07:55:55Z</time>
      </trkpt>
      <trkpt lat="47.68909" lon="6.16412">
        <ele>247.39</ele>
        <time>2018-09-12T07:55:57Z</time>
      </trkpt>
      <trkpt lat="47.68913" lon="6.16409">
        <ele>247.45</ele>
        <time>2018-09-12T07:55:59Z</time>
      </trkpt>
      <trkpt lat="47.68918" lon="6.16406">
        <ele>247.51</ele>
        <time>2018-09-12T07:56:01Z</time>
      </trkpt>
      <trkpt lat="47.68922" lon="6.16404">
        <ele>247.57</ele>
        <time>2018-09-12T07:56:03Z</time>
      </trkpt>
      <trkpt lat="47.68927" lon="6.16402">
        <ele>247.64</ele>
        <time>2018-09-12T07:56:05Z</time>
      </trkpt>
      <trkpt lat="47.68932" lon="6.16399">
        <ele>247.71</ele>
        <time>2018-09-12T07:56:07Z</time>
      </trkpt>
      <trkpt lat="47.68936" lon="6.16397">
        <ele>247.78</ele>
        <time>2018-09-12T07:56:09Z</time>
      </trkpt>
      <trkpt lat="47.68941" lon="6.16396">
        <ele>247.85</ele>
        <time>2018-09-12T07:56:11Z</time>
      </trkpt>
      <trkpt lat="47.68946" lon="6.16395">
        <ele>247.93</ele>
        <time>2018-09-12T07:56:13Z</time>
      </trkpt>
      <trkpt lat="47.68952" lon="6.16394">
        <ele>248.04</ele>
        <time>2018-09-12T07:56:16Z</time>
      </trkpt>
      <trkpt lat="47.68958" lon="6.16393">
        <ele>248.17</ele>
        <time>2018-09-12T07:56:19Z</time>
      </trkpt>
      <trkpt lat="47.68964" lon="6.16393">
        <ele>248.29</ele>
        <time>2018-09-12T07:56:22Z</time>
      </trkpt>
      <trkpt lat="47.68971" lon="6.16393">
        <ele>248.42</ele>
        <time>2018-09-12T07:56:25Z</time>
      </trkpt>
      <trkpt lat="47.68976" lon="6.16393">
        <ele>248.56</ele>
        <time>2018-09-12T07:56:28Z</time>
      </trkpt>
      <trkpt lat="47.68982" lon="6.16394">
        <ele>248.7</ele>
        <time>2018-09-12T07:56:31Z</time>
      </trkpt>
      <trkpt lat="47.68988" lon="6.16395">
        <ele>248.84</ele>
        <time>2018-09-12T07:56:34Z</time>
      </trkpt>
      <trkpt lat="47.68994" lon="6.16395">
        <ele>248.99</ele>
        <time>2018-09-12T07:56:37Z</time>
      </trkpt>
      <trkpt lat="47.69" lon="6.16396">
        <ele>249.14</ele>
        <time>2018-09-12T07:56:40Z</time>
      </trkpt>
      <trkpt lat="47.69005" lon="6.16396">
        <ele>249.29</ele>
        <time>2018-09-12T07:56:43Z</time>
      </trkpt>
      <trkpt lat="47.69009" lon="6.16396">
        <ele>250.36</ele>
        <time>2018-09-12T07:57:37Z</time>
      </trkpt>
      <trkpt lat="47.69014" lon="6.16397">
        <ele>250.6</ele>
        <time>2018-09-12T07:57:40Z</time>
      </trkpt>
      <trkpt lat="47.6902" lon="6.16397">
        <ele>250.76</ele>
        <time>2018-09-12T07:57:42Z</time>
      </trkpt>
      <trkpt lat="47.69026" lon="6.16397">
        <ele>250.92</ele>
        <time>2018-09-12T07:57:44Z</time>
      </trkpt>
      <trkpt lat="47.6904" lon="6.16396">
        <ele>252.1</ele>
        <time>2018-09-12T07:57:46Z</time>
      </trkpt>
      <trkpt lat="47.69047" lon="6.16397">
        <ele>253.12</ele>
        <time>2018-09-12T07:57:48Z</time>
      </trkpt>
      <trkpt lat="47.69053" lon="6.16398">
        <ele>253.49</ele>
        <time>2018-09-12T07:57:49Z</time>
      </trkpt>
      <trkpt lat="47.69059" lon="6.16398">
        <ele>253.8</ele>
        <time>2018-09-12T07:57:50Z</time>
      </trkpt>
      <trkpt lat="47.69066" lon="6.164">
        <ele>254.05</ele>
        <time>2018-09-12T07:57:51Z</time>
      </trkpt>
      <trkpt lat="47.69073" lon="6.16403">
        <ele>254.24</ele>
        <time>2018-09-12T07:57:52Z</time>
      </trkpt>
      <trkpt lat="47.69081" lon="6.16405">
        <ele>254.4</ele>
        <time>2018-09-12T07:57:53Z</time>
      </trkpt>
      <trkpt lat="47.69089" lon="6.16407">
        <ele>254.53</ele>
        <time>2018-09-12T07:57:54Z</time>
      </trkpt>
      <trkpt lat="47.69096" lon="6.16408">
        <ele>254.63</ele>
        <time>2018-09-12T07:57:55Z</time>
      </trkpt>
      <trkpt lat="47.69104" lon="6.1641">
        <ele>254.7</ele>
        <time>2018-09-12T07:57:56Z</time>
      </trkpt>
      <trkpt lat="47.69112" lon="6.16411">
        <ele>254.75</ele>
        <time>2018-09-12T07:57:57Z</time>
      </trkpt>
      <trkpt lat="47.69121" lon="6.16412">
        <ele>254.78</ele>
        <time>2018-09-12T07:57:58Z</time>
      </trkpt>
      <trkpt lat="47.6913" lon="6.16414">
        <ele>254.79</ele>
        <time>2018-09-12T07:57:59Z</time>
      </trkpt>
      <trkpt lat="47.69138" lon="6.16416">
        <ele>254.78</ele>
        <time>2018-09-12T07:58:00Z</time>
      </trkpt>
      <trkpt lat="47.69147" lon="6.16418">
        <ele>254.76</ele>
        <time>2018-09-12T07:58:01Z</time>
      </trkpt>
      <trkpt lat="47.69155" lon="6.16419">
        <ele>254.72</ele>
        <time>2018-09-12T07:58:02Z</time>
      </trkpt>
      <trkpt lat="47.69164" lon="6.1642">
        <ele>254.68</ele>
        <time>2018-09-12T07:58:03Z</time>
      </trkpt>
      <trkpt lat="47.69172" lon="6.16421">
        <ele>254.66</ele>
        <time>2018-09-12T07:58:04Z</time>
      </trkpt>
      <trkpt lat="47.6918" lon="6.1642">
        <ele>254.67</ele>
        <time>2018-09-12T07:58:05Z</time>
      </trkpt>
      <trkpt lat="47.69187" lon="6.16419">
        <ele>254.69</ele>
        <time>2018-09-12T07:58:06Z</time>
      </trkpt>
      <trkpt lat="47.69195" lon="6.16417">
        <ele>254.76</ele>
        <time>2018-09-12T07:58:07Z</time>
      </trkpt>
      <trkpt lat="47.69202" lon="6.16416">
        <ele>254.83</ele>
        <time>2018-09-12T07:58:08Z</time>
      </trkpt>
      <trkpt lat="47.69208" lon="6.16413">
        <ele>254.88</ele>
        <time>2018-09-12T07:58:09Z</time>
      </trkpt>
      <trkpt lat="47.69214" lon="6.16411">
        <ele>254.92</ele>
        <time>2018-09-12T07:58:10Z</time>
      </trkpt>
      <trkpt lat="47.6922" lon="6.1641">
        <ele>254.97</ele>
        <time>2018-09-12T07:58:11Z</time>
      </trkpt>
      <trkpt lat="47.69225" lon="6.16408">
        <ele>255.02</ele>
        <time>2018-09-12T07:58:12Z</time>
      </trkpt>
      <trkpt lat="47.69231" lon="6.16407">
        <ele>255.06</ele>
        <time>2018-09-12T07:58:13Z</time>
      </trkpt>
      <trkpt lat="47.69237" lon="6.16406">
        <ele>255.07</ele>
        <time>2018-09-12T07:58:14Z</time>
      </trkpt>
      <trkpt lat="47.69243" lon="6.16405">
        <ele>255.05</ele>
        <time>2018-09-12T07:58:15Z</time>
      </trkpt>
      <trkpt lat="47.69248" lon="6.16403">
        <ele>255.04</ele>
        <time>2018-09-12T07:58:16Z</time>
      </trkpt>
      <trkpt lat="47.69254" lon="6.16401">
        <ele>255.05</ele>
        <time>2018-09-12T07:58:17Z</time>
      </trkpt>
      <trkpt lat="47.69259" lon="6.16398">
        <ele>255.06</ele>
        <time>2018-09-12T07:58:18Z</time>
      </trkpt>
      <trkpt lat="47.69264" lon="6.16396">
        <ele>255.07</ele>
        <time>2018-09-12T07:58:19Z</time>
      </trkpt>
      <trkpt lat="47.6927" lon="6.16393">
        <ele>255.08</ele>
        <time>2018-09-12T07:58:20Z</time>
      </trkpt>
      <trkpt lat="47.69275" lon="6.1639">
        <ele>255.14</ele>
        <time>2018-09-12T07:58:21Z</time>
      </trkpt>
      <trkpt lat="47.6928" lon="6.16386">
        <ele>255.2</ele>
        <time>2018-09-12T07:58:22Z</time>
      </trkpt>
      <trkpt lat="47.69284" lon="6.16382">
        <ele>255.27</ele>
        <time>2018-09-12T07:58:23Z</time>
      </trkpt>
      <trkpt lat="47.69289" lon="6.16379">
        <ele>255.32</ele>
        <time>2018-09-12T07:58:24Z</time>
      </trkpt>
      <trkpt lat="47.69293" lon="6.16376">
        <ele>255.35</ele>
        <time>2018-09-12T07:58:25Z</time>
      </trkpt>
      <trkpt lat="47.69298" lon="6.16372">
        <ele>255.35</ele>
        <time>2018-09-12T07:58:26Z</time>
      </trkpt>
      <trkpt lat="47.69302" lon="6.16369">
        <ele>255.34</ele>
        <time>2018-09-12T07:58:27Z</time>
      </trkpt>
      <trkpt lat="47.69306" lon="6.16365">
        <ele>255.31</ele>
        <time>2018-09-12T07:58:28Z</time>
      </trkpt>
      <trkpt lat="47.69311" lon="6.16362">
        <ele>255.29</ele>
        <time>2018-09-12T07:58:29Z</time>
      </trkpt>
      <trkpt lat="47.69315" lon="6.16359">
        <ele>255.27</ele>
        <time>2018-09-12T07:58:30Z</time>
      </trkpt>
      <trkpt lat="47.69319" lon="6.16355">
        <ele>255.24</ele>
        <time>2018-09-12T07:58:31Z</time>
      </trkpt>
      <trkpt lat="47.69323" lon="6.16351">
        <ele>255.21</ele>
        <time>2018-09-12T07:58:32Z</time>
      </trkpt>
      <trkpt lat="47.69328" lon="6.16348">
        <ele>255.16</ele>
        <time>2018-09-12T07:58:33Z</time>
      </trkpt>
      <trkpt lat="47.69333" lon="6.16343">
        <ele>255.13</ele>
        <time>2018-09-12T07:58:34Z</time>
      </trkpt>
      <trkpt lat="47.69337" lon="6.1634">
        <ele>255.15</ele>
        <time>2018-09-12T07:58:35Z</time>
      </trkpt>
      <trkpt lat="47.69342" lon="6.16336">
        <ele>255.21</ele>
        <time>2018-09-12T07:58:36Z</time>
      </trkpt>
      <trkpt lat="47.69346" lon="6.16332">
        <ele>255.27</ele>
        <time>2018-09-12T07:58:37Z</time>
      </trkpt>
      <trkpt lat="47.69351" lon="6.16329">
        <ele>255.34</ele>
        <time>2018-09-12T07:58:38Z</time>
      </trkpt>
      <trkpt lat="47.69355" lon="6.16325">
        <ele>255.43</ele>
        <time>2018-09-12T07:58:39Z</time>
      </trkpt>
      <trkpt lat="47.69359" lon="6.16322">
        <ele>255.55</ele>
        <time>2018-09-12T07:58:40Z</time>
      </trkpt>
      <trkpt lat="47.69366" lon="6.16316">
        <ele>255.85</ele>
        <time>2018-09-12T07:58:42Z</time>
      </trkpt>
      <trkpt lat="47.69372" lon="6.1631">
        <ele>255.92</ele>
        <time>2018-09-12T07:58:44Z</time>
      </trkpt>
      <trkpt lat="47.69377" lon="6.16306">
        <ele>255.98</ele>
        <time>2018-09-12T07:58:47Z</time>
      </trkpt>
      <trkpt lat="47.69382" lon="6.16303">
        <ele>256.04</ele>
        <time>2018-09-12T07:58:49Z</time>
      </trkpt>
      <trkpt lat="47.69387" lon="6.16299">
        <ele>256.12</ele>
        <time>2018-09-12T07:58:51Z</time>
      </trkpt>
      <trkpt lat="47.69392" lon="6.16296">
        <ele>256.22</ele>
        <time>2018-09-12T07:58:53Z</time>
      </trkpt>
      <trkpt lat="47.69397" lon="6.16294">
        <ele>256.33</ele>
        <time>2018-09-12T07:58:55Z</time>
      </trkpt>
      <trkpt lat="47.69401" lon="6.16293">
        <ele>256.45</ele>
        <time>2018-09-12T07:58:57Z</time>
      </trkpt>
      <trkpt lat="47.69408" lon="6.16293">
        <ele>256.62</ele>
        <time>2018-09-12T07:59:00Z</time>
      </trkpt>
      <trkpt lat="47.69414" lon="6.16295">
        <ele>256.79</ele>
        <time>2018-09-12T07:59:03Z</time>
      </trkpt>
      <trkpt lat="47.69418" lon="6.16296">
        <ele>256.9</ele>
        <time>2018-09-12T07:59:05Z</time>
      </trkpt>
      <trkpt lat="47.69423" lon="6.16298">
        <ele>257.03</ele>
        <time>2018-09-12T07:59:07Z</time>
      </trkpt>
      <trkpt lat="47.69428" lon="6.16299">
        <ele>257.16</ele>
        <time>2018-09-12T07:59:09Z</time>
      </trkpt>
      <trkpt lat="47.69433" lon="6.163">
        <ele>257.28</ele>
        <time>2018-09-12T07:59:11Z</time>
      </trkpt>
      <trkpt lat="47.69437" lon="6.16303">
        <ele>257.41</ele>
        <time>2018-09-12T07:59:13Z</time>
      </trkpt>
      <trkpt lat="47.69442" lon="6.16305">
        <ele>257.55</ele>
        <time>2018-09-12T07:59:15Z</time>
      </trkpt>
      <trkpt lat="47.69446" lon="6.16306">
        <ele>257.67</ele>
        <time>2018-09-12T07:59:17Z</time>
      </trkpt>
      <trkpt lat="47.69451" lon="6.16307">
        <ele>257.8</ele>
        <time>2018-09-12T07:59:19Z</time>
      </trkpt>
      <trkpt lat="47.69457" lon="6.16307">
        <ele>257.92</ele>
        <time>2018-09-12T07:59:21Z</time>
      </trkpt>
      <trkpt lat="47.69462" lon="6.16305">
        <ele>258.05</ele>
        <time>2018-09-12T07:59:23Z</time>
      </trkpt>
      <trkpt lat="47.69467" lon="6.16303">
        <ele>258.17</ele>
        <time>2018-09-12T07:59:25Z</time>
      </trkpt>
      <trkpt lat="47.69471" lon="6.16299">
        <ele>258.28</ele>
        <time>2018-09-12T07:59:27Z</time>
      </trkpt>
      <trkpt lat="47.69476" lon="6.16295">
        <ele>258.4</ele>
        <time>2018-09-12T07:59:29Z</time>
      </trkpt>
      <trkpt lat="47.6948" lon="6.1629">
        <ele>258.51</ele>
        <time>2018-09-12T07:59:31Z</time>
      </trkpt>
      <trkpt lat="47.69484" lon="6.16285">
        <ele>258.62</ele>
        <time>2018-09-12T07:59:33Z</time>
      </trkpt>
      <trkpt lat="47.69489" lon="6.1628">
        <ele>258.72</ele>
        <time>2018-09-12T07:59:35Z</time>
      </trkpt>
      <trkpt lat="47.69493" lon="6.16274">
        <ele>258.82</ele>
        <time>2018-09-12T07:59:37Z</time>
      </trkpt>
      <trkpt lat="47.69498" lon="6.16269">
        <ele>258.93</ele>
        <time>2018-09-12T07:59:39Z</time>
      </trkpt>
      <trkpt lat="47.69502" lon="6.16264">
        <ele>259.03</ele>
        <time>2018-09-12T07:59:41Z</time>
      </trkpt>
      <trkpt lat="47.69506" lon="6.16259">
        <ele>259.13</ele>
        <time>2018-09-12T07:59:43Z</time>
      </trkpt>
      <trkpt lat="47.69511" lon="6.16255">
        <ele>259.23</ele>
        <time>2018-09-12T07:59:45Z</time>
      </trkpt>
      <trkpt lat="47.69514" lon="6.1625">
        <ele>259.33</ele>
        <time>2018-09-12T07:59:47Z</time>
      </trkpt>
      <trkpt lat="47.69518" lon="6.16245">
        <ele>259.44</ele>
        <time>2018-09-12T07:59:49Z</time>
      </trkpt>
      <trkpt lat="47.69522" lon="6.16241">
        <ele>259.54</ele>
        <time>2018-09-12T07:59:51Z</time>
      </trkpt>
      <trkpt lat="47.69526" lon="6.16236">
        <ele>259.63</ele>
        <time>2018-09-12T07:59:53Z</time>
      </trkpt>
      <trkpt lat="47.6953" lon="6.16232">
        <ele>259.73</ele>
        <time>2018-09-12T07:59:55Z</time>
      </trkpt>
      <trkpt lat="47.69535" lon="6.16226">
        <ele>259.88</ele>
        <time>2018-09-12T07:59:58Z</time>
      </trkpt>
      <trkpt lat="47.69539" lon="6.16221">
        <ele>260.02</ele>
        <time>2018-09-12T08:00:01Z</time>
      </trkpt>
      <trkpt lat="47.69544" lon="6.16216">
        <ele>260.17</ele>
        <time>2018-09-12T08:00:04Z</time>
      </trkpt>
      <trkpt lat="47.69549" lon="6.16211">
        <ele>260.31</ele>
        <time>2018-09-12T08:00:07Z</time>
      </trkpt>
      <trkpt lat="47.69554" lon="6.16206">
        <ele>260.45</ele>
        <time>2018-09-12T08:00:10Z</time>
      </trkpt>
      <trkpt lat="47.69559" lon="6.162">
        <ele>260.59</ele>
        <time>2018-09-12T08:00:13Z</time>
      </trkpt>
      <trkpt lat="47.69563" lon="6.16194">
        <ele>260.73</ele>
        <time>2018-09-12T08:00:16Z</time>
      </trkpt>
      <trkpt lat="47.69568" lon="6.1619">
        <ele>260.87</ele>
        <time>2018-09-12T08:00:19Z</time>
      </trkpt>
      <trkpt lat="47.69573" lon="6.16186">
        <ele>261.01</ele>
        <time>2018-09-12T08:00:22Z</time>
      </trkpt>
      <trkpt lat="47.69578" lon="6.16182">
        <ele>261.15</ele>
        <time>2018-09-12T08:00:25Z</time>
      </trkpt>
      <trkpt lat="47.69584" lon="6.16177">
        <ele>261.28</ele>
        <time>2018-09-12T08:00:28Z</time>
      </trkpt>
      <trkpt lat="47.69588" lon="6.16174">
        <ele>261.37</ele>
        <time>2018-09-12T08:00:30Z</time>
      </trkpt>
      <trkpt lat="47.69592" lon="6.16171">
        <ele>261.46</ele>
        <time>2018-09-12T08:00:32Z</time>
      </trkpt>
      <trkpt lat="47.69598" lon="6.16166">
        <ele>261.59</ele>
        <time>2018-09-12T08:00:35Z</time>
      </trkpt>
      <trkpt lat="47.69603" lon="6.16163">
        <ele>261.72</ele>
        <time>2018-09-12T08:00:38Z</time>
      </trkpt>
      <trkpt lat="47.69608" lon="6.16159">
        <ele>261.85</ele>
        <time>2018-09-12T08:00:41Z</time>
      </trkpt>
      <trkpt lat="47.69614" lon="6.16156">
        <ele>261.98</ele>
        <time>2018-09-12T08:00:44Z</time>
      </trkpt>
      <trkpt lat="47.6962" lon="6.16152">
        <ele>262.1</ele>
        <time>2018-09-12T08:00:47Z</time>
      </trkpt>
      <trkpt lat="47.69624" lon="6.16149">
        <ele>262.19</ele>
        <time>2018-09-12T08:00:49Z</time>
      </trkpt>
      <trkpt lat="47.69629" lon="6.16145">
        <ele>262.27</ele>
        <time>2018-09-12T08:00:51Z</time>
      </trkpt>
      <trkpt lat="47.69635" lon="6.16142">
        <ele>262.35</ele>
        <time>2018-09-12T08:00:53Z</time>
      </trkpt>
      <trkpt lat="47.6964" lon="6.16138">
        <ele>262.68</ele>
        <time>2018-09-12T08:00:55Z</time>
      </trkpt>
      <trkpt lat="47.69646" lon="6.16133">
        <ele>263.26</ele>
        <time>2018-09-12T08:00:57Z</time>
      </trkpt>
      <trkpt lat="47.69654" lon="6.16127">
        <ele>263.67</ele>
        <time>2018-09-12T08:00:59Z</time>
      </trkpt>
      <trkpt lat="47.69661" lon="6.16121">
        <ele>263.95</ele>
        <time>2018-09-12T08:01:01Z</time>
      </trkpt>
      <trkpt lat="47.69665" lon="6.16118">
        <ele>264.05</ele>
        <time>2018-09-12T08:01:02Z</time>
      </trkpt>
      <trkpt lat="47.69678" lon="6.16107">
        <ele>264.13</ele>
        <time>2018-09-12T08:01:03Z</time>
      </trkpt>
      <trkpt lat="47.69683" lon="6.16102">
        <ele>264.2</ele>
        <time>2018-09-12T08:01:04Z</time>
      </trkpt>
      <trkpt lat="47.69687" lon="6.16098">
        <ele>264.25</ele>
        <time>2018-09-12T08:01:05Z</time>
      </trkpt>
      <trkpt lat="47.69692" lon="6.16093">
        <ele>264.31</ele>
        <time>2018-09-12T08:01:06Z</time>
      </trkpt>
      <trkpt lat="47.69697" lon="6.16088">
        <ele>264.36</ele>
        <time>2018-09-12T08:01:07Z</time>
      </trkpt>
      <trkpt lat="47.69701" lon="6.16084">
        <ele>264.41</ele>
        <time>2018-09-12T08:01:08Z</time>
      </trkpt>
      <trkpt lat="47.69705" lon="6.1608">
        <ele>264.45</ele>
        <time>2018-09-12T08:01:09Z</time>
      </trkpt>
      <trkpt lat="47.69712" lon="6.16071">
        <ele>264.53</ele>
        <time>2018-09-12T08:01:11Z</time>
      </trkpt>
      <trkpt lat="47.69716" lon="6.16067">
        <ele>264.56</ele>
        <time>2018-09-12T08:01:12Z</time>
      </trkpt>
      <trkpt lat="47.6972" lon="6.16062">
        <ele>264.58</ele>
        <time>2018-09-12T08:01:13Z</time>
      </trkpt>
      <trkpt lat="47.69724" lon="6.16058">
        <ele>264.61</ele>
        <time>2018-09-12T08:01:14Z</time>
      </trkpt>
      <trkpt lat="47.69728" lon="6.16053">
        <ele>264.63</ele>
        <time>2018-09-12T08:01:15Z</time>
      </trkpt>
      <trkpt lat="47.69732" lon="6.16049">
        <ele>264.65</ele>
        <time>2018-09-12T08:01:16Z</time>
      </trkpt>
      <trkpt lat="47.69736" lon="6.16045">
        <ele>264.67</ele>
        <time>2018-09-12T08:01:17Z</time>
      </trkpt>
      <trkpt lat="47.6974" lon="6.16041">
        <ele>264.7</ele>
        <time>2018-09-12T08:01:18Z</time>
      </trkpt>
      <trkpt lat="47.69744" lon="6.16038">
        <ele>264.72</ele>
        <time>2018-09-12T08:01:19Z</time>
      </trkpt>
      <trkpt lat="47.69749" lon="6.16036">
        <ele>264.75</ele>
        <time>2018-09-12T08:01:20Z</time>
      </trkpt>
      <trkpt lat="47.69753" lon="6.16034">
        <ele>264.77</ele>
        <time>2018-09-12T08:01:21Z</time>
      </trkpt>
      <trkpt lat="47.69762" lon="6.16033">
        <ele>264.82</ele>
        <time>2018-09-12T08:01:23Z</time>
      </trkpt>
      <trkpt lat="47.6977" lon="6.16036">
        <ele>264.83</ele>
        <time>2018-09-12T08:01:25Z</time>
      </trkpt>
      <trkpt lat="47.69776" lon="6.1604">
        <ele>264.84</ele>
        <time>2018-09-12T08:01:27Z</time>
      </trkpt>
      <trkpt lat="47.69781" lon="6.16044">
        <ele>264.85</ele>
        <time>2018-09-12T08:01:29Z</time>
      </trkpt>
      <trkpt lat="47.69786" lon="6.16048">
        <ele>264.85</ele>
        <time>2018-09-12T08:01:31Z</time>
      </trkpt>
      <trkpt lat="47.69792" lon="6.16053">
        <ele>264.86</ele>
        <time>2018-09-12T08:01:33Z</time>
      </trkpt>
      <trkpt lat="47.69797" lon="6.16057">
        <ele>264.88</ele>
        <time>2018-09-12T08:01:36Z</time>
      </trkpt>
      <trkpt lat="47.69802" lon="6.16062">
        <ele>264.91</ele>
        <time>2018-09-12T08:01:39Z</time>
      </trkpt>
      <trkpt lat="47.69806" lon="6.16066">
        <ele>264.93</ele>
        <time>2018-09-12T08:01:41Z</time>
      </trkpt>
      <trkpt lat="47.6981" lon="6.1607">
        <ele>264.96</ele>
        <time>2018-09-12T08:01:43Z</time>
      </trkpt>
      <trkpt lat="47.69814" lon="6.16074">
        <ele>264.99</ele>
        <time>2018-09-12T08:01:45Z</time>
      </trkpt>
      <trkpt lat="47.69819" lon="6.16078">
        <ele>265.02</ele>
        <time>2018-09-12T08:01:47Z</time>
      </trkpt>
      <trkpt lat="47.69824" lon="6.16082">
        <ele>265.05</ele>
        <time>2018-09-12T08:01:49Z</time>
      </trkpt>
      <trkpt lat="47.69829" lon="6.16087">
        <ele>265.09</ele>
        <time>2018-09-12T08:01:51Z</time>
      </trkpt>
      <trkpt lat="47.69833" lon="6.16092">
        <ele>265.12</ele>
        <time>2018-09-12T08:01:53Z</time>
      </trkpt>
      <trkpt lat="47.69838" lon="6.16098">
        <ele>265.16</ele>
        <time>2018-09-12T08:01:55Z</time>
      </trkpt>
      <trkpt lat="47.69842" lon="6.16103">
        <ele>265.2</ele>
        <time>2018-09-12T08:01:57Z</time>
      </trkpt>
      <trkpt lat="47.69846" lon="6.16108">
        <ele>265.24</ele>
        <time>2018-09-12T08:01:59Z</time>
      </trkpt>
      <trkpt lat="47.6985" lon="6.16113">
        <ele>265.28</ele>
        <time>2018-09-12T08:02:01Z</time>
      </trkpt>
      <trkpt lat="47.69853" lon="6.16119">
        <ele>265.33</ele>
        <time>2018-09-12T08:02:03Z</time>
      </trkpt>
      <trkpt lat="47.69857" lon="6.16125">
        <ele>265.37</ele>
        <time>2018-09-12T08:02:05Z</time>
      </trkpt>
      <trkpt lat="47.69861" lon="6.16131">
        <ele>265.41</ele>
        <time>2018-09-12T08:02:07Z</time>
      </trkpt>
      <trkpt lat="47.69864" lon="6.16137">
        <ele>265.46</ele>
        <time>2018-09-12T08:02:09Z</time>
      </trkpt>
      <trkpt lat="47.69868" lon="6.16143">
        <ele>265.5</ele>
        <time>2018-09-12T08:02:11Z</time>
      </trkpt>
      <trkpt lat="47.69872" lon="6.16148">
        <ele>265.55</ele>
        <time>2018-09-12T08:02:13Z</time>
      </trkpt>
      <trkpt lat="47.69876" lon="6.16153">
        <ele>265.59</ele>
        <time>2018-09-12T08:02:15Z</time>
      </trkpt>
      <trkpt lat="47.6988" lon="6.16159">
        <ele>265.64</ele>
        <time>2018-09-12T08:02:17Z</time>
      </trkpt>
      <trkpt lat="47.69883" lon="6.16165">
        <ele>265.69</ele>
        <time>2018-09-12T08:02:19Z</time>
      </trkpt>
      <trkpt lat="47.69887" lon="6.16171">
        <ele>265.74</ele>
        <time>2018-09-12T08:02:21Z</time>
      </trkpt>
      <trkpt lat="47.6989" lon="6.16178">
        <ele>265.78</ele>
        <time>2018-09-12T08:02:23Z</time>
      </trkpt>
      <trkpt lat="47.69894" lon="6.16185">
        <ele>265.83</ele>
        <time>2018-09-12T08:02:25Z</time>
      </trkpt>
      <trkpt lat="47.69898" lon="6.16192">
        <ele>265.88</ele>
        <time>2018-09-12T08:02:27Z</time>
      </trkpt>
      <trkpt lat="47.69901" lon="6.16198">
        <ele>265.93</ele>
        <time>2018-09-12T08:02:29Z</time>
      </trkpt>
      <trkpt lat="47.69905" lon="6.16205">
        <ele>265.98</ele>
        <time>2018-09-12T08:02:31Z</time>
      </trkpt>
      <trkpt lat="47.69908" lon="6.16211">
        <ele>266.03</ele>
        <time>2018-09-12T08:02:33Z</time>
      </trkpt>
      <trkpt lat="47.69911" lon="6.16217">
        <ele>266.08</ele>
        <time>2018-09-12T08:02:35Z</time>
      </trkpt>
      <trkpt lat="47.69914" lon="6.16224">
        <ele>266.14</ele>
        <time>2018-09-12T08:02:37Z</time>
      </trkpt>
      <trkpt lat="47.69917" lon="6.1623">
        <ele>266.19</ele>
        <time>2018-09-12T08:02:39Z</time>
      </trkpt>
      <trkpt lat="47.6992" lon="6.16237">
        <ele>266.24</ele>
        <time>2018-09-12T08:02:41Z</time>
      </trkpt>
      <trkpt lat="47.69922" lon="6.16243">
        <ele>266.3</ele>
        <time>2018-09-12T08:02:43Z</time>
      </trkpt>
      <trkpt lat="47.69925" lon="6.1625">
        <ele>266.35</ele>
        <time>2018-09-12T08:02:45Z</time>
      </trkpt>
      <trkpt lat="47.69928" lon="6.16257">
        <ele>266.41</ele>
        <time>2018-09-12T08:02:47Z</time>
      </trkpt>
      <trkpt lat="47.69931" lon="6.16264">
        <ele>266.46</ele>
        <time>2018-09-12T08:02:49Z</time>
      </trkpt>
      <trkpt lat="47.69933" lon="6.1627">
        <ele>266.52</ele>
        <time>2018-09-12T08:02:51Z</time>
      </trkpt>
      <trkpt lat="47.69936" lon="6.16277">
        <ele>266.57</ele>
        <time>2018-09-12T08:02:53Z</time>
      </trkpt>
      <trkpt lat="47.69939" lon="6.16283">
        <ele>266.63</ele>
        <time>2018-09-12T08:02:55Z</time>
      </trkpt>
      <trkpt lat="47.69943" lon="6.16289">
        <ele>266.68</ele>
        <time>2018-09-12T08:02:57Z</time>
      </trkpt>
      <trkpt lat="47.69947" lon="6.16294">
        <ele>266.74</ele>
        <time>2018-09-12T08:02:59Z</time>
      </trkpt>
      <trkpt lat="47.69951" lon="6.16298">
        <ele>266.79</ele>
        <time>2018-09-12T08:03:01Z</time>
      </trkpt>
      <trkpt lat="47.69956" lon="6.163">
        <ele>266.84</ele>
        <time>2018-09-12T08:03:03Z</time>
      </trkpt>
      <trkpt lat="47.69961" lon="6.16301">
        <ele>266.9</ele>
        <time>2018-09-12T08:03:05Z</time>
      </trkpt>
      <trkpt lat="47.69967" lon="6.16302">
        <ele>266.95</ele>
        <time>2018-09-12T08:03:07Z</time>
      </trkpt>
      <trkpt lat="47.69972" lon="6.16303">
        <ele>267</ele>
        <time>2018-09-12T08:03:09Z</time>
      </trkpt>
      <trkpt lat="47.69977" lon="6.16303">
        <ele>267.05</ele>
        <time>2018-09-12T08:03:11Z</time>
      </trkpt>
      <trkpt lat="47.69982" lon="6.16303">
        <ele>267.1</ele>
        <time>2018-09-12T08:03:13Z</time>
      </trkpt>
      <trkpt lat="47.69987" lon="6.16302">
        <ele>267.15</ele>
        <time>2018-09-12T08:03:15Z</time>
      </trkpt>
      <trkpt lat="47.69991" lon="6.16301">
        <ele>267.2</ele>
        <time>2018-09-12T08:03:17Z</time>
      </trkpt>
      <trkpt lat="47.69996" lon="6.16301">
        <ele>267.25</ele>
        <time>2018-09-12T08:03:19Z</time>
      </trkpt>
      <trkpt lat="47.70001" lon="6.16301">
        <ele>267.29</ele>
        <time>2018-09-12T08:03:21Z</time>
      </trkpt>
      <trkpt lat="47.70006" lon="6.163">
        <ele>267.34</ele>
        <time>2018-09-12T08:03:23Z</time>
      </trkpt>
      <trkpt lat="47.70011" lon="6.163">
        <ele>267.38</ele>
        <time>2018-09-12T08:03:25Z</time>
      </trkpt>
      <trkpt lat="47.70017" lon="6.16299">
        <ele>267.44</ele>
        <time>2018-09-12T08:03:28Z</time>
      </trkpt>
      <trkpt lat="47.70023" lon="6.16299">
        <ele>267.5</ele>
        <time>2018-09-12T08:03:31Z</time>
      </trkpt>
      <trkpt lat="47.7003" lon="6.16299">
        <ele>267.56</ele>
        <time>2018-09-12T08:03:34Z</time>
      </trkpt>
      <trkpt lat="47.70035" lon="6.16298">
        <ele>267.6</ele>
        <time>2018-09-12T08:03:36Z</time>
      </trkpt>
      <trkpt lat="47.7004" lon="6.16297">
        <ele>267.64</ele>
        <time>2018-09-12T08:03:38Z</time>
      </trkpt>
      <trkpt lat="47.70045" lon="6.16297">
        <ele>267.68</ele>
        <time>2018-09-12T08:03:40Z</time>
      </trkpt>
      <trkpt lat="47.70049" lon="6.16296">
        <ele>267.73</ele>
        <time>2018-09-12T08:03:42Z</time>
      </trkpt>
      <trkpt lat="47.70055" lon="6.16296">
        <ele>267.79</ele>
        <time>2018-09-12T08:03:45Z</time>
      </trkpt>
      <trkpt lat="47.70061" lon="6.16295">
        <ele>267.85</ele>
        <time>2018-09-12T08:03:48Z</time>
      </trkpt>
      <trkpt lat="47.70067" lon="6.16295">
        <ele>267.91</ele>
        <time>2018-09-12T08:03:51Z</time>
      </trkpt>
      <trkpt lat="47.70072" lon="6.16294">
        <ele>267.95</ele>
        <time>2018-09-12T08:03:53Z</time>
      </trkpt>
      <trkpt lat="47.70077" lon="6.16293">
        <ele>267.98</ele>
        <time>2018-09-12T08:03:55Z</time>
      </trkpt>
      <trkpt lat="47.70082" lon="6.16292">
        <ele>268.02</ele>
        <time>2018-09-12T08:03:57Z</time>
      </trkpt>
      <trkpt lat="47.70087" lon="6.16291">
        <ele>268.06</ele>
        <time>2018-09-12T08:03:59Z</time>
      </trkpt>
      <trkpt lat="47.70091" lon="6.16291">
        <ele>268.1</ele>
        <time>2018-09-12T08:04:01Z</time>
      </trkpt>
      <trkpt lat="47.70096" lon="6.16291">
        <ele>268.14</ele>
        <time>2018-09-12T08:04:03Z</time>
      </trkpt>
      <trkpt lat="47.70101" lon="6.16291">
        <ele>268.17</ele>
        <time>2018-09-12T08:04:05Z</time>
      </trkpt>
      <trkpt lat="47.70106" lon="6.16291">
        <ele>268.21</ele>
        <time>2018-09-12T08:04:07Z</time>
      </trkpt>
      <trkpt lat="47.70111" lon="6.1629">
        <ele>268.25</ele>
        <time>2018-09-12T08:04:09Z</time>
      </trkpt>
      <trkpt lat="47.70116" lon="6.1629">
        <ele>268.28</ele>
        <time>2018-09-12T08:04:11Z</time>
      </trkpt>
      <trkpt lat="47.70121" lon="6.16289">
        <ele>268.32</ele>
        <time>2018-09-12T08:04:13Z</time>
      </trkpt>
      <trkpt lat="47.70125" lon="6.16288">
        <ele>268.35</ele>
        <time>2018-09-12T08:04:15Z</time>
      </trkpt>
      <trkpt lat="47.7013" lon="6.16287">
        <ele>268.39</ele>
        <time>2018-09-12T08:04:17Z</time>
      </trkpt>
      <trkpt lat="47.70134" lon="6.16286">
        <ele>268.42</ele>
        <time>2018-09-12T08:04:19Z</time>
      </trkpt>
      <trkpt lat="47.7014" lon="6.16284">
        <ele>268.46</ele>
        <time>2018-09-12T08:04:21Z</time>
      </trkpt>
      <trkpt lat="47.70146" lon="6.16282">
        <ele>268.49</ele>
        <time>2018-09-12T08:04:23Z</time>
      </trkpt>
      <trkpt lat="47.7015" lon="6.16281">
        <ele>268.53</ele>
        <time>2018-09-12T08:04:25Z</time>
      </trkpt>
      <trkpt lat="47.70157" lon="6.1628">
        <ele>268.58</ele>
        <time>2018-09-12T08:04:28Z</time>
      </trkpt>
      <trkpt lat="47.70162" lon="6.16279">
        <ele>268.62</ele>
        <time>2018-09-12T08:04:30Z</time>
      </trkpt>
      <trkpt lat="47.70167" lon="6.16277">
        <ele>268.66</ele>
        <time>2018-09-12T08:04:32Z</time>
      </trkpt>
      <trkpt lat="47.70172" lon="6.16276">
        <ele>268.71</ele>
        <time>2018-09-12T08:04:34Z</time>
      </trkpt>
      <trkpt lat="47.70177" lon="6.16276">
        <ele>268.75</ele>
        <time>2018-09-12T08:04:36Z</time>
      </trkpt>
      <trkpt lat="47.70182" lon="6.16275">
        <ele>268.8</ele>
        <time>2018-09-12T08:04:38Z</time>
      </trkpt>
      <trkpt lat="47.70186" lon="6.16274">
        <ele>268.85</ele>
        <time>2018-09-12T08:04:40Z</time>
      </trkpt>
      <trkpt lat="47.70191" lon="6.16274">
        <ele>268.9</ele>
        <time>2018-09-12T08:04:42Z</time>
      </trkpt>
      <trkpt lat="47.70196" lon="6.16273">
        <ele>268.95</ele>
        <time>2018-09-12T08:04:44Z</time>
      </trkpt>
      <trkpt lat="47.70201" lon="6.16273">
        <ele>269.01</ele>
        <time>2018-09-12T08:04:46Z</time>
      </trkpt>
      <trkpt lat="47.70206" lon="6.16272">
        <ele>269.07</ele>
        <time>2018-09-12T08:04:48Z</time>
      </trkpt>
      <trkpt lat="47.70211" lon="6.16271">
        <ele>269.12</ele>
        <time>2018-09-12T08:04:50Z</time>
      </trkpt>
      <trkpt lat="47.70216" lon="6.1627">
        <ele>269.18</ele>
        <time>2018-09-12T08:04:52Z</time>
      </trkpt>
      <trkpt lat="47.70221" lon="6.1627">
        <ele>269.24</ele>
        <time>2018-09-12T08:04:54Z</time>
      </trkpt>
      <trkpt lat="47.70227" lon="6.16269">
        <ele>269.3</ele>
        <time>2018-09-12T08:04:56Z</time>
      </trkpt>
      <trkpt lat="47.70234" lon="6.16269">
        <ele>269.36</ele>
        <time>2018-09-12T08:04:58Z</time>
      </trkpt>
      <trkpt lat="47.70238" lon="6.16269">
        <ele>269.42</ele>
        <time>2018-09-12T08:05:00Z</time>
      </trkpt>
      <trkpt lat="47.70243" lon="6.16268">
        <ele>269.48</ele>
        <time>2018-09-12T08:05:02Z</time>
      </trkpt>
      <trkpt lat="47.70248" lon="6.16268">
        <ele>269.54</ele>
        <time>2018-09-12T08:05:04Z</time>
      </trkpt>
      <trkpt lat="47.70253" lon="6.16267">
        <ele>269.6</ele>
        <time>2018-09-12T08:05:06Z</time>
      </trkpt>
      <trkpt lat="47.70258" lon="6.16266">
        <ele>269.67</ele>
        <time>2018-09-12T08:05:08Z</time>
      </trkpt>
      <trkpt lat="47.70264" lon="6.16265">
        <ele>269.76</ele>
        <time>2018-09-12T08:05:11Z</time>
      </trkpt>
      <trkpt lat="47.7027" lon="6.16264">
        <ele>269.85</ele>
        <time>2018-09-12T08:05:14Z</time>
      </trkpt>
      <trkpt lat="47.70274" lon="6.16263">
        <ele>269.91</ele>
        <time>2018-09-12T08:05:16Z</time>
      </trkpt>
      <trkpt lat="47.70279" lon="6.16262">
        <ele>269.97</ele>
        <time>2018-09-12T08:05:18Z</time>
      </trkpt>
      <trkpt lat="47.70283" lon="6.1626">
        <ele>270.04</ele>
        <time>2018-09-12T08:05:20Z</time>
      </trkpt>
      <trkpt lat="47.70288" lon="6.16259">
        <ele>270.1</ele>
        <time>2018-09-12T08:05:22Z</time>
      </trkpt>
      <trkpt lat="47.70293" lon="6.16257">
        <ele>270.17</ele>
        <time>2018-09-12T08:05:24Z</time>
      </trkpt>
      <trkpt lat="47.70298" lon="6.16256">
        <ele>270.25</ele>
        <time>2018-09-12T08:05:26Z</time>
      </trkpt>
      <trkpt lat="47.70305" lon="6.16255">
        <ele>270.37</ele>
        <time>2018-09-12T08:05:29Z</time>
      </trkpt>
      <trkpt lat="47.70311" lon="6.16254">
        <ele>270.49</ele>
        <time>2018-09-12T08:05:32Z</time>
      </trkpt>
      <trkpt lat="47.70317" lon="6.16252">
        <ele>270.63</ele>
        <time>2018-09-12T08:05:35Z</time>
      </trkpt>
      <trkpt lat="47.70323" lon="6.16252">
        <ele>270.77</ele>
        <time>2018-09-12T08:05:38Z</time>
      </trkpt>
      <trkpt lat="47.70328" lon="6.16251">
        <ele>270.86</ele>
        <time>2018-09-12T08:05:40Z</time>
      </trkpt>
      <trkpt lat="47.70333" lon="6.1625">
        <ele>270.96</ele>
        <time>2018-09-12T08:05:42Z</time>
      </trkpt>
      <trkpt lat="47.70338" lon="6.16249">
        <ele>271.06</ele>
        <time>2018-09-12T08:05:44Z</time>
      </trkpt>
      <trkpt lat="47.70343" lon="6.16249">
        <ele>271.16</ele>
        <time>2018-09-12T08:05:46Z</time>
      </trkpt>
      <trkpt lat="47.70348" lon="6.16248">
        <ele>271.26</ele>
        <time>2018-09-12T08:05:48Z</time>
      </trkpt>
      <trkpt lat="47.70352" lon="6.16248">
        <ele>271.36</ele>
        <time>2018-09-12T08:05:50Z</time>
      </trkpt>
      <trkpt lat="47.70359" lon="6.16248">
        <ele>271.52</ele>
        <time>2018-09-12T08:05:53Z</time>
      </trkpt>
      <trkpt lat="47.70365" lon="6.16247">
        <ele>271.63</ele>
        <time>2018-09-12T08:05:55Z</time>
      </trkpt>
      <trkpt lat="47.7037" lon="6.16247">
        <ele>271.74</ele>
        <time>2018-09-12T08:05:57Z</time>
      </trkpt>
      <trkpt lat="47.70375" lon="6.16246">
        <ele>271.85</ele>
        <time>2018-09-12T08:05:59Z</time>
      </trkpt>
      <trkpt lat="47.70381" lon="6.16246">
        <ele>271.96</ele>
        <time>2018-09-12T08:06:01Z</time>
      </trkpt>
      <trkpt lat="47.70386" lon="6.16246">
        <ele>272.07</ele>
        <time>2018-09-12T08:06:03Z</time>
      </trkpt>
      <trkpt lat="47.70391" lon="6.16246">
        <ele>272.19</ele>
        <time>2018-09-12T08:06:05Z</time>
      </trkpt>
      <trkpt lat="47.70396" lon="6.16245">
        <ele>272.3</ele>
        <time>2018-09-12T08:06:07Z</time>
      </trkpt>
      <trkpt lat="47.70402" lon="6.16244">
        <ele>272.41</ele>
        <time>2018-09-12T08:06:09Z</time>
      </trkpt>
      <trkpt lat="47.70407" lon="6.16244">
        <ele>272.53</ele>
        <time>2018-09-12T08:06:11Z</time>
      </trkpt>
      <trkpt lat="47.70412" lon="6.16243">
        <ele>272.64</ele>
        <time>2018-09-12T08:06:13Z</time>
      </trkpt>
      <trkpt lat="47.70418" lon="6.16242">
        <ele>272.75</ele>
        <time>2018-09-12T08:06:15Z</time>
      </trkpt>
      <trkpt lat="47.70425" lon="6.1624">
        <ele>272.93</ele>
        <time>2018-09-12T08:06:18Z</time>
      </trkpt>
      <trkpt lat="47.70429" lon="6.1624">
        <ele>273.04</ele>
        <time>2018-09-12T08:06:20Z</time>
      </trkpt>
      <trkpt lat="47.70435" lon="6.16239">
        <ele>273.16</ele>
        <time>2018-09-12T08:06:22Z</time>
      </trkpt>
      <trkpt lat="47.7044" lon="6.16237">
        <ele>273.27</ele>
        <time>2018-09-12T08:06:24Z</time>
      </trkpt>
      <trkpt lat="47.70446" lon="6.16236">
        <ele>273.39</ele>
        <time>2018-09-12T08:06:26Z</time>
      </trkpt>
      <trkpt lat="47.70451" lon="6.16235">
        <ele>273.5</ele>
        <time>2018-09-12T08:06:28Z</time>
      </trkpt>
      <trkpt lat="47.70457" lon="6.16234">
        <ele>273.61</ele>
        <time>2018-09-12T08:06:30Z</time>
      </trkpt>
      <trkpt lat="47.70462" lon="6.16233">
        <ele>273.73</ele>
        <time>2018-09-12T08:06:32Z</time>
      </trkpt>
      <trkpt lat="47.70467" lon="6.16232">
        <ele>273.84</ele>
        <time>2018-09-12T08:06:34Z</time>
      </trkpt>
      <trkpt lat="47.70473" lon="6.16231">
        <ele>273.96</ele>
        <time>2018-09-12T08:06:36Z</time>
      </trkpt>
      <trkpt lat="47.70478" lon="6.1623">
        <ele>274.07</ele>
        <time>2018-09-12T08:06:38Z</time>
      </trkpt>
      <trkpt lat="47.70484" lon="6.16229">
        <ele>274.18</ele>
        <time>2018-09-12T08:06:40Z</time>
      </trkpt>
      <trkpt lat="47.7049" lon="6.16228">
        <ele>274.29</ele>
        <time>2018-09-12T08:06:42Z</time>
      </trkpt>
      <trkpt lat="47.70495" lon="6.16228">
        <ele>274.4</ele>
        <time>2018-09-12T08:06:44Z</time>
      </trkpt>
      <trkpt lat="47.705" lon="6.16227">
        <ele>274.51</ele>
        <time>2018-09-12T08:06:46Z</time>
      </trkpt>
      <trkpt lat="47.70507" lon="6.16227">
        <ele>274.61</ele>
        <time>2018-09-12T08:06:48Z</time>
      </trkpt>
      <trkpt lat="47.70512" lon="6.16227">
        <ele>274.72</ele>
        <time>2018-09-12T08:06:50Z</time>
      </trkpt>
      <trkpt lat="47.70517" lon="6.16226">
        <ele>274.82</ele>
        <time>2018-09-12T08:06:52Z</time>
      </trkpt>
      <trkpt lat="47.70522" lon="6.16225">
        <ele>274.92</ele>
        <time>2018-09-12T08:06:54Z</time>
      </trkpt>
      <trkpt lat="47.70528" lon="6.16225">
        <ele>275.02</ele>
        <time>2018-09-12T08:06:56Z</time>
      </trkpt>
      <trkpt lat="47.70533" lon="6.16224">
        <ele>275.13</ele>
        <time>2018-09-12T08:06:58Z</time>
      </trkpt>
      <trkpt lat="47.70538" lon="6.16223">
        <ele>275.23</ele>
        <time>2018-09-12T08:07:00Z</time>
      </trkpt>
      <trkpt lat="47.70542" lon="6.16223">
        <ele>275.33</ele>
        <time>2018-09-12T08:07:02Z</time>
      </trkpt>
      <trkpt lat="47.70549" lon="6.16222">
        <ele>275.44</ele>
        <time>2018-09-12T08:07:04Z</time>
      </trkpt>
      <trkpt lat="47.70556" lon="6.1622">
        <ele>275.55</ele>
        <time>2018-09-12T08:07:06Z</time>
      </trkpt>
      <trkpt lat="47.70563" lon="6.16219">
        <ele>275.66</ele>
        <time>2018-09-12T08:07:08Z</time>
      </trkpt>
      <trkpt lat="47.70568" lon="6.16218">
        <ele>275.78</ele>
        <time>2018-09-12T08:07:10Z</time>
      </trkpt>
      <trkpt lat="47.70574" lon="6.16216">
        <ele>275.9</ele>
        <time>2018-09-12T08:07:12Z</time>
      </trkpt>
      <trkpt lat="47.7058" lon="6.16215">
        <ele>276.08</ele>
        <time>2018-09-12T08:07:15Z</time>
      </trkpt>
      <trkpt lat="47.70585" lon="6.16212">
        <ele>276.21</ele>
        <time>2018-09-12T08:07:17Z</time>
      </trkpt>
      <trkpt lat="47.7059" lon="6.16212">
        <ele>276.41</ele>
        <time>2018-09-12T08:07:20Z</time>
      </trkpt>
      <trkpt lat="47.70595" lon="6.16211">
        <ele>276.54</ele>
        <time>2018-09-12T08:07:22Z</time>
      </trkpt>
      <trkpt lat="47.70601" lon="6.1621">
        <ele>276.74</ele>
        <time>2018-09-12T08:07:25Z</time>
      </trkpt>
      <trkpt lat="47.70606" lon="6.16209">
        <ele>276.87</ele>
        <time>2018-09-12T08:07:27Z</time>
      </trkpt>
      <trkpt lat="47.7061" lon="6.16209">
        <ele>277.01</ele>
        <time>2018-09-12T08:07:29Z</time>
      </trkpt>
      <trkpt lat="47.70617" lon="6.16209">
        <ele>277.21</ele>
        <time>2018-09-12T08:07:32Z</time>
      </trkpt>
      <trkpt lat="47.70622" lon="6.16208">
        <ele>277.35</ele>
        <time>2018-09-12T08:07:34Z</time>
      </trkpt>
      <trkpt lat="47.70628" lon="6.16207">
        <ele>277.55</ele>
        <time>2018-09-12T08:07:37Z</time>
      </trkpt>
      <trkpt lat="47.70633" lon="6.16207">
        <ele>277.69</ele>
        <time>2018-09-12T08:07:39Z</time>
      </trkpt>
      <trkpt lat="47.70639" lon="6.16207">
        <ele>277.9</ele>
        <time>2018-09-12T08:07:42Z</time>
      </trkpt>
      <trkpt lat="47.70643" lon="6.16207">
        <ele>278.04</ele>
        <time>2018-09-12T08:07:44Z</time>
      </trkpt>
      <trkpt lat="47.70648" lon="6.16206">
        <ele>278.17</ele>
        <time>2018-09-12T08:07:46Z</time>
      </trkpt>
      <trkpt lat="47.70653" lon="6.16206">
        <ele>278.38</ele>
        <time>2018-09-12T08:07:49Z</time>
      </trkpt>
      <trkpt lat="47.7066" lon="6.16205">
        <ele>278.58</ele>
        <time>2018-09-12T08:07:52Z</time>
      </trkpt>
      <trkpt lat="47.70665" lon="6.16205">
        <ele>278.78</ele>
        <time>2018-09-12T08:07:55Z</time>
      </trkpt>
      <trkpt lat="47.7067" lon="6.16204">
        <ele>278.92</ele>
        <time>2018-09-12T08:07:57Z</time>
      </trkpt>
      <trkpt lat="47.70675" lon="6.16203">
        <ele>279.06</ele>
        <time>2018-09-12T08:07:59Z</time>
      </trkpt>
      <trkpt lat="47.70681" lon="6.16202">
        <ele>279.2</ele>
        <time>2018-09-12T08:08:01Z</time>
      </trkpt>
      <trkpt lat="47.70686" lon="6.16202">
        <ele>279.35</ele>
        <time>2018-09-12T08:08:03Z</time>
      </trkpt>
      <trkpt lat="47.7069" lon="6.16201">
        <ele>279.5</ele>
        <time>2018-09-12T08:08:05Z</time>
      </trkpt>
      <trkpt lat="47.70697" lon="6.162">
        <ele>279.72</ele>
        <time>2018-09-12T08:08:08Z</time>
      </trkpt>
      <trkpt lat="47.70703" lon="6.16199">
        <ele>279.88</ele>
        <time>2018-09-12T08:08:10Z</time>
      </trkpt>
      <trkpt lat="47.70708" lon="6.16198">
        <ele>280.03</ele>
        <time>2018-09-12T08:08:12Z</time>
      </trkpt>
      <trkpt lat="47.70712" lon="6.16197">
        <ele>280.19</ele>
        <time>2018-09-12T08:08:14Z</time>
      </trkpt>
      <trkpt lat="47.70719" lon="6.16196">
        <ele>280.41</ele>
        <time>2018-09-12T08:08:17Z</time>
      </trkpt>
      <trkpt lat="47.70725" lon="6.16196">
        <ele>280.63</ele>
        <time>2018-09-12T08:08:20Z</time>
      </trkpt>
      <trkpt lat="47.70731" lon="6.16196">
        <ele>280.84</ele>
        <time>2018-09-12T08:08:23Z</time>
      </trkpt>
      <trkpt lat="47.70737" lon="6.16195">
        <ele>281.05</ele>
        <time>2018-09-12T08:08:26Z</time>
      </trkpt>
      <trkpt lat="47.70743" lon="6.16195">
        <ele>281.26</ele>
        <time>2018-09-12T08:08:29Z</time>
      </trkpt>
      <trkpt lat="47.70748" lon="6.16195">
        <ele>281.46</ele>
        <time>2018-09-12T08:08:32Z</time>
      </trkpt>
      <trkpt lat="47.70752" lon="6.16194">
        <ele>281.67</ele>
        <time>2018-09-12T08:08:35Z</time>
      </trkpt>
      <trkpt lat="47.70757" lon="6.16193">
        <ele>281.88</ele>
        <time>2018-09-12T08:08:38Z</time>
      </trkpt>
      <trkpt lat="47.70762" lon="6.16192">
        <ele>282.14</ele>
        <time>2018-09-12T08:08:42Z</time>
      </trkpt>
      <trkpt lat="47.70768" lon="6.16192">
        <ele>282.38</ele>
        <time>2018-09-12T08:08:46Z</time>
      </trkpt>
      <trkpt lat="47.70774" lon="6.16192">
        <ele>282.6</ele>
        <time>2018-09-12T08:08:50Z</time>
      </trkpt>
      <trkpt lat="47.70779" lon="6.16191">
        <ele>282.75</ele>
        <time>2018-09-12T08:08:53Z</time>
      </trkpt>
      <trkpt lat="47.70785" lon="6.16189">
        <ele>282.94</ele>
        <time>2018-09-12T08:08:57Z</time>
      </trkpt>
      <trkpt lat="47.7079" lon="6.16189">
        <ele>283.09</ele>
        <time>2018-09-12T08:09:00Z</time>
      </trkpt>
      <trkpt lat="47.70795" lon="6.16189">
        <ele>283.24</ele>
        <time>2018-09-12T08:09:03Z</time>
      </trkpt>
      <trkpt lat="47.708" lon="6.16188">
        <ele>283.38</ele>
        <time>2018-09-12T08:09:06Z</time>
      </trkpt>
      <trkpt lat="47.70805" lon="6.16186">
        <ele>283.54</ele>
        <time>2018-09-12T08:09:09Z</time>
      </trkpt>
      <trkpt lat="47.7081" lon="6.16185">
        <ele>283.7</ele>
        <time>2018-09-12T08:09:12Z</time>
      </trkpt>
      <trkpt lat="47.70815" lon="6.16183">
        <ele>283.81</ele>
        <time>2018-09-12T08:09:14Z</time>
      </trkpt>
      <trkpt lat="47.70821" lon="6.16182">
        <ele>283.94</ele>
        <time>2018-09-12T08:09:16Z</time>
      </trkpt>
      <trkpt lat="47.70826" lon="6.16181">
        <ele>284.08</ele>
        <time>2018-09-12T08:09:18Z</time>
      </trkpt>
      <trkpt lat="47.70831" lon="6.1618">
        <ele>284.3</ele>
        <time>2018-09-12T08:09:21Z</time>
      </trkpt>
      <trkpt lat="47.70837" lon="6.16181">
        <ele>284.59</ele>
        <time>2018-09-12T08:09:25Z</time>
      </trkpt>
      <trkpt lat="47.70842" lon="6.16178">
        <ele>284.92</ele>
        <time>2018-09-12T08:09:29Z</time>
      </trkpt>
      <trkpt lat="47.70846" lon="6.16177">
        <ele>285.19</ele>
        <time>2018-09-12T08:09:32Z</time>
      </trkpt>
      <trkpt lat="47.70852" lon="6.16176">
        <ele>285.47</ele>
        <time>2018-09-12T08:09:35Z</time>
      </trkpt>
      <trkpt lat="47.70859" lon="6.16176">
        <ele>285.75</ele>
        <time>2018-09-12T08:09:38Z</time>
      </trkpt>
      <trkpt lat="47.70863" lon="6.16175">
        <ele>285.94</ele>
        <time>2018-09-12T08:09:40Z</time>
      </trkpt>
      <trkpt lat="47.7087" lon="6.16176">
        <ele>286.21</ele>
        <time>2018-09-12T08:09:43Z</time>
      </trkpt>
      <trkpt lat="47.70874" lon="6.16176">
        <ele>286.49</ele>
        <time>2018-09-12T08:09:46Z</time>
      </trkpt>
      <trkpt lat="47.70879" lon="6.16173">
        <ele>286.8</ele>
        <time>2018-09-12T08:09:49Z</time>
      </trkpt>
      <trkpt lat="47.70884" lon="6.16171">
        <ele>287.12</ele>
        <time>2018-09-12T08:09:52Z</time>
      </trkpt>
      <trkpt lat="47.70888" lon="6.1617">
        <ele>287.45</ele>
        <time>2018-09-12T08:09:55Z</time>
      </trkpt>
      <trkpt lat="47.70893" lon="6.16168">
        <ele>287.8</ele>
        <time>2018-09-12T08:09:58Z</time>
      </trkpt>
      <trkpt lat="47.70898" lon="6.16167">
        <ele>288.17</ele>
        <time>2018-09-12T08:10:01Z</time>
      </trkpt>
      <trkpt lat="47.70904" lon="6.16166">
        <ele>288.55</ele>
        <time>2018-09-12T08:10:04Z</time>
      </trkpt>
      <trkpt lat="47.7091" lon="6.16166">
        <ele>289.06</ele>
        <time>2018-09-12T08:10:08Z</time>
      </trkpt>
      <trkpt lat="47.70916" lon="6.16167">
        <ele>289.45</ele>
        <time>2018-09-12T08:10:11Z</time>
      </trkpt>
      <trkpt lat="47.70921" lon="6.16168">
        <ele>289.84</ele>
        <time>2018-09-12T08:10:14Z</time>
      </trkpt>
      <trkpt lat="47.70926" lon="6.16169">
        <ele>290.21</ele>
        <time>2018-09-12T08:10:17Z</time>
      </trkpt>
      <trkpt lat="47.70932" lon="6.16169">
        <ele>290.58</ele>
        <time>2018-09-12T08:10:20Z</time>
      </trkpt>
      <trkpt lat="47.70938" lon="6.16168">
        <ele>290.85</ele>
        <time>2018-09-12T08:10:22Z</time>
      </trkpt>
      <trkpt lat="47.70944" lon="6.16166">
        <ele>291.14</ele>
        <time>2018-09-12T08:10:24Z</time>
      </trkpt>
      <trkpt lat="47.70949" lon="6.16165">
        <ele>291.44</ele>
        <time>2018-09-12T08:10:26Z</time>
      </trkpt>
      <trkpt lat="47.70953" lon="6.16163">
        <ele>291.76</ele>
        <time>2018-09-12T08:10:28Z</time>
      </trkpt>
      <trkpt lat="47.7096" lon="6.16162">
        <ele>292.26</ele>
        <time>2018-09-12T08:10:31Z</time>
      </trkpt>
      <trkpt lat="47.70966" lon="6.16161">
        <ele>292.77</ele>
        <time>2018-09-12T08:10:34Z</time>
      </trkpt>
      <trkpt lat="47.70971" lon="6.1616">
        <ele>293.29</ele>
        <time>2018-09-12T08:10:37Z</time>
      </trkpt>
      <trkpt lat="47.70976" lon="6.16158">
        <ele>293.84</ele>
        <time>2018-09-12T08:10:40Z</time>
      </trkpt>
      <trkpt lat="47.70981" lon="6.16157">
        <ele>294.4</ele>
        <time>2018-09-12T08:10:43Z</time>
      </trkpt>
      <trkpt lat="47.70986" lon="6.16155">
        <ele>294.96</ele>
        <time>2018-09-12T08:10:46Z</time>
      </trkpt>
      <trkpt lat="47.70992" lon="6.16154">
        <ele>295.72</ele>
        <time>2018-09-12T08:10:50Z</time>
      </trkpt>
      <trkpt lat="47.70998" lon="6.16154">
        <ele>296.27</ele>
        <time>2018-09-12T08:10:53Z</time>
      </trkpt>
      <trkpt lat="47.71005" lon="6.16153">
        <ele>296.8</ele>
        <time>2018-09-12T08:10:56Z</time>
      </trkpt>
      <trkpt lat="47.7101" lon="6.16154">
        <ele>297.31</ele>
        <time>2018-09-12T08:10:59Z</time>
      </trkpt>
      <trkpt lat="47.71015" lon="6.16154">
        <ele>297.8</ele>
        <time>2018-09-12T08:11:02Z</time>
      </trkpt>
      <trkpt lat="47.7102" lon="6.16154">
        <ele>298.27</ele>
        <time>2018-09-12T08:11:05Z</time>
      </trkpt>
      <trkpt lat="47.71025" lon="6.16154">
        <ele>298.57</ele>
        <time>2018-09-12T08:11:07Z</time>
      </trkpt>
      <trkpt lat="47.71031" lon="6.16154">
        <ele>298.99</ele>
        <time>2018-09-12T08:11:10Z</time>
      </trkpt>
      <trkpt lat="47.71037" lon="6.16153">
        <ele>299.39</ele>
        <time>2018-09-12T08:11:13Z</time>
      </trkpt>
      <trkpt lat="47.71043" lon="6.16152">
        <ele>299.77</ele>
        <time>2018-09-12T08:11:16Z</time>
      </trkpt>
      <trkpt lat="47.71049" lon="6.16151">
        <ele>300.13</ele>
        <time>2018-09-12T08:11:19Z</time>
      </trkpt>
      <trkpt lat="47.71054" lon="6.16152">
        <ele>300.47</ele>
        <time>2018-09-12T08:11:22Z</time>
      </trkpt>
      <trkpt lat="47.71059" lon="6.16151">
        <ele>300.68</ele>
        <time>2018-09-12T08:11:24Z</time>
      </trkpt>
      <trkpt lat="47.71064" lon="6.1615">
        <ele>300.92</ele>
        <time>2018-09-12T08:11:26Z</time>
      </trkpt>
      <trkpt lat="47.71069" lon="6.16149">
        <ele>301.16</ele>
        <time>2018-09-12T08:11:28Z</time>
      </trkpt>
      <trkpt lat="47.71074" lon="6.16148">
        <ele>301.42</ele>
        <time>2018-09-12T08:11:30Z</time>
      </trkpt>
      <trkpt lat="47.71078" lon="6.16146">
        <ele>301.68</ele>
        <time>2018-09-12T08:11:32Z</time>
      </trkpt>
      <trkpt lat="47.71083" lon="6.16146">
        <ele>302.05</ele>
        <time>2018-09-12T08:11:35Z</time>
      </trkpt>
      <trkpt lat="47.71089" lon="6.16146">
        <ele>302.52</ele>
        <time>2018-09-12T08:11:39Z</time>
      </trkpt>
      <trkpt lat="47.71094" lon="6.16145">
        <ele>303.09</ele>
        <time>2018-09-12T08:11:44Z</time>
      </trkpt>
      <trkpt lat="47.711" lon="6.16144">
        <ele>303.54</ele>
        <time>2018-09-12T08:11:48Z</time>
      </trkpt>
      <trkpt lat="47.71105" lon="6.16145">
        <ele>303.96</ele>
        <time>2018-09-12T08:11:52Z</time>
      </trkpt>
      <trkpt lat="47.71111" lon="6.16144">
        <ele>304.37</ele>
        <time>2018-09-12T08:11:56Z</time>
      </trkpt>
      <trkpt lat="47.71117" lon="6.16143">
        <ele>304.66</ele>
        <time>2018-09-12T08:11:59Z</time>
      </trkpt>
      <trkpt lat="47.71124" lon="6.16143">
        <ele>304.95</ele>
        <time>2018-09-12T08:12:02Z</time>
      </trkpt>
      <trkpt lat="47.7113" lon="6.16142">
        <ele>305.24</ele>
        <time>2018-09-12T08:12:05Z</time>
      </trkpt>
      <trkpt lat="47.71136" lon="6.1614">
        <ele>305.52</ele>
        <time>2018-09-12T08:12:08Z</time>
      </trkpt>
      <trkpt lat="47.7114" lon="6.1614">
        <ele>305.7</ele>
        <time>2018-09-12T08:12:10Z</time>
      </trkpt>
      <trkpt lat="47.71147" lon="6.16139">
        <ele>305.98</ele>
        <time>2018-09-12T08:12:13Z</time>
      </trkpt>
      <trkpt lat="47.71152" lon="6.16138">
        <ele>306.18</ele>
        <time>2018-09-12T08:12:15Z</time>
      </trkpt>
      <trkpt lat="47.71158" lon="6.16136">
        <ele>306.4</ele>
        <time>2018-09-12T08:12:17Z</time>
      </trkpt>
      <trkpt lat="47.71163" lon="6.16134">
        <ele>306.64</ele>
        <time>2018-09-12T08:12:19Z</time>
      </trkpt>
      <trkpt lat="47.71169" lon="6.16132">
        <ele>306.88</ele>
        <time>2018-09-12T08:12:21Z</time>
      </trkpt>
      <trkpt lat="47.71174" lon="6.16132">
        <ele>307.12</ele>
        <time>2018-09-12T08:12:23Z</time>
      </trkpt>
      <trkpt lat="47.71179" lon="6.16131">
        <ele>307.35</ele>
        <time>2018-09-12T08:12:25Z</time>
      </trkpt>
      <trkpt lat="47.71184" lon="6.16131">
        <ele>307.57</ele>
        <time>2018-09-12T08:12:27Z</time>
      </trkpt>
      <trkpt lat="47.7119" lon="6.1613">
        <ele>307.79</ele>
        <time>2018-09-12T08:12:29Z</time>
      </trkpt>
      <trkpt lat="47.71195" lon="6.1613">
        <ele>308</ele>
        <time>2018-09-12T08:12:31Z</time>
      </trkpt>
      <trkpt lat="47.71201" lon="6.16129">
        <ele>308.21</ele>
        <time>2018-09-12T08:12:33Z</time>
      </trkpt>
      <trkpt lat="47.71207" lon="6.16129">
        <ele>308.41</ele>
        <time>2018-09-12T08:12:35Z</time>
      </trkpt>
      <trkpt lat="47.71212" lon="6.1613">
        <ele>308.61</ele>
        <time>2018-09-12T08:12:37Z</time>
      </trkpt>
      <trkpt lat="47.71218" lon="6.1613">
        <ele>308.8</ele>
        <time>2018-09-12T08:12:39Z</time>
      </trkpt>
      <trkpt lat="47.71224" lon="6.16131">
        <ele>308.98</ele>
        <time>2018-09-12T08:12:41Z</time>
      </trkpt>
      <trkpt lat="47.71229" lon="6.16131">
        <ele>309.16</ele>
        <time>2018-09-12T08:12:43Z</time>
      </trkpt>
      <trkpt lat="47.71236" lon="6.16131">
        <ele>309.33</ele>
        <time>2018-09-12T08:12:45Z</time>
      </trkpt>
      <trkpt lat="47.71243" lon="6.16129">
        <ele>309.51</ele>
        <time>2018-09-12T08:12:47Z</time>
      </trkpt>
      <trkpt lat="47.7125" lon="6.16128">
        <ele>309.68</ele>
        <time>2018-09-12T08:12:49Z</time>
      </trkpt>
      <trkpt lat="47.71256" lon="6.16126">
        <ele>309.85</ele>
        <time>2018-09-12T08:12:51Z</time>
      </trkpt>
      <trkpt lat="47.71262" lon="6.16124">
        <ele>310.04</ele>
        <time>2018-09-12T08:12:53Z</time>
      </trkpt>
      <trkpt lat="47.71269" lon="6.16122">
        <ele>310.22</ele>
        <time>2018-09-12T08:12:55Z</time>
      </trkpt>
      <trkpt lat="47.71275" lon="6.16121">
        <ele>310.39</ele>
        <time>2018-09-12T08:12:57Z</time>
      </trkpt>
      <trkpt lat="47.71282" lon="6.16119">
        <ele>310.55</ele>
        <time>2018-09-12T08:12:59Z</time>
      </trkpt>
      <trkpt lat="47.71288" lon="6.16117">
        <ele>310.72</ele>
        <time>2018-09-12T08:13:01Z</time>
      </trkpt>
      <trkpt lat="47.71295" lon="6.16116">
        <ele>310.88</ele>
        <time>2018-09-12T08:13:03Z</time>
      </trkpt>
      <trkpt lat="47.71301" lon="6.16114">
        <ele>311.05</ele>
        <time>2018-09-12T08:13:05Z</time>
      </trkpt>
      <trkpt lat="47.71308" lon="6.16111">
        <ele>311.22</ele>
        <time>2018-09-12T08:13:07Z</time>
      </trkpt>
      <trkpt lat="47.71315" lon="6.16108">
        <ele>311.41</ele>
        <time>2018-09-12T08:13:09Z</time>
      </trkpt>
      <trkpt lat="47.71321" lon="6.16106">
        <ele>311.6</ele>
        <time>2018-09-12T08:13:11Z</time>
      </trkpt>
      <trkpt lat="47.71327" lon="6.16104">
        <ele>311.79</ele>
        <time>2018-09-12T08:13:13Z</time>
      </trkpt>
      <trkpt lat="47.71332" lon="6.16103">
        <ele>311.98</ele>
        <time>2018-09-12T08:13:15Z</time>
      </trkpt>
      <trkpt lat="47.71337" lon="6.16102">
        <ele>312.15</ele>
        <time>2018-09-12T08:13:17Z</time>
      </trkpt>
      <trkpt lat="47.71343" lon="6.16101">
        <ele>312.32</ele>
        <time>2018-09-12T08:13:19Z</time>
      </trkpt>
      <trkpt lat="47.71349" lon="6.16101">
        <ele>312.49</ele>
        <time>2018-09-12T08:13:21Z</time>
      </trkpt>
      <trkpt lat="47.71355" lon="6.16101">
        <ele>312.64</ele>
        <time>2018-09-12T08:13:23Z</time>
      </trkpt>
      <trkpt lat="47.71361" lon="6.16101">
        <ele>312.8</ele>
        <time>2018-09-12T08:13:25Z</time>
      </trkpt>
      <trkpt lat="47.71367" lon="6.16101">
        <ele>312.94</ele>
        <time>2018-09-12T08:13:27Z</time>
      </trkpt>
      <trkpt lat="47.71373" lon="6.16101">
        <ele>313.07</ele>
        <time>2018-09-12T08:13:29Z</time>
      </trkpt>
      <trkpt lat="47.71381" lon="6.161">
        <ele>313.2</ele>
        <time>2018-09-12T08:13:31Z</time>
      </trkpt>
      <trkpt lat="47.71387" lon="6.161">
        <ele>313.33</ele>
        <time>2018-09-12T08:13:33Z</time>
      </trkpt>
      <trkpt lat="47.71392" lon="6.161">
        <ele>313.44</ele>
        <time>2018-09-12T08:13:35Z</time>
      </trkpt>
      <trkpt lat="47.71397" lon="6.161">
        <ele>313.55</ele>
        <time>2018-09-12T08:13:37Z</time>
      </trkpt>
      <trkpt lat="47.71402" lon="6.161">
        <ele>313.66</ele>
        <time>2018-09-12T08:13:39Z</time>
      </trkpt>
      <trkpt lat="47.71407" lon="6.16101">
        <ele>313.75</ele>
        <time>2018-09-12T08:13:41Z</time>
      </trkpt>
      <trkpt lat="47.71414" lon="6.16101">
        <ele>313.89</ele>
        <time>2018-09-12T08:13:44Z</time>
      </trkpt>
      <trkpt lat="47.71421" lon="6.16099">
        <ele>314.04</ele>
        <time>2018-09-12T08:13:47Z</time>
      </trkpt>
      <trkpt lat="47.71426" lon="6.16099">
        <ele>314.15</ele>
        <time>2018-09-12T08:13:49Z</time>
      </trkpt>
      <trkpt lat="47.7143" lon="6.16099">
        <ele>314.25</ele>
        <time>2018-09-12T08:13:51Z</time>
      </trkpt>
      <trkpt lat="47.71436" lon="6.161">
        <ele>314.4</ele>
        <time>2018-09-12T08:13:54Z</time>
      </trkpt>
      <trkpt lat="47.71442" lon="6.161">
        <ele>314.54</ele>
        <time>2018-09-12T08:13:57Z</time>
      </trkpt>
      <trkpt lat="47.71447" lon="6.16101">
        <ele>314.69</ele>
        <time>2018-09-12T08:14:00Z</time>
      </trkpt>
      <trkpt lat="47.71454" lon="6.161">
        <ele>314.88</ele>
        <time>2018-09-12T08:14:03Z</time>
      </trkpt>
      <trkpt lat="47.71459" lon="6.161">
        <ele>315.01</ele>
        <time>2018-09-12T08:14:05Z</time>
      </trkpt>
      <trkpt lat="47.71463" lon="6.16099">
        <ele>315.16</ele>
        <time>2018-09-12T08:14:07Z</time>
      </trkpt>
      <trkpt lat="47.71469" lon="6.16098">
        <ele>315.31</ele>
        <time>2018-09-12T08:14:09Z</time>
      </trkpt>
      <trkpt lat="47.71474" lon="6.16098">
        <ele>315.47</ele>
        <time>2018-09-12T08:14:11Z</time>
      </trkpt>
      <trkpt lat="47.71479" lon="6.16097">
        <ele>315.64</ele>
        <time>2018-09-12T08:14:13Z</time>
      </trkpt>
      <trkpt lat="47.71485" lon="6.16096">
        <ele>315.83</ele>
        <time>2018-09-12T08:14:15Z</time>
      </trkpt>
      <trkpt lat="47.71491" lon="6.16095">
        <ele>316.03</ele>
        <time>2018-09-12T08:14:17Z</time>
      </trkpt>
      <trkpt lat="47.71496" lon="6.16095">
        <ele>316.24</ele>
        <time>2018-09-12T08:14:19Z</time>
      </trkpt>
      <trkpt lat="47.715" lon="6.16094">
        <ele>316.45</ele>
        <time>2018-09-12T08:14:21Z</time>
      </trkpt>
      <trkpt lat="47.71505" lon="6.16094">
        <ele>316.78</ele>
        <time>2018-09-12T08:14:24Z</time>
      </trkpt>
      <trkpt lat="47.7151" lon="6.16095">
        <ele>317.1</ele>
        <time>2018-09-12T08:14:27Z</time>
      </trkpt>
      <trkpt lat="47.71516" lon="6.16094">
        <ele>317.43</ele>
        <time>2018-09-12T08:14:30Z</time>
      </trkpt>
      <trkpt lat="47.71521" lon="6.16095">
        <ele>317.77</ele>
        <time>2018-09-12T08:14:33Z</time>
      </trkpt>
      <trkpt lat="47.71526" lon="6.16094">
        <ele>318.11</ele>
        <time>2018-09-12T08:14:36Z</time>
      </trkpt>
      <trkpt lat="47.71531" lon="6.16094">
        <ele>318.45</ele>
        <time>2018-09-12T08:14:39Z</time>
      </trkpt>
      <trkpt lat="47.71537" lon="6.16095">
        <ele>318.79</ele>
        <time>2018-09-12T08:14:42Z</time>
      </trkpt>
      <trkpt lat="47.71542" lon="6.16095">
        <ele>319.2</ele>
        <time>2018-09-12T08:14:45Z</time>
      </trkpt>
      <trkpt lat="47.71547" lon="6.16096">
        <ele>319.88</ele>
        <time>2018-09-12T08:14:49Z</time>
      </trkpt>
      <trkpt lat="47.71553" lon="6.16096">
        <ele>320.47</ele>
        <time>2018-09-12T08:14:52Z</time>
      </trkpt>
      <trkpt lat="47.71558" lon="6.16096">
        <ele>321.31</ele>
        <time>2018-09-12T08:14:56Z</time>
      </trkpt>
      <trkpt lat="47.71563" lon="6.16097">
        <ele>322.17</ele>
        <time>2018-09-12T08:15:00Z</time>
      </trkpt>
      <trkpt lat="47.71569" lon="6.16097">
        <ele>322.8</ele>
        <time>2018-09-12T08:15:03Z</time>
      </trkpt>
      <trkpt lat="47.71575" lon="6.16097">
        <ele>323.42</ele>
        <time>2018-09-12T08:15:06Z</time>
      </trkpt>
      <trkpt lat="47.7158" lon="6.16097">
        <ele>323.83</ele>
        <time>2018-09-12T08:15:08Z</time>
      </trkpt>
      <trkpt lat="47.71586" lon="6.16097">
        <ele>324.45</ele>
        <time>2018-09-12T08:15:11Z</time>
      </trkpt>
      <trkpt lat="47.71592" lon="6.16096">
        <ele>325.07</ele>
        <time>2018-09-12T08:15:14Z</time>
      </trkpt>
      <trkpt lat="47.71597" lon="6.16097">
        <ele>325.87</ele>
        <time>2018-09-12T08:15:18Z</time>
      </trkpt>
      <trkpt lat="47.71602" lon="6.16097">
        <ele>326.45</ele>
        <time>2018-09-12T08:15:21Z</time>
      </trkpt>
      <trkpt lat="47.71608" lon="6.16096">
        <ele>326.85</ele>
        <time>2018-09-12T08:15:23Z</time>
      </trkpt>
      <trkpt lat="47.71613" lon="6.16097">
        <ele>327.25</ele>
        <time>2018-09-12T08:15:25Z</time>
      </trkpt>
      <trkpt lat="47.71618" lon="6.16096">
        <ele>327.66</ele>
        <time>2018-09-12T08:15:27Z</time>
      </trkpt>
      <trkpt lat="47.71623" lon="6.16096">
        <ele>328.28</ele>
        <time>2018-09-12T08:15:30Z</time>
      </trkpt>
      <trkpt lat="47.71629" lon="6.16097">
        <ele>328.92</ele>
        <time>2018-09-12T08:15:33Z</time>
      </trkpt>
      <trkpt lat="47.71633" lon="6.16099">
        <ele>329.55</ele>
        <time>2018-09-12T08:15:36Z</time>
      </trkpt>
      <trkpt lat="47.71638" lon="6.16099">
        <ele>330.19</ele>
        <time>2018-09-12T08:15:39Z</time>
      </trkpt>
      <trkpt lat="47.71644" lon="6.161">
        <ele>331.04</ele>
        <time>2018-09-12T08:15:43Z</time>
      </trkpt>
      <trkpt lat="47.7165" lon="6.161">
        <ele>331.67</ele>
        <time>2018-09-12T08:15:46Z</time>
      </trkpt>
      <trkpt lat="47.71654" lon="6.16101">
        <ele>332.28</ele>
        <time>2018-09-12T08:15:49Z</time>
      </trkpt>
      <trkpt lat="47.71659" lon="6.16101">
        <ele>332.86</ele>
        <time>2018-09-12T08:15:52Z</time>
      </trkpt>
      <trkpt lat="47.71666" lon="6.16101">
        <ele>333.42</ele>
        <time>2018-09-12T08:15:55Z</time>
      </trkpt>
      <trkpt lat="47.71672" lon="6.16101">
        <ele>333.95</ele>
        <time>2018-09-12T08:15:58Z</time>
      </trkpt>
      <trkpt lat="47.71676" lon="6.16102">
        <ele>334.47</ele>
        <time>2018-09-12T08:16:01Z</time>
      </trkpt>
      <trkpt lat="47.71683" lon="6.16102">
        <ele>335.11</ele>
        <time>2018-09-12T08:16:05Z</time>
      </trkpt>
      <trkpt lat="47.71688" lon="6.16102">
        <ele>335.57</ele>
        <time>2018-09-12T08:16:08Z</time>
      </trkpt>
      <trkpt lat="47.71694" lon="6.16101">
        <ele>336.02</ele>
        <time>2018-09-12T08:16:11Z</time>
      </trkpt>
      <trkpt lat="47.717" lon="6.16101">
        <ele>336.47</ele>
        <time>2018-09-12T08:16:14Z</time>
      </trkpt>
      <trkpt lat="47.71705" lon="6.161">
        <ele>336.77</ele>
        <time>2018-09-12T08:16:16Z</time>
      </trkpt>
      <trkpt lat="47.7171" lon="6.16102">
        <ele>337.21</ele>
        <time>2018-09-12T08:16:19Z</time>
      </trkpt>
      <trkpt lat="47.71716" lon="6.16103">
        <ele>337.63</ele>
        <time>2018-09-12T08:16:22Z</time>
      </trkpt>
      <trkpt lat="47.71721" lon="6.16104">
        <ele>338.04</ele>
        <time>2018-09-12T08:16:25Z</time>
      </trkpt>
      <trkpt lat="47.71726" lon="6.16105">
        <ele>338.43</ele>
        <time>2018-09-12T08:16:28Z</time>
      </trkpt>
      <trkpt lat="47.71732" lon="6.16106">
        <ele>338.8</ele>
        <time>2018-09-12T08:16:31Z</time>
      </trkpt>
      <trkpt lat="47.71738" lon="6.16106">
        <ele>339.15</ele>
        <time>2018-09-12T08:16:34Z</time>
      </trkpt>
      <trkpt lat="47.71743" lon="6.16105">
        <ele>339.38</ele>
        <time>2018-09-12T08:16:36Z</time>
      </trkpt>
      <trkpt lat="47.7175" lon="6.16103">
        <ele>339.71</ele>
        <time>2018-09-12T08:16:39Z</time>
      </trkpt>
      <trkpt lat="47.71756" lon="6.16103">
        <ele>340.04</ele>
        <time>2018-09-12T08:16:42Z</time>
      </trkpt>
      <trkpt lat="47.71761" lon="6.16104">
        <ele>340.35</ele>
        <time>2018-09-12T08:16:45Z</time>
      </trkpt>
      <trkpt lat="47.71767" lon="6.16105">
        <ele>340.65</ele>
        <time>2018-09-12T08:16:48Z</time>
      </trkpt>
      <trkpt lat="47.71772" lon="6.16105">
        <ele>340.94</ele>
        <time>2018-09-12T08:16:51Z</time>
      </trkpt>
      <trkpt lat="47.71778" lon="6.16105">
        <ele>341.22</ele>
        <time>2018-09-12T08:16:54Z</time>
      </trkpt>
      <trkpt lat="47.71782" lon="6.16104">
        <ele>341.42</ele>
        <time>2018-09-12T08:16:56Z</time>
      </trkpt>
      <trkpt lat="47.71787" lon="6.16103">
        <ele>341.61</ele>
        <time>2018-09-12T08:16:58Z</time>
      </trkpt>
      <trkpt lat="47.71794" lon="6.16103">
        <ele>341.9</ele>
        <time>2018-09-12T08:17:01Z</time>
      </trkpt>
      <trkpt lat="47.71799" lon="6.16104">
        <ele>342.18</ele>
        <time>2018-09-12T08:17:04Z</time>
      </trkpt>
      <trkpt lat="47.71805" lon="6.16104">
        <ele>342.44</ele>
        <time>2018-09-12T08:17:07Z</time>
      </trkpt>
      <trkpt lat="47.71812" lon="6.16104">
        <ele>342.7</ele>
        <time>2018-09-12T08:17:10Z</time>
      </trkpt>
      <trkpt lat="47.71817" lon="6.16105">
        <ele>342.87</ele>
        <time>2018-09-12T08:17:12Z</time>
      </trkpt>
      <trkpt lat="47.71821" lon="6.16106">
        <ele>343.03</ele>
        <time>2018-09-12T08:17:14Z</time>
      </trkpt>
      <trkpt lat="47.71828" lon="6.16105">
        <ele>343.19</ele>
        <time>2018-09-12T08:17:16Z</time>
      </trkpt>
      <trkpt lat="47.71833" lon="6.16106">
        <ele>343.35</ele>
        <time>2018-09-12T08:17:18Z</time>
      </trkpt>
      <trkpt lat="47.71838" lon="6.16107">
        <ele>343.5</ele>
        <time>2018-09-12T08:17:20Z</time>
      </trkpt>
      <trkpt lat="47.71843" lon="6.16107">
        <ele>343.65</ele>
        <time>2018-09-12T08:17:22Z</time>
      </trkpt>
      <trkpt lat="47.7185" lon="6.16107">
        <ele>343.86</ele>
        <time>2018-09-12T08:17:25Z</time>
      </trkpt>
      <trkpt lat="47.71855" lon="6.16107">
        <ele>343.99</ele>
        <time>2018-09-12T08:17:27Z</time>
      </trkpt>
      <trkpt lat="47.71859" lon="6.16107">
        <ele>344.13</ele>
        <time>2018-09-12T08:17:29Z</time>
      </trkpt>
      <trkpt lat="47.71864" lon="6.16106">
        <ele>344.26</ele>
        <time>2018-09-12T08:17:31Z</time>
      </trkpt>
      <trkpt lat="47.71869" lon="6.16107">
        <ele>344.38</ele>
        <time>2018-09-12T08:17:33Z</time>
      </trkpt>
      <trkpt lat="47.71875" lon="6.16108">
        <ele>344.51</ele>
        <time>2018-09-12T08:17:35Z</time>
      </trkpt>
      <trkpt lat="47.71881" lon="6.16109">
        <ele>344.62</ele>
        <time>2018-09-12T08:17:37Z</time>
      </trkpt>
      <trkpt lat="47.71886" lon="6.1611">
        <ele>344.73</ele>
        <time>2018-09-12T08:17:39Z</time>
      </trkpt>
      <trkpt lat="47.71891" lon="6.1611">
        <ele>344.84</ele>
        <time>2018-09-12T08:17:41Z</time>
      </trkpt>
      <trkpt lat="47.71898" lon="6.1611">
        <ele>344.94</ele>
        <time>2018-09-12T08:17:43Z</time>
      </trkpt>
      <trkpt lat="47.71904" lon="6.16109">
        <ele>344.99</ele>
        <time>2018-09-12T08:17:44Z</time>
      </trkpt>
      <trkpt lat="47.71909" lon="6.16108">
        <ele>345.04</ele>
        <time>2018-09-12T08:17:45Z</time>
      </trkpt>
      <trkpt lat="47.71915" lon="6.16108">
        <ele>345.1</ele>
        <time>2018-09-12T08:17:46Z</time>
      </trkpt>
      <trkpt lat="47.71921" lon="6.16107">
        <ele>345.15</ele>
        <time>2018-09-12T08:17:47Z</time>
      </trkpt>
      <trkpt lat="47.71929" lon="6.16106">
        <ele>345.26</ele>
        <time>2018-09-12T08:17:49Z</time>
      </trkpt>
      <trkpt lat="47.71936" lon="6.16106">
        <ele>345.37</ele>
        <time>2018-09-12T08:17:51Z</time>
      </trkpt>
      <trkpt lat="47.71943" lon="6.16106">
        <ele>345.47</ele>
        <time>2018-09-12T08:17:53Z</time>
      </trkpt>
      <trkpt lat="47.71949" lon="6.16106">
        <ele>345.58</ele>
        <time>2018-09-12T08:17:55Z</time>
      </trkpt>
      <trkpt lat="47.71955" lon="6.16106">
        <ele>345.68</ele>
        <time>2018-09-12T08:17:57Z</time>
      </trkpt>
      <trkpt lat="47.7196" lon="6.16106">
        <ele>345.79</ele>
        <time>2018-09-12T08:17:59Z</time>
      </trkpt>
      <trkpt lat="47.71966" lon="6.16106">
        <ele>345.95</ele>
        <time>2018-09-12T08:18:02Z</time>
      </trkpt>
      <trkpt lat="47.71971" lon="6.16107">
        <ele>346.05</ele>
        <time>2018-09-12T08:18:04Z</time>
      </trkpt>
      <trkpt lat="47.71976" lon="6.16108">
        <ele>346.21</ele>
        <time>2018-09-12T08:18:07Z</time>
      </trkpt>
      <trkpt lat="47.71981" lon="6.16109">
        <ele>346.31</ele>
        <time>2018-09-12T08:18:09Z</time>
      </trkpt>
      <trkpt lat="47.71988" lon="6.1611">
        <ele>346.77</ele>
        <time>2018-09-12T08:18:11Z</time>
      </trkpt>
      <trkpt lat="47.71995" lon="6.1611">
        <ele>346.88</ele>
        <time>2018-09-12T08:18:13Z</time>
      </trkpt>
      <trkpt lat="47.72003" lon="6.1611">
        <ele>346.95</ele>
        <time>2018-09-12T08:18:15Z</time>
      </trkpt>
      <trkpt lat="47.7201" lon="6.1611">
        <ele>347.02</ele>
        <time>2018-09-12T08:18:17Z</time>
      </trkpt>
      <trkpt lat="47.72018" lon="6.16111">
        <ele>347.07</ele>
        <time>2018-09-12T08:18:19Z</time>
      </trkpt>
      <trkpt lat="47.72025" lon="6.16111">
        <ele>347.13</ele>
        <time>2018-09-12T08:18:21Z</time>
      </trkpt>
      <trkpt lat="47.72031" lon="6.1611">
        <ele>347.18</ele>
        <time>2018-09-12T08:18:23Z</time>
      </trkpt>
      <trkpt lat="47.72038" lon="6.16111">
        <ele>347.22</ele>
        <time>2018-09-12T08:18:25Z</time>
      </trkpt>
      <trkpt lat="47.72044" lon="6.16111">
        <ele>347.26</ele>
        <time>2018-09-12T08:18:27Z</time>
      </trkpt>
      <trkpt lat="47.72052" lon="6.16112">
        <ele>347.31</ele>
        <time>2018-09-12T08:18:30Z</time>
      </trkpt>
      <trkpt lat="47.72057" lon="6.16112">
        <ele>347.33</ele>
        <time>2018-09-12T08:18:31Z</time>
      </trkpt>
      <trkpt lat="47.72062" lon="6.16112">
        <ele>347.34</ele>
        <time>2018-09-12T08:18:32Z</time>
      </trkpt>
      <trkpt lat="47.72069" lon="6.16111">
        <ele>347.37</ele>
        <time>2018-09-12T08:18:34Z</time>
      </trkpt>
      <trkpt lat="47.72074" lon="6.16112">
        <ele>347.38</ele>
        <time>2018-09-12T08:18:37Z</time>
      </trkpt>
      <trkpt lat="47.72078" lon="6.16114">
        <ele>347.42</ele>
        <time>2018-09-12T08:18:51Z</time>
      </trkpt>
      <trkpt lat="47.72083" lon="6.16117">
        <ele>347.44</ele>
        <time>2018-09-12T08:18:54Z</time>
      </trkpt>
      <trkpt lat="47.72087" lon="6.16121">
        <ele>347.43</ele>
        <time>2018-09-12T08:18:57Z</time>
      </trkpt>
      <trkpt lat="47.7209" lon="6.16125">
        <ele>347.18</ele>
        <time>2018-09-12T08:19:14Z</time>
      </trkpt>
      <trkpt lat="47.72094" lon="6.16121">
        <ele>347.12</ele>
        <time>2018-09-12T08:19:21Z</time>
      </trkpt>
      <trkpt lat="47.72097" lon="6.16115">
        <ele>347.02</ele>
        <time>2018-09-12T08:19:25Z</time>
      </trkpt>
      <trkpt lat="47.72101" lon="6.16112">
        <ele>346.94</ele>
        <time>2018-09-12T08:19:29Z</time>
      </trkpt>
      <trkpt lat="47.72106" lon="6.16112">
        <ele>346.87</ele>
        <time>2018-09-12T08:19:33Z</time>
      </trkpt>
      <trkpt lat="47.72112" lon="6.16112">
        <ele>346.81</ele>
        <time>2018-09-12T08:19:37Z</time>
      </trkpt>
      <trkpt lat="47.72116" lon="6.16112">
        <ele>346.78</ele>
        <time>2018-09-12T08:19:40Z</time>
      </trkpt>
      <trkpt lat="47.72121" lon="6.16111">
        <ele>346.76</ele>
        <time>2018-09-12T08:19:43Z</time>
      </trkpt>
      <trkpt lat="47.72126" lon="6.16112">
        <ele>346.75</ele>
        <time>2018-09-12T08:19:46Z</time>
      </trkpt>
      <trkpt lat="47.72131" lon="6.16112">
        <ele>346.74</ele>
        <time>2018-09-12T08:19:49Z</time>
      </trkpt>
      <trkpt lat="47.72136" lon="6.16113">
        <ele>346.74</ele>
        <time>2018-09-12T08:19:52Z</time>
      </trkpt>
      <trkpt lat="47.72141" lon="6.16115">
        <ele>346.75</ele>
        <time>2018-09-12T08:19:55Z</time>
      </trkpt>
      <trkpt lat="47.72146" lon="6.16116">
        <ele>346.75</ele>
        <time>2018-09-12T08:19:58Z</time>
      </trkpt>
      <trkpt lat="47.72151" lon="6.16116">
        <ele>346.76</ele>
        <time>2018-09-12T08:20:01Z</time>
      </trkpt>
      <trkpt lat="47.72156" lon="6.16116">
        <ele>346.77</ele>
        <time>2018-09-12T08:20:05Z</time>
      </trkpt>
      <trkpt lat="47.72161" lon="6.16117">
        <ele>346.77</ele>
        <time>2018-09-12T08:20:08Z</time>
      </trkpt>
      <trkpt lat="47.72167" lon="6.16118">
        <ele>346.78</ele>
        <time>2018-09-12T08:20:11Z</time>
      </trkpt>
      <trkpt lat="47.72173" lon="6.16116">
        <ele>346.79</ele>
        <time>2018-09-12T08:20:13Z</time>
      </trkpt>
      <trkpt lat="47.72178" lon="6.16115">
        <ele>346.81</ele>
        <time>2018-09-12T08:20:16Z</time>
      </trkpt>
      <trkpt lat="47.72183" lon="6.16116">
        <ele>346.83</ele>
        <time>2018-09-12T08:20:19Z</time>
      </trkpt>
      <trkpt lat="47.72188" lon="6.16119">
        <ele>346.86</ele>
        <time>2018-09-12T08:20:22Z</time>
      </trkpt>
      <trkpt lat="47.72194" lon="6.16121">
        <ele>346.88</ele>
        <time>2018-09-12T08:20:25Z</time>
      </trkpt>
      <trkpt lat="47.722" lon="6.16124">
        <ele>346.9</ele>
        <time>2018-09-12T08:20:28Z</time>
      </trkpt>
      <trkpt lat="47.72204" lon="6.16126">
        <ele>346.91</ele>
        <time>2018-09-12T08:20:30Z</time>
      </trkpt>
      <trkpt lat="47.7221" lon="6.1613">
        <ele>346.93</ele>
        <time>2018-09-12T08:20:33Z</time>
      </trkpt>
      <trkpt lat="47.72215" lon="6.16132">
        <ele>346.95</ele>
        <time>2018-09-12T08:20:35Z</time>
      </trkpt>
      <trkpt lat="47.7222" lon="6.16135">
        <ele>346.98</ele>
        <time>2018-09-12T08:20:38Z</time>
      </trkpt>
      <trkpt lat="47.72227" lon="6.16138">
        <ele>347.01</ele>
        <time>2018-09-12T08:20:41Z</time>
      </trkpt>
      <trkpt lat="47.72233" lon="6.16141">
        <ele>347.05</ele>
        <time>2018-09-12T08:20:44Z</time>
      </trkpt>
      <trkpt lat="47.72237" lon="6.16143">
        <ele>347.08</ele>
        <time>2018-09-12T08:20:46Z</time>
      </trkpt>
      <trkpt lat="47.72243" lon="6.16147">
        <ele>347.14</ele>
        <time>2018-09-12T08:20:49Z</time>
      </trkpt>
      <trkpt lat="47.72248" lon="6.16151">
        <ele>347.21</ele>
        <time>2018-09-12T08:20:52Z</time>
      </trkpt>
      <trkpt lat="47.72252" lon="6.16156">
        <ele>347.27</ele>
        <time>2018-09-12T08:20:55Z</time>
      </trkpt>
      <trkpt lat="47.72257" lon="6.16162">
        <ele>347.35</ele>
        <time>2018-09-12T08:20:58Z</time>
      </trkpt>
      <trkpt lat="47.72261" lon="6.16168">
        <ele>347.42</ele>
        <time>2018-09-12T08:21:01Z</time>
      </trkpt>
      <trkpt lat="47.72266" lon="6.16174">
        <ele>347.49</ele>
        <time>2018-09-12T08:21:04Z</time>
      </trkpt>
      <trkpt lat="47.72269" lon="6.16179">
        <ele>347.53</ele>
        <time>2018-09-12T08:21:06Z</time>
      </trkpt>
      <trkpt lat="47.72273" lon="6.16183">
        <ele>347.57</ele>
        <time>2018-09-12T08:21:08Z</time>
      </trkpt>
      <trkpt lat="47.72277" lon="6.16187">
        <ele>347.6</ele>
        <time>2018-09-12T08:21:10Z</time>
      </trkpt>
      <trkpt lat="47.72281" lon="6.16191">
        <ele>347.64</ele>
        <time>2018-09-12T08:21:12Z</time>
      </trkpt>
      <trkpt lat="47.72286" lon="6.16194">
        <ele>347.67</ele>
        <time>2018-09-12T08:21:14Z</time>
      </trkpt>
      <trkpt lat="47.72292" lon="6.16197">
        <ele>347.7</ele>
        <time>2018-09-12T08:21:16Z</time>
      </trkpt>
      <trkpt lat="47.72298" lon="6.16199">
        <ele>347.73</ele>
        <time>2018-09-12T08:21:18Z</time>
      </trkpt>
      <trkpt lat="47.72302" lon="6.16202">
        <ele>347.76</ele>
        <time>2018-09-12T08:21:20Z</time>
      </trkpt>
      <trkpt lat="47.72307" lon="6.16206">
        <ele>347.8</ele>
        <time>2018-09-12T08:21:23Z</time>
      </trkpt>
      <trkpt lat="47.72312" lon="6.16209">
        <ele>347.82</ele>
        <time>2018-09-12T08:21:25Z</time>
      </trkpt>
      <trkpt lat="47.72317" lon="6.16212">
        <ele>347.85</ele>
        <time>2018-09-12T08:21:27Z</time>
      </trkpt>
      <trkpt lat="47.72323" lon="6.16216">
        <ele>347.89</ele>
        <time>2018-09-12T08:21:30Z</time>
      </trkpt>
      <trkpt lat="47.72328" lon="6.16221">
        <ele>347.93</ele>
        <time>2018-09-12T08:21:33Z</time>
      </trkpt>
      <trkpt lat="47.72333" lon="6.16224">
        <ele>347.95</ele>
        <time>2018-09-12T08:21:35Z</time>
      </trkpt>
      <trkpt lat="47.72339" lon="6.16228">
        <ele>347.99</ele>
        <time>2018-09-12T08:21:38Z</time>
      </trkpt>
      <trkpt lat="47.72346" lon="6.16231">
        <ele>348.01</ele>
        <time>2018-09-12T08:21:40Z</time>
      </trkpt>
      <trkpt lat="47.72351" lon="6.16232">
        <ele>348.03</ele>
        <time>2018-09-12T08:21:41Z</time>
      </trkpt>
      <trkpt lat="47.72356" lon="6.16233">
        <ele>348.04</ele>
        <time>2018-09-12T08:21:42Z</time>
      </trkpt>
      <trkpt lat="47.72363" lon="6.16236">
        <ele>348.07</ele>
        <time>2018-09-12T08:21:44Z</time>
      </trkpt>
      <trkpt lat="47.72368" lon="6.16238">
        <ele>348.11</ele>
        <time>2018-09-12T08:21:46Z</time>
      </trkpt>
      <trkpt lat="47.72372" lon="6.1624">
        <ele>348.14</ele>
        <time>2018-09-12T08:21:48Z</time>
      </trkpt>
      <trkpt lat="47.72379" lon="6.16244">
        <ele>348.21</ele>
        <time>2018-09-12T08:21:51Z</time>
      </trkpt>
      <trkpt lat="47.72384" lon="6.16248">
        <ele>348.27</ele>
        <time>2018-09-12T08:21:54Z</time>
      </trkpt>
      <trkpt lat="47.72389" lon="6.16252">
        <ele>348.35</ele>
        <time>2018-09-12T08:21:57Z</time>
      </trkpt>
      <trkpt lat="47.72395" lon="6.16258">
        <ele>348.42</ele>
        <time>2018-09-12T08:22:00Z</time>
      </trkpt>
      <trkpt lat="47.72399" lon="6.16261">
        <ele>348.46</ele>
        <time>2018-09-12T08:22:02Z</time>
      </trkpt>
      <trkpt lat="47.72402" lon="6.16265">
        <ele>348.51</ele>
        <time>2018-09-12T08:22:04Z</time>
      </trkpt>
      <trkpt lat="47.72407" lon="6.16269">
        <ele>348.56</ele>
        <time>2018-09-12T08:22:06Z</time>
      </trkpt>
      <trkpt lat="47.72412" lon="6.16273">
        <ele>348.61</ele>
        <time>2018-09-12T08:22:08Z</time>
      </trkpt>
      <trkpt lat="47.72416" lon="6.16277">
        <ele>348.66</ele>
        <time>2018-09-12T08:22:10Z</time>
      </trkpt>
      <trkpt lat="47.7242" lon="6.1628">
        <ele>348.71</ele>
        <time>2018-09-12T08:22:12Z</time>
      </trkpt>
      <trkpt lat="47.72426" lon="6.16284">
        <ele>348.77</ele>
        <time>2018-09-12T08:22:14Z</time>
      </trkpt>
      <trkpt lat="47.72431" lon="6.16286">
        <ele>348.82</ele>
        <time>2018-09-12T08:22:16Z</time>
      </trkpt>
      <trkpt lat="47.72437" lon="6.16288">
        <ele>348.87</ele>
        <time>2018-09-12T08:22:18Z</time>
      </trkpt>
      <trkpt lat="47.72443" lon="6.16291">
        <ele>348.96</ele>
        <time>2018-09-12T08:22:21Z</time>
      </trkpt>
      <trkpt lat="47.72448" lon="6.16294">
        <ele>349.03</ele>
        <time>2018-09-12T08:22:23Z</time>
      </trkpt>
      <trkpt lat="47.72453" lon="6.16299">
        <ele>349.12</ele>
        <time>2018-09-12T08:22:26Z</time>
      </trkpt>
      <trkpt lat="47.72458" lon="6.16303">
        <ele>349.22</ele>
        <time>2018-09-12T08:22:29Z</time>
      </trkpt>
      <trkpt lat="47.72462" lon="6.16307">
        <ele>349.32</ele>
        <time>2018-09-12T08:22:32Z</time>
      </trkpt>
      <trkpt lat="47.72466" lon="6.16312">
        <ele>349.43</ele>
        <time>2018-09-12T08:22:35Z</time>
      </trkpt>
      <trkpt lat="47.72471" lon="6.16317">
        <ele>349.54</ele>
        <time>2018-09-12T08:22:38Z</time>
      </trkpt>
      <trkpt lat="47.72475" lon="6.16321">
        <ele>349.66</ele>
        <time>2018-09-12T08:22:41Z</time>
      </trkpt>
      <trkpt lat="47.72481" lon="6.16325">
        <ele>349.78</ele>
        <time>2018-09-12T08:22:44Z</time>
      </trkpt>
      <trkpt lat="47.72485" lon="6.16329">
        <ele>349.87</ele>
        <time>2018-09-12T08:22:46Z</time>
      </trkpt>
      <trkpt lat="47.72489" lon="6.16333">
        <ele>349.95</ele>
        <time>2018-09-12T08:22:48Z</time>
      </trkpt>
      <trkpt lat="47.72494" lon="6.16338">
        <ele>350.07</ele>
        <time>2018-09-12T08:22:51Z</time>
      </trkpt>
      <trkpt lat="47.72499" lon="6.16342">
        <ele>350.2</ele>
        <time>2018-09-12T08:22:54Z</time>
      </trkpt>
      <trkpt lat="47.72504" lon="6.16346">
        <ele>350.32</ele>
        <time>2018-09-12T08:22:57Z</time>
      </trkpt>
      <trkpt lat="47.72509" lon="6.16349">
        <ele>350.44</ele>
        <time>2018-09-12T08:23:00Z</time>
      </trkpt>
      <trkpt lat="47.72514" lon="6.16353">
        <ele>350.57</ele>
        <time>2018-09-12T08:23:03Z</time>
      </trkpt>
      <trkpt lat="47.72518" lon="6.16357">
        <ele>350.69</ele>
        <time>2018-09-12T08:23:06Z</time>
      </trkpt>
      <trkpt lat="47.72523" lon="6.1636">
        <ele>350.83</ele>
        <time>2018-09-12T08:23:09Z</time>
      </trkpt>
      <trkpt lat="47.72528" lon="6.16364">
        <ele>350.96</ele>
        <time>2018-09-12T08:23:12Z</time>
      </trkpt>
      <trkpt lat="47.72533" lon="6.16369">
        <ele>351.1</ele>
        <time>2018-09-12T08:23:15Z</time>
      </trkpt>
      <trkpt lat="47.72537" lon="6.16375">
        <ele>351.24</ele>
        <time>2018-09-12T08:23:18Z</time>
      </trkpt>
      <trkpt lat="47.7254" lon="6.1638">
        <ele>351.38</ele>
        <time>2018-09-12T08:23:21Z</time>
      </trkpt>
      <trkpt lat="47.72546" lon="6.16383">
        <ele>351.47</ele>
        <time>2018-09-12T08:23:23Z</time>
      </trkpt>
      <trkpt lat="47.72551" lon="6.16385">
        <ele>351.56</ele>
        <time>2018-09-12T08:23:25Z</time>
      </trkpt>
      <trkpt lat="47.72556" lon="6.16388">
        <ele>351.65</ele>
        <time>2018-09-12T08:23:27Z</time>
      </trkpt>
      <trkpt lat="47.7256" lon="6.16391">
        <ele>351.74</ele>
        <time>2018-09-12T08:23:29Z</time>
      </trkpt>
      <trkpt lat="47.72565" lon="6.16394">
        <ele>351.83</ele>
        <time>2018-09-12T08:23:31Z</time>
      </trkpt>
      <trkpt lat="47.72571" lon="6.16397">
        <ele>351.93</ele>
        <time>2018-09-12T08:23:33Z</time>
      </trkpt>
      <trkpt lat="47.72575" lon="6.16401">
        <ele>352.03</ele>
        <time>2018-09-12T08:23:35Z</time>
      </trkpt>
      <trkpt lat="47.7258" lon="6.16404">
        <ele>352.13</ele>
        <time>2018-09-12T08:23:37Z</time>
      </trkpt>
      <trkpt lat="47.72586" lon="6.16408">
        <ele>352.23</ele>
        <time>2018-09-12T08:23:39Z</time>
      </trkpt>
      <trkpt lat="47.72591" lon="6.16413">
        <ele>352.34</ele>
        <time>2018-09-12T08:23:41Z</time>
      </trkpt>
      <trkpt lat="47.72596" lon="6.16416">
        <ele>352.44</ele>
        <time>2018-09-12T08:23:43Z</time>
      </trkpt>
      <trkpt lat="47.72601" lon="6.1642">
        <ele>352.59</ele>
        <time>2018-09-12T08:23:46Z</time>
      </trkpt>
      <trkpt lat="47.72606" lon="6.16423">
        <ele>352.74</ele>
        <time>2018-09-12T08:23:49Z</time>
      </trkpt>
      <trkpt lat="47.7261" lon="6.16428">
        <ele>352.94</ele>
        <time>2018-09-12T08:23:53Z</time>
      </trkpt>
      <trkpt lat="47.72614" lon="6.16431">
        <ele>353.09</ele>
        <time>2018-09-12T08:23:56Z</time>
      </trkpt>
      <trkpt lat="47.7262" lon="6.16435">
        <ele>353.24</ele>
        <time>2018-09-12T08:23:59Z</time>
      </trkpt>
      <trkpt lat="47.72625" lon="6.16438">
        <ele>353.38</ele>
        <time>2018-09-12T08:24:02Z</time>
      </trkpt>
      <trkpt lat="47.7263" lon="6.1644">
        <ele>353.48</ele>
        <time>2018-09-12T08:24:04Z</time>
      </trkpt>
      <trkpt lat="47.72635" lon="6.16441">
        <ele>353.57</ele>
        <time>2018-09-12T08:24:06Z</time>
      </trkpt>
      <trkpt lat="47.72641" lon="6.16441">
        <ele>353.71</ele>
        <time>2018-09-12T08:24:09Z</time>
      </trkpt>
      <trkpt lat="47.72648" lon="6.16441">
        <ele>353.85</ele>
        <time>2018-09-12T08:24:12Z</time>
      </trkpt>
      <trkpt lat="47.72653" lon="6.16441">
        <ele>353.94</ele>
        <time>2018-09-12T08:24:14Z</time>
      </trkpt>
      <trkpt lat="47.7266" lon="6.16441">
        <ele>354.08</ele>
        <time>2018-09-12T08:24:17Z</time>
      </trkpt>
      <trkpt lat="47.72665" lon="6.1644">
        <ele>354.22</ele>
        <time>2018-09-12T08:24:20Z</time>
      </trkpt>
      <trkpt lat="47.72671" lon="6.1644">
        <ele>354.35</ele>
        <time>2018-09-12T08:24:23Z</time>
      </trkpt>
      <trkpt lat="47.72676" lon="6.16438">
        <ele>354.49</ele>
        <time>2018-09-12T08:24:26Z</time>
      </trkpt>
      <trkpt lat="47.72682" lon="6.16434">
        <ele>354.63</ele>
        <time>2018-09-12T08:24:29Z</time>
      </trkpt>
      <trkpt lat="47.72687" lon="6.16431">
        <ele>354.77</ele>
        <time>2018-09-12T08:24:32Z</time>
      </trkpt>
      <trkpt lat="47.72692" lon="6.16428">
        <ele>354.86</ele>
        <time>2018-09-12T08:24:34Z</time>
      </trkpt>
      <trkpt lat="47.72698" lon="6.16426">
        <ele>355.01</ele>
        <time>2018-09-12T08:24:37Z</time>
      </trkpt>
      <trkpt lat="47.72702" lon="6.16423">
        <ele>355.11</ele>
        <time>2018-09-12T08:24:39Z</time>
      </trkpt>
      <trkpt lat="47.72707" lon="6.1642">
        <ele>355.21</ele>
        <time>2018-09-12T08:24:41Z</time>
      </trkpt>
      <trkpt lat="47.72714" lon="6.16416">
        <ele>355.37</ele>
        <time>2018-09-12T08:24:44Z</time>
      </trkpt>
      <trkpt lat="47.7272" lon="6.16414">
        <ele>355.47</ele>
        <time>2018-09-12T08:24:46Z</time>
      </trkpt>
      <trkpt lat="47.72725" lon="6.16413">
        <ele>355.58</ele>
        <time>2018-09-12T08:24:48Z</time>
      </trkpt>
      <trkpt lat="47.7273" lon="6.16411">
        <ele>355.69</ele>
        <time>2018-09-12T08:24:50Z</time>
      </trkpt>
      <trkpt lat="47.72735" lon="6.1641">
        <ele>355.79</ele>
        <time>2018-09-12T08:24:52Z</time>
      </trkpt>
      <trkpt lat="47.7274" lon="6.16408">
        <ele>355.89</ele>
        <time>2018-09-12T08:24:54Z</time>
      </trkpt>
      <trkpt lat="47.72744" lon="6.16406">
        <ele>355.99</ele>
        <time>2018-09-12T08:24:56Z</time>
      </trkpt>
      <trkpt lat="47.7275" lon="6.16404">
        <ele>356.08</ele>
        <time>2018-09-12T08:24:58Z</time>
      </trkpt>
      <trkpt lat="47.72756" lon="6.16402">
        <ele>356.17</ele>
        <time>2018-09-12T08:25:00Z</time>
      </trkpt>
      <trkpt lat="47.72764" lon="6.16398">
        <ele>356.25</ele>
        <time>2018-09-12T08:25:02Z</time>
      </trkpt>
      <trkpt lat="47.72771" lon="6.16395">
        <ele>356.67</ele>
        <time>2018-09-12T08:25:04Z</time>
      </trkpt>
      <trkpt lat="47.72778" lon="6.16391">
        <ele>356.76</ele>
        <time>2018-09-12T08:25:06Z</time>
      </trkpt>
      <trkpt lat="47.72786" lon="6.16388">
        <ele>357.07</ele>
        <time>2018-09-12T08:25:08Z</time>
      </trkpt>
      <trkpt lat="47.72794" lon="6.16384">
        <ele>357.14</ele>
        <time>2018-09-12T08:25:10Z</time>
      </trkpt>
      <trkpt lat="47.728" lon="6.16381">
        <ele>357.18</ele>
        <time>2018-09-12T08:25:12Z</time>
      </trkpt>
      <trkpt lat="47.72807" lon="6.16378">
        <ele>357.23</ele>
        <time>2018-09-12T08:25:14Z</time>
      </trkpt>
      <trkpt lat="47.72814" lon="6.16375">
        <ele>357.26</ele>
        <time>2018-09-12T08:25:16Z</time>
      </trkpt>
      <trkpt lat="47.72821" lon="6.16372">
        <ele>357.29</ele>
        <time>2018-09-12T08:25:18Z</time>
      </trkpt>
      <trkpt lat="47.72828" lon="6.16368">
        <ele>357.32</ele>
        <time>2018-09-12T08:25:20Z</time>
      </trkpt>
      <trkpt lat="47.72833" lon="6.16365">
        <ele>357.34</ele>
        <time>2018-09-12T08:25:22Z</time>
      </trkpt>
      <trkpt lat="47.72838" lon="6.16362">
        <ele>357.36</ele>
        <time>2018-09-12T08:25:24Z</time>
      </trkpt>
      <trkpt lat="47.72843" lon="6.1636">
        <ele>357.39</ele>
        <time>2018-09-12T08:25:27Z</time>
      </trkpt>
      <trkpt lat="47.72848" lon="6.16357">
        <ele>357.43</ele>
        <time>2018-09-12T08:25:30Z</time>
      </trkpt>
      <trkpt lat="47.72854" lon="6.16354">
        <ele>357.48</ele>
        <time>2018-09-12T08:25:33Z</time>
      </trkpt>
      <trkpt lat="47.72858" lon="6.16352">
        <ele>357.51</ele>
        <time>2018-09-12T08:25:35Z</time>
      </trkpt>
      <trkpt lat="47.72864" lon="6.1635">
        <ele>357.55</ele>
        <time>2018-09-12T08:25:37Z</time>
      </trkpt>
      <trkpt lat="47.72868" lon="6.16348">
        <ele>357.58</ele>
        <time>2018-09-12T08:25:39Z</time>
      </trkpt>
      <trkpt lat="47.72873" lon="6.16346">
        <ele>357.62</ele>
        <time>2018-09-12T08:25:41Z</time>
      </trkpt>
      <trkpt lat="47.72877" lon="6.16344">
        <ele>357.65</ele>
        <time>2018-09-12T08:25:43Z</time>
      </trkpt>
      <trkpt lat="47.72882" lon="6.16341">
        <ele>357.7</ele>
        <time>2018-09-12T08:25:46Z</time>
      </trkpt>
      <trkpt lat="47.72888" lon="6.16339">
        <ele>357.74</ele>
        <time>2018-09-12T08:25:49Z</time>
      </trkpt>
      <trkpt lat="47.72894" lon="6.16336">
        <ele>357.79</ele>
        <time>2018-09-12T08:25:52Z</time>
      </trkpt>
      <trkpt lat="47.72898" lon="6.16333">
        <ele>357.82</ele>
        <time>2018-09-12T08:25:54Z</time>
      </trkpt>
      <trkpt lat="47.72903" lon="6.1633">
        <ele>357.88</ele>
        <time>2018-09-12T08:25:57Z</time>
      </trkpt>
      <trkpt lat="47.72908" lon="6.16326">
        <ele>357.93</ele>
        <time>2018-09-12T08:26:00Z</time>
      </trkpt>
      <trkpt lat="47.72912" lon="6.16322">
        <ele>358.01</ele>
        <time>2018-09-12T08:26:03Z</time>
      </trkpt>
      <trkpt lat="47.72918" lon="6.16317">
        <ele>358.11</ele>
        <time>2018-09-12T08:26:06Z</time>
      </trkpt>
      <trkpt lat="47.72922" lon="6.16314">
        <ele>358.22</ele>
        <time>2018-09-12T08:26:09Z</time>
      </trkpt>
      <trkpt lat="47.72928" lon="6.1631">
        <ele>358.36</ele>
        <time>2018-09-12T08:26:12Z</time>
      </trkpt>
      <trkpt lat="47.72933" lon="6.16307">
        <ele>358.51</ele>
        <time>2018-09-12T08:26:15Z</time>
      </trkpt>
      <trkpt lat="47.72938" lon="6.16304">
        <ele>358.67</ele>
        <time>2018-09-12T08:26:18Z</time>
      </trkpt>
      <trkpt lat="47.72944" lon="6.16302">
        <ele>358.85</ele>
        <time>2018-09-12T08:26:21Z</time>
      </trkpt>
      <trkpt lat="47.72948" lon="6.163">
        <ele>359.02</ele>
        <time>2018-09-12T08:26:24Z</time>
      </trkpt>
      <trkpt lat="47.72954" lon="6.16299">
        <ele>359.19</ele>
        <time>2018-09-12T08:26:27Z</time>
      </trkpt>
      <trkpt lat="47.7296" lon="6.16295">
        <ele>359.35</ele>
        <time>2018-09-12T08:26:30Z</time>
      </trkpt>
      <trkpt lat="47.72964" lon="6.16292">
        <ele>359.47</ele>
        <time>2018-09-12T08:26:32Z</time>
      </trkpt>
      <trkpt lat="47.72968" lon="6.16289">
        <ele>359.61</ele>
        <time>2018-09-12T08:26:34Z</time>
      </trkpt>
      <trkpt lat="47.72973" lon="6.16286">
        <ele>359.75</ele>
        <time>2018-09-12T08:26:36Z</time>
      </trkpt>
      <trkpt lat="47.72977" lon="6.16284">
        <ele>359.91</ele>
        <time>2018-09-12T08:26:38Z</time>
      </trkpt>
      <trkpt lat="47.72982" lon="6.16281">
        <ele>360.18</ele>
        <time>2018-09-12T08:26:41Z</time>
      </trkpt>
      <trkpt lat="47.72988" lon="6.16278">
        <ele>360.55</ele>
        <time>2018-09-12T08:26:45Z</time>
      </trkpt>
      <trkpt lat="47.72993" lon="6.16277">
        <ele>360.83</ele>
        <time>2018-09-12T08:26:48Z</time>
      </trkpt>
      <trkpt lat="47.72998" lon="6.16274">
        <ele>361.11</ele>
        <time>2018-09-12T08:26:51Z</time>
      </trkpt>
      <trkpt lat="47.73003" lon="6.16273">
        <ele>361.29</ele>
        <time>2018-09-12T08:26:53Z</time>
      </trkpt>
      <trkpt lat="47.73009" lon="6.16271">
        <ele>361.55</ele>
        <time>2018-09-12T08:26:56Z</time>
      </trkpt>
      <trkpt lat="47.73015" lon="6.16269">
        <ele>361.79</ele>
        <time>2018-09-12T08:26:59Z</time>
      </trkpt>
      <trkpt lat="47.7302" lon="6.16267">
        <ele>361.95</ele>
        <time>2018-09-12T08:27:01Z</time>
      </trkpt>
      <trkpt lat="47.73025" lon="6.16264">
        <ele>362.1</ele>
        <time>2018-09-12T08:27:03Z</time>
      </trkpt>
      <trkpt lat="47.7303" lon="6.16261">
        <ele>362.25</ele>
        <time>2018-09-12T08:27:05Z</time>
      </trkpt>
      <trkpt lat="47.73035" lon="6.16257">
        <ele>362.47</ele>
        <time>2018-09-12T08:27:08Z</time>
      </trkpt>
      <trkpt lat="47.7304" lon="6.16255">
        <ele>362.68</ele>
        <time>2018-09-12T08:27:11Z</time>
      </trkpt>
      <trkpt lat="47.73046" lon="6.16253">
        <ele>362.89</ele>
        <time>2018-09-12T08:27:14Z</time>
      </trkpt>
      <trkpt lat="47.73051" lon="6.1625">
        <ele>363.08</ele>
        <time>2018-09-12T08:27:17Z</time>
      </trkpt>
      <trkpt lat="47.73057" lon="6.16247">
        <ele>363.27</ele>
        <time>2018-09-12T08:27:20Z</time>
      </trkpt>
      <trkpt lat="47.73063" lon="6.16244">
        <ele>363.39</ele>
        <time>2018-09-12T08:27:22Z</time>
      </trkpt>
      <trkpt lat="47.73068" lon="6.16241">
        <ele>363.51</ele>
        <time>2018-09-12T08:27:24Z</time>
      </trkpt>
      <trkpt lat="47.73072" lon="6.16238">
        <ele>363.62</ele>
        <time>2018-09-12T08:27:26Z</time>
      </trkpt>
      <trkpt lat="47.73077" lon="6.16236">
        <ele>363.73</ele>
        <time>2018-09-12T08:27:28Z</time>
      </trkpt>
      <trkpt lat="47.73082" lon="6.16233">
        <ele>363.84</ele>
        <time>2018-09-12T08:27:30Z</time>
      </trkpt>
      <trkpt lat="47.73087" lon="6.16231">
        <ele>363.94</ele>
        <time>2018-09-12T08:27:32Z</time>
      </trkpt>
      <trkpt lat="47.73092" lon="6.16229">
        <ele>364.05</ele>
        <time>2018-09-12T08:27:34Z</time>
      </trkpt>
      <trkpt lat="47.73097" lon="6.16226">
        <ele>364.15</ele>
        <time>2018-09-12T08:27:36Z</time>
      </trkpt>
      <trkpt lat="47.73102" lon="6.16224">
        <ele>364.24</ele>
        <time>2018-09-12T08:27:38Z</time>
      </trkpt>
      <trkpt lat="47.73108" lon="6.16221">
        <ele>364.37</ele>
        <time>2018-09-12T08:27:41Z</time>
      </trkpt>
      <trkpt lat="47.73114" lon="6.16219">
        <ele>364.5</ele>
        <time>2018-09-12T08:27:44Z</time>
      </trkpt>
      <trkpt lat="47.73119" lon="6.16218">
        <ele>364.59</ele>
        <time>2018-09-12T08:27:47Z</time>
      </trkpt>
      <trkpt lat="47.73124" lon="6.16215">
        <ele>364.74</ele>
        <time>2018-09-12T08:27:51Z</time>
      </trkpt>
      <trkpt lat="47.73129" lon="6.16212">
        <ele>364.97</ele>
        <time>2018-09-12T08:28:17Z</time>
      </trkpt>
      <trkpt lat="47.73133" lon="6.16208">
        <ele>365.26</ele>
        <time>2018-09-12T08:28:22Z</time>
      </trkpt>
      <trkpt lat="47.73128" lon="6.16206">
        <ele>365.6</ele>
        <time>2018-09-12T08:28:29Z</time>
      </trkpt>
      <trkpt lat="47.73124" lon="6.1621">
        <ele>365.74</ele>
        <time>2018-09-12T08:28:32Z</time>
      </trkpt>
      <trkpt lat="47.73122" lon="6.16216">
        <ele>365.84</ele>
        <time>2018-09-12T08:28:34Z</time>
      </trkpt>
      <trkpt lat="47.73121" lon="6.16225">
        <ele>365.99</ele>
        <time>2018-09-12T08:28:37Z</time>
      </trkpt>
      <trkpt lat="47.73122" lon="6.16232">
        <ele>366.15</ele>
        <time>2018-09-12T08:28:40Z</time>
      </trkpt>
      <trkpt lat="47.73123" lon="6.16239">
        <ele>366.32</ele>
        <time>2018-09-12T08:28:43Z</time>
      </trkpt>
      <trkpt lat="47.73125" lon="6.16245">
        <ele>366.56</ele>
        <time>2018-09-12T08:28:47Z</time>
      </trkpt>
      <trkpt lat="47.73127" lon="6.16252">
        <ele>366.76</ele>
        <time>2018-09-12T08:28:50Z</time>
      </trkpt>
      <trkpt lat="47.73129" lon="6.16259">
        <ele>366.96</ele>
        <time>2018-09-12T08:28:53Z</time>
      </trkpt>
      <trkpt lat="47.73131" lon="6.16266">
        <ele>367.16</ele>
        <time>2018-09-12T08:28:56Z</time>
      </trkpt>
      <trkpt lat="47.73133" lon="6.16273">
        <ele>367.36</ele>
        <time>2018-09-12T08:28:59Z</time>
      </trkpt>
      <trkpt lat="47.73135" lon="6.16281">
        <ele>367.62</ele>
        <time>2018-09-12T08:29:03Z</time>
      </trkpt>
      <trkpt lat="47.73137" lon="6.16287">
        <ele>367.81</ele>
        <time>2018-09-12T08:29:06Z</time>
      </trkpt>
      <trkpt lat="47.73141" lon="6.16295">
        <ele>368.07</ele>
        <time>2018-09-12T08:29:10Z</time>
      </trkpt>
      <trkpt lat="47.73143" lon="6.16302">
        <ele>368.39</ele>
        <time>2018-09-12T08:29:15Z</time>
      </trkpt>
      <trkpt lat="47.73145" lon="6.16309">
        <ele>368.64</ele>
        <time>2018-09-12T08:29:19Z</time>
      </trkpt>
      <trkpt lat="47.73146" lon="6.16317">
        <ele>368.89</ele>
        <time>2018-09-12T08:29:23Z</time>
      </trkpt>
      <trkpt lat="47.73148" lon="6.16325">
        <ele>369.13</ele>
        <time>2018-09-12T08:29:27Z</time>
      </trkpt>
      <trkpt lat="47.73151" lon="6.16331">
        <ele>369.36</ele>
        <time>2018-09-12T08:29:31Z</time>
      </trkpt>
      <trkpt lat="47.73152" lon="6.16338">
        <ele>369.54</ele>
        <time>2018-09-12T08:29:34Z</time>
      </trkpt>
      <trkpt lat="47.73154" lon="6.16348">
        <ele>369.71</ele>
        <time>2018-09-12T08:29:37Z</time>
      </trkpt>
      <trkpt lat="47.73155" lon="6.16357">
        <ele>369.89</ele>
        <time>2018-09-12T08:29:40Z</time>
      </trkpt>
      <trkpt lat="47.73156" lon="6.16365">
        <ele>370.01</ele>
        <time>2018-09-12T08:29:42Z</time>
      </trkpt>
      <trkpt lat="47.73157" lon="6.16371">
        <ele>370.15</ele>
        <time>2018-09-12T08:29:44Z</time>
      </trkpt>
      <trkpt lat="47.73159" lon="6.16381">
        <ele>370.37</ele>
        <time>2018-09-12T08:29:47Z</time>
      </trkpt>
      <trkpt lat="47.7316" lon="6.1639">
        <ele>370.61</ele>
        <time>2018-09-12T08:29:50Z</time>
      </trkpt>
      <trkpt lat="47.73162" lon="6.16398">
        <ele>370.88</ele>
        <time>2018-09-12T08:29:53Z</time>
      </trkpt>
      <trkpt lat="47.73163" lon="6.16406">
        <ele>371.19</ele>
        <time>2018-09-12T08:29:57Z</time>
      </trkpt>
      <trkpt lat="47.73164" lon="6.16414">
        <ele>371.63</ele>
        <time>2018-09-12T08:30:01Z</time>
      </trkpt>
      <trkpt lat="47.73167" lon="6.16422">
        <ele>371.97</ele>
        <time>2018-09-12T08:30:04Z</time>
      </trkpt>
      <trkpt lat="47.73169" lon="6.16429">
        <ele>372.32</ele>
        <time>2018-09-12T08:30:07Z</time>
      </trkpt>
      <trkpt lat="47.7317" lon="6.16437">
        <ele>372.55</ele>
        <time>2018-09-12T08:30:09Z</time>
      </trkpt>
      <trkpt lat="47.73172" lon="6.16444">
        <ele>372.79</ele>
        <time>2018-09-12T08:30:11Z</time>
      </trkpt>
      <trkpt lat="47.73173" lon="6.16452">
        <ele>373.05</ele>
        <time>2018-09-12T08:30:13Z</time>
      </trkpt>
      <trkpt lat="47.73174" lon="6.16461">
        <ele>373.44</ele>
        <time>2018-09-12T08:30:16Z</time>
      </trkpt>
      <trkpt lat="47.73176" lon="6.1647">
        <ele>373.85</ele>
        <time>2018-09-12T08:30:19Z</time>
      </trkpt>
      <trkpt lat="47.73177" lon="6.16478">
        <ele>374.27</ele>
        <time>2018-09-12T08:30:22Z</time>
      </trkpt>
      <trkpt lat="47.73178" lon="6.16486">
        <ele>374.86</ele>
        <time>2018-09-12T08:30:26Z</time>
      </trkpt>
      <trkpt lat="47.73179" lon="6.16493">
        <ele>375.58</ele>
        <time>2018-09-12T08:30:31Z</time>
      </trkpt>
      <trkpt lat="47.73181" lon="6.16501">
        <ele>376.25</ele>
        <time>2018-09-12T08:30:36Z</time>
      </trkpt>
      <trkpt lat="47.73183" lon="6.16508">
        <ele>376.75</ele>
        <time>2018-09-12T08:30:40Z</time>
      </trkpt>
      <trkpt lat="47.73185" lon="6.16514">
        <ele>377.1</ele>
        <time>2018-09-12T08:30:43Z</time>
      </trkpt>
      <trkpt lat="47.73187" lon="6.16521">
        <ele>377.42</ele>
        <time>2018-09-12T08:30:46Z</time>
      </trkpt>
      <trkpt lat="47.73189" lon="6.16528">
        <ele>377.74</ele>
        <time>2018-09-12T08:30:49Z</time>
      </trkpt>
      <trkpt lat="47.73191" lon="6.16534">
        <ele>377.82</ele>
        <time>2018-09-12T08:30:54Z</time>
      </trkpt>
      <trkpt lat="47.73195" lon="6.1654">
        <ele>378.25</ele>
        <time>2018-09-12T08:31:18Z</time>
      </trkpt>
      <trkpt lat="47.73196" lon="6.16548">
        <ele>378.42</ele>
        <time>2018-09-12T08:31:22Z</time>
      </trkpt>
      <trkpt lat="47.73198" lon="6.16556">
        <ele>378.66</ele>
        <time>2018-09-12T08:31:27Z</time>
      </trkpt>
      <trkpt lat="47.73199" lon="6.16562">
        <ele>378.95</ele>
        <time>2018-09-12T08:31:31Z</time>
      </trkpt>
      <trkpt lat="47.73202" lon="6.16569">
        <ele>379.18</ele>
        <time>2018-09-12T08:31:34Z</time>
      </trkpt>
      <trkpt lat="47.73204" lon="6.16576">
        <ele>379.41</ele>
        <time>2018-09-12T08:31:37Z</time>
      </trkpt>
      <trkpt lat="47.73207" lon="6.16583">
        <ele>379.66</ele>
        <time>2018-09-12T08:31:40Z</time>
      </trkpt>
      <trkpt lat="47.7321" lon="6.1659">
        <ele>379.99</ele>
        <time>2018-09-12T08:31:44Z</time>
      </trkpt>
      <trkpt lat="47.73209" lon="6.16597">
        <ele>380.31</ele>
        <time>2018-09-12T08:31:53Z</time>
      </trkpt>
      <trkpt lat="47.73206" lon="6.16592">
        <ele>380.68</ele>
        <time>2018-09-12T08:32:33Z</time>
      </trkpt>
      <trkpt lat="47.73204" lon="6.16585">
        <ele>380.79</ele>
        <time>2018-09-12T08:32:41Z</time>
      </trkpt>
      <trkpt lat="47.73202" lon="6.16577">
        <ele>380.88</ele>
        <time>2018-09-12T08:32:45Z</time>
      </trkpt>
      <trkpt lat="47.73199" lon="6.16567">
        <ele>380.97</ele>
        <time>2018-09-12T08:32:48Z</time>
      </trkpt>
      <trkpt lat="47.73198" lon="6.1656">
        <ele>381.03</ele>
        <time>2018-09-12T08:32:50Z</time>
      </trkpt>
      <trkpt lat="47.73197" lon="6.16551">
        <ele>381.13</ele>
        <time>2018-09-12T08:32:53Z</time>
      </trkpt>
      <trkpt lat="47.73194" lon="6.16542">
        <ele>381.22</ele>
        <time>2018-09-12T08:32:56Z</time>
      </trkpt>
      <trkpt lat="47.73191" lon="6.16537">
        <ele>381.3</ele>
        <time>2018-09-12T08:32:59Z</time>
      </trkpt>
      <trkpt lat="47.73188" lon="6.16532">
        <ele>381.33</ele>
        <time>2018-09-12T08:33:06Z</time>
      </trkpt>
      <trkpt lat="47.73188" lon="6.16525">
        <ele>381.47</ele>
        <time>2018-09-12T08:33:12Z</time>
      </trkpt>
      <trkpt lat="47.73185" lon="6.16518">
        <ele>381.71</ele>
        <time>2018-09-12T08:33:20Z</time>
      </trkpt>
      <trkpt lat="47.73183" lon="6.16511">
        <ele>381.94</ele>
        <time>2018-09-12T08:33:26Z</time>
      </trkpt>
      <trkpt lat="47.73182" lon="6.16503">
        <ele>382.21</ele>
        <time>2018-09-12T08:33:34Z</time>
      </trkpt>
      <trkpt lat="47.7318" lon="6.16496">
        <ele>382.31</ele>
        <time>2018-09-12T08:33:41Z</time>
      </trkpt>
      <trkpt lat="47.7318" lon="6.16489">
        <ele>382.52</ele>
        <time>2018-09-12T08:33:48Z</time>
      </trkpt>
      <trkpt lat="47.73178" lon="6.16483">
        <ele>382.68</ele>
        <time>2018-09-12T08:33:52Z</time>
      </trkpt>
      <trkpt lat="47.73175" lon="6.16476">
        <ele>382.79</ele>
        <time>2018-09-12T08:33:55Z</time>
      </trkpt>
      <trkpt lat="47.73173" lon="6.16468">
        <ele>382.94</ele>
        <time>2018-09-12T08:33:59Z</time>
      </trkpt>
      <trkpt lat="47.73172" lon="6.16461">
        <ele>383.09</ele>
        <time>2018-09-12T08:34:03Z</time>
      </trkpt>
      <trkpt lat="47.7317" lon="6.16454">
        <ele>383.23</ele>
        <time>2018-09-12T08:34:07Z</time>
      </trkpt>
      <trkpt lat="47.73169" lon="6.16448">
        <ele>383.33</ele>
        <time>2018-09-12T08:34:10Z</time>
      </trkpt>
      <trkpt lat="47.73167" lon="6.1644">
        <ele>383.47</ele>
        <time>2018-09-12T08:34:14Z</time>
      </trkpt>
      <trkpt lat="47.73166" lon="6.16432">
        <ele>383.6</ele>
        <time>2018-09-12T08:34:18Z</time>
      </trkpt>
      <trkpt lat="47.73165" lon="6.16424">
        <ele>383.74</ele>
        <time>2018-09-12T08:34:22Z</time>
      </trkpt>
      <trkpt lat="47.73163" lon="6.16415">
        <ele>383.88</ele>
        <time>2018-09-12T08:34:26Z</time>
      </trkpt>
      <trkpt lat="47.73163" lon="6.16408">
        <ele>384.01</ele>
        <time>2018-09-12T08:34:30Z</time>
      </trkpt>
      <trkpt lat="47.73162" lon="6.16401">
        <ele>384.08</ele>
        <time>2018-09-12T08:34:32Z</time>
      </trkpt>
      <trkpt lat="47.73161" lon="6.16392">
        <ele>384.19</ele>
        <time>2018-09-12T08:34:35Z</time>
      </trkpt>
      <trkpt lat="47.7316" lon="6.16383">
        <ele>384.29</ele>
        <time>2018-09-12T08:34:38Z</time>
      </trkpt>
      <trkpt lat="47.73158" lon="6.16374">
        <ele>384.36</ele>
        <time>2018-09-12T08:34:40Z</time>
      </trkpt>
      <trkpt lat="47.73155" lon="6.16366">
        <ele>384.43</ele>
        <time>2018-09-12T08:34:42Z</time>
      </trkpt>
      <trkpt lat="47.73152" lon="6.1636">
        <ele>384.5</ele>
        <time>2018-09-12T08:34:44Z</time>
      </trkpt>
      <trkpt lat="47.7315" lon="6.16354">
        <ele>384.57</ele>
        <time>2018-09-12T08:34:46Z</time>
      </trkpt>
      <trkpt lat="47.73147" lon="6.16347">
        <ele>384.68</ele>
        <time>2018-09-12T08:34:49Z</time>
      </trkpt>
      <trkpt lat="47.73146" lon="6.16338">
        <ele>384.78</ele>
        <time>2018-09-12T08:34:52Z</time>
      </trkpt>
      <trkpt lat="47.73145" lon="6.1633">
        <ele>384.89</ele>
        <time>2018-09-12T08:34:55Z</time>
      </trkpt>
      <trkpt lat="47.73143" lon="6.16322">
        <ele>384.97</ele>
        <time>2018-09-12T08:34:57Z</time>
      </trkpt>
      <trkpt lat="47.73141" lon="6.16312">
        <ele>385.04</ele>
        <time>2018-09-12T08:34:59Z</time>
      </trkpt>
      <trkpt lat="47.73139" lon="6.163">
        <ele>385.13</ele>
        <time>2018-09-12T08:35:01Z</time>
      </trkpt>
      <trkpt lat="47.73137" lon="6.1629">
        <ele>385.22</ele>
        <time>2018-09-12T08:35:03Z</time>
      </trkpt>
      <trkpt lat="47.73135" lon="6.16283">
        <ele>385.31</ele>
        <time>2018-09-12T08:35:05Z</time>
      </trkpt>
      <trkpt lat="47.73134" lon="6.16275">
        <ele>385.44</ele>
        <time>2018-09-12T08:35:08Z</time>
      </trkpt>
      <trkpt lat="47.73132" lon="6.16267">
        <ele>385.63</ele>
        <time>2018-09-12T08:35:12Z</time>
      </trkpt>
      <trkpt lat="47.73129" lon="6.16259">
        <ele>385.76</ele>
        <time>2018-09-12T08:35:15Z</time>
      </trkpt>
      <trkpt lat="47.73127" lon="6.16251">
        <ele>385.9</ele>
        <time>2018-09-12T08:35:18Z</time>
      </trkpt>
      <trkpt lat="47.73125" lon="6.16243">
        <ele>386.03</ele>
        <time>2018-09-12T08:35:21Z</time>
      </trkpt>
      <trkpt lat="47.73124" lon="6.16234">
        <ele>386.15</ele>
        <time>2018-09-12T08:35:24Z</time>
      </trkpt>
      <trkpt lat="47.73125" lon="6.16227">
        <ele>386.26</ele>
        <time>2018-09-12T08:35:27Z</time>
      </trkpt>
      <trkpt lat="47.73128" lon="6.1622">
        <ele>386.4</ele>
        <time>2018-09-12T08:35:31Z</time>
      </trkpt>
      <trkpt lat="47.73133" lon="6.16216">
        <ele>386.53</ele>
        <time>2018-09-12T08:35:35Z</time>
      </trkpt>
      <trkpt lat="47.73138" lon="6.16213">
        <ele>386.63</ele>
        <time>2018-09-12T08:35:38Z</time>
      </trkpt>
      <trkpt lat="47.73143" lon="6.16209">
        <ele>386.71</ele>
        <time>2018-09-12T08:35:41Z</time>
      </trkpt>
      <trkpt lat="47.73148" lon="6.16205">
        <ele>386.8</ele>
        <time>2018-09-12T08:35:44Z</time>
      </trkpt>
      <trkpt lat="47.73152" lon="6.16202">
        <ele>386.85</ele>
        <time>2018-09-12T08:35:46Z</time>
      </trkpt>
      <trkpt lat="47.73158" lon="6.16198">
        <ele>386.9</ele>
        <time>2018-09-12T08:35:48Z</time>
      </trkpt>
      <trkpt lat="47.73166" lon="6.16194">
        <ele>386.95</ele>
        <time>2018-09-12T08:35:50Z</time>
      </trkpt>
      <trkpt lat="47.73174" lon="6.16189">
        <ele>386.99</ele>
        <time>2018-09-12T08:35:52Z</time>
      </trkpt>
      <trkpt lat="47.73183" lon="6.16185">
        <ele>387.17</ele>
        <time>2018-09-12T08:35:54Z</time>
      </trkpt>
      <trkpt lat="47.73187" lon="6.16183">
        <ele>387.22</ele>
        <time>2018-09-12T08:35:55Z</time>
      </trkpt>
      <trkpt lat="47.73195" lon="6.16179">
        <ele>387.27</ele>
        <time>2018-09-12T08:35:57Z</time>
      </trkpt>
      <trkpt lat="47.73203" lon="6.16174">
        <ele>387.31</ele>
        <time>2018-09-12T08:35:59Z</time>
      </trkpt>
      <trkpt lat="47.73211" lon="6.16169">
        <ele>387.34</ele>
        <time>2018-09-12T08:36:01Z</time>
      </trkpt>
      <trkpt lat="47.73218" lon="6.16165">
        <ele>387.37</ele>
        <time>2018-09-12T08:36:03Z</time>
      </trkpt>
      <trkpt lat="47.73226" lon="6.16161">
        <ele>387.58</ele>
        <time>2018-09-12T08:36:05Z</time>
      </trkpt>
      <trkpt lat="47.73231" lon="6.16157">
        <ele>387.62</ele>
        <time>2018-09-12T08:36:06Z</time>
      </trkpt>
      <trkpt lat="47.73236" lon="6.16155">
        <ele>387.64</ele>
        <time>2018-09-12T08:36:07Z</time>
      </trkpt>
      <trkpt lat="47.7324" lon="6.16153">
        <ele>387.71</ele>
        <time>2018-09-12T08:36:08Z</time>
      </trkpt>
      <trkpt lat="47.73245" lon="6.16151">
        <ele>387.78</ele>
        <time>2018-09-12T08:36:09Z</time>
      </trkpt>
      <trkpt lat="47.73249" lon="6.16147">
        <ele>387.83</ele>
        <time>2018-09-12T08:36:10Z</time>
      </trkpt>
      <trkpt lat="47.73254" lon="6.16144">
        <ele>387.88</ele>
        <time>2018-09-12T08:36:11Z</time>
      </trkpt>
      <trkpt lat="47.73259" lon="6.16141">
        <ele>387.89</ele>
        <time>2018-09-12T08:36:12Z</time>
      </trkpt>
      <trkpt lat="47.73263" lon="6.16138">
        <ele>387.91</ele>
        <time>2018-09-12T08:36:13Z</time>
      </trkpt>
      <trkpt lat="47.73268" lon="6.16135">
        <ele>387.92</ele>
        <time>2018-09-12T08:36:14Z</time>
      </trkpt>
      <trkpt lat="47.73272" lon="6.16131">
        <ele>387.93</ele>
        <time>2018-09-12T08:36:15Z</time>
      </trkpt>
      <trkpt lat="47.73277" lon="6.16128">
        <ele>387.93</ele>
        <time>2018-09-12T08:36:16Z</time>
      </trkpt>
      <trkpt lat="47.73282" lon="6.16125">
        <ele>387.93</ele>
        <time>2018-09-12T08:36:17Z</time>
      </trkpt>
      <trkpt lat="47.73289" lon="6.16121">
        <ele>387.94</ele>
        <time>2018-09-12T08:36:19Z</time>
      </trkpt>
      <trkpt lat="47.73296" lon="6.16116">
        <ele>387.95</ele>
        <time>2018-09-12T08:36:21Z</time>
      </trkpt>
      <trkpt lat="47.73302" lon="6.16112">
        <ele>387.96</ele>
        <time>2018-09-12T08:36:23Z</time>
      </trkpt>
      <trkpt lat="47.73308" lon="6.16109">
        <ele>387.97</ele>
        <time>2018-09-12T08:36:25Z</time>
      </trkpt>
      <trkpt lat="47.73314" lon="6.16107">
        <ele>387.98</ele>
        <time>2018-09-12T08:36:27Z</time>
      </trkpt>
      <trkpt lat="47.73319" lon="6.16106">
        <ele>387.99</ele>
        <time>2018-09-12T08:36:29Z</time>
      </trkpt>
      <trkpt lat="47.73324" lon="6.16104">
        <ele>387.99</ele>
        <time>2018-09-12T08:36:31Z</time>
      </trkpt>
      <trkpt lat="47.73328" lon="6.16102">
        <ele>388</ele>
        <time>2018-09-12T08:36:33Z</time>
      </trkpt>
      <trkpt lat="47.73332" lon="6.16099">
        <ele>388.01</ele>
        <time>2018-09-12T08:36:35Z</time>
      </trkpt>
      <trkpt lat="47.73338" lon="6.16094">
        <ele>388.02</ele>
        <time>2018-09-12T08:36:37Z</time>
      </trkpt>
      <trkpt lat="47.73344" lon="6.1609">
        <ele>388.03</ele>
        <time>2018-09-12T08:36:39Z</time>
      </trkpt>
      <trkpt lat="47.7335" lon="6.16086">
        <ele>388.05</ele>
        <time>2018-09-12T08:36:41Z</time>
      </trkpt>
      <trkpt lat="47.73358" lon="6.16082">
        <ele>388.06</ele>
        <time>2018-09-12T08:36:43Z</time>
      </trkpt>
      <trkpt lat="47.73366" lon="6.16077">
        <ele>388.06</ele>
        <time>2018-09-12T08:36:45Z</time>
      </trkpt>
      <trkpt lat="47.73373" lon="6.16073">
        <ele>388.07</ele>
        <time>2018-09-12T08:36:47Z</time>
      </trkpt>
      <trkpt lat="47.73378" lon="6.16071">
        <ele>388.08</ele>
        <time>2018-09-12T08:36:48Z</time>
      </trkpt>
      <trkpt lat="47.73385" lon="6.16068">
        <ele>388.14</ele>
        <time>2018-09-12T08:36:49Z</time>
      </trkpt>
      <trkpt lat="47.73392" lon="6.16065">
        <ele>388.2</ele>
        <time>2018-09-12T08:36:50Z</time>
      </trkpt>
      <trkpt lat="47.73399" lon="6.16062">
        <ele>388.27</ele>
        <time>2018-09-12T08:36:51Z</time>
      </trkpt>
      <trkpt lat="47.73406" lon="6.16059">
        <ele>388.32</ele>
        <time>2018-09-12T08:36:52Z</time>
      </trkpt>
      <trkpt lat="47.73413" lon="6.16057">
        <ele>388.38</ele>
        <time>2018-09-12T08:36:53Z</time>
      </trkpt>
      <trkpt lat="47.73419" lon="6.16054">
        <ele>388.43</ele>
        <time>2018-09-12T08:36:54Z</time>
      </trkpt>
      <trkpt lat="47.73426" lon="6.16052">
        <ele>388.47</ele>
        <time>2018-09-12T08:36:55Z</time>
      </trkpt>
      <trkpt lat="47.73431" lon="6.16049">
        <ele>388.5</ele>
        <time>2018-09-12T08:36:56Z</time>
      </trkpt>
      <trkpt lat="47.73437" lon="6.16047">
        <ele>388.52</ele>
        <time>2018-09-12T08:36:57Z</time>
      </trkpt>
      <trkpt lat="47.73443" lon="6.16045">
        <ele>388.55</ele>
        <time>2018-09-12T08:36:58Z</time>
      </trkpt>
      <trkpt lat="47.73462" lon="6.1604">
        <ele>388.57</ele>
        <time>2018-09-12T08:36:59Z</time>
      </trkpt>
      <trkpt lat="47.73467" lon="6.16039">
        <ele>388.58</ele>
        <time>2018-09-12T08:37:00Z</time>
      </trkpt>
      <trkpt lat="47.73473" lon="6.16036">
        <ele>388.59</ele>
        <time>2018-09-12T08:37:01Z</time>
      </trkpt>
      <trkpt lat="47.73478" lon="6.16034">
        <ele>388.61</ele>
        <time>2018-09-12T08:37:02Z</time>
      </trkpt>
      <trkpt lat="47.73487" lon="6.16029">
        <ele>388.64</ele>
        <time>2018-09-12T08:37:03Z</time>
      </trkpt>
      <trkpt lat="47.73492" lon="6.16026">
        <ele>388.67</ele>
        <time>2018-09-12T08:37:04Z</time>
      </trkpt>
      <trkpt lat="47.73501" lon="6.16023">
        <ele>388.68</ele>
        <time>2018-09-12T08:37:05Z</time>
      </trkpt>
      <trkpt lat="47.73506" lon="6.1602">
        <ele>388.69</ele>
        <time>2018-09-12T08:37:06Z</time>
      </trkpt>
      <trkpt lat="47.73511" lon="6.16016">
        <ele>388.7</ele>
        <time>2018-09-12T08:37:08Z</time>
      </trkpt>
      <trkpt lat="47.73516" lon="6.16011">
        <ele>388.71</ele>
        <time>2018-09-12T08:37:10Z</time>
      </trkpt>
      <trkpt lat="47.73521" lon="6.16008">
        <ele>388.72</ele>
        <time>2018-09-12T08:37:12Z</time>
      </trkpt>
      <trkpt lat="47.73526" lon="6.16005">
        <ele>388.74</ele>
        <time>2018-09-12T08:37:14Z</time>
      </trkpt>
      <trkpt lat="47.7353" lon="6.16004">
        <ele>388.76</ele>
        <time>2018-09-12T08:37:17Z</time>
      </trkpt>
      <trkpt lat="47.73536" lon="6.16002">
        <ele>388.78</ele>
        <time>2018-09-12T08:37:20Z</time>
      </trkpt>
      <trkpt lat="47.73541" lon="6.15999">
        <ele>388.81</ele>
        <time>2018-09-12T08:37:23Z</time>
      </trkpt>
      <trkpt lat="47.73547" lon="6.15995">
        <ele>388.84</ele>
        <time>2018-09-12T08:37:26Z</time>
      </trkpt>
      <trkpt lat="47.73553" lon="6.15991">
        <ele>388.87</ele>
        <time>2018-09-12T08:37:29Z</time>
      </trkpt>
      <trkpt lat="47.73559" lon="6.15987">
        <ele>388.9</ele>
        <time>2018-09-12T08:37:32Z</time>
      </trkpt>
      <trkpt lat="47.73564" lon="6.15986">
        <ele>388.92</ele>
        <time>2018-09-12T08:37:35Z</time>
      </trkpt>
      <trkpt lat="47.73569" lon="6.15983">
        <ele>388.94</ele>
        <time>2018-09-12T08:37:38Z</time>
      </trkpt>
      <trkpt lat="47.73575" lon="6.1598">
        <ele>388.95</ele>
        <time>2018-09-12T08:37:42Z</time>
      </trkpt>
      <trkpt lat="47.7358" lon="6.15978">
        <ele>388.97</ele>
        <time>2018-09-12T08:37:45Z</time>
      </trkpt>
      <trkpt lat="47.73585" lon="6.15974">
        <ele>389</ele>
        <time>2018-09-12T08:37:48Z</time>
      </trkpt>
      <trkpt lat="47.7359" lon="6.15973">
        <ele>389.04</ele>
        <time>2018-09-12T08:37:52Z</time>
      </trkpt>
      <trkpt lat="47.73595" lon="6.15971">
        <ele>389.09</ele>
        <time>2018-09-12T08:37:55Z</time>
      </trkpt>
      <trkpt lat="47.736" lon="6.15969">
        <ele>389.14</ele>
        <time>2018-09-12T08:37:58Z</time>
      </trkpt>
      <trkpt lat="47.73604" lon="6.15968">
        <ele>389.18</ele>
        <time>2018-09-12T08:38:01Z</time>
      </trkpt>
      <trkpt lat="47.7361" lon="6.15964">
        <ele>389.21</ele>
        <time>2018-09-12T08:38:04Z</time>
      </trkpt>
      <trkpt lat="47.73615" lon="6.1596">
        <ele>389.24</ele>
        <time>2018-09-12T08:38:07Z</time>
      </trkpt>
      <trkpt lat="47.73621" lon="6.15957">
        <ele>389.26</ele>
        <time>2018-09-12T08:38:10Z</time>
      </trkpt>
      <trkpt lat="47.73626" lon="6.15954">
        <ele>389.28</ele>
        <time>2018-09-12T08:38:13Z</time>
      </trkpt>
      <trkpt lat="47.73632" lon="6.15951">
        <ele>389.29</ele>
        <time>2018-09-12T08:38:16Z</time>
      </trkpt>
      <trkpt lat="47.73637" lon="6.15949">
        <ele>389.28</ele>
        <time>2018-09-12T08:38:19Z</time>
      </trkpt>
      <trkpt lat="47.73643" lon="6.15946">
        <ele>389.26</ele>
        <time>2018-09-12T08:38:22Z</time>
      </trkpt>
      <trkpt lat="47.73649" lon="6.15943">
        <ele>389.23</ele>
        <time>2018-09-12T08:38:25Z</time>
      </trkpt>
      <trkpt lat="47.73655" lon="6.1594">
        <ele>389.2</ele>
        <time>2018-09-12T08:38:27Z</time>
      </trkpt>
      <trkpt lat="47.73663" lon="6.15936">
        <ele>389.18</ele>
        <time>2018-09-12T08:38:29Z</time>
      </trkpt>
      <trkpt lat="47.73668" lon="6.15934">
        <ele>389.17</ele>
        <time>2018-09-12T08:38:30Z</time>
      </trkpt>
      <trkpt lat="47.73673" lon="6.15932">
        <ele>389.16</ele>
        <time>2018-09-12T08:38:31Z</time>
      </trkpt>
      <trkpt lat="47.73681" lon="6.15929">
        <ele>389.14</ele>
        <time>2018-09-12T08:38:33Z</time>
      </trkpt>
      <trkpt lat="47.73686" lon="6.15926">
        <ele>389.13</ele>
        <time>2018-09-12T08:38:35Z</time>
      </trkpt>
      <trkpt lat="47.73691" lon="6.15923">
        <ele>389.13</ele>
        <time>2018-09-12T08:38:37Z</time>
      </trkpt>
      <trkpt lat="47.73696" lon="6.15921">
        <ele>389.12</ele>
        <time>2018-09-12T08:38:39Z</time>
      </trkpt>
      <trkpt lat="47.73701" lon="6.15918">
        <ele>389.12</ele>
        <time>2018-09-12T08:38:41Z</time>
      </trkpt>
      <trkpt lat="47.73705" lon="6.15915">
        <ele>389.13</ele>
        <time>2018-09-12T08:38:43Z</time>
      </trkpt>
      <trkpt lat="47.73711" lon="6.15912">
        <ele>389.13</ele>
        <time>2018-09-12T08:38:46Z</time>
      </trkpt>
      <trkpt lat="47.73717" lon="6.15909">
        <ele>389.14</ele>
        <time>2018-09-12T08:38:49Z</time>
      </trkpt>
      <trkpt lat="47.73722" lon="6.15906">
        <ele>389.15</ele>
        <time>2018-09-12T08:38:51Z</time>
      </trkpt>
      <trkpt lat="47.73728" lon="6.15903">
        <ele>389.16</ele>
        <time>2018-09-12T08:38:53Z</time>
      </trkpt>
      <trkpt lat="47.73733" lon="6.15901">
        <ele>389.17</ele>
        <time>2018-09-12T08:38:55Z</time>
      </trkpt>
      <trkpt lat="47.73738" lon="6.15899">
        <ele>389.18</ele>
        <time>2018-09-12T08:38:57Z</time>
      </trkpt>
      <trkpt lat="47.73744" lon="6.15896">
        <ele>389.19</ele>
        <time>2018-09-12T08:38:59Z</time>
      </trkpt>
      <trkpt lat="47.7375" lon="6.15894">
        <ele>389.21</ele>
        <time>2018-09-12T08:39:01Z</time>
      </trkpt>
      <trkpt lat="47.73755" lon="6.15893">
        <ele>389.23</ele>
        <time>2018-09-12T08:39:03Z</time>
      </trkpt>
      <trkpt lat="47.7376" lon="6.15891">
        <ele>389.25</ele>
        <time>2018-09-12T08:39:05Z</time>
      </trkpt>
      <trkpt lat="47.73764" lon="6.15888">
        <ele>389.27</ele>
        <time>2018-09-12T08:39:07Z</time>
      </trkpt>
      <trkpt lat="47.73769" lon="6.15885">
        <ele>389.29</ele>
        <time>2018-09-12T08:39:09Z</time>
      </trkpt>
      <trkpt lat="47.73774" lon="6.15882">
        <ele>389.3</ele>
        <time>2018-09-12T08:39:11Z</time>
      </trkpt>
      <trkpt lat="47.73779" lon="6.1588">
        <ele>389.32</ele>
        <time>2018-09-12T08:39:13Z</time>
      </trkpt>
      <trkpt lat="47.73784" lon="6.15878">
        <ele>389.34</ele>
        <time>2018-09-12T08:39:15Z</time>
      </trkpt>
      <trkpt lat="47.7379" lon="6.15876">
        <ele>389.36</ele>
        <time>2018-09-12T08:39:17Z</time>
      </trkpt>
      <trkpt lat="47.73797" lon="6.15873">
        <ele>389.38</ele>
        <time>2018-09-12T08:39:19Z</time>
      </trkpt>
      <trkpt lat="47.73803" lon="6.15869">
        <ele>389.41</ele>
        <time>2018-09-12T08:39:21Z</time>
      </trkpt>
      <trkpt lat="47.73809" lon="6.15866">
        <ele>389.44</ele>
        <time>2018-09-12T08:39:23Z</time>
      </trkpt>
      <trkpt lat="47.73815" lon="6.15862">
        <ele>389.48</ele>
        <time>2018-09-12T08:39:26Z</time>
      </trkpt>
      <trkpt lat="47.73819" lon="6.15859">
        <ele>389.52</ele>
        <time>2018-09-12T08:39:28Z</time>
      </trkpt>
      <trkpt lat="47.73825" lon="6.15856">
        <ele>389.57</ele>
        <time>2018-09-12T08:39:31Z</time>
      </trkpt>
      <trkpt lat="47.7383" lon="6.15853">
        <ele>389.61</ele>
        <time>2018-09-12T08:39:33Z</time>
      </trkpt>
      <trkpt lat="47.73834" lon="6.1585">
        <ele>389.65</ele>
        <time>2018-09-12T08:39:35Z</time>
      </trkpt>
      <trkpt lat="47.73839" lon="6.15846">
        <ele>389.7</ele>
        <time>2018-09-12T08:39:37Z</time>
      </trkpt>
      <trkpt lat="47.73844" lon="6.15843">
        <ele>389.75</ele>
        <time>2018-09-12T08:39:39Z</time>
      </trkpt>
      <trkpt lat="47.7385" lon="6.15839">
        <ele>389.84</ele>
        <time>2018-09-12T08:39:42Z</time>
      </trkpt>
      <trkpt lat="47.73854" lon="6.15836">
        <ele>389.93</ele>
        <time>2018-09-12T08:39:45Z</time>
      </trkpt>
      <trkpt lat="47.73858" lon="6.15834">
        <ele>390.05</ele>
        <time>2018-09-12T08:39:49Z</time>
      </trkpt>
      <trkpt lat="47.73863" lon="6.15832">
        <ele>390.15</ele>
        <time>2018-09-12T08:39:52Z</time>
      </trkpt>
      <trkpt lat="47.73869" lon="6.15829">
        <ele>390.29</ele>
        <time>2018-09-12T08:39:56Z</time>
      </trkpt>
      <trkpt lat="47.73873" lon="6.15828">
        <ele>390.41</ele>
        <time>2018-09-12T08:39:59Z</time>
      </trkpt>
      <trkpt lat="47.73878" lon="6.15826">
        <ele>390.59</ele>
        <time>2018-09-12T08:40:04Z</time>
      </trkpt>
      <trkpt lat="47.73883" lon="6.15824">
        <ele>390.77</ele>
        <time>2018-09-12T08:40:09Z</time>
      </trkpt>
      <trkpt lat="47.73888" lon="6.15821">
        <ele>390.91</ele>
        <time>2018-09-12T08:40:13Z</time>
      </trkpt>
      <trkpt lat="47.73893" lon="6.15819">
        <ele>391.02</ele>
        <time>2018-09-12T08:40:16Z</time>
      </trkpt>
      <trkpt lat="47.73897" lon="6.15816">
        <ele>391.12</ele>
        <time>2018-09-12T08:40:19Z</time>
      </trkpt>
      <trkpt lat="47.73901" lon="6.15813">
        <ele>391.23</ele>
        <time>2018-09-12T08:40:22Z</time>
      </trkpt>
      <trkpt lat="47.73905" lon="6.15808">
        <ele>391.33</ele>
        <time>2018-09-12T08:40:25Z</time>
      </trkpt>
      <trkpt lat="47.7391" lon="6.15804">
        <ele>391.43</ele>
        <time>2018-09-12T08:40:28Z</time>
      </trkpt>
      <trkpt lat="47.73914" lon="6.158">
        <ele>391.49</ele>
        <time>2018-09-12T08:40:30Z</time>
      </trkpt>
      <trkpt lat="47.7392" lon="6.15796">
        <ele>391.59</ele>
        <time>2018-09-12T08:40:33Z</time>
      </trkpt>
      <trkpt lat="47.73924" lon="6.15794">
        <ele>391.69</ele>
        <time>2018-09-12T08:40:36Z</time>
      </trkpt>
      <trkpt lat="47.7393" lon="6.1579">
        <ele>391.82</ele>
        <time>2018-09-12T08:40:40Z</time>
      </trkpt>
      <trkpt lat="47.73938" lon="6.15788">
        <ele>391.92</ele>
        <time>2018-09-12T08:40:43Z</time>
      </trkpt>
      <trkpt lat="47.73943" lon="6.15787">
        <ele>391.99</ele>
        <time>2018-09-12T08:40:45Z</time>
      </trkpt>
      <trkpt lat="47.73949" lon="6.15785">
        <ele>392.11</ele>
        <time>2018-09-12T08:40:48Z</time>
      </trkpt>
      <trkpt lat="47.73954" lon="6.15783">
        <ele>392.24</ele>
        <time>2018-09-12T08:40:51Z</time>
      </trkpt>
      <trkpt lat="47.73959" lon="6.15779">
        <ele>392.38</ele>
        <time>2018-09-12T08:40:54Z</time>
      </trkpt>
      <trkpt lat="47.73963" lon="6.15776">
        <ele>392.53</ele>
        <time>2018-09-12T08:40:57Z</time>
      </trkpt>
      <trkpt lat="47.73967" lon="6.15772">
        <ele>392.74</ele>
        <time>2018-09-12T08:41:01Z</time>
      </trkpt>
      <trkpt lat="47.73972" lon="6.1577">
        <ele>392.94</ele>
        <time>2018-09-12T08:41:05Z</time>
      </trkpt>
      <trkpt lat="47.73977" lon="6.15768">
        <ele>393.14</ele>
        <time>2018-09-12T08:41:09Z</time>
      </trkpt>
      <trkpt lat="47.73982" lon="6.15767">
        <ele>393.33</ele>
        <time>2018-09-12T08:41:13Z</time>
      </trkpt>
      <trkpt lat="47.73989" lon="6.15763">
        <ele>393.43</ele>
        <time>2018-09-12T08:41:15Z</time>
      </trkpt>
      <trkpt lat="47.73996" lon="6.15761">
        <ele>393.52</ele>
        <time>2018-09-12T08:41:17Z</time>
      </trkpt>
      <trkpt lat="47.74002" lon="6.15757">
        <ele>393.61</ele>
        <time>2018-09-12T08:41:19Z</time>
      </trkpt>
      <trkpt lat="47.74007" lon="6.15755">
        <ele>393.7</ele>
        <time>2018-09-12T08:41:21Z</time>
      </trkpt>
      <trkpt lat="47.74013" lon="6.15753">
        <ele>393.79</ele>
        <time>2018-09-12T08:41:23Z</time>
      </trkpt>
      <trkpt lat="47.7402" lon="6.15749">
        <ele>393.88</ele>
        <time>2018-09-12T08:41:25Z</time>
      </trkpt>
      <trkpt lat="47.74025" lon="6.15747">
        <ele>393.98</ele>
        <time>2018-09-12T08:41:27Z</time>
      </trkpt>
      <trkpt lat="47.7403" lon="6.15745">
        <ele>394.12</ele>
        <time>2018-09-12T08:41:30Z</time>
      </trkpt>
      <trkpt lat="47.74035" lon="6.15741">
        <ele>394.25</ele>
        <time>2018-09-12T08:41:33Z</time>
      </trkpt>
      <trkpt lat="47.74041" lon="6.15737">
        <ele>394.35</ele>
        <time>2018-09-12T08:41:35Z</time>
      </trkpt>
      <trkpt lat="47.74046" lon="6.15735">
        <ele>394.39</ele>
        <time>2018-09-12T08:41:36Z</time>
      </trkpt>
      <trkpt lat="47.74054" lon="6.15731">
        <ele>394.49</ele>
        <time>2018-09-12T08:41:38Z</time>
      </trkpt>
      <trkpt lat="47.7406" lon="6.15728">
        <ele>394.59</ele>
        <time>2018-09-12T08:41:40Z</time>
      </trkpt>
      <trkpt lat="47.74065" lon="6.15726">
        <ele>394.68</ele>
        <time>2018-09-12T08:41:42Z</time>
      </trkpt>
      <trkpt lat="47.74069" lon="6.15723">
        <ele>394.78</ele>
        <time>2018-09-12T08:41:44Z</time>
      </trkpt>
      <trkpt lat="47.74075" lon="6.15721">
        <ele>394.93</ele>
        <time>2018-09-12T08:41:47Z</time>
      </trkpt>
      <trkpt lat="47.7408" lon="6.15719">
        <ele>395.03</ele>
        <time>2018-09-12T08:41:49Z</time>
      </trkpt>
      <trkpt lat="47.74085" lon="6.15716">
        <ele>395.14</ele>
        <time>2018-09-12T08:41:51Z</time>
      </trkpt>
      <trkpt lat="47.7409" lon="6.15713">
        <ele>395.25</ele>
        <time>2018-09-12T08:41:53Z</time>
      </trkpt>
      <trkpt lat="47.74096" lon="6.1571">
        <ele>395.41</ele>
        <time>2018-09-12T08:41:56Z</time>
      </trkpt>
      <trkpt lat="47.741" lon="6.15708">
        <ele>395.59</ele>
        <time>2018-09-12T08:41:59Z</time>
      </trkpt>
      <trkpt lat="47.74105" lon="6.15705">
        <ele>395.82</ele>
        <time>2018-09-12T08:42:03Z</time>
      </trkpt>
      <trkpt lat="47.7411" lon="6.15704">
        <ele>396.05</ele>
        <time>2018-09-12T08:42:07Z</time>
      </trkpt>
      <trkpt lat="47.74115" lon="6.15703">
        <ele>396.33</ele>
        <time>2018-09-12T08:42:12Z</time>
      </trkpt>
      <trkpt lat="47.74119" lon="6.15701">
        <ele>396.55</ele>
        <time>2018-09-12T08:42:16Z</time>
      </trkpt>
      <trkpt lat="47.74125" lon="6.15698">
        <ele>396.81</ele>
        <time>2018-09-12T08:42:21Z</time>
      </trkpt>
      <trkpt lat="47.7413" lon="6.15696">
        <ele>396.96</ele>
        <time>2018-09-12T08:42:24Z</time>
      </trkpt>
      <trkpt lat="47.74135" lon="6.15693">
        <ele>397.1</ele>
        <time>2018-09-12T08:42:27Z</time>
      </trkpt>
      <trkpt lat="47.74141" lon="6.1569">
        <ele>397.24</ele>
        <time>2018-09-12T08:42:30Z</time>
      </trkpt>
      <trkpt lat="47.74146" lon="6.15686">
        <ele>397.37</ele>
        <time>2018-09-12T08:42:33Z</time>
      </trkpt>
      <trkpt lat="47.7415" lon="6.15686">
        <ele>397.5</ele>
        <time>2018-09-12T08:42:40Z</time>
      </trkpt>
      <trkpt lat="47.74155" lon="6.15687">
        <ele>397.63</ele>
        <time>2018-09-12T08:42:53Z</time>
      </trkpt>
      <trkpt lat="47.74157" lon="6.15681">
        <ele>397.82</ele>
        <time>2018-09-12T08:43:32Z</time>
      </trkpt>
      <trkpt lat="47.74151" lon="6.15682">
        <ele>398.28</ele>
        <time>2018-09-12T08:44:01Z</time>
      </trkpt>
      <trkpt lat="47.74145" lon="6.15685">
        <ele>398.41</ele>
        <time>2018-09-12T08:44:04Z</time>
      </trkpt>
      <trkpt lat="47.7414" lon="6.15687">
        <ele>398.48</ele>
        <time>2018-09-12T08:44:06Z</time>
      </trkpt>
      <trkpt lat="47.74134" lon="6.15691">
        <ele>398.59</ele>
        <time>2018-09-12T08:44:09Z</time>
      </trkpt>
      <trkpt lat="47.74129" lon="6.15695">
        <ele>398.66</ele>
        <time>2018-09-12T08:44:11Z</time>
      </trkpt>
      <trkpt lat="47.74123" lon="6.15699">
        <ele>398.73</ele>
        <time>2018-09-12T08:44:13Z</time>
      </trkpt>
      <trkpt lat="47.74116" lon="6.15704">
        <ele>398.79</ele>
        <time>2018-09-12T08:44:15Z</time>
      </trkpt>
      <trkpt lat="47.7411" lon="6.15708">
        <ele>398.86</ele>
        <time>2018-09-12T08:44:17Z</time>
      </trkpt>
      <trkpt lat="47.74104" lon="6.15713">
        <ele>398.92</ele>
        <time>2018-09-12T08:44:19Z</time>
      </trkpt>
      <trkpt lat="47.74098" lon="6.15716">
        <ele>398.98</ele>
        <time>2018-09-12T08:44:21Z</time>
      </trkpt>
      <trkpt lat="47.74091" lon="6.15719">
        <ele>399.03</ele>
        <time>2018-09-12T08:44:23Z</time>
      </trkpt>
      <trkpt lat="47.74083" lon="6.15722">
        <ele>399.26</ele>
        <time>2018-09-12T08:44:25Z</time>
      </trkpt>
      <trkpt lat="47.74079" lon="6.15724">
        <ele>399.33</ele>
        <time>2018-09-12T08:44:26Z</time>
      </trkpt>
      <trkpt lat="47.74074" lon="6.15725">
        <ele>399.5</ele>
        <time>2018-09-12T08:44:27Z</time>
      </trkpt>
      <trkpt lat="47.74069" lon="6.15727">
        <ele>399.67</ele>
        <time>2018-09-12T08:44:28Z</time>
      </trkpt>
      <trkpt lat="47.74064" lon="6.15729">
        <ele>399.82</ele>
        <time>2018-09-12T08:44:29Z</time>
      </trkpt>
      <trkpt lat="47.74058" lon="6.15732">
        <ele>399.94</ele>
        <time>2018-09-12T08:44:30Z</time>
      </trkpt>
      <trkpt lat="47.74052" lon="6.15735">
        <ele>399.9</ele>
        <time>2018-09-12T08:44:31Z</time>
      </trkpt>
      <trkpt lat="47.74045" lon="6.15738">
        <ele>399.87</ele>
        <time>2018-09-12T08:44:32Z</time>
      </trkpt>
      <trkpt lat="47.74039" lon="6.15741">
        <ele>399.72</ele>
        <time>2018-09-12T08:44:33Z</time>
      </trkpt>
      <trkpt lat="47.74034" lon="6.15744">
        <ele>399.67</ele>
        <time>2018-09-12T08:44:34Z</time>
      </trkpt>
      <trkpt lat="47.74029" lon="6.15746">
        <ele>399.64</ele>
        <time>2018-09-12T08:44:35Z</time>
      </trkpt>
      <trkpt lat="47.74024" lon="6.15748">
        <ele>399.62</ele>
        <time>2018-09-12T08:44:36Z</time>
      </trkpt>
      <trkpt lat="47.74019" lon="6.15751">
        <ele>399.6</ele>
        <time>2018-09-12T08:44:37Z</time>
      </trkpt>
      <trkpt lat="47.74014" lon="6.15753">
        <ele>399.58</ele>
        <time>2018-09-12T08:44:38Z</time>
      </trkpt>
      <trkpt lat="47.74006" lon="6.15757">
        <ele>399.55</ele>
        <time>2018-09-12T08:44:40Z</time>
      </trkpt>
      <trkpt lat="47.73998" lon="6.15762">
        <ele>399.52</ele>
        <time>2018-09-12T08:44:42Z</time>
      </trkpt>
      <trkpt lat="47.73992" lon="6.15766">
        <ele>399.5</ele>
        <time>2018-09-12T08:44:44Z</time>
      </trkpt>
      <trkpt lat="47.73987" lon="6.15769">
        <ele>399.48</ele>
        <time>2018-09-12T08:44:46Z</time>
      </trkpt>
      <trkpt lat="47.73981" lon="6.15771">
        <ele>399.46</ele>
        <time>2018-09-12T08:44:48Z</time>
      </trkpt>
      <trkpt lat="47.73975" lon="6.15775">
        <ele>399.44</ele>
        <time>2018-09-12T08:44:50Z</time>
      </trkpt>
      <trkpt lat="47.73968" lon="6.1578">
        <ele>399.42</ele>
        <time>2018-09-12T08:44:52Z</time>
      </trkpt>
      <trkpt lat="47.73961" lon="6.15784">
        <ele>399.41</ele>
        <time>2018-09-12T08:44:54Z</time>
      </trkpt>
      <trkpt lat="47.73954" lon="6.15788">
        <ele>399.4</ele>
        <time>2018-09-12T08:44:56Z</time>
      </trkpt>
      <trkpt lat="47.73948" lon="6.15791">
        <ele>399.39</ele>
        <time>2018-09-12T08:44:58Z</time>
      </trkpt>
      <trkpt lat="47.73939" lon="6.15793">
        <ele>399.38</ele>
        <time>2018-09-12T08:45:00Z</time>
      </trkpt>
      <trkpt lat="47.73935" lon="6.15795">
        <ele>399.38</ele>
        <time>2018-09-12T08:45:01Z</time>
      </trkpt>
      <trkpt lat="47.7393" lon="6.15797">
        <ele>399.38</ele>
        <time>2018-09-12T08:45:02Z</time>
      </trkpt>
      <trkpt lat="47.73926" lon="6.15799">
        <ele>399.38</ele>
        <time>2018-09-12T08:45:03Z</time>
      </trkpt>
      <trkpt lat="47.73921" lon="6.15801">
        <ele>399.38</ele>
        <time>2018-09-12T08:45:04Z</time>
      </trkpt>
      <trkpt lat="47.73917" lon="6.15803">
        <ele>399.39</ele>
        <time>2018-09-12T08:45:05Z</time>
      </trkpt>
      <trkpt lat="47.73913" lon="6.15806">
        <ele>399.39</ele>
        <time>2018-09-12T08:45:06Z</time>
      </trkpt>
      <trkpt lat="47.73908" lon="6.15808">
        <ele>399.4</ele>
        <time>2018-09-12T08:45:07Z</time>
      </trkpt>
      <trkpt lat="47.739" lon="6.15811">
        <ele>399.42</ele>
        <time>2018-09-12T08:45:09Z</time>
      </trkpt>
      <trkpt lat="47.73895" lon="6.15814">
        <ele>399.43</ele>
        <time>2018-09-12T08:45:10Z</time>
      </trkpt>
      <trkpt lat="47.7389" lon="6.15816">
        <ele>399.44</ele>
        <time>2018-09-12T08:45:11Z</time>
      </trkpt>
      <trkpt lat="47.73885" lon="6.15819">
        <ele>399.46</ele>
        <time>2018-09-12T08:45:12Z</time>
      </trkpt>
      <trkpt lat="47.73869" lon="6.15829">
        <ele>399.46</ele>
        <time>2018-09-12T08:45:13Z</time>
      </trkpt>
      <trkpt lat="47.73864" lon="6.15831">
        <ele>399.47</ele>
        <time>2018-09-12T08:45:14Z</time>
      </trkpt>
      <trkpt lat="47.73858" lon="6.15834">
        <ele>399.47</ele>
        <time>2018-09-12T08:45:16Z</time>
      </trkpt>
      <trkpt lat="47.73853" lon="6.15836">
        <ele>399.48</ele>
        <time>2018-09-12T08:45:18Z</time>
      </trkpt>
      <trkpt lat="47.73846" lon="6.15839">
        <ele>399.49</ele>
        <time>2018-09-12T08:45:20Z</time>
      </trkpt>
      <trkpt lat="47.73838" lon="6.15843">
        <ele>399.49</ele>
        <time>2018-09-12T08:45:22Z</time>
      </trkpt>
      <trkpt lat="47.73833" lon="6.15846">
        <ele>399.49</ele>
        <time>2018-09-12T08:45:23Z</time>
      </trkpt>
      <trkpt lat="47.73829" lon="6.15848">
        <ele>399.49</ele>
        <time>2018-09-12T08:45:24Z</time>
      </trkpt>
      <trkpt lat="47.73824" lon="6.1585">
        <ele>399.48</ele>
        <time>2018-09-12T08:45:25Z</time>
      </trkpt>
      <trkpt lat="47.73819" lon="6.15852">
        <ele>399.45</ele>
        <time>2018-09-12T08:45:26Z</time>
      </trkpt>
      <trkpt lat="47.73814" lon="6.15856">
        <ele>399.42</ele>
        <time>2018-09-12T08:45:27Z</time>
      </trkpt>
      <trkpt lat="47.73807" lon="6.15859">
        <ele>399.41</ele>
        <time>2018-09-12T08:45:28Z</time>
      </trkpt>
      <trkpt lat="47.73801" lon="6.15862">
        <ele>399.41</ele>
        <time>2018-09-12T08:45:29Z</time>
      </trkpt>
      <trkpt lat="47.73796" lon="6.15864">
        <ele>399.4</ele>
        <time>2018-09-12T08:45:30Z</time>
      </trkpt>
      <trkpt lat="47.73788" lon="6.15865">
        <ele>399.39</ele>
        <time>2018-09-12T08:45:32Z</time>
      </trkpt>
      <trkpt lat="47.73783" lon="6.15864">
        <ele>399.38</ele>
        <time>2018-09-12T08:45:34Z</time>
      </trkpt>
      <trkpt lat="47.73779" lon="6.15855">
        <ele>399.35</ele>
        <time>2018-09-12T08:45:37Z</time>
      </trkpt>
      <trkpt lat="47.73779" lon="6.15848">
        <ele>399.33</ele>
        <time>2018-09-12T08:45:39Z</time>
      </trkpt>
      <trkpt lat="47.73779" lon="6.1584">
        <ele>399.3</ele>
        <time>2018-09-12T08:45:41Z</time>
      </trkpt>
      <trkpt lat="47.73779" lon="6.15832">
        <ele>399.27</ele>
        <time>2018-09-12T08:45:43Z</time>
      </trkpt>
      <trkpt lat="47.7378" lon="6.15824">
        <ele>399.23</ele>
        <time>2018-09-12T08:45:45Z</time>
      </trkpt>
      <trkpt lat="47.7378" lon="6.15815">
        <ele>399.19</ele>
        <time>2018-09-12T08:45:47Z</time>
      </trkpt>
      <trkpt lat="47.7378" lon="6.15807">
        <ele>399.14</ele>
        <time>2018-09-12T08:45:49Z</time>
      </trkpt>
      <trkpt lat="47.7378" lon="6.15798">
        <ele>399.09</ele>
        <time>2018-09-12T08:45:51Z</time>
      </trkpt>
      <trkpt lat="47.73779" lon="6.1579">
        <ele>399.05</ele>
        <time>2018-09-12T08:45:53Z</time>
      </trkpt>
      <trkpt lat="47.73779" lon="6.15782">
        <ele>399</ele>
        <time>2018-09-12T08:45:55Z</time>
      </trkpt>
      <trkpt lat="47.73779" lon="6.15775">
        <ele>398.95</ele>
        <time>2018-09-12T08:45:57Z</time>
      </trkpt>
      <trkpt lat="47.73779" lon="6.15767">
        <ele>398.9</ele>
        <time>2018-09-12T08:45:59Z</time>
      </trkpt>
      <trkpt lat="47.73778" lon="6.15759">
        <ele>398.85</ele>
        <time>2018-09-12T08:46:01Z</time>
      </trkpt>
      <trkpt lat="47.73778" lon="6.15752">
        <ele>398.79</ele>
        <time>2018-09-12T08:46:03Z</time>
      </trkpt>
      <trkpt lat="47.73778" lon="6.15743">
        <ele>398.74</ele>
        <time>2018-09-12T08:46:05Z</time>
      </trkpt>
      <trkpt lat="47.73777" lon="6.15735">
        <ele>398.69</ele>
        <time>2018-09-12T08:46:07Z</time>
      </trkpt>
      <trkpt lat="47.73776" lon="6.15727">
        <ele>398.64</ele>
        <time>2018-09-12T08:46:09Z</time>
      </trkpt>
      <trkpt lat="47.73776" lon="6.1572">
        <ele>398.59</ele>
        <time>2018-09-12T08:46:11Z</time>
      </trkpt>
      <trkpt lat="47.73775" lon="6.15712">
        <ele>398.5</ele>
        <time>2018-09-12T08:46:14Z</time>
      </trkpt>
      <trkpt lat="47.73775" lon="6.15705">
        <ele>398.41</ele>
        <time>2018-09-12T08:46:17Z</time>
      </trkpt>
      <trkpt lat="47.73775" lon="6.15697">
        <ele>398.32</ele>
        <time>2018-09-12T08:46:20Z</time>
      </trkpt>
      <trkpt lat="47.73774" lon="6.1569">
        <ele>398.26</ele>
        <time>2018-09-12T08:46:22Z</time>
      </trkpt>
      <trkpt lat="47.73774" lon="6.15682">
        <ele>398.2</ele>
        <time>2018-09-12T08:46:24Z</time>
      </trkpt>
      <trkpt lat="47.73773" lon="6.15673">
        <ele>398.11</ele>
        <time>2018-09-12T08:46:27Z</time>
      </trkpt>
      <trkpt lat="47.73772" lon="6.15665">
        <ele>398.05</ele>
        <time>2018-09-12T08:46:29Z</time>
      </trkpt>
      <trkpt lat="47.73771" lon="6.15656">
        <ele>397.99</ele>
        <time>2018-09-12T08:46:31Z</time>
      </trkpt>
      <trkpt lat="47.7377" lon="6.15649">
        <ele>397.93</ele>
        <time>2018-09-12T08:46:33Z</time>
      </trkpt>
      <trkpt lat="47.73768" lon="6.15642">
        <ele>397.87</ele>
        <time>2018-09-12T08:46:35Z</time>
      </trkpt>
      <trkpt lat="47.73768" lon="6.15634">
        <ele>397.82</ele>
        <time>2018-09-12T08:46:37Z</time>
      </trkpt>
      <trkpt lat="47.73766" lon="6.15623">
        <ele>397.73</ele>
        <time>2018-09-12T08:46:40Z</time>
      </trkpt>
      <trkpt lat="47.73765" lon="6.15616">
        <ele>397.68</ele>
        <time>2018-09-12T08:46:42Z</time>
      </trkpt>
      <trkpt lat="47.73764" lon="6.15609">
        <ele>397.62</ele>
        <time>2018-09-12T08:46:44Z</time>
      </trkpt>
      <trkpt lat="47.73763" lon="6.156">
        <ele>397.54</ele>
        <time>2018-09-12T08:46:47Z</time>
      </trkpt>
      <trkpt lat="47.7376" lon="6.15591">
        <ele>397.47</ele>
        <time>2018-09-12T08:46:50Z</time>
      </trkpt>
      <trkpt lat="47.73758" lon="6.15584">
        <ele>397.43</ele>
        <time>2018-09-12T08:46:52Z</time>
      </trkpt>
      <trkpt lat="47.73757" lon="6.15577">
        <ele>397.39</ele>
        <time>2018-09-12T08:46:54Z</time>
      </trkpt>
      <trkpt lat="47.73756" lon="6.15571">
        <ele>397.35</ele>
        <time>2018-09-12T08:46:56Z</time>
      </trkpt>
      <trkpt lat="47.73755" lon="6.15563">
        <ele>397.32</ele>
        <time>2018-09-12T08:46:58Z</time>
      </trkpt>
      <trkpt lat="47.73753" lon="6.15556">
        <ele>397.29</ele>
        <time>2018-09-12T08:47:00Z</time>
      </trkpt>
      <trkpt lat="47.73751" lon="6.15549">
        <ele>397.27</ele>
        <time>2018-09-12T08:47:02Z</time>
      </trkpt>
      <trkpt lat="47.7375" lon="6.15543">
        <ele>397.25</ele>
        <time>2018-09-12T08:47:04Z</time>
      </trkpt>
      <trkpt lat="47.73747" lon="6.15534">
        <ele>397.23</ele>
        <time>2018-09-12T08:47:07Z</time>
      </trkpt>
      <trkpt lat="47.73746" lon="6.15527">
        <ele>397.2</ele>
        <time>2018-09-12T08:47:10Z</time>
      </trkpt>
      <trkpt lat="47.73744" lon="6.15519">
        <ele>397.17</ele>
        <time>2018-09-12T08:47:13Z</time>
      </trkpt>
      <trkpt lat="47.73742" lon="6.15511">
        <ele>397.15</ele>
        <time>2018-09-12T08:47:16Z</time>
      </trkpt>
      <trkpt lat="47.7374" lon="6.15504">
        <ele>397.13</ele>
        <time>2018-09-12T08:47:18Z</time>
      </trkpt>
      <trkpt lat="47.73738" lon="6.15498">
        <ele>397.12</ele>
        <time>2018-09-12T08:47:20Z</time>
      </trkpt>
      <trkpt lat="47.73736" lon="6.15491">
        <ele>397.12</ele>
        <time>2018-09-12T08:47:22Z</time>
      </trkpt>
      <trkpt lat="47.73734" lon="6.15485">
        <ele>397.12</ele>
        <time>2018-09-12T08:47:28Z</time>
      </trkpt>
      <trkpt lat="47.7373" lon="6.15481">
        <ele>397.01</ele>
        <time>2018-09-12T08:47:59Z</time>
      </trkpt>
      <trkpt lat="47.73727" lon="6.15476">
        <ele>396.99</ele>
        <time>2018-09-12T08:48:02Z</time>
      </trkpt>
      <trkpt lat="47.73723" lon="6.15469">
        <ele>396.97</ele>
        <time>2018-09-12T08:48:05Z</time>
      </trkpt>
      <trkpt lat="47.73718" lon="6.15461">
        <ele>396.94</ele>
        <time>2018-09-12T08:48:08Z</time>
      </trkpt>
      <trkpt lat="47.73714" lon="6.15453">
        <ele>396.91</ele>
        <time>2018-09-12T08:48:10Z</time>
      </trkpt>
      <trkpt lat="47.7371" lon="6.15446">
        <ele>396.89</ele>
        <time>2018-09-12T08:48:12Z</time>
      </trkpt>
      <trkpt lat="47.73705" lon="6.15439">
        <ele>396.86</ele>
        <time>2018-09-12T08:48:14Z</time>
      </trkpt>
      <trkpt lat="47.737" lon="6.15432">
        <ele>396.6</ele>
        <time>2018-09-12T08:48:16Z</time>
      </trkpt>
      <trkpt lat="47.73696" lon="6.15429">
        <ele>396.46</ele>
        <time>2018-09-12T08:48:17Z</time>
      </trkpt>
      <trkpt lat="47.73692" lon="6.15425">
        <ele>396.33</ele>
        <time>2018-09-12T08:48:18Z</time>
      </trkpt>
      <trkpt lat="47.73688" lon="6.15422">
        <ele>396.22</ele>
        <time>2018-09-12T08:48:19Z</time>
      </trkpt>
      <trkpt lat="47.73684" lon="6.15418">
        <ele>396.12</ele>
        <time>2018-09-12T08:48:20Z</time>
      </trkpt>
      <trkpt lat="47.73668" lon="6.15405">
        <ele>395.93</ele>
        <time>2018-09-12T08:48:22Z</time>
      </trkpt>
      <trkpt lat="47.73664" lon="6.15401">
        <ele>395.84</ele>
        <time>2018-09-12T08:48:23Z</time>
      </trkpt>
      <trkpt lat="47.73659" lon="6.15397">
        <ele>395.75</ele>
        <time>2018-09-12T08:48:24Z</time>
      </trkpt>
      <trkpt lat="47.73654" lon="6.15393">
        <ele>395.67</ele>
        <time>2018-09-12T08:48:25Z</time>
      </trkpt>
      <trkpt lat="47.73649" lon="6.1539">
        <ele>395.59</ele>
        <time>2018-09-12T08:48:26Z</time>
      </trkpt>
      <trkpt lat="47.73643" lon="6.15386">
        <ele>395.51</ele>
        <time>2018-09-12T08:48:27Z</time>
      </trkpt>
      <trkpt lat="47.73637" lon="6.15382">
        <ele>395.44</ele>
        <time>2018-09-12T08:48:28Z</time>
      </trkpt>
      <trkpt lat="47.73632" lon="6.15377">
        <ele>395.37</ele>
        <time>2018-09-12T08:48:29Z</time>
      </trkpt>
      <trkpt lat="47.73627" lon="6.15371">
        <ele>395.29</ele>
        <time>2018-09-12T08:48:30Z</time>
      </trkpt>
      <trkpt lat="47.73623" lon="6.15365">
        <ele>395.21</ele>
        <time>2018-09-12T08:48:31Z</time>
      </trkpt>
      <trkpt lat="47.73618" lon="6.15358">
        <ele>395.13</ele>
        <time>2018-09-12T08:48:32Z</time>
      </trkpt>
      <trkpt lat="47.73615" lon="6.1535">
        <ele>395.02</ele>
        <time>2018-09-12T08:48:33Z</time>
      </trkpt>
      <trkpt lat="47.73611" lon="6.15341">
        <ele>394.89</ele>
        <time>2018-09-12T08:48:34Z</time>
      </trkpt>
      <trkpt lat="47.73608" lon="6.15332">
        <ele>394.75</ele>
        <time>2018-09-12T08:48:35Z</time>
      </trkpt>
      <trkpt lat="47.73606" lon="6.15321">
        <ele>394.61</ele>
        <time>2018-09-12T08:48:36Z</time>
      </trkpt>
      <trkpt lat="47.73604" lon="6.1531">
        <ele>394.46</ele>
        <time>2018-09-12T08:48:37Z</time>
      </trkpt>
      <trkpt lat="47.73602" lon="6.153">
        <ele>394.31</ele>
        <time>2018-09-12T08:48:38Z</time>
      </trkpt>
      <trkpt lat="47.736" lon="6.15291">
        <ele>394.17</ele>
        <time>2018-09-12T08:48:39Z</time>
      </trkpt>
      <trkpt lat="47.73598" lon="6.15283">
        <ele>394.04</ele>
        <time>2018-09-12T08:48:40Z</time>
      </trkpt>
      <trkpt lat="47.73596" lon="6.15275">
        <ele>393.91</ele>
        <time>2018-09-12T08:48:41Z</time>
      </trkpt>
      <trkpt lat="47.73594" lon="6.15267">
        <ele>393.76</ele>
        <time>2018-09-12T08:48:42Z</time>
      </trkpt>
      <trkpt lat="47.73592" lon="6.1526">
        <ele>393.58</ele>
        <time>2018-09-12T08:48:43Z</time>
      </trkpt>
      <trkpt lat="47.7359" lon="6.15254">
        <ele>393.35</ele>
        <time>2018-09-12T08:48:44Z</time>
      </trkpt>
      <trkpt lat="47.73588" lon="6.15247">
        <ele>393.06</ele>
        <time>2018-09-12T08:48:45Z</time>
      </trkpt>
      <trkpt lat="47.73587" lon="6.1524">
        <ele>392.95</ele>
        <time>2018-09-12T08:48:46Z</time>
      </trkpt>
      <trkpt lat="47.73586" lon="6.15234">
        <ele>392.68</ele>
        <time>2018-09-12T08:48:47Z</time>
      </trkpt>
      <trkpt lat="47.73585" lon="6.15227">
        <ele>392.56</ele>
        <time>2018-09-12T08:48:48Z</time>
      </trkpt>
      <trkpt lat="47.73584" lon="6.15219">
        <ele>392.17</ele>
        <time>2018-09-12T08:48:49Z</time>
      </trkpt>
      <trkpt lat="47.73583" lon="6.15212">
        <ele>391.72</ele>
        <time>2018-09-12T08:48:50Z</time>
      </trkpt>
      <trkpt lat="47.73582" lon="6.15203">
        <ele>391.46</ele>
        <time>2018-09-12T08:48:52Z</time>
      </trkpt>
      <trkpt lat="47.7358" lon="6.15192">
        <ele>391.33</ele>
        <time>2018-09-12T08:48:54Z</time>
      </trkpt>
      <trkpt lat="47.73579" lon="6.15184">
        <ele>391.2</ele>
        <time>2018-09-12T08:48:56Z</time>
      </trkpt>
      <trkpt lat="47.73578" lon="6.15177">
        <ele>390.98</ele>
        <time>2018-09-12T08:48:58Z</time>
      </trkpt>
      <trkpt lat="47.73576" lon="6.1517">
        <ele>390.57</ele>
        <time>2018-09-12T08:49:00Z</time>
      </trkpt>
      <trkpt lat="47.73574" lon="6.15159">
        <ele>389.55</ele>
        <time>2018-09-12T08:49:03Z</time>
      </trkpt>
      <trkpt lat="47.73573" lon="6.15143">
        <ele>388.74</ele>
        <time>2018-09-12T08:49:05Z</time>
      </trkpt>
      <trkpt lat="47.73571" lon="6.15128">
        <ele>388.31</ele>
        <time>2018-09-12T08:49:06Z</time>
      </trkpt>
      <trkpt lat="47.7357" lon="6.15117">
        <ele>387.85</ele>
        <time>2018-09-12T08:49:07Z</time>
      </trkpt>
      <trkpt lat="47.7357" lon="6.15107">
        <ele>387.37</ele>
        <time>2018-09-12T08:49:08Z</time>
      </trkpt>
      <trkpt lat="47.73571" lon="6.15093">
        <ele>386.47</ele>
        <time>2018-09-12T08:49:10Z</time>
      </trkpt>
      <trkpt lat="47.73571" lon="6.15066">
        <ele>386.08</ele>
        <time>2018-09-12T08:49:11Z</time>
      </trkpt>
      <trkpt lat="47.73572" lon="6.15059">
        <ele>385.71</ele>
        <time>2018-09-12T08:49:12Z</time>
      </trkpt>
      <trkpt lat="47.73573" lon="6.15048">
        <ele>385.33</ele>
        <time>2018-09-12T08:49:13Z</time>
      </trkpt>
      <trkpt lat="47.73583" lon="6.15041">
        <ele>384.56</ele>
        <time>2018-09-12T08:49:15Z</time>
      </trkpt>
      <trkpt lat="47.73594" lon="6.1504">
        <ele>384.17</ele>
        <time>2018-09-12T08:49:16Z</time>
      </trkpt>
      <trkpt lat="47.73606" lon="6.1504">
        <ele>383.8</ele>
        <time>2018-09-12T08:49:17Z</time>
      </trkpt>
      <trkpt lat="47.73616" lon="6.15038">
        <ele>383.45</ele>
        <time>2018-09-12T08:49:18Z</time>
      </trkpt>
      <trkpt lat="47.73624" lon="6.15035">
        <ele>383.11</ele>
        <time>2018-09-12T08:49:19Z</time>
      </trkpt>
      <trkpt lat="47.73631" lon="6.15033">
        <ele>382.77</ele>
        <time>2018-09-12T08:49:20Z</time>
      </trkpt>
      <trkpt lat="47.73637" lon="6.15029">
        <ele>382.43</ele>
        <time>2018-09-12T08:49:21Z</time>
      </trkpt>
      <trkpt lat="47.73643" lon="6.15025">
        <ele>380</ele>
        <time>2018-09-12T08:49:22Z</time>
      </trkpt>
      <trkpt lat="47.7365" lon="6.15019">
        <ele>377.4</ele>
        <time>2018-09-12T08:49:23Z</time>
      </trkpt>
      <trkpt lat="47.73658" lon="6.15014">
        <ele>375.09</ele>
        <time>2018-09-12T08:49:24Z</time>
      </trkpt>
      <trkpt lat="47.73666" lon="6.15008">
        <ele>373.2</ele>
        <time>2018-09-12T08:49:25Z</time>
      </trkpt>
      <trkpt lat="47.7369" lon="6.14989">
        <ele>371.62</ele>
        <time>2018-09-12T08:49:26Z</time>
      </trkpt>
      <trkpt lat="47.73698" lon="6.14982">
        <ele>370.3</ele>
        <time>2018-09-12T08:49:27Z</time>
      </trkpt>
      <trkpt lat="47.73705" lon="6.14976">
        <ele>369.23</ele>
        <time>2018-09-12T08:49:28Z</time>
      </trkpt>
      <trkpt lat="47.73711" lon="6.14968">
        <ele>368.38</ele>
        <time>2018-09-12T08:49:29Z</time>
      </trkpt>
      <trkpt lat="47.73717" lon="6.1496">
        <ele>367.7</ele>
        <time>2018-09-12T08:49:30Z</time>
      </trkpt>
      <trkpt lat="47.73724" lon="6.14952">
        <ele>367.09</ele>
        <time>2018-09-12T08:49:31Z</time>
      </trkpt>
      <trkpt lat="47.73731" lon="6.14945">
        <ele>366.57</ele>
        <time>2018-09-12T08:49:32Z</time>
      </trkpt>
      <trkpt lat="47.73738" lon="6.14938">
        <ele>366.12</ele>
        <time>2018-09-12T08:49:33Z</time>
      </trkpt>
      <trkpt lat="47.73745" lon="6.1493">
        <ele>365.74</ele>
        <time>2018-09-12T08:49:34Z</time>
      </trkpt>
      <trkpt lat="47.73753" lon="6.14924">
        <ele>365.45</ele>
        <time>2018-09-12T08:49:35Z</time>
      </trkpt>
      <trkpt lat="47.73761" lon="6.14916">
        <ele>365.26</ele>
        <time>2018-09-12T08:49:36Z</time>
      </trkpt>
      <trkpt lat="47.73769" lon="6.14909">
        <ele>365.15</ele>
        <time>2018-09-12T08:49:37Z</time>
      </trkpt>
      <trkpt lat="47.73777" lon="6.14902">
        <ele>365.03</ele>
        <time>2018-09-12T08:49:38Z</time>
      </trkpt>
      <trkpt lat="47.73784" lon="6.14894">
        <ele>364.92</ele>
        <time>2018-09-12T08:49:39Z</time>
      </trkpt>
      <trkpt lat="47.73791" lon="6.14889">
        <ele>364.8</ele>
        <time>2018-09-12T08:49:40Z</time>
      </trkpt>
      <trkpt lat="47.73797" lon="6.14883">
        <ele>364.66</ele>
        <time>2018-09-12T08:49:41Z</time>
      </trkpt>
      <trkpt lat="47.73803" lon="6.14878">
        <ele>364.52</ele>
        <time>2018-09-12T08:49:42Z</time>
      </trkpt>
      <trkpt lat="47.7381" lon="6.14876">
        <ele>364.33</ele>
        <time>2018-09-12T08:49:43Z</time>
      </trkpt>
      <trkpt lat="47.73815" lon="6.14872">
        <ele>364.14</ele>
        <time>2018-09-12T08:49:44Z</time>
      </trkpt>
      <trkpt lat="47.7382" lon="6.14868">
        <ele>363.96</ele>
        <time>2018-09-12T08:49:45Z</time>
      </trkpt>
      <trkpt lat="47.73825" lon="6.14866">
        <ele>363.79</ele>
        <time>2018-09-12T08:49:46Z</time>
      </trkpt>
      <trkpt lat="47.73831" lon="6.14862">
        <ele>363.64</ele>
        <time>2018-09-12T08:49:47Z</time>
      </trkpt>
      <trkpt lat="47.73835" lon="6.14859">
        <ele>363.49</ele>
        <time>2018-09-12T08:49:48Z</time>
      </trkpt>
      <trkpt lat="47.73841" lon="6.14855">
        <ele>363.38</ele>
        <time>2018-09-12T08:49:49Z</time>
      </trkpt>
      <trkpt lat="47.73847" lon="6.14851">
        <ele>363.27</ele>
        <time>2018-09-12T08:49:50Z</time>
      </trkpt>
      <trkpt lat="47.73851" lon="6.14848">
        <ele>363.15</ele>
        <time>2018-09-12T08:49:51Z</time>
      </trkpt>
      <trkpt lat="47.73858" lon="6.14844">
        <ele>363.04</ele>
        <time>2018-09-12T08:49:52Z</time>
      </trkpt>
      <trkpt lat="47.73864" lon="6.1484">
        <ele>362.91</ele>
        <time>2018-09-12T08:49:53Z</time>
      </trkpt>
      <trkpt lat="47.73868" lon="6.14837">
        <ele>362.86</ele>
        <time>2018-09-12T08:49:54Z</time>
      </trkpt>
      <trkpt lat="47.73873" lon="6.14833">
        <ele>362.79</ele>
        <time>2018-09-12T08:49:56Z</time>
      </trkpt>
      <trkpt lat="47.73878" lon="6.1483">
        <ele>362.72</ele>
        <time>2018-09-12T08:49:58Z</time>
      </trkpt>
      <trkpt lat="47.73884" lon="6.14827">
        <ele>362.63</ele>
        <time>2018-09-12T08:50:00Z</time>
      </trkpt>
      <trkpt lat="47.73889" lon="6.14821">
        <ele>362.52</ele>
        <time>2018-09-12T08:50:02Z</time>
      </trkpt>
      <trkpt lat="47.73889" lon="6.14814">
        <ele>362.38</ele>
        <time>2018-09-12T08:50:04Z</time>
      </trkpt>
      <trkpt lat="47.73886" lon="6.14807">
        <ele>362.13</ele>
        <time>2018-09-12T08:50:07Z</time>
      </trkpt>
      <trkpt lat="47.73883" lon="6.14801">
        <ele>361.87</ele>
        <time>2018-09-12T08:50:15Z</time>
      </trkpt>
      <trkpt lat="47.73877" lon="6.148">
        <ele>361.97</ele>
        <time>2018-09-12T08:50:42Z</time>
      </trkpt>
      <trkpt lat="47.73872" lon="6.148">
        <ele>361.94</ele>
        <time>2018-09-12T08:50:46Z</time>
      </trkpt>
      <trkpt lat="47.73867" lon="6.14799">
        <ele>361.89</ele>
        <time>2018-09-12T08:50:48Z</time>
      </trkpt>
      <trkpt lat="47.73859" lon="6.14795">
        <ele>361.84</ele>
        <time>2018-09-12T08:50:50Z</time>
      </trkpt>
      <trkpt lat="47.7385" lon="6.14791">
        <ele>361.79</ele>
        <time>2018-09-12T08:50:52Z</time>
      </trkpt>
      <trkpt lat="47.73844" lon="6.14789">
        <ele>361.73</ele>
        <time>2018-09-12T08:50:54Z</time>
      </trkpt>
      <trkpt lat="47.73838" lon="6.14786">
        <ele>361.68</ele>
        <time>2018-09-12T08:50:56Z</time>
      </trkpt>
      <trkpt lat="47.73831" lon="6.14781">
        <ele>361.62</ele>
        <time>2018-09-12T08:50:58Z</time>
      </trkpt>
      <trkpt lat="47.73825" lon="6.14778">
        <ele>361.55</ele>
        <time>2018-09-12T08:51:00Z</time>
      </trkpt>
      <trkpt lat="47.73821" lon="6.14775">
        <ele>361.52</ele>
        <time>2018-09-12T08:51:03Z</time>
      </trkpt>
      <trkpt lat="47.73816" lon="6.14773">
        <ele>361.42</ele>
        <time>2018-09-12T08:51:18Z</time>
      </trkpt>
      <trkpt lat="47.7382" lon="6.14778">
        <ele>360.97</ele>
        <time>2018-09-12T08:51:45Z</time>
      </trkpt>
      <trkpt lat="47.73825" lon="6.14781">
        <ele>360.71</ele>
        <time>2018-09-12T08:51:49Z</time>
      </trkpt>
      <trkpt lat="47.7383" lon="6.14782">
        <ele>360.51</ele>
        <time>2018-09-12T08:51:52Z</time>
      </trkpt>
      <trkpt lat="47.73835" lon="6.14785">
        <ele>360.31</ele>
        <time>2018-09-12T08:51:55Z</time>
      </trkpt>
      <trkpt lat="47.73841" lon="6.14787">
        <ele>360.11</ele>
        <time>2018-09-12T08:51:58Z</time>
      </trkpt>
      <trkpt lat="47.73845" lon="6.14789">
        <ele>359.98</ele>
        <time>2018-09-12T08:52:00Z</time>
      </trkpt>
      <trkpt lat="47.7385" lon="6.14792">
        <ele>359.86</ele>
        <time>2018-09-12T08:52:02Z</time>
      </trkpt>
      <trkpt lat="47.73855" lon="6.14794">
        <ele>359.73</ele>
        <time>2018-09-12T08:52:04Z</time>
      </trkpt>
      <trkpt lat="47.73859" lon="6.14797">
        <ele>359.61</ele>
        <time>2018-09-12T08:52:06Z</time>
      </trkpt>
      <trkpt lat="47.73864" lon="6.14799">
        <ele>359.44</ele>
        <time>2018-09-12T08:52:09Z</time>
      </trkpt>
      <trkpt lat="47.73869" lon="6.14801">
        <ele>359.32</ele>
        <time>2018-09-12T08:52:11Z</time>
      </trkpt>
      <trkpt lat="47.73874" lon="6.14799">
        <ele>359.16</ele>
        <time>2018-09-12T08:52:14Z</time>
      </trkpt>
      <trkpt lat="47.73875" lon="6.14791">
        <ele>358.85</ele>
        <time>2018-09-12T08:52:20Z</time>
      </trkpt>
      <trkpt lat="47.73873" lon="6.14785">
        <ele>358.64</ele>
        <time>2018-09-12T08:52:24Z</time>
      </trkpt>
      <trkpt lat="47.73871" lon="6.14778">
        <ele>358.47</ele>
        <time>2018-09-12T08:52:27Z</time>
      </trkpt>
      <trkpt lat="47.73869" lon="6.14771">
        <ele>358.31</ele>
        <time>2018-09-12T08:52:30Z</time>
      </trkpt>
      <trkpt lat="47.73869" lon="6.14764">
        <ele>358.13</ele>
        <time>2018-09-12T08:52:33Z</time>
      </trkpt>
      <trkpt lat="47.7387" lon="6.14757">
        <ele>357.91</ele>
        <time>2018-09-12T08:52:38Z</time>
      </trkpt>
      <trkpt lat="47.73872" lon="6.14751">
        <ele>357.66</ele>
        <time>2018-09-12T08:52:42Z</time>
      </trkpt>
      <trkpt lat="47.73874" lon="6.14742">
        <ele>357.48</ele>
        <time>2018-09-12T08:52:45Z</time>
      </trkpt>
      <trkpt lat="47.73877" lon="6.14732">
        <ele>357.31</ele>
        <time>2018-09-12T08:52:48Z</time>
      </trkpt>
      <trkpt lat="47.73879" lon="6.14726">
        <ele>357.22</ele>
        <time>2018-09-12T08:52:50Z</time>
      </trkpt>
      <trkpt lat="47.73883" lon="6.14718">
        <ele>357.08</ele>
        <time>2018-09-12T08:52:53Z</time>
      </trkpt>
      <trkpt lat="47.73885" lon="6.14712">
        <ele>356.95</ele>
        <time>2018-09-12T08:52:56Z</time>
      </trkpt>
      <trkpt lat="47.73888" lon="6.14705">
        <ele>356.78</ele>
        <time>2018-09-12T08:53:00Z</time>
      </trkpt>
      <trkpt lat="47.73892" lon="6.14699">
        <ele>356.6</ele>
        <time>2018-09-12T08:53:04Z</time>
      </trkpt>
      <trkpt lat="47.73895" lon="6.14693">
        <ele>356.42</ele>
        <time>2018-09-12T08:53:08Z</time>
      </trkpt>
      <trkpt lat="47.739" lon="6.14686">
        <ele>356.25</ele>
        <time>2018-09-12T08:53:12Z</time>
      </trkpt>
      <trkpt lat="47.73905" lon="6.14679">
        <ele>356.13</ele>
        <time>2018-09-12T08:53:15Z</time>
      </trkpt>
      <trkpt lat="47.73911" lon="6.14674">
        <ele>356.04</ele>
        <time>2018-09-12T08:53:18Z</time>
      </trkpt>
      <trkpt lat="47.73915" lon="6.14669">
        <ele>355.98</ele>
        <time>2018-09-12T08:53:20Z</time>
      </trkpt>
      <trkpt lat="47.73919" lon="6.14663">
        <ele>355.92</ele>
        <time>2018-09-12T08:53:23Z</time>
      </trkpt>
      <trkpt lat="47.7392" lon="6.14655">
        <ele>355.84</ele>
        <time>2018-09-12T08:53:27Z</time>
      </trkpt>
      <trkpt lat="47.7392" lon="6.14648">
        <ele>355.76</ele>
        <time>2018-09-12T08:53:36Z</time>
      </trkpt>
      <trkpt lat="47.73916" lon="6.14648">
        <ele>355.63</ele>
        <time>2018-09-12T08:54:12Z</time>
      </trkpt>
      <trkpt lat="47.73912" lon="6.14644">
        <ele>355.44</ele>
        <time>2018-09-12T08:54:18Z</time>
      </trkpt>
      <trkpt lat="47.73909" lon="6.14637">
        <ele>355.28</ele>
        <time>2018-09-12T08:54:23Z</time>
      </trkpt>
      <trkpt lat="47.73905" lon="6.14633">
        <ele>355.2</ele>
        <time>2018-09-12T08:54:26Z</time>
      </trkpt>
      <trkpt lat="47.73901" lon="6.14629">
        <ele>355.11</ele>
        <time>2018-09-12T08:54:30Z</time>
      </trkpt>
      <trkpt lat="47.73898" lon="6.14623">
        <ele>354.97</ele>
        <time>2018-09-12T08:54:38Z</time>
      </trkpt>
      <trkpt lat="47.73894" lon="6.14618">
        <ele>354.9</ele>
        <time>2018-09-12T08:54:44Z</time>
      </trkpt>
      <trkpt lat="47.73891" lon="6.14611">
        <ele>354.83</ele>
        <time>2018-09-12T08:54:52Z</time>
      </trkpt>
      <trkpt lat="47.73887" lon="6.14606">
        <ele>354.78</ele>
        <time>2018-09-12T08:55:00Z</time>
      </trkpt>
      <trkpt lat="47.73882" lon="6.14601">
        <ele>354.76</ele>
        <time>2018-09-12T08:55:06Z</time>
      </trkpt>
      <trkpt lat="47.73879" lon="6.14595">
        <ele>354.77</ele>
        <time>2018-09-12T08:55:11Z</time>
      </trkpt>
      <trkpt lat="47.73875" lon="6.14591">
        <ele>354.87</ele>
        <time>2018-09-12T08:55:20Z</time>
      </trkpt>
      <trkpt lat="47.73871" lon="6.14587">
        <ele>354.98</ele>
        <time>2018-09-12T08:55:27Z</time>
      </trkpt>
      <trkpt lat="47.73868" lon="6.14582">
        <ele>355.09</ele>
        <time>2018-09-12T08:55:32Z</time>
      </trkpt>
      <trkpt lat="47.73864" lon="6.14579">
        <ele>355.22</ele>
        <time>2018-09-12T08:55:43Z</time>
      </trkpt>
      <trkpt lat="47.7386" lon="6.14575">
        <ele>355.34</ele>
        <time>2018-09-12T08:55:48Z</time>
      </trkpt>
      <trkpt lat="47.73856" lon="6.14571">
        <ele>355.44</ele>
        <time>2018-09-12T08:55:52Z</time>
      </trkpt>
      <trkpt lat="47.73851" lon="6.14567">
        <ele>355.53</ele>
        <time>2018-09-12T08:55:55Z</time>
      </trkpt>
      <trkpt lat="47.73847" lon="6.14563">
        <ele>355.66</ele>
        <time>2018-09-12T08:55:59Z</time>
      </trkpt>
      <trkpt lat="47.73844" lon="6.14558">
        <ele>355.76</ele>
        <time>2018-09-12T08:56:02Z</time>
      </trkpt>
      <trkpt lat="47.73841" lon="6.14553">
        <ele>355.91</ele>
        <time>2018-09-12T08:56:06Z</time>
      </trkpt>
      <trkpt lat="47.73838" lon="6.14546">
        <ele>356.05</ele>
        <time>2018-09-12T08:56:10Z</time>
      </trkpt>
      <trkpt lat="47.73834" lon="6.14541">
        <ele>356.24</ele>
        <time>2018-09-12T08:56:15Z</time>
      </trkpt>
      <trkpt lat="47.73832" lon="6.14534">
        <ele>356.4</ele>
        <time>2018-09-12T08:56:19Z</time>
      </trkpt>
      <trkpt lat="47.73829" lon="6.14527">
        <ele>356.56</ele>
        <time>2018-09-12T08:56:23Z</time>
      </trkpt>
      <trkpt lat="47.73826" lon="6.1452">
        <ele>356.73</ele>
        <time>2018-09-12T08:56:27Z</time>
      </trkpt>
      <trkpt lat="47.73825" lon="6.14511">
        <ele>356.9</ele>
        <time>2018-09-12T08:56:31Z</time>
      </trkpt>
      <trkpt lat="47.73823" lon="6.14505">
        <ele>357.02</ele>
        <time>2018-09-12T08:56:34Z</time>
      </trkpt>
      <trkpt lat="47.73822" lon="6.14497">
        <ele>357.14</ele>
        <time>2018-09-12T08:56:37Z</time>
      </trkpt>
      <trkpt lat="47.7382" lon="6.14491">
        <ele>357.27</ele>
        <time>2018-09-12T08:56:40Z</time>
      </trkpt>
      <trkpt lat="47.7382" lon="6.14482">
        <ele>357.45</ele>
        <time>2018-09-12T08:56:44Z</time>
      </trkpt>
      <trkpt lat="47.73819" lon="6.14474">
        <ele>357.64</ele>
        <time>2018-09-12T08:56:48Z</time>
      </trkpt>
      <trkpt lat="47.73817" lon="6.14465">
        <ele>357.78</ele>
        <time>2018-09-12T08:56:51Z</time>
      </trkpt>
      <trkpt lat="47.73815" lon="6.14458">
        <ele>357.87</ele>
        <time>2018-09-12T08:56:53Z</time>
      </trkpt>
      <trkpt lat="47.73814" lon="6.14449">
        <ele>358.02</ele>
        <time>2018-09-12T08:56:56Z</time>
      </trkpt>
      <trkpt lat="47.73814" lon="6.1444">
        <ele>358.18</ele>
        <time>2018-09-12T08:56:59Z</time>
      </trkpt>
      <trkpt lat="47.73813" lon="6.14432">
        <ele>358.33</ele>
        <time>2018-09-12T08:57:02Z</time>
      </trkpt>
      <trkpt lat="47.73813" lon="6.14425">
        <ele>358.48</ele>
        <time>2018-09-12T08:57:05Z</time>
      </trkpt>
      <trkpt lat="47.73812" lon="6.14418">
        <ele>358.63</ele>
        <time>2018-09-12T08:57:08Z</time>
      </trkpt>
      <trkpt lat="47.73812" lon="6.1441">
        <ele>358.82</ele>
        <time>2018-09-12T08:57:12Z</time>
      </trkpt>
      <trkpt lat="47.73813" lon="6.14402">
        <ele>359.01</ele>
        <time>2018-09-12T08:57:16Z</time>
      </trkpt>
      <trkpt lat="47.73813" lon="6.14395">
        <ele>359.14</ele>
        <time>2018-09-12T08:57:19Z</time>
      </trkpt>
      <trkpt lat="47.73814" lon="6.14388">
        <ele>359.28</ele>
        <time>2018-09-12T08:57:22Z</time>
      </trkpt>
      <trkpt lat="47.73815" lon="6.1438">
        <ele>359.47</ele>
        <time>2018-09-12T08:57:26Z</time>
      </trkpt>
      <trkpt lat="47.73814" lon="6.14371">
        <ele>359.67</ele>
        <time>2018-09-12T08:57:30Z</time>
      </trkpt>
      <trkpt lat="47.73813" lon="6.14361">
        <ele>359.83</ele>
        <time>2018-09-12T08:57:33Z</time>
      </trkpt>
      <trkpt lat="47.73812" lon="6.14352">
        <ele>360</ele>
        <time>2018-09-12T08:57:36Z</time>
      </trkpt>
      <trkpt lat="47.73812" lon="6.14345">
        <ele>360.22</ele>
        <time>2018-09-12T08:57:40Z</time>
      </trkpt>
      <trkpt lat="47.73813" lon="6.14337">
        <ele>360.44</ele>
        <time>2018-09-12T08:57:44Z</time>
      </trkpt>
      <trkpt lat="47.73811" lon="6.1433">
        <ele>360.55</ele>
        <time>2018-09-12T08:57:46Z</time>
      </trkpt>
      <trkpt lat="47.73809" lon="6.14323">
        <ele>360.66</ele>
        <time>2018-09-12T08:57:48Z</time>
      </trkpt>
      <trkpt lat="47.73808" lon="6.14316">
        <ele>360.83</ele>
        <time>2018-09-12T08:57:51Z</time>
      </trkpt>
      <trkpt lat="47.73807" lon="6.14307">
        <ele>361.07</ele>
        <time>2018-09-12T08:57:55Z</time>
      </trkpt>
      <trkpt lat="47.73806" lon="6.14299">
        <ele>361.32</ele>
        <time>2018-09-12T08:57:59Z</time>
      </trkpt>
      <trkpt lat="47.73806" lon="6.14292">
        <ele>361.64</ele>
        <time>2018-09-12T08:58:04Z</time>
      </trkpt>
      <trkpt lat="47.73804" lon="6.14286">
        <ele>361.85</ele>
        <time>2018-09-12T08:58:07Z</time>
      </trkpt>
      <trkpt lat="47.73804" lon="6.14279">
        <ele>362.06</ele>
        <time>2018-09-12T08:58:10Z</time>
      </trkpt>
      <trkpt lat="47.73803" lon="6.1427">
        <ele>362.35</ele>
        <time>2018-09-12T08:58:14Z</time>
      </trkpt>
      <trkpt lat="47.73802" lon="6.14263">
        <ele>362.65</ele>
        <time>2018-09-12T08:58:18Z</time>
      </trkpt>
      <trkpt lat="47.73802" lon="6.14255">
        <ele>362.95</ele>
        <time>2018-09-12T08:58:22Z</time>
      </trkpt>
      <trkpt lat="47.73803" lon="6.14247">
        <ele>363.18</ele>
        <time>2018-09-12T08:58:25Z</time>
      </trkpt>
      <trkpt lat="47.73804" lon="6.14239">
        <ele>363.41</ele>
        <time>2018-09-12T08:58:28Z</time>
      </trkpt>
      <trkpt lat="47.73803" lon="6.14233">
        <ele>363.64</ele>
        <time>2018-09-12T08:58:31Z</time>
      </trkpt>
      <trkpt lat="47.73803" lon="6.14225">
        <ele>363.86</ele>
        <time>2018-09-12T08:58:34Z</time>
      </trkpt>
      <trkpt lat="47.73802" lon="6.14218">
        <ele>364.07</ele>
        <time>2018-09-12T08:58:37Z</time>
      </trkpt>
      <trkpt lat="47.73802" lon="6.14211">
        <ele>364.27</ele>
        <time>2018-09-12T08:58:40Z</time>
      </trkpt>
      <trkpt lat="47.73802" lon="6.14202">
        <ele>364.6</ele>
        <time>2018-09-12T08:58:45Z</time>
      </trkpt>
      <trkpt lat="47.73802" lon="6.14192">
        <ele>364.84</ele>
        <time>2018-09-12T08:58:49Z</time>
      </trkpt>
      <trkpt lat="47.73801" lon="6.14184">
        <ele>365.01</ele>
        <time>2018-09-12T08:58:52Z</time>
      </trkpt>
      <trkpt lat="47.738" lon="6.14177">
        <ele>365.12</ele>
        <time>2018-09-12T08:58:54Z</time>
      </trkpt>
      <trkpt lat="47.73799" lon="6.14171">
        <ele>365.22</ele>
        <time>2018-09-12T08:58:56Z</time>
      </trkpt>
      <trkpt lat="47.73798" lon="6.14161">
        <ele>365.39</ele>
        <time>2018-09-12T08:58:59Z</time>
      </trkpt>
      <trkpt lat="47.73797" lon="6.14151">
        <ele>365.55</ele>
        <time>2018-09-12T08:59:02Z</time>
      </trkpt>
      <trkpt lat="47.73796" lon="6.14145">
        <ele>365.71</ele>
        <time>2018-09-12T08:59:05Z</time>
      </trkpt>
      <trkpt lat="47.73796" lon="6.14137">
        <ele>365.86</ele>
        <time>2018-09-12T08:59:08Z</time>
      </trkpt>
      <trkpt lat="47.73795" lon="6.14128">
        <ele>366.01</ele>
        <time>2018-09-12T08:59:11Z</time>
      </trkpt>
      <trkpt lat="47.73795" lon="6.14121">
        <ele>366.15</ele>
        <time>2018-09-12T08:59:14Z</time>
      </trkpt>
      <trkpt lat="47.73795" lon="6.14114">
        <ele>366.29</ele>
        <time>2018-09-12T08:59:17Z</time>
      </trkpt>
      <trkpt lat="47.73796" lon="6.14105">
        <ele>366.42</ele>
        <time>2018-09-12T08:59:20Z</time>
      </trkpt>
      <trkpt lat="47.73795" lon="6.14095">
        <ele>366.53</ele>
        <time>2018-09-12T08:59:23Z</time>
      </trkpt>
      <trkpt lat="47.73794" lon="6.14088">
        <ele>366.6</ele>
        <time>2018-09-12T08:59:25Z</time>
      </trkpt>
      <trkpt lat="47.73793" lon="6.14081">
        <ele>366.68</ele>
        <time>2018-09-12T08:59:27Z</time>
      </trkpt>
      <trkpt lat="47.73791" lon="6.14072">
        <ele>366.78</ele>
        <time>2018-09-12T08:59:30Z</time>
      </trkpt>
      <trkpt lat="47.7379" lon="6.14063">
        <ele>366.89</ele>
        <time>2018-09-12T08:59:33Z</time>
      </trkpt>
      <trkpt lat="47.73788" lon="6.14053">
        <ele>367</ele>
        <time>2018-09-12T08:59:36Z</time>
      </trkpt>
      <trkpt lat="47.73787" lon="6.14045">
        <ele>367.08</ele>
        <time>2018-09-12T08:59:38Z</time>
      </trkpt>
      <trkpt lat="47.73786" lon="6.14036">
        <ele>367.2</ele>
        <time>2018-09-12T08:59:41Z</time>
      </trkpt>
      <trkpt lat="47.73786" lon="6.14027">
        <ele>367.32</ele>
        <time>2018-09-12T08:59:44Z</time>
      </trkpt>
      <trkpt lat="47.73785" lon="6.14019">
        <ele>367.45</ele>
        <time>2018-09-12T08:59:47Z</time>
      </trkpt>
      <trkpt lat="47.73785" lon="6.14012">
        <ele>367.53</ele>
        <time>2018-09-12T08:59:49Z</time>
      </trkpt>
      <trkpt lat="47.73784" lon="6.14005">
        <ele>367.62</ele>
        <time>2018-09-12T08:59:51Z</time>
      </trkpt>
      <trkpt lat="47.73784" lon="6.13997">
        <ele>367.71</ele>
        <time>2018-09-12T08:59:53Z</time>
      </trkpt>
      <trkpt lat="47.73784" lon="6.1399">
        <ele>367.8</ele>
        <time>2018-09-12T08:59:55Z</time>
      </trkpt>
      <trkpt lat="47.73783" lon="6.13982">
        <ele>367.89</ele>
        <time>2018-09-12T08:59:57Z</time>
      </trkpt>
      <trkpt lat="47.73781" lon="6.13973">
        <ele>367.98</ele>
        <time>2018-09-12T08:59:59Z</time>
      </trkpt>
      <trkpt lat="47.73779" lon="6.13965">
        <ele>368.09</ele>
        <time>2018-09-12T09:00:01Z</time>
      </trkpt>
      <trkpt lat="47.73778" lon="6.13958">
        <ele>368.19</ele>
        <time>2018-09-12T09:00:03Z</time>
      </trkpt>
      <trkpt lat="47.73777" lon="6.1395">
        <ele>368.35</ele>
        <time>2018-09-12T09:00:06Z</time>
      </trkpt>
      <trkpt lat="47.73778" lon="6.13943">
        <ele>368.51</ele>
        <time>2018-09-12T09:00:09Z</time>
      </trkpt>
      <trkpt lat="47.73779" lon="6.13935">
        <ele>368.62</ele>
        <time>2018-09-12T09:00:11Z</time>
      </trkpt>
      <trkpt lat="47.73778" lon="6.13925">
        <ele>368.73</ele>
        <time>2018-09-12T09:00:13Z</time>
      </trkpt>
      <trkpt lat="47.73777" lon="6.13915">
        <ele>368.85</ele>
        <time>2018-09-12T09:00:15Z</time>
      </trkpt>
      <trkpt lat="47.73777" lon="6.13908">
        <ele>368.97</ele>
        <time>2018-09-12T09:00:17Z</time>
      </trkpt>
      <trkpt lat="47.73777" lon="6.13901">
        <ele>369.15</ele>
        <time>2018-09-12T09:00:20Z</time>
      </trkpt>
      <trkpt lat="47.73777" lon="6.13894">
        <ele>369.44</ele>
        <time>2018-09-12T09:00:25Z</time>
      </trkpt>
      <trkpt lat="47.73776" lon="6.13885">
        <ele>369.62</ele>
        <time>2018-09-12T09:00:28Z</time>
      </trkpt>
      <trkpt lat="47.73776" lon="6.13877">
        <ele>369.74</ele>
        <time>2018-09-12T09:00:30Z</time>
      </trkpt>
      <trkpt lat="47.73776" lon="6.13869">
        <ele>369.86</ele>
        <time>2018-09-12T09:00:32Z</time>
      </trkpt>
      <trkpt lat="47.73777" lon="6.1386">
        <ele>370.04</ele>
        <time>2018-09-12T09:00:35Z</time>
      </trkpt>
      <trkpt lat="47.73777" lon="6.13854">
        <ele>370.16</ele>
        <time>2018-09-12T09:00:37Z</time>
      </trkpt>
      <trkpt lat="47.73777" lon="6.13846">
        <ele>370.29</ele>
        <time>2018-09-12T09:00:39Z</time>
      </trkpt>
      <trkpt lat="47.73777" lon="6.13839">
        <ele>370.41</ele>
        <time>2018-09-12T09:00:41Z</time>
      </trkpt>
      <trkpt lat="47.73777" lon="6.13832">
        <ele>370.53</ele>
        <time>2018-09-12T09:00:43Z</time>
      </trkpt>
      <trkpt lat="47.73776" lon="6.13824">
        <ele>370.65</ele>
        <time>2018-09-12T09:00:45Z</time>
      </trkpt>
      <trkpt lat="47.73777" lon="6.13815">
        <ele>370.76</ele>
        <time>2018-09-12T09:00:47Z</time>
      </trkpt>
      <trkpt lat="47.73777" lon="6.13805">
        <ele>370.88</ele>
        <time>2018-09-12T09:00:49Z</time>
      </trkpt>
      <trkpt lat="47.73778" lon="6.13797">
        <ele>371.06</ele>
        <time>2018-09-12T09:00:52Z</time>
      </trkpt>
      <trkpt lat="47.73778" lon="6.13789">
        <ele>371.18</ele>
        <time>2018-09-12T09:00:54Z</time>
      </trkpt>
      <trkpt lat="47.73778" lon="6.13781">
        <ele>371.3</ele>
        <time>2018-09-12T09:00:56Z</time>
      </trkpt>
      <trkpt lat="47.73779" lon="6.1377">
        <ele>371.42</ele>
        <time>2018-09-12T09:00:58Z</time>
      </trkpt>
      <trkpt lat="47.73779" lon="6.13759">
        <ele>371.54</ele>
        <time>2018-09-12T09:01:00Z</time>
      </trkpt>
      <trkpt lat="47.7378" lon="6.13749">
        <ele>371.67</ele>
        <time>2018-09-12T09:01:02Z</time>
      </trkpt>
      <trkpt lat="47.7378" lon="6.13738">
        <ele>371.79</ele>
        <time>2018-09-12T09:01:04Z</time>
      </trkpt>
      <trkpt lat="47.73781" lon="6.13728">
        <ele>371.92</ele>
        <time>2018-09-12T09:01:06Z</time>
      </trkpt>
      <trkpt lat="47.73782" lon="6.13716">
        <ele>372.04</ele>
        <time>2018-09-12T09:01:08Z</time>
      </trkpt>
      <trkpt lat="47.73782" lon="6.13703">
        <ele>372.17</ele>
        <time>2018-09-12T09:01:10Z</time>
      </trkpt>
      <trkpt lat="47.73782" lon="6.13696">
        <ele>372.23</ele>
        <time>2018-09-12T09:01:11Z</time>
      </trkpt>
      <trkpt lat="47.73782" lon="6.13687">
        <ele>372.69</ele>
        <time>2018-09-12T09:01:12Z</time>
      </trkpt>
      <trkpt lat="47.73782" lon="6.13678">
        <ele>373.18</ele>
        <time>2018-09-12T09:01:13Z</time>
      </trkpt>
      <trkpt lat="47.73782" lon="6.1367">
        <ele>373.36</ele>
        <time>2018-09-12T09:01:14Z</time>
      </trkpt>
      <trkpt lat="47.73782" lon="6.13662">
        <ele>373.7</ele>
        <time>2018-09-12T09:01:15Z</time>
      </trkpt>
      <trkpt lat="47.73783" lon="6.13652">
        <ele>374.04</ele>
        <time>2018-09-12T09:01:16Z</time>
      </trkpt>
      <trkpt lat="47.73782" lon="6.13644">
        <ele>374.33</ele>
        <time>2018-09-12T09:01:17Z</time>
      </trkpt>
      <trkpt lat="47.73783" lon="6.13635">
        <ele>374.43</ele>
        <time>2018-09-12T09:01:18Z</time>
      </trkpt>
      <trkpt lat="47.73783" lon="6.13624">
        <ele>374.63</ele>
        <time>2018-09-12T09:01:19Z</time>
      </trkpt>
      <trkpt lat="47.73783" lon="6.13617">
        <ele>374.83</ele>
        <time>2018-09-12T09:01:20Z</time>
      </trkpt>
      <trkpt lat="47.73783" lon="6.13608">
        <ele>374.9</ele>
        <time>2018-09-12T09:01:21Z</time>
      </trkpt>
      <trkpt lat="47.73783" lon="6.136">
        <ele>374.94</ele>
        <time>2018-09-12T09:01:22Z</time>
      </trkpt>
      <trkpt lat="47.73783" lon="6.13591">
        <ele>374.96</ele>
        <time>2018-09-12T09:01:23Z</time>
      </trkpt>
      <trkpt lat="47.73783" lon="6.13583">
        <ele>374.98</ele>
        <time>2018-09-12T09:01:24Z</time>
      </trkpt>
      <trkpt lat="47.73782" lon="6.1357">
        <ele>375.02</ele>
        <time>2018-09-12T09:01:26Z</time>
      </trkpt>
      <trkpt lat="47.73781" lon="6.13556">
        <ele>375.06</ele>
        <time>2018-09-12T09:01:28Z</time>
      </trkpt>
      <trkpt lat="47.7378" lon="6.13549">
        <ele>375.08</ele>
        <time>2018-09-12T09:01:29Z</time>
      </trkpt>
      <trkpt lat="47.73779" lon="6.13536">
        <ele>375.13</ele>
        <time>2018-09-12T09:01:31Z</time>
      </trkpt>
      <trkpt lat="47.73778" lon="6.13528">
        <ele>375.15</ele>
        <time>2018-09-12T09:01:32Z</time>
      </trkpt>
      <trkpt lat="47.73776" lon="6.1352">
        <ele>375.17</ele>
        <time>2018-09-12T09:01:33Z</time>
      </trkpt>
      <trkpt lat="47.73775" lon="6.13513">
        <ele>375.19</ele>
        <time>2018-09-12T09:01:34Z</time>
      </trkpt>
      <trkpt lat="47.73774" lon="6.13506">
        <ele>375.21</ele>
        <time>2018-09-12T09:01:35Z</time>
      </trkpt>
      <trkpt lat="47.73773" lon="6.13494">
        <ele>375.25</ele>
        <time>2018-09-12T09:01:37Z</time>
      </trkpt>
      <trkpt lat="47.7377" lon="6.13482">
        <ele>375.29</ele>
        <time>2018-09-12T09:01:39Z</time>
      </trkpt>
      <trkpt lat="47.73769" lon="6.13474">
        <ele>375.3</ele>
        <time>2018-09-12T09:01:40Z</time>
      </trkpt>
      <trkpt lat="47.73767" lon="6.13467">
        <ele>375.32</ele>
        <time>2018-09-12T09:01:41Z</time>
      </trkpt>
      <trkpt lat="47.73765" lon="6.13459">
        <ele>375.34</ele>
        <time>2018-09-12T09:01:42Z</time>
      </trkpt>
      <trkpt lat="47.73763" lon="6.13453">
        <ele>375.35</ele>
        <time>2018-09-12T09:01:43Z</time>
      </trkpt>
      <trkpt lat="47.73761" lon="6.13447">
        <ele>375.37</ele>
        <time>2018-09-12T09:01:44Z</time>
      </trkpt>
      <trkpt lat="47.73757" lon="6.13435">
        <ele>375.39</ele>
        <time>2018-09-12T09:01:46Z</time>
      </trkpt>
      <trkpt lat="47.73754" lon="6.13424">
        <ele>375.42</ele>
        <time>2018-09-12T09:01:48Z</time>
      </trkpt>
      <trkpt lat="47.73751" lon="6.13413">
        <ele>375.44</ele>
        <time>2018-09-12T09:01:50Z</time>
      </trkpt>
      <trkpt lat="47.73749" lon="6.13403">
        <ele>375.46</ele>
        <time>2018-09-12T09:01:52Z</time>
      </trkpt>
      <trkpt lat="47.73747" lon="6.13392">
        <ele>375.47</ele>
        <time>2018-09-12T09:01:54Z</time>
      </trkpt>
      <trkpt lat="47.73744" lon="6.13378">
        <ele>375.49</ele>
        <time>2018-09-12T09:01:56Z</time>
      </trkpt>
      <trkpt lat="47.73743" lon="6.1337">
        <ele>375.49</ele>
        <time>2018-09-12T09:01:57Z</time>
      </trkpt>
      <trkpt lat="47.73742" lon="6.13364">
        <ele>375.5</ele>
        <time>2018-09-12T09:01:58Z</time>
      </trkpt>
      <trkpt lat="47.73739" lon="6.13351">
        <ele>375.51</ele>
        <time>2018-09-12T09:02:00Z</time>
      </trkpt>
      <trkpt lat="47.73737" lon="6.13341">
        <ele>375.52</ele>
        <time>2018-09-12T09:02:02Z</time>
      </trkpt>
      <trkpt lat="47.73734" lon="6.13332">
        <ele>375.53</ele>
        <time>2018-09-12T09:02:04Z</time>
      </trkpt>
      <trkpt lat="47.73729" lon="6.13327">
        <ele>375.54</ele>
        <time>2018-09-12T09:02:06Z</time>
      </trkpt>
      <trkpt lat="47.73724" lon="6.13325">
        <ele>375.55</ele>
        <time>2018-09-12T09:02:08Z</time>
      </trkpt>
      <trkpt lat="47.73719" lon="6.13324">
        <ele>375.57</ele>
        <time>2018-09-12T09:02:11Z</time>
      </trkpt>
      <trkpt lat="47.73713" lon="6.13325">
        <ele>375.58</ele>
        <time>2018-09-12T09:02:14Z</time>
      </trkpt>
      <trkpt lat="47.73707" lon="6.13326">
        <ele>375.59</ele>
        <time>2018-09-12T09:02:17Z</time>
      </trkpt>
      <trkpt lat="47.737" lon="6.13327">
        <ele>375.6</ele>
        <time>2018-09-12T09:02:20Z</time>
      </trkpt>
      <trkpt lat="47.73694" lon="6.13329">
        <ele>375.61</ele>
        <time>2018-09-12T09:02:23Z</time>
      </trkpt>
      <trkpt lat="47.73689" lon="6.13332">
        <ele>375.61</ele>
        <time>2018-09-12T09:02:25Z</time>
      </trkpt>
      <trkpt lat="47.73684" lon="6.13333">
        <ele>375.61</ele>
        <time>2018-09-12T09:02:27Z</time>
      </trkpt>
      <trkpt lat="47.73678" lon="6.13338">
        <ele>375.61</ele>
        <time>2018-09-12T09:02:29Z</time>
      </trkpt>
      <trkpt lat="47.73672" lon="6.13341">
        <ele>375.6</ele>
        <time>2018-09-12T09:02:31Z</time>
      </trkpt>
      <trkpt lat="47.73666" lon="6.13344">
        <ele>375.6</ele>
        <time>2018-09-12T09:02:33Z</time>
      </trkpt>
      <trkpt lat="47.7366" lon="6.13345">
        <ele>375.59</ele>
        <time>2018-09-12T09:02:36Z</time>
      </trkpt>
      <trkpt lat="47.73655" lon="6.13346">
        <ele>375.58</ele>
        <time>2018-09-12T09:02:38Z</time>
      </trkpt>
      <trkpt lat="47.73649" lon="6.13347">
        <ele>375.57</ele>
        <time>2018-09-12T09:02:41Z</time>
      </trkpt>
      <trkpt lat="47.73644" lon="6.13347">
        <ele>375.55</ele>
        <time>2018-09-12T09:02:44Z</time>
      </trkpt>
      <trkpt lat="47.73639" lon="6.13347">
        <ele>375.53</ele>
        <time>2018-09-12T09:02:47Z</time>
      </trkpt>
      <trkpt lat="47.73634" lon="6.13346">
        <ele>375.51</ele>
        <time>2018-09-12T09:02:50Z</time>
      </trkpt>
      <trkpt lat="47.73628" lon="6.13346">
        <ele>375.48</ele>
        <time>2018-09-12T09:02:53Z</time>
      </trkpt>
      <trkpt lat="47.73622" lon="6.13346">
        <ele>375.44</ele>
        <time>2018-09-12T09:02:56Z</time>
      </trkpt>
      <trkpt lat="47.73617" lon="6.13347">
        <ele>375.41</ele>
        <time>2018-09-12T09:02:58Z</time>
      </trkpt>
      <trkpt lat="47.73613" lon="6.13349">
        <ele>375.39</ele>
        <time>2018-09-12T09:03:00Z</time>
      </trkpt>
      <trkpt lat="47.73607" lon="6.13349">
        <ele>375.36</ele>
        <time>2018-09-12T09:03:02Z</time>
      </trkpt>
      <trkpt lat="47.73602" lon="6.1335">
        <ele>375.33</ele>
        <time>2018-09-12T09:03:04Z</time>
      </trkpt>
      <trkpt lat="47.73596" lon="6.1335">
        <ele>375.29</ele>
        <time>2018-09-12T09:03:06Z</time>
      </trkpt>
      <trkpt lat="47.7359" lon="6.1335">
        <ele>375.26</ele>
        <time>2018-09-12T09:03:08Z</time>
      </trkpt>
      <trkpt lat="47.73586" lon="6.13351">
        <ele>375.23</ele>
        <time>2018-09-12T09:03:10Z</time>
      </trkpt>
      <trkpt lat="47.73579" lon="6.13352">
        <ele>375.19</ele>
        <time>2018-09-12T09:03:13Z</time>
      </trkpt>
      <trkpt lat="47.73574" lon="6.13353">
        <ele>375.16</ele>
        <time>2018-09-12T09:03:15Z</time>
      </trkpt>
      <trkpt lat="47.73568" lon="6.13355">
        <ele>375.12</ele>
        <time>2018-09-12T09:03:18Z</time>
      </trkpt>
      <trkpt lat="47.73563" lon="6.13357">
        <ele>375.08</ele>
        <time>2018-09-12T09:03:21Z</time>
      </trkpt>
      <trkpt lat="47.73556" lon="6.1336">
        <ele>375.04</ele>
        <time>2018-09-12T09:03:24Z</time>
      </trkpt>
      <trkpt lat="47.7355" lon="6.13363">
        <ele>375.01</ele>
        <time>2018-09-12T09:03:27Z</time>
      </trkpt>
      <trkpt lat="47.73544" lon="6.13365">
        <ele>374.97</ele>
        <time>2018-09-12T09:03:30Z</time>
      </trkpt>
      <trkpt lat="47.73538" lon="6.13368">
        <ele>374.94</ele>
        <time>2018-09-12T09:03:33Z</time>
      </trkpt>
      <trkpt lat="47.73532" lon="6.13371">
        <ele>374.92</ele>
        <time>2018-09-12T09:03:36Z</time>
      </trkpt>
      <trkpt lat="47.73527" lon="6.13374">
        <ele>374.9</ele>
        <time>2018-09-12T09:03:39Z</time>
      </trkpt>
      <trkpt lat="47.73522" lon="6.13375">
        <ele>374.89</ele>
        <time>2018-09-12T09:03:42Z</time>
      </trkpt>
      <trkpt lat="47.73517" lon="6.13378">
        <ele>374.89</ele>
        <time>2018-09-12T09:03:45Z</time>
      </trkpt>
      <trkpt lat="47.73512" lon="6.13379">
        <ele>374.89</ele>
        <time>2018-09-12T09:03:49Z</time>
      </trkpt>
      <trkpt lat="47.73507" lon="6.13381">
        <ele>374.91</ele>
        <time>2018-09-12T09:03:53Z</time>
      </trkpt>
      <trkpt lat="47.73502" lon="6.13383">
        <ele>374.92</ele>
        <time>2018-09-12T09:03:56Z</time>
      </trkpt>
      <trkpt lat="47.73498" lon="6.13387">
        <ele>374.95</ele>
        <time>2018-09-12T09:04:00Z</time>
      </trkpt>
      <trkpt lat="47.73494" lon="6.1339">
        <ele>374.99</ele>
        <time>2018-09-12T09:04:05Z</time>
      </trkpt>
      <trkpt lat="47.73489" lon="6.13391">
        <ele>375.02</ele>
        <time>2018-09-12T09:04:09Z</time>
      </trkpt>
      <trkpt lat="47.73484" lon="6.13393">
        <ele>375.05</ele>
        <time>2018-09-12T09:04:13Z</time>
      </trkpt>
      <trkpt lat="47.73479" lon="6.13396">
        <ele>375.08</ele>
        <time>2018-09-12T09:04:16Z</time>
      </trkpt>
      <trkpt lat="47.73473" lon="6.13398">
        <ele>375.11</ele>
        <time>2018-09-12T09:04:19Z</time>
      </trkpt>
      <trkpt lat="47.73468" lon="6.13402">
        <ele>375.14</ele>
        <time>2018-09-12T09:04:22Z</time>
      </trkpt>
      <trkpt lat="47.73464" lon="6.13405">
        <ele>375.17</ele>
        <time>2018-09-12T09:04:24Z</time>
      </trkpt>
      <trkpt lat="47.7346" lon="6.13407">
        <ele>375.21</ele>
        <time>2018-09-12T09:04:27Z</time>
      </trkpt>
      <trkpt lat="47.73454" lon="6.13409">
        <ele>375.26</ele>
        <time>2018-09-12T09:04:30Z</time>
      </trkpt>
      <trkpt lat="47.73448" lon="6.13412">
        <ele>375.31</ele>
        <time>2018-09-12T09:04:33Z</time>
      </trkpt>
      <trkpt lat="47.73443" lon="6.13414">
        <ele>375.36</ele>
        <time>2018-09-12T09:04:36Z</time>
      </trkpt>
      <trkpt lat="47.73438" lon="6.13416">
        <ele>375.4</ele>
        <time>2018-09-12T09:04:39Z</time>
      </trkpt>
      <trkpt lat="47.73433" lon="6.13419">
        <ele>375.47</ele>
        <time>2018-09-12T09:04:43Z</time>
      </trkpt>
      <trkpt lat="47.73426" lon="6.13421">
        <ele>375.54</ele>
        <time>2018-09-12T09:04:47Z</time>
      </trkpt>
      <trkpt lat="47.73421" lon="6.13424">
        <ele>375.61</ele>
        <time>2018-09-12T09:04:51Z</time>
      </trkpt>
      <trkpt lat="47.73416" lon="6.13427">
        <ele>375.66</ele>
        <time>2018-09-12T09:04:54Z</time>
      </trkpt>
      <trkpt lat="47.7341" lon="6.13431">
        <ele>375.72</ele>
        <time>2018-09-12T09:04:57Z</time>
      </trkpt>
      <trkpt lat="47.73405" lon="6.13434">
        <ele>375.77</ele>
        <time>2018-09-12T09:05:00Z</time>
      </trkpt>
      <trkpt lat="47.734" lon="6.13435">
        <ele>375.81</ele>
        <time>2018-09-12T09:05:02Z</time>
      </trkpt>
      <trkpt lat="47.73394" lon="6.13437">
        <ele>375.85</ele>
        <time>2018-09-12T09:05:04Z</time>
      </trkpt>
      <trkpt lat="47.73387" lon="6.13442">
        <ele>375.89</ele>
        <time>2018-09-12T09:05:06Z</time>
      </trkpt>
      <trkpt lat="47.73381" lon="6.13447">
        <ele>375.92</ele>
        <time>2018-09-12T09:05:08Z</time>
      </trkpt>
      <trkpt lat="47.73373" lon="6.1345">
        <ele>375.95</ele>
        <time>2018-09-12T09:05:10Z</time>
      </trkpt>
      <trkpt lat="47.73367" lon="6.13452">
        <ele>375.98</ele>
        <time>2018-09-12T09:05:12Z</time>
      </trkpt>
      <trkpt lat="47.7336" lon="6.13455">
        <ele>376.01</ele>
        <time>2018-09-12T09:05:14Z</time>
      </trkpt>
      <trkpt lat="47.73354" lon="6.13458">
        <ele>376.04</ele>
        <time>2018-09-12T09:05:16Z</time>
      </trkpt>
      <trkpt lat="47.73349" lon="6.13462">
        <ele>376.08</ele>
        <time>2018-09-12T09:05:18Z</time>
      </trkpt>
      <trkpt lat="47.73344" lon="6.13466">
        <ele>376.11</ele>
        <time>2018-09-12T09:05:20Z</time>
      </trkpt>
      <trkpt lat="47.7334" lon="6.1347">
        <ele>376.14</ele>
        <time>2018-09-12T09:05:22Z</time>
      </trkpt>
      <trkpt lat="47.73334" lon="6.13476">
        <ele>376.18</ele>
        <time>2018-09-12T09:05:24Z</time>
      </trkpt>
      <trkpt lat="47.73329" lon="6.13481">
        <ele>376.21</ele>
        <time>2018-09-12T09:05:26Z</time>
      </trkpt>
      <trkpt lat="47.73324" lon="6.13486">
        <ele>376.25</ele>
        <time>2018-09-12T09:05:28Z</time>
      </trkpt>
      <trkpt lat="47.7332" lon="6.1349">
        <ele>376.28</ele>
        <time>2018-09-12T09:05:30Z</time>
      </trkpt>
      <trkpt lat="47.73314" lon="6.13495">
        <ele>376.33</ele>
        <time>2018-09-12T09:05:33Z</time>
      </trkpt>
      <trkpt lat="47.73308" lon="6.135">
        <ele>376.39</ele>
        <time>2018-09-12T09:05:36Z</time>
      </trkpt>
      <trkpt lat="47.73304" lon="6.13504">
        <ele>376.42</ele>
        <time>2018-09-12T09:05:38Z</time>
      </trkpt>
      <trkpt lat="47.73299" lon="6.1351">
        <ele>376.47</ele>
        <time>2018-09-12T09:05:41Z</time>
      </trkpt>
      <trkpt lat="47.73295" lon="6.13515">
        <ele>376.5</ele>
        <time>2018-09-12T09:05:43Z</time>
      </trkpt>
      <trkpt lat="47.7329" lon="6.13521">
        <ele>376.54</ele>
        <time>2018-09-12T09:05:45Z</time>
      </trkpt>
      <trkpt lat="47.73283" lon="6.13526">
        <ele>376.57</ele>
        <time>2018-09-12T09:05:47Z</time>
      </trkpt>
      <trkpt lat="47.73277" lon="6.13532">
        <ele>376.6</ele>
        <time>2018-09-12T09:05:49Z</time>
      </trkpt>
      <trkpt lat="47.73272" lon="6.13539">
        <ele>376.64</ele>
        <time>2018-09-12T09:05:51Z</time>
      </trkpt>
      <trkpt lat="47.73268" lon="6.13543">
        <ele>376.65</ele>
        <time>2018-09-12T09:05:52Z</time>
      </trkpt>
      <trkpt lat="47.73262" lon="6.13552">
        <ele>376.69</ele>
        <time>2018-09-12T09:05:54Z</time>
      </trkpt>
      <trkpt lat="47.73255" lon="6.13559">
        <ele>376.72</ele>
        <time>2018-09-12T09:05:56Z</time>
      </trkpt>
      <trkpt lat="47.7325" lon="6.13565">
        <ele>376.75</ele>
        <time>2018-09-12T09:05:58Z</time>
      </trkpt>
      <trkpt lat="47.73243" lon="6.13571">
        <ele>376.78</ele>
        <time>2018-09-12T09:06:00Z</time>
      </trkpt>
      <trkpt lat="47.73236" lon="6.13576">
        <ele>376.89</ele>
        <time>2018-09-12T09:06:02Z</time>
      </trkpt>
      <trkpt lat="47.73232" lon="6.13582">
        <ele>376.99</ele>
        <time>2018-09-12T09:06:03Z</time>
      </trkpt>
      <trkpt lat="47.73227" lon="6.13587">
        <ele>377.03</ele>
        <time>2018-09-12T09:06:04Z</time>
      </trkpt>
      <trkpt lat="47.73223" lon="6.13591">
        <ele>377.1</ele>
        <time>2018-09-12T09:06:05Z</time>
      </trkpt>
      <trkpt lat="47.73219" lon="6.13596">
        <ele>377.17</ele>
        <time>2018-09-12T09:06:06Z</time>
      </trkpt>
      <trkpt lat="47.73214" lon="6.136">
        <ele>377.22</ele>
        <time>2018-09-12T09:06:07Z</time>
      </trkpt>
      <trkpt lat="47.732" lon="6.13615">
        <ele>377.27</ele>
        <time>2018-09-12T09:06:08Z</time>
      </trkpt>
      <trkpt lat="47.73195" lon="6.13619">
        <ele>377.3</ele>
        <time>2018-09-12T09:06:09Z</time>
      </trkpt>
      <trkpt lat="47.73191" lon="6.13622">
        <ele>377.31</ele>
        <time>2018-09-12T09:06:10Z</time>
      </trkpt>
      <trkpt lat="47.73182" lon="6.13628">
        <ele>377.34</ele>
        <time>2018-09-12T09:06:12Z</time>
      </trkpt>
      <trkpt lat="47.73177" lon="6.13633">
        <ele>377.34</ele>
        <time>2018-09-12T09:06:13Z</time>
      </trkpt>
      <trkpt lat="47.7317" lon="6.13641">
        <ele>377.35</ele>
        <time>2018-09-12T09:06:14Z</time>
      </trkpt>
      <trkpt lat="47.73165" lon="6.13645">
        <ele>377.35</ele>
        <time>2018-09-12T09:06:15Z</time>
      </trkpt>
      <trkpt lat="47.73157" lon="6.13649">
        <ele>377.35</ele>
        <time>2018-09-12T09:06:16Z</time>
      </trkpt>
      <trkpt lat="47.7315" lon="6.13653">
        <ele>377.34</ele>
        <time>2018-09-12T09:06:17Z</time>
      </trkpt>
      <trkpt lat="47.73143" lon="6.13657">
        <ele>377.33</ele>
        <time>2018-09-12T09:06:18Z</time>
      </trkpt>
      <trkpt lat="47.73136" lon="6.13662">
        <ele>377.33</ele>
        <time>2018-09-12T09:06:19Z</time>
      </trkpt>
      <trkpt lat="47.73129" lon="6.13668">
        <ele>377.32</ele>
        <time>2018-09-12T09:06:20Z</time>
      </trkpt>
      <trkpt lat="47.73122" lon="6.13675">
        <ele>377.31</ele>
        <time>2018-09-12T09:06:21Z</time>
      </trkpt>
      <trkpt lat="47.73116" lon="6.13681">
        <ele>377.31</ele>
        <time>2018-09-12T09:06:22Z</time>
      </trkpt>
      <trkpt lat="47.73109" lon="6.13685">
        <ele>377.3</ele>
        <time>2018-09-12T09:06:23Z</time>
      </trkpt>
      <trkpt lat="47.73102" lon="6.1369">
        <ele>377.29</ele>
        <time>2018-09-12T09:06:24Z</time>
      </trkpt>
      <trkpt lat="47.73096" lon="6.13695">
        <ele>377.28</ele>
        <time>2018-09-12T09:06:25Z</time>
      </trkpt>
      <trkpt lat="47.7309" lon="6.13699">
        <ele>377.26</ele>
        <time>2018-09-12T09:06:26Z</time>
      </trkpt>
      <trkpt lat="47.73084" lon="6.13704">
        <ele>377.25</ele>
        <time>2018-09-12T09:06:27Z</time>
      </trkpt>
      <trkpt lat="47.73078" lon="6.13709">
        <ele>377.23</ele>
        <time>2018-09-12T09:06:28Z</time>
      </trkpt>
      <trkpt lat="47.73073" lon="6.13712">
        <ele>377.2</ele>
        <time>2018-09-12T09:06:29Z</time>
      </trkpt>
      <trkpt lat="47.73068" lon="6.13716">
        <ele>377.17</ele>
        <time>2018-09-12T09:06:30Z</time>
      </trkpt>
      <trkpt lat="47.73064" lon="6.13719">
        <ele>377.13</ele>
        <time>2018-09-12T09:06:31Z</time>
      </trkpt>
      <trkpt lat="47.73059" lon="6.13725">
        <ele>377.09</ele>
        <time>2018-09-12T09:06:32Z</time>
      </trkpt>
      <trkpt lat="47.73054" lon="6.1373">
        <ele>377.05</ele>
        <time>2018-09-12T09:06:33Z</time>
      </trkpt>
      <trkpt lat="47.73047" lon="6.13735">
        <ele>377</ele>
        <time>2018-09-12T09:06:35Z</time>
      </trkpt>
      <trkpt lat="47.7304" lon="6.13738">
        <ele>376.98</ele>
        <time>2018-09-12T09:06:38Z</time>
      </trkpt>
      <trkpt lat="47.73034" lon="6.1374">
        <ele>376.96</ele>
        <time>2018-09-12T09:06:40Z</time>
      </trkpt>
      <trkpt lat="47.73029" lon="6.13743">
        <ele>376.93</ele>
        <time>2018-09-12T09:06:42Z</time>
      </trkpt>
      <trkpt lat="47.73023" lon="6.13745">
        <ele>376.88</ele>
        <time>2018-09-12T09:06:44Z</time>
      </trkpt>
      <trkpt lat="47.73017" lon="6.13746">
        <ele>376.83</ele>
        <time>2018-09-12T09:06:46Z</time>
      </trkpt>
      <trkpt lat="47.73012" lon="6.13747">
        <ele>376.76</ele>
        <time>2018-09-12T09:06:48Z</time>
      </trkpt>
      <trkpt lat="47.73006" lon="6.13747">
        <ele>376.67</ele>
        <time>2018-09-12T09:06:50Z</time>
      </trkpt>
      <trkpt lat="47.73" lon="6.13748">
        <ele>376.58</ele>
        <time>2018-09-12T09:06:52Z</time>
      </trkpt>
      <trkpt lat="47.72994" lon="6.13749">
        <ele>376.49</ele>
        <time>2018-09-12T09:06:54Z</time>
      </trkpt>
      <trkpt lat="47.72988" lon="6.13751">
        <ele>376.39</ele>
        <time>2018-09-12T09:06:56Z</time>
      </trkpt>
      <trkpt lat="47.72982" lon="6.13752">
        <ele>376.28</ele>
        <time>2018-09-12T09:06:58Z</time>
      </trkpt>
      <trkpt lat="47.72976" lon="6.13753">
        <ele>376.18</ele>
        <time>2018-09-12T09:07:00Z</time>
      </trkpt>
      <trkpt lat="47.7297" lon="6.13754">
        <ele>376.06</ele>
        <time>2018-09-12T09:07:02Z</time>
      </trkpt>
      <trkpt lat="47.72964" lon="6.13755">
        <ele>375.93</ele>
        <time>2018-09-12T09:07:04Z</time>
      </trkpt>
      <trkpt lat="47.72958" lon="6.13755">
        <ele>375.79</ele>
        <time>2018-09-12T09:07:06Z</time>
      </trkpt>
      <trkpt lat="47.72953" lon="6.13756">
        <ele>375.64</ele>
        <time>2018-09-12T09:07:08Z</time>
      </trkpt>
      <trkpt lat="47.72947" lon="6.13755">
        <ele>375.48</ele>
        <time>2018-09-12T09:07:10Z</time>
      </trkpt>
      <trkpt lat="47.72941" lon="6.13753">
        <ele>375.32</ele>
        <time>2018-09-12T09:07:12Z</time>
      </trkpt>
      <trkpt lat="47.72936" lon="6.13751">
        <ele>375.15</ele>
        <time>2018-09-12T09:07:14Z</time>
      </trkpt>
      <trkpt lat="47.7293" lon="6.13747">
        <ele>374.96</ele>
        <time>2018-09-12T09:07:16Z</time>
      </trkpt>
      <trkpt lat="47.72924" lon="6.13741">
        <ele>373.96</ele>
        <time>2018-09-12T09:07:18Z</time>
      </trkpt>
      <trkpt lat="47.72919" lon="6.13735">
        <ele>373.72</ele>
        <time>2018-09-12T09:07:20Z</time>
      </trkpt>
      <trkpt lat="47.72913" lon="6.13728">
        <ele>373.53</ele>
        <time>2018-09-12T09:07:22Z</time>
      </trkpt>
      <trkpt lat="47.72906" lon="6.13721">
        <ele>372.15</ele>
        <time>2018-09-12T09:07:24Z</time>
      </trkpt>
      <trkpt lat="47.72899" lon="6.13714">
        <ele>371.77</ele>
        <time>2018-09-12T09:07:26Z</time>
      </trkpt>
      <trkpt lat="47.72893" lon="6.13707">
        <ele>371.62</ele>
        <time>2018-09-12T09:07:28Z</time>
      </trkpt>
      <trkpt lat="47.72886" lon="6.13697">
        <ele>371.49</ele>
        <time>2018-09-12T09:07:30Z</time>
      </trkpt>
      <trkpt lat="47.72882" lon="6.13693">
        <ele>371.03</ele>
        <time>2018-09-12T09:07:31Z</time>
      </trkpt>
      <trkpt lat="47.72878" lon="6.13687">
        <ele>370.53</ele>
        <time>2018-09-12T09:07:32Z</time>
      </trkpt>
      <trkpt lat="47.72874" lon="6.13682">
        <ele>370.35</ele>
        <time>2018-09-12T09:07:33Z</time>
      </trkpt>
      <trkpt lat="47.7287" lon="6.13678">
        <ele>370</ele>
        <time>2018-09-12T09:07:34Z</time>
      </trkpt>
      <trkpt lat="47.72867" lon="6.13673">
        <ele>369.65</ele>
        <time>2018-09-12T09:07:35Z</time>
      </trkpt>
      <trkpt lat="47.72863" lon="6.13669">
        <ele>369.36</ele>
        <time>2018-09-12T09:07:36Z</time>
      </trkpt>
      <trkpt lat="47.72859" lon="6.13665">
        <ele>369.1</ele>
        <time>2018-09-12T09:07:37Z</time>
      </trkpt>
      <trkpt lat="47.72848" lon="6.13657">
        <ele>368.88</ele>
        <time>2018-09-12T09:07:38Z</time>
      </trkpt>
      <trkpt lat="47.72842" lon="6.13649">
        <ele>368.51</ele>
        <time>2018-09-12T09:07:40Z</time>
      </trkpt>
      <trkpt lat="47.72835" lon="6.13641">
        <ele>368.32</ele>
        <time>2018-09-12T09:07:42Z</time>
      </trkpt>
      <trkpt lat="47.72832" lon="6.13637">
        <ele>368.17</ele>
        <time>2018-09-12T09:07:43Z</time>
      </trkpt>
      <trkpt lat="47.72828" lon="6.13633">
        <ele>368.12</ele>
        <time>2018-09-12T09:07:44Z</time>
      </trkpt>
      <trkpt lat="47.7282" lon="6.13625">
        <ele>367.9</ele>
        <time>2018-09-12T09:07:46Z</time>
      </trkpt>
      <trkpt lat="47.72816" lon="6.1362">
        <ele>367.85</ele>
        <time>2018-09-12T09:07:47Z</time>
      </trkpt>
      <trkpt lat="47.72813" lon="6.13616">
        <ele>367.83</ele>
        <time>2018-09-12T09:07:48Z</time>
      </trkpt>
      <trkpt lat="47.72808" lon="6.1361">
        <ele>367.73</ele>
        <time>2018-09-12T09:07:49Z</time>
      </trkpt>
      <trkpt lat="47.72803" lon="6.13604">
        <ele>367.62</ele>
        <time>2018-09-12T09:07:50Z</time>
      </trkpt>
      <trkpt lat="47.72799" lon="6.13598">
        <ele>367.51</ele>
        <time>2018-09-12T09:07:51Z</time>
      </trkpt>
      <trkpt lat="47.72794" lon="6.13593">
        <ele>367.4</ele>
        <time>2018-09-12T09:07:52Z</time>
      </trkpt>
      <trkpt lat="47.7279" lon="6.13588">
        <ele>367.36</ele>
        <time>2018-09-12T09:07:53Z</time>
      </trkpt>
      <trkpt lat="47.72786" lon="6.13583">
        <ele>367.28</ele>
        <time>2018-09-12T09:07:54Z</time>
      </trkpt>
      <trkpt lat="47.72783" lon="6.13578">
        <ele>367.18</ele>
        <time>2018-09-12T09:07:55Z</time>
      </trkpt>
      <trkpt lat="47.72779" lon="6.13573">
        <ele>367.09</ele>
        <time>2018-09-12T09:07:56Z</time>
      </trkpt>
      <trkpt lat="47.72772" lon="6.13564">
        <ele>366.9</ele>
        <time>2018-09-12T09:07:58Z</time>
      </trkpt>
      <trkpt lat="47.72765" lon="6.13556">
        <ele>366.84</ele>
        <time>2018-09-12T09:08:00Z</time>
      </trkpt>
      <trkpt lat="47.72762" lon="6.13551">
        <ele>366.83</ele>
        <time>2018-09-12T09:08:01Z</time>
      </trkpt>
      <trkpt lat="47.72756" lon="6.13544">
        <ele>366.81</ele>
        <time>2018-09-12T09:08:03Z</time>
      </trkpt>
      <trkpt lat="47.7275" lon="6.13536">
        <ele>366.62</ele>
        <time>2018-09-12T09:08:05Z</time>
      </trkpt>
      <trkpt lat="47.72742" lon="6.13527">
        <ele>366.41</ele>
        <time>2018-09-12T09:08:07Z</time>
      </trkpt>
      <trkpt lat="47.72738" lon="6.13523">
        <ele>366.32</ele>
        <time>2018-09-12T09:08:08Z</time>
      </trkpt>
      <trkpt lat="47.72735" lon="6.13519">
        <ele>366.24</ele>
        <time>2018-09-12T09:08:09Z</time>
      </trkpt>
      <trkpt lat="47.72727" lon="6.13512">
        <ele>366.09</ele>
        <time>2018-09-12T09:08:11Z</time>
      </trkpt>
      <trkpt lat="47.72723" lon="6.13507">
        <ele>366.01</ele>
        <time>2018-09-12T09:08:12Z</time>
      </trkpt>
      <trkpt lat="47.72719" lon="6.13503">
        <ele>365.93</ele>
        <time>2018-09-12T09:08:13Z</time>
      </trkpt>
      <trkpt lat="47.72715" lon="6.13497">
        <ele>365.84</ele>
        <time>2018-09-12T09:08:14Z</time>
      </trkpt>
      <trkpt lat="47.7271" lon="6.13492">
        <ele>365.75</ele>
        <time>2018-09-12T09:08:15Z</time>
      </trkpt>
      <trkpt lat="47.72707" lon="6.13487">
        <ele>365.72</ele>
        <time>2018-09-12T09:08:16Z</time>
      </trkpt>
      <trkpt lat="47.72703" lon="6.13483">
        <ele>365.62</ele>
        <time>2018-09-12T09:08:17Z</time>
      </trkpt>
      <trkpt lat="47.72698" lon="6.13479">
        <ele>365.58</ele>
        <time>2018-09-12T09:08:18Z</time>
      </trkpt>
      <trkpt lat="47.72695" lon="6.13473">
        <ele>365.49</ele>
        <time>2018-09-12T09:08:19Z</time>
      </trkpt>
      <trkpt lat="47.7269" lon="6.13468">
        <ele>365.38</ele>
        <time>2018-09-12T09:08:20Z</time>
      </trkpt>
      <trkpt lat="47.72687" lon="6.13463">
        <ele>365.34</ele>
        <time>2018-09-12T09:08:21Z</time>
      </trkpt>
      <trkpt lat="47.7268" lon="6.13455">
        <ele>365.3</ele>
        <time>2018-09-12T09:08:23Z</time>
      </trkpt>
      <trkpt lat="47.72676" lon="6.1345">
        <ele>365.29</ele>
        <time>2018-09-12T09:08:24Z</time>
      </trkpt>
      <trkpt lat="47.72667" lon="6.13443">
        <ele>365.13</ele>
        <time>2018-09-12T09:08:26Z</time>
      </trkpt>
      <trkpt lat="47.7266" lon="6.13438">
        <ele>365.09</ele>
        <time>2018-09-12T09:08:28Z</time>
      </trkpt>
      <trkpt lat="47.72654" lon="6.13436">
        <ele>365.04</ele>
        <time>2018-09-12T09:08:31Z</time>
      </trkpt>
      <trkpt lat="47.72648" lon="6.13438">
        <ele>365</ele>
        <time>2018-09-12T09:08:34Z</time>
      </trkpt>
      <trkpt lat="47.72641" lon="6.13439">
        <ele>364.99</ele>
        <time>2018-09-12T09:08:36Z</time>
      </trkpt>
      <trkpt lat="47.72636" lon="6.13439">
        <ele>364.98</ele>
        <time>2018-09-12T09:08:38Z</time>
      </trkpt>
      <trkpt lat="47.72631" lon="6.13439">
        <ele>364.97</ele>
        <time>2018-09-12T09:08:40Z</time>
      </trkpt>
      <trkpt lat="47.72626" lon="6.1344">
        <ele>364.96</ele>
        <time>2018-09-12T09:08:42Z</time>
      </trkpt>
      <trkpt lat="47.7262" lon="6.1344">
        <ele>364.96</ele>
        <time>2018-09-12T09:08:44Z</time>
      </trkpt>
      <trkpt lat="47.72614" lon="6.1344">
        <ele>364.96</ele>
        <time>2018-09-12T09:08:46Z</time>
      </trkpt>
      <trkpt lat="47.72608" lon="6.13441">
        <ele>364.97</ele>
        <time>2018-09-12T09:08:48Z</time>
      </trkpt>
      <trkpt lat="47.72603" lon="6.13441">
        <ele>364.99</ele>
        <time>2018-09-12T09:08:50Z</time>
      </trkpt>
      <trkpt lat="47.72598" lon="6.13442">
        <ele>365.01</ele>
        <time>2018-09-12T09:08:52Z</time>
      </trkpt>
      <trkpt lat="47.72591" lon="6.13442">
        <ele>365.05</ele>
        <time>2018-09-12T09:08:55Z</time>
      </trkpt>
      <trkpt lat="47.72585" lon="6.13443">
        <ele>365.1</ele>
        <time>2018-09-12T09:08:58Z</time>
      </trkpt>
      <trkpt lat="47.72578" lon="6.13444">
        <ele>365.16</ele>
        <time>2018-09-12T09:09:01Z</time>
      </trkpt>
      <trkpt lat="47.72574" lon="6.13445">
        <ele>365.21</ele>
        <time>2018-09-12T09:09:03Z</time>
      </trkpt>
      <trkpt lat="47.72568" lon="6.13445">
        <ele>365.26</ele>
        <time>2018-09-12T09:09:05Z</time>
      </trkpt>
      <trkpt lat="47.72563" lon="6.13443">
        <ele>365.33</ele>
        <time>2018-09-12T09:09:07Z</time>
      </trkpt>
      <trkpt lat="47.72558" lon="6.13441">
        <ele>365.4</ele>
        <time>2018-09-12T09:09:09Z</time>
      </trkpt>
      <trkpt lat="47.72553" lon="6.13439">
        <ele>365.47</ele>
        <time>2018-09-12T09:09:11Z</time>
      </trkpt>
      <trkpt lat="47.72548" lon="6.13437">
        <ele>365.55</ele>
        <time>2018-09-12T09:09:13Z</time>
      </trkpt>
      <trkpt lat="47.7254" lon="6.13438">
        <ele>365.68</ele>
        <time>2018-09-12T09:09:16Z</time>
      </trkpt>
      <trkpt lat="47.72536" lon="6.13438">
        <ele>365.77</ele>
        <time>2018-09-12T09:09:18Z</time>
      </trkpt>
      <trkpt lat="47.72531" lon="6.13438">
        <ele>365.86</ele>
        <time>2018-09-12T09:09:20Z</time>
      </trkpt>
      <trkpt lat="47.72526" lon="6.13439">
        <ele>365.96</ele>
        <time>2018-09-12T09:09:22Z</time>
      </trkpt>
      <trkpt lat="47.7252" lon="6.13439">
        <ele>366.11</ele>
        <time>2018-09-12T09:09:25Z</time>
      </trkpt>
      <trkpt lat="47.72514" lon="6.1344">
        <ele>366.26</ele>
        <time>2018-09-12T09:09:28Z</time>
      </trkpt>
      <trkpt lat="47.72509" lon="6.13441">
        <ele>366.35</ele>
        <time>2018-09-12T09:09:30Z</time>
      </trkpt>
      <trkpt lat="47.72503" lon="6.13442">
        <ele>366.49</ele>
        <time>2018-09-12T09:09:33Z</time>
      </trkpt>
      <trkpt lat="47.72498" lon="6.13442">
        <ele>366.59</ele>
        <time>2018-09-12T09:09:35Z</time>
      </trkpt>
      <trkpt lat="47.72492" lon="6.13442">
        <ele>366.73</ele>
        <time>2018-09-12T09:09:38Z</time>
      </trkpt>
      <trkpt lat="47.72486" lon="6.13441">
        <ele>366.86</ele>
        <time>2018-09-12T09:09:41Z</time>
      </trkpt>
      <trkpt lat="47.72482" lon="6.13439">
        <ele>366.95</ele>
        <time>2018-09-12T09:09:43Z</time>
      </trkpt>
      <trkpt lat="47.72477" lon="6.13438">
        <ele>367.04</ele>
        <time>2018-09-12T09:09:45Z</time>
      </trkpt>
      <trkpt lat="47.7247" lon="6.13436">
        <ele>367.16</ele>
        <time>2018-09-12T09:09:48Z</time>
      </trkpt>
      <trkpt lat="47.72466" lon="6.13436">
        <ele>367.24</ele>
        <time>2018-09-12T09:09:50Z</time>
      </trkpt>
      <trkpt lat="47.72461" lon="6.13437">
        <ele>367.33</ele>
        <time>2018-09-12T09:09:52Z</time>
      </trkpt>
      <trkpt lat="47.72456" lon="6.13437">
        <ele>367.41</ele>
        <time>2018-09-12T09:09:54Z</time>
      </trkpt>
      <trkpt lat="47.72451" lon="6.13437">
        <ele>367.54</ele>
        <time>2018-09-12T09:09:57Z</time>
      </trkpt>
      <trkpt lat="47.72445" lon="6.13437">
        <ele>367.66</ele>
        <time>2018-09-12T09:10:00Z</time>
      </trkpt>
      <trkpt lat="47.72439" lon="6.13438">
        <ele>367.78</ele>
        <time>2018-09-12T09:10:03Z</time>
      </trkpt>
      <trkpt lat="47.72434" lon="6.13437">
        <ele>367.86</ele>
        <time>2018-09-12T09:10:05Z</time>
      </trkpt>
      <trkpt lat="47.72429" lon="6.13437">
        <ele>367.94</ele>
        <time>2018-09-12T09:10:07Z</time>
      </trkpt>
      <trkpt lat="47.72423" lon="6.13437">
        <ele>368.02</ele>
        <time>2018-09-12T09:10:09Z</time>
      </trkpt>
      <trkpt lat="47.72418" lon="6.13436">
        <ele>368.1</ele>
        <time>2018-09-12T09:10:11Z</time>
      </trkpt>
      <trkpt lat="47.72412" lon="6.13435">
        <ele>368.17</ele>
        <time>2018-09-12T09:10:13Z</time>
      </trkpt>
      <trkpt lat="47.72406" lon="6.13436">
        <ele>368.24</ele>
        <time>2018-09-12T09:10:15Z</time>
      </trkpt>
      <trkpt lat="47.72399" lon="6.13437">
        <ele>368.31</ele>
        <time>2018-09-12T09:10:17Z</time>
      </trkpt>
      <trkpt lat="47.72393" lon="6.13437">
        <ele>368.38</ele>
        <time>2018-09-12T09:10:19Z</time>
      </trkpt>
      <trkpt lat="47.72386" lon="6.13436">
        <ele>368.45</ele>
        <time>2018-09-12T09:10:21Z</time>
      </trkpt>
      <trkpt lat="47.72377" lon="6.13434">
        <ele>368.51</ele>
        <time>2018-09-12T09:10:23Z</time>
      </trkpt>
      <trkpt lat="47.72372" lon="6.13433">
        <ele>368.55</ele>
        <time>2018-09-12T09:10:24Z</time>
      </trkpt>
      <trkpt lat="47.72367" lon="6.13431">
        <ele>368.58</ele>
        <time>2018-09-12T09:10:25Z</time>
      </trkpt>
      <trkpt lat="47.72361" lon="6.13431">
        <ele>368.61</ele>
        <time>2018-09-12T09:10:26Z</time>
      </trkpt>
      <trkpt lat="47.72355" lon="6.13431">
        <ele>368.64</ele>
        <time>2018-09-12T09:10:27Z</time>
      </trkpt>
      <trkpt lat="47.7235" lon="6.13431">
        <ele>368.86</ele>
        <time>2018-09-12T09:10:28Z</time>
      </trkpt>
      <trkpt lat="47.72344" lon="6.1343">
        <ele>369.09</ele>
        <time>2018-09-12T09:10:29Z</time>
      </trkpt>
      <trkpt lat="47.72338" lon="6.1343">
        <ele>369.28</ele>
        <time>2018-09-12T09:10:30Z</time>
      </trkpt>
      <trkpt lat="47.72332" lon="6.1343">
        <ele>369.44</ele>
        <time>2018-09-12T09:10:31Z</time>
      </trkpt>
      <trkpt lat="47.72325" lon="6.13431">
        <ele>369.57</ele>
        <time>2018-09-12T09:10:32Z</time>
      </trkpt>
      <trkpt lat="47.72302" lon="6.13435">
        <ele>369.67</ele>
        <time>2018-09-12T09:10:33Z</time>
      </trkpt>
      <trkpt lat="47.72296" lon="6.13438">
        <ele>369.7</ele>
        <time>2018-09-12T09:10:34Z</time>
      </trkpt>
      <trkpt lat="47.72291" lon="6.13437">
        <ele>369.72</ele>
        <time>2018-09-12T09:10:35Z</time>
      </trkpt>
      <trkpt lat="47.72281" lon="6.13439">
        <ele>369.77</ele>
        <time>2018-09-12T09:10:36Z</time>
      </trkpt>
      <trkpt lat="47.72274" lon="6.13439">
        <ele>369.83</ele>
        <time>2018-09-12T09:10:37Z</time>
      </trkpt>
      <trkpt lat="47.72268" lon="6.13439">
        <ele>369.88</ele>
        <time>2018-09-12T09:10:38Z</time>
      </trkpt>
      <trkpt lat="47.7226" lon="6.13438">
        <ele>369.92</ele>
        <time>2018-09-12T09:10:39Z</time>
      </trkpt>
      <trkpt lat="47.72251" lon="6.13437">
        <ele>369.94</ele>
        <time>2018-09-12T09:10:40Z</time>
      </trkpt>
      <trkpt lat="47.72246" lon="6.13435">
        <ele>369.97</ele>
        <time>2018-09-12T09:10:41Z</time>
      </trkpt>
      <trkpt lat="47.7224" lon="6.13434">
        <ele>369.98</ele>
        <time>2018-09-12T09:10:42Z</time>
      </trkpt>
      <trkpt lat="47.72231" lon="6.13435">
        <ele>369.98</ele>
        <time>2018-09-12T09:10:43Z</time>
      </trkpt>
      <trkpt lat="47.72223" lon="6.13436">
        <ele>369.97</ele>
        <time>2018-09-12T09:10:44Z</time>
      </trkpt>
      <trkpt lat="47.72215" lon="6.13435">
        <ele>369.95</ele>
        <time>2018-09-12T09:10:45Z</time>
      </trkpt>
      <trkpt lat="47.72207" lon="6.13434">
        <ele>369.94</ele>
        <time>2018-09-12T09:10:46Z</time>
      </trkpt>
      <trkpt lat="47.72199" lon="6.13433">
        <ele>369.91</ele>
        <time>2018-09-12T09:10:47Z</time>
      </trkpt>
      <trkpt lat="47.72191" lon="6.13433">
        <ele>369.88</ele>
        <time>2018-09-12T09:10:48Z</time>
      </trkpt>
      <trkpt lat="47.72183" lon="6.13433">
        <ele>369.85</ele>
        <time>2018-09-12T09:10:49Z</time>
      </trkpt>
      <trkpt lat="47.72174" lon="6.13434">
        <ele>369.81</ele>
        <time>2018-09-12T09:10:50Z</time>
      </trkpt>
      <trkpt lat="47.72167" lon="6.13434">
        <ele>369.76</ele>
        <time>2018-09-12T09:10:51Z</time>
      </trkpt>
      <trkpt lat="47.72159" lon="6.13435">
        <ele>369.71</ele>
        <time>2018-09-12T09:10:52Z</time>
      </trkpt>
      <trkpt lat="47.72152" lon="6.13436">
        <ele>369.63</ele>
        <time>2018-09-12T09:10:53Z</time>
      </trkpt>
      <trkpt lat="47.72145" lon="6.13436">
        <ele>369.55</ele>
        <time>2018-09-12T09:10:54Z</time>
      </trkpt>
      <trkpt lat="47.72138" lon="6.13435">
        <ele>369.4</ele>
        <time>2018-09-12T09:10:55Z</time>
      </trkpt>
      <trkpt lat="47.7213" lon="6.13435">
        <ele>369.23</ele>
        <time>2018-09-12T09:10:56Z</time>
      </trkpt>
      <trkpt lat="47.72124" lon="6.13434">
        <ele>369.12</ele>
        <time>2018-09-12T09:10:57Z</time>
      </trkpt>
      <trkpt lat="47.72118" lon="6.13432">
        <ele>369</ele>
        <time>2018-09-12T09:10:58Z</time>
      </trkpt>
      <trkpt lat="47.72113" lon="6.13432">
        <ele>368.8</ele>
        <time>2018-09-12T09:10:59Z</time>
      </trkpt>
      <trkpt lat="47.72107" lon="6.13432">
        <ele>368.5</ele>
        <time>2018-09-12T09:11:00Z</time>
      </trkpt>
      <trkpt lat="47.72103" lon="6.13431">
        <ele>368.39</ele>
        <time>2018-09-12T09:11:01Z</time>
      </trkpt>
      <trkpt lat="47.72098" lon="6.13431">
        <ele>368.33</ele>
        <time>2018-09-12T09:11:02Z</time>
      </trkpt>
      <trkpt lat="47.72094" lon="6.1343">
        <ele>368.24</ele>
        <time>2018-09-12T09:11:04Z</time>
      </trkpt>
      <trkpt lat="47.72087" lon="6.13431">
        <ele>368.12</ele>
        <time>2018-09-12T09:11:06Z</time>
      </trkpt>
      <trkpt lat="47.72081" lon="6.13432">
        <ele>367.97</ele>
        <time>2018-09-12T09:11:08Z</time>
      </trkpt>
      <trkpt lat="47.72075" lon="6.13432">
        <ele>367.82</ele>
        <time>2018-09-12T09:11:10Z</time>
      </trkpt>
      <trkpt lat="47.72069" lon="6.13432">
        <ele>367.66</ele>
        <time>2018-09-12T09:11:12Z</time>
      </trkpt>
      <trkpt lat="47.72064" lon="6.13431">
        <ele>367.5</ele>
        <time>2018-09-12T09:11:14Z</time>
      </trkpt>
      <trkpt lat="47.72058" lon="6.13431">
        <ele>367.32</ele>
        <time>2018-09-12T09:11:16Z</time>
      </trkpt>
      <trkpt lat="47.72053" lon="6.13431">
        <ele>367.14</ele>
        <time>2018-09-12T09:11:18Z</time>
      </trkpt>
      <trkpt lat="47.72047" lon="6.13431">
        <ele>366.9</ele>
        <time>2018-09-12T09:11:20Z</time>
      </trkpt>
      <trkpt lat="47.72042" lon="6.13431">
        <ele>366.61</ele>
        <time>2018-09-12T09:11:22Z</time>
      </trkpt>
      <trkpt lat="47.72036" lon="6.13431">
        <ele>366.31</ele>
        <time>2018-09-12T09:11:24Z</time>
      </trkpt>
      <trkpt lat="47.7203" lon="6.13431">
        <ele>366</ele>
        <time>2018-09-12T09:11:26Z</time>
      </trkpt>
      <trkpt lat="47.72025" lon="6.13429">
        <ele>365.72</ele>
        <time>2018-09-12T09:11:28Z</time>
      </trkpt>
      <trkpt lat="47.72019" lon="6.13428">
        <ele>365.42</ele>
        <time>2018-09-12T09:11:30Z</time>
      </trkpt>
      <trkpt lat="47.72014" lon="6.13428">
        <ele>365.1</ele>
        <time>2018-09-12T09:11:32Z</time>
      </trkpt>
      <trkpt lat="47.72009" lon="6.13429">
        <ele>364.77</ele>
        <time>2018-09-12T09:11:34Z</time>
      </trkpt>
      <trkpt lat="47.72004" lon="6.1343">
        <ele>364.44</ele>
        <time>2018-09-12T09:11:36Z</time>
      </trkpt>
      <trkpt lat="47.71999" lon="6.13429">
        <ele>364.11</ele>
        <time>2018-09-12T09:11:38Z</time>
      </trkpt>
      <trkpt lat="47.71994" lon="6.13429">
        <ele>363.78</ele>
        <time>2018-09-12T09:11:40Z</time>
      </trkpt>
      <trkpt lat="47.7199" lon="6.13428">
        <ele>363.45</ele>
        <time>2018-09-12T09:11:42Z</time>
      </trkpt>
      <trkpt lat="47.71985" lon="6.13428">
        <ele>363.13</ele>
        <time>2018-09-12T09:11:44Z</time>
      </trkpt>
      <trkpt lat="47.71978" lon="6.13427">
        <ele>362.66</ele>
        <time>2018-09-12T09:11:47Z</time>
      </trkpt>
      <trkpt lat="47.71974" lon="6.13427">
        <ele>362.37</ele>
        <time>2018-09-12T09:11:49Z</time>
      </trkpt>
      <trkpt lat="47.71967" lon="6.13426">
        <ele>361.94</ele>
        <time>2018-09-12T09:11:52Z</time>
      </trkpt>
      <trkpt lat="47.71962" lon="6.13425">
        <ele>361.67</ele>
        <time>2018-09-12T09:11:54Z</time>
      </trkpt>
      <trkpt lat="47.71957" lon="6.13425">
        <ele>361.41</ele>
        <time>2018-09-12T09:11:56Z</time>
      </trkpt>
      <trkpt lat="47.71952" lon="6.13424">
        <ele>361.17</ele>
        <time>2018-09-12T09:11:58Z</time>
      </trkpt>
      <trkpt lat="47.71947" lon="6.13424">
        <ele>360.95</ele>
        <time>2018-09-12T09:12:00Z</time>
      </trkpt>
      <trkpt lat="47.71941" lon="6.13423">
        <ele>360.74</ele>
        <time>2018-09-12T09:12:02Z</time>
      </trkpt>
      <trkpt lat="47.71936" lon="6.13424">
        <ele>360.56</ele>
        <time>2018-09-12T09:12:04Z</time>
      </trkpt>
      <trkpt lat="47.7193" lon="6.13424">
        <ele>360.39</ele>
        <time>2018-09-12T09:12:06Z</time>
      </trkpt>
      <trkpt lat="47.71925" lon="6.13425">
        <ele>360.25</ele>
        <time>2018-09-12T09:12:08Z</time>
      </trkpt>
      <trkpt lat="47.7192" lon="6.13425">
        <ele>360.13</ele>
        <time>2018-09-12T09:12:10Z</time>
      </trkpt>
      <trkpt lat="47.71916" lon="6.13425">
        <ele>360.01</ele>
        <time>2018-09-12T09:12:12Z</time>
      </trkpt>
      <trkpt lat="47.71909" lon="6.13424">
        <ele>359.84</ele>
        <time>2018-09-12T09:12:15Z</time>
      </trkpt>
      <trkpt lat="47.71904" lon="6.13424">
        <ele>359.73</ele>
        <time>2018-09-12T09:12:17Z</time>
      </trkpt>
      <trkpt lat="47.71899" lon="6.13423">
        <ele>359.62</ele>
        <time>2018-09-12T09:12:19Z</time>
      </trkpt>
      <trkpt lat="47.71894" lon="6.13423">
        <ele>359.52</ele>
        <time>2018-09-12T09:12:21Z</time>
      </trkpt>
      <trkpt lat="47.71888" lon="6.13424">
        <ele>359.42</ele>
        <time>2018-09-12T09:12:23Z</time>
      </trkpt>
      <trkpt lat="47.71883" lon="6.13425">
        <ele>359.34</ele>
        <time>2018-09-12T09:12:25Z</time>
      </trkpt>
      <trkpt lat="47.71878" lon="6.13426">
        <ele>359.26</ele>
        <time>2018-09-12T09:12:27Z</time>
      </trkpt>
      <trkpt lat="47.71873" lon="6.13427">
        <ele>359.18</ele>
        <time>2018-09-12T09:12:29Z</time>
      </trkpt>
      <trkpt lat="47.71868" lon="6.13427">
        <ele>359.11</ele>
        <time>2018-09-12T09:12:31Z</time>
      </trkpt>
      <trkpt lat="47.71861" lon="6.13428">
        <ele>359.01</ele>
        <time>2018-09-12T09:12:34Z</time>
      </trkpt>
      <trkpt lat="47.71856" lon="6.13427">
        <ele>358.95</ele>
        <time>2018-09-12T09:12:36Z</time>
      </trkpt>
      <trkpt lat="47.71851" lon="6.13427">
        <ele>358.88</ele>
        <time>2018-09-12T09:12:38Z</time>
      </trkpt>
      <trkpt lat="47.71845" lon="6.13427">
        <ele>358.83</ele>
        <time>2018-09-12T09:12:40Z</time>
      </trkpt>
      <trkpt lat="47.7184" lon="6.13427">
        <ele>358.78</ele>
        <time>2018-09-12T09:12:42Z</time>
      </trkpt>
      <trkpt lat="47.71835" lon="6.13427">
        <ele>358.74</ele>
        <time>2018-09-12T09:12:44Z</time>
      </trkpt>
      <trkpt lat="47.7183" lon="6.13426">
        <ele>358.7</ele>
        <time>2018-09-12T09:12:46Z</time>
      </trkpt>
      <trkpt lat="47.71825" lon="6.13426">
        <ele>358.67</ele>
        <time>2018-09-12T09:12:48Z</time>
      </trkpt>
      <trkpt lat="47.71821" lon="6.13425">
        <ele>358.64</ele>
        <time>2018-09-12T09:12:50Z</time>
      </trkpt>
      <trkpt lat="47.71816" lon="6.13425">
        <ele>358.62</ele>
        <time>2018-09-12T09:12:52Z</time>
      </trkpt>
      <trkpt lat="47.71811" lon="6.13425">
        <ele>358.61</ele>
        <time>2018-09-12T09:12:54Z</time>
      </trkpt>
      <trkpt lat="47.71804" lon="6.13426">
        <ele>358.58</ele>
        <time>2018-09-12T09:12:57Z</time>
      </trkpt>
      <trkpt lat="47.71798" lon="6.13428">
        <ele>358.56</ele>
        <time>2018-09-12T09:12:59Z</time>
      </trkpt>
      <trkpt lat="47.71792" lon="6.1343">
        <ele>358.55</ele>
        <time>2018-09-12T09:13:01Z</time>
      </trkpt>
      <trkpt lat="47.71787" lon="6.13434">
        <ele>358.55</ele>
        <time>2018-09-12T09:13:03Z</time>
      </trkpt>
      <trkpt lat="47.71783" lon="6.13438">
        <ele>358.55</ele>
        <time>2018-09-12T09:13:05Z</time>
      </trkpt>
      <trkpt lat="47.71779" lon="6.13443">
        <ele>358.55</ele>
        <time>2018-09-12T09:13:07Z</time>
      </trkpt>
      <trkpt lat="47.71775" lon="6.13447">
        <ele>358.55</ele>
        <time>2018-09-12T09:13:09Z</time>
      </trkpt>
      <trkpt lat="47.7177" lon="6.1345">
        <ele>358.54</ele>
        <time>2018-09-12T09:13:11Z</time>
      </trkpt>
      <trkpt lat="47.71763" lon="6.13453">
        <ele>358.54</ele>
        <time>2018-09-12T09:13:13Z</time>
      </trkpt>
      <trkpt lat="47.71755" lon="6.13457">
        <ele>358.5</ele>
        <time>2018-09-12T09:13:15Z</time>
      </trkpt>
      <trkpt lat="47.71749" lon="6.13459">
        <ele>358.46</ele>
        <time>2018-09-12T09:13:16Z</time>
      </trkpt>
      <trkpt lat="47.71744" lon="6.1346">
        <ele>358.42</ele>
        <time>2018-09-12T09:13:17Z</time>
      </trkpt>
      <trkpt lat="47.71738" lon="6.13461">
        <ele>358.38</ele>
        <time>2018-09-12T09:13:18Z</time>
      </trkpt>
      <trkpt lat="47.71732" lon="6.13462">
        <ele>358.37</ele>
        <time>2018-09-12T09:13:19Z</time>
      </trkpt>
      <trkpt lat="47.71727" lon="6.13462">
        <ele>358.34</ele>
        <time>2018-09-12T09:13:20Z</time>
      </trkpt>
      <trkpt lat="47.71721" lon="6.13463">
        <ele>358.31</ele>
        <time>2018-09-12T09:13:21Z</time>
      </trkpt>
      <trkpt lat="47.71716" lon="6.13462">
        <ele>358.28</ele>
        <time>2018-09-12T09:13:22Z</time>
      </trkpt>
      <trkpt lat="47.7171" lon="6.13461">
        <ele>358.26</ele>
        <time>2018-09-12T09:13:23Z</time>
      </trkpt>
      <trkpt lat="47.71704" lon="6.13461">
        <ele>358.24</ele>
        <time>2018-09-12T09:13:24Z</time>
      </trkpt>
      <trkpt lat="47.71698" lon="6.1346">
        <ele>358.23</ele>
        <time>2018-09-12T09:13:25Z</time>
      </trkpt>
      <trkpt lat="47.71679" lon="6.1346">
        <ele>358.22</ele>
        <time>2018-09-12T09:13:26Z</time>
      </trkpt>
      <trkpt lat="47.71674" lon="6.13461">
        <ele>358.2</ele>
        <time>2018-09-12T09:13:27Z</time>
      </trkpt>
      <trkpt lat="47.71667" lon="6.13459">
        <ele>358.19</ele>
        <time>2018-09-12T09:13:28Z</time>
      </trkpt>
      <trkpt lat="47.71661" lon="6.1346">
        <ele>358.17</ele>
        <time>2018-09-12T09:13:29Z</time>
      </trkpt>
      <trkpt lat="47.71654" lon="6.1346">
        <ele>358.16</ele>
        <time>2018-09-12T09:13:30Z</time>
      </trkpt>
      <trkpt lat="47.71646" lon="6.13462">
        <ele>358.15</ele>
        <time>2018-09-12T09:13:31Z</time>
      </trkpt>
      <trkpt lat="47.71638" lon="6.13463">
        <ele>358.14</ele>
        <time>2018-09-12T09:13:32Z</time>
      </trkpt>
      <trkpt lat="47.71632" lon="6.13467">
        <ele>358.14</ele>
        <time>2018-09-12T09:13:33Z</time>
      </trkpt>
      <trkpt lat="47.71627" lon="6.13471">
        <ele>358.14</ele>
        <time>2018-09-12T09:13:34Z</time>
      </trkpt>
      <trkpt lat="47.71621" lon="6.13477">
        <ele>358.15</ele>
        <time>2018-09-12T09:13:35Z</time>
      </trkpt>
      <trkpt lat="47.71613" lon="6.13482">
        <ele>358.16</ele>
        <time>2018-09-12T09:13:36Z</time>
      </trkpt>
      <trkpt lat="47.71606" lon="6.13489">
        <ele>358.18</ele>
        <time>2018-09-12T09:13:37Z</time>
      </trkpt>
      <trkpt lat="47.716" lon="6.13494">
        <ele>358.2</ele>
        <time>2018-09-12T09:13:38Z</time>
      </trkpt>
      <trkpt lat="47.71595" lon="6.13499">
        <ele>358.23</ele>
        <time>2018-09-12T09:13:39Z</time>
      </trkpt>
      <trkpt lat="47.71591" lon="6.13503">
        <ele>358.24</ele>
        <time>2018-09-12T09:13:40Z</time>
      </trkpt>
      <trkpt lat="47.71584" lon="6.13511">
        <ele>358.25</ele>
        <time>2018-09-12T09:13:42Z</time>
      </trkpt>
      <trkpt lat="47.71579" lon="6.13518">
        <ele>358.27</ele>
        <time>2018-09-12T09:13:43Z</time>
      </trkpt>
      <trkpt lat="47.71575" lon="6.13522">
        <ele>358.3</ele>
        <time>2018-09-12T09:13:44Z</time>
      </trkpt>
      <trkpt lat="47.71571" lon="6.13526">
        <ele>358.33</ele>
        <time>2018-09-12T09:13:45Z</time>
      </trkpt>
      <trkpt lat="47.71567" lon="6.1353">
        <ele>358.34</ele>
        <time>2018-09-12T09:13:46Z</time>
      </trkpt>
      <trkpt lat="47.71562" lon="6.13534">
        <ele>358.35</ele>
        <time>2018-09-12T09:13:47Z</time>
      </trkpt>
      <trkpt lat="47.71558" lon="6.13538">
        <ele>358.35</ele>
        <time>2018-09-12T09:13:48Z</time>
      </trkpt>
      <trkpt lat="47.71554" lon="6.13542">
        <ele>358.38</ele>
        <time>2018-09-12T09:13:49Z</time>
      </trkpt>
      <trkpt lat="47.71549" lon="6.13546">
        <ele>358.41</ele>
        <time>2018-09-12T09:13:50Z</time>
      </trkpt>
      <trkpt lat="47.71545" lon="6.1355">
        <ele>358.44</ele>
        <time>2018-09-12T09:13:51Z</time>
      </trkpt>
      <trkpt lat="47.71538" lon="6.13555">
        <ele>358.45</ele>
        <time>2018-09-12T09:13:52Z</time>
      </trkpt>
      <trkpt lat="47.71533" lon="6.1356">
        <ele>358.46</ele>
        <time>2018-09-12T09:13:53Z</time>
      </trkpt>
      <trkpt lat="47.71527" lon="6.13568">
        <ele>358.46</ele>
        <time>2018-09-12T09:13:54Z</time>
      </trkpt>
      <trkpt lat="47.71521" lon="6.13574">
        <ele>358.44</ele>
        <time>2018-09-12T09:13:55Z</time>
      </trkpt>
      <trkpt lat="47.71516" lon="6.1358">
        <ele>358.41</ele>
        <time>2018-09-12T09:13:56Z</time>
      </trkpt>
      <trkpt lat="47.71512" lon="6.13585">
        <ele>358.39</ele>
        <time>2018-09-12T09:13:57Z</time>
      </trkpt>
      <trkpt lat="47.71507" lon="6.1359">
        <ele>358.36</ele>
        <time>2018-09-12T09:13:58Z</time>
      </trkpt>
      <trkpt lat="47.71502" lon="6.13594">
        <ele>358.35</ele>
        <time>2018-09-12T09:13:59Z</time>
      </trkpt>
      <trkpt lat="47.71496" lon="6.13599">
        <ele>358.34</ele>
        <time>2018-09-12T09:14:01Z</time>
      </trkpt>
      <trkpt lat="47.7149" lon="6.13606">
        <ele>358.33</ele>
        <time>2018-09-12T09:14:03Z</time>
      </trkpt>
      <trkpt lat="47.71484" lon="6.13613">
        <ele>358.32</ele>
        <time>2018-09-12T09:14:05Z</time>
      </trkpt>
      <trkpt lat="47.7148" lon="6.13617">
        <ele>358.32</ele>
        <time>2018-09-12T09:14:07Z</time>
      </trkpt>
      <trkpt lat="47.71476" lon="6.13621">
        <ele>358.31</ele>
        <time>2018-09-12T09:14:09Z</time>
      </trkpt>
      <trkpt lat="47.71471" lon="6.13627">
        <ele>358.3</ele>
        <time>2018-09-12T09:14:11Z</time>
      </trkpt>
      <trkpt lat="47.71466" lon="6.1363">
        <ele>358.29</ele>
        <time>2018-09-12T09:14:13Z</time>
      </trkpt>
      <trkpt lat="47.71461" lon="6.13631">
        <ele>358.27</ele>
        <time>2018-09-12T09:14:15Z</time>
      </trkpt>
      <trkpt lat="47.71456" lon="6.13632">
        <ele>358.24</ele>
        <time>2018-09-12T09:14:17Z</time>
      </trkpt>
      <trkpt lat="47.71451" lon="6.13629">
        <ele>358.21</ele>
        <time>2018-09-12T09:14:19Z</time>
      </trkpt>
      <trkpt lat="47.71446" lon="6.13627">
        <ele>358.17</ele>
        <time>2018-09-12T09:14:21Z</time>
      </trkpt>
      <trkpt lat="47.71442" lon="6.13624">
        <ele>358.13</ele>
        <time>2018-09-12T09:14:23Z</time>
      </trkpt>
      <trkpt lat="47.71438" lon="6.13621">
        <ele>358.07</ele>
        <time>2018-09-12T09:14:25Z</time>
      </trkpt>
      <trkpt lat="47.71433" lon="6.13617">
        <ele>358.01</ele>
        <time>2018-09-12T09:14:27Z</time>
      </trkpt>
      <trkpt lat="47.71429" lon="6.13612">
        <ele>357.95</ele>
        <time>2018-09-12T09:14:29Z</time>
      </trkpt>
      <trkpt lat="47.71424" lon="6.13607">
        <ele>357.88</ele>
        <time>2018-09-12T09:14:31Z</time>
      </trkpt>
      <trkpt lat="47.71418" lon="6.136">
        <ele>357.8</ele>
        <time>2018-09-12T09:14:33Z</time>
      </trkpt>
      <trkpt lat="47.71414" lon="6.13595">
        <ele>357.73</ele>
        <time>2018-09-12T09:14:35Z</time>
      </trkpt>
      <trkpt lat="47.71408" lon="6.13588">
        <ele>357.65</ele>
        <time>2018-09-12T09:14:37Z</time>
      </trkpt>
      <trkpt lat="47.71403" lon="6.13582">
        <ele>357.58</ele>
        <time>2018-09-12T09:14:39Z</time>
      </trkpt>
      <trkpt lat="47.71398" lon="6.13577">
        <ele>357.5</ele>
        <time>2018-09-12T09:14:41Z</time>
      </trkpt>
      <trkpt lat="47.71393" lon="6.13569">
        <ele>357.44</ele>
        <time>2018-09-12T09:14:43Z</time>
      </trkpt>
      <trkpt lat="47.71388" lon="6.13565">
        <ele>357.37</ele>
        <time>2018-09-12T09:14:45Z</time>
      </trkpt>
      <trkpt lat="47.71382" lon="6.13559">
        <ele>357.31</ele>
        <time>2018-09-12T09:14:47Z</time>
      </trkpt>
      <trkpt lat="47.71377" lon="6.13555">
        <ele>357.25</ele>
        <time>2018-09-12T09:14:49Z</time>
      </trkpt>
      <trkpt lat="47.71372" lon="6.13551">
        <ele>357.19</ele>
        <time>2018-09-12T09:14:51Z</time>
      </trkpt>
      <trkpt lat="47.71366" lon="6.13549">
        <ele>357.13</ele>
        <time>2018-09-12T09:14:53Z</time>
      </trkpt>
      <trkpt lat="47.7136" lon="6.13548">
        <ele>357.07</ele>
        <time>2018-09-12T09:14:55Z</time>
      </trkpt>
      <trkpt lat="47.71351" lon="6.13548">
        <ele>357.01</ele>
        <time>2018-09-12T09:14:57Z</time>
      </trkpt>
      <trkpt lat="47.71344" lon="6.13549">
        <ele>356.95</ele>
        <time>2018-09-12T09:14:59Z</time>
      </trkpt>
      <trkpt lat="47.71336" lon="6.13549">
        <ele>356.89</ele>
        <time>2018-09-12T09:15:01Z</time>
      </trkpt>
      <trkpt lat="47.71328" lon="6.1355">
        <ele>356.84</ele>
        <time>2018-09-12T09:15:03Z</time>
      </trkpt>
      <trkpt lat="47.71322" lon="6.13552">
        <ele>356.78</ele>
        <time>2018-09-12T09:15:05Z</time>
      </trkpt>
      <trkpt lat="47.71315" lon="6.13553">
        <ele>356.74</ele>
        <time>2018-09-12T09:15:07Z</time>
      </trkpt>
      <trkpt lat="47.71309" lon="6.13554">
        <ele>356.69</ele>
        <time>2018-09-12T09:15:09Z</time>
      </trkpt>
      <trkpt lat="47.71304" lon="6.13553">
        <ele>356.65</ele>
        <time>2018-09-12T09:15:11Z</time>
      </trkpt>
      <trkpt lat="47.71298" lon="6.13552">
        <ele>356.59</ele>
        <time>2018-09-12T09:15:14Z</time>
      </trkpt>
      <trkpt lat="47.71294" lon="6.13548">
        <ele>356.54</ele>
        <time>2018-09-12T09:15:17Z</time>
      </trkpt>
      <trkpt lat="47.71292" lon="6.13538">
        <ele>356.5</ele>
        <time>2018-09-12T09:15:20Z</time>
      </trkpt>
      <trkpt lat="47.71292" lon="6.1353">
        <ele>356.47</ele>
        <time>2018-09-12T09:15:22Z</time>
      </trkpt>
      <trkpt lat="47.71291" lon="6.13521">
        <ele>356.43</ele>
        <time>2018-09-12T09:15:25Z</time>
      </trkpt>
      <trkpt lat="47.71291" lon="6.13513">
        <ele>356.39</ele>
        <time>2018-09-12T09:15:27Z</time>
      </trkpt>
      <trkpt lat="47.71291" lon="6.13506">
        <ele>356.36</ele>
        <time>2018-09-12T09:15:29Z</time>
      </trkpt>
      <trkpt lat="47.71291" lon="6.13498">
        <ele>356.32</ele>
        <time>2018-09-12T09:15:31Z</time>
      </trkpt>
      <trkpt lat="47.71291" lon="6.13491">
        <ele>356.29</ele>
        <time>2018-09-12T09:15:33Z</time>
      </trkpt>
      <trkpt lat="47.71291" lon="6.13483">
        <ele>356.26</ele>
        <time>2018-09-12T09:15:35Z</time>
      </trkpt>
      <trkpt lat="47.71291" lon="6.13476">
        <ele>356.22</ele>
        <time>2018-09-12T09:15:37Z</time>
      </trkpt>
      <trkpt lat="47.7129" lon="6.13467">
        <ele>356.18</ele>
        <time>2018-09-12T09:15:40Z</time>
      </trkpt>
      <trkpt lat="47.71291" lon="6.13459">
        <ele>356.14</ele>
        <time>2018-09-12T09:15:43Z</time>
      </trkpt>
      <trkpt lat="47.71292" lon="6.1345">
        <ele>356.09</ele>
        <time>2018-09-12T09:15:46Z</time>
      </trkpt>
      <trkpt lat="47.71292" lon="6.13439">
        <ele>356.06</ele>
        <time>2018-09-12T09:15:48Z</time>
      </trkpt>
      <trkpt lat="47.71291" lon="6.13431">
        <ele>356.05</ele>
        <time>2018-09-12T09:15:49Z</time>
      </trkpt>
      <trkpt lat="47.71289" lon="6.13418">
        <ele>356.01</ele>
        <time>2018-09-12T09:15:51Z</time>
      </trkpt>
      <trkpt lat="47.71288" lon="6.13408">
        <ele>355.97</ele>
        <time>2018-09-12T09:15:53Z</time>
      </trkpt>
      <trkpt lat="47.71288" lon="6.13399">
        <ele>355.93</ele>
        <time>2018-09-12T09:15:55Z</time>
      </trkpt>
      <trkpt lat="47.71288" lon="6.13389">
        <ele>355.86</ele>
        <time>2018-09-12T09:15:58Z</time>
      </trkpt>
      <trkpt lat="47.71289" lon="6.13381">
        <ele>355.79</ele>
        <time>2018-09-12T09:16:01Z</time>
      </trkpt>
      <trkpt lat="47.7129" lon="6.13373">
        <ele>355.71</ele>
        <time>2018-09-12T09:16:04Z</time>
      </trkpt>
      <trkpt lat="47.71288" lon="6.13362">
        <ele>355.65</ele>
        <time>2018-09-12T09:16:06Z</time>
      </trkpt>
      <trkpt lat="47.71287" lon="6.13355">
        <ele>355.62</ele>
        <time>2018-09-12T09:16:07Z</time>
      </trkpt>
      <trkpt lat="47.71285" lon="6.13348">
        <ele>355.56</ele>
        <time>2018-09-12T09:16:09Z</time>
      </trkpt>
      <trkpt lat="47.71284" lon="6.13338">
        <ele>355.47</ele>
        <time>2018-09-12T09:16:12Z</time>
      </trkpt>
      <trkpt lat="47.71284" lon="6.13329">
        <ele>355.37</ele>
        <time>2018-09-12T09:16:15Z</time>
      </trkpt>
      <trkpt lat="47.71285" lon="6.13319">
        <ele>355.27</ele>
        <time>2018-09-12T09:16:18Z</time>
      </trkpt>
      <trkpt lat="47.71285" lon="6.1331">
        <ele>355.16</ele>
        <time>2018-09-12T09:16:21Z</time>
      </trkpt>
      <trkpt lat="47.71286" lon="6.13301">
        <ele>355.04</ele>
        <time>2018-09-12T09:16:24Z</time>
      </trkpt>
      <trkpt lat="47.71286" lon="6.13294">
        <ele>354.91</ele>
        <time>2018-09-12T09:16:27Z</time>
      </trkpt>
      <trkpt lat="47.71287" lon="6.13285">
        <ele>354.72</ele>
        <time>2018-09-12T09:16:31Z</time>
      </trkpt>
      <trkpt lat="47.71286" lon="6.13275">
        <ele>354.57</ele>
        <time>2018-09-12T09:16:34Z</time>
      </trkpt>
      <trkpt lat="47.71284" lon="6.13267">
        <ele>354.47</ele>
        <time>2018-09-12T09:16:36Z</time>
      </trkpt>
      <trkpt lat="47.71283" lon="6.1326">
        <ele>354.37</ele>
        <time>2018-09-12T09:16:38Z</time>
      </trkpt>
      <trkpt lat="47.71283" lon="6.13253">
        <ele>354.22</ele>
        <time>2018-09-12T09:16:41Z</time>
      </trkpt>
      <trkpt lat="47.71284" lon="6.13246">
        <ele>354.07</ele>
        <time>2018-09-12T09:16:44Z</time>
      </trkpt>
      <trkpt lat="47.71286" lon="6.13238">
        <ele>353.92</ele>
        <time>2018-09-12T09:16:47Z</time>
      </trkpt>
      <trkpt lat="47.71288" lon="6.13229">
        <ele>353.79</ele>
        <time>2018-09-12T09:16:50Z</time>
      </trkpt>
      <trkpt lat="47.71288" lon="6.13218">
        <ele>353.71</ele>
        <time>2018-09-12T09:16:52Z</time>
      </trkpt>
      <trkpt lat="47.71288" lon="6.13209">
        <ele>353.63</ele>
        <time>2018-09-12T09:16:54Z</time>
      </trkpt>
      <trkpt lat="47.71288" lon="6.13201">
        <ele>353.55</ele>
        <time>2018-09-12T09:16:56Z</time>
      </trkpt>
      <trkpt lat="47.71287" lon="6.13193">
        <ele>353.48</ele>
        <time>2018-09-12T09:16:58Z</time>
      </trkpt>
      <trkpt lat="47.71286" lon="6.13186">
        <ele>353.37</ele>
        <time>2018-09-12T09:17:01Z</time>
      </trkpt>
      <trkpt lat="47.71285" lon="6.13178">
        <ele>353.26</ele>
        <time>2018-09-12T09:17:05Z</time>
      </trkpt>
      <trkpt lat="47.71285" lon="6.13171">
        <ele>353.15</ele>
        <time>2018-09-12T09:17:09Z</time>
      </trkpt>
      <trkpt lat="47.71285" lon="6.13164">
        <ele>353.07</ele>
        <time>2018-09-12T09:17:13Z</time>
      </trkpt>
      <trkpt lat="47.71286" lon="6.13154">
        <ele>352.96</ele>
        <time>2018-09-12T09:17:18Z</time>
      </trkpt>
      <trkpt lat="47.71287" lon="6.13147">
        <ele>352.89</ele>
        <time>2018-09-12T09:17:22Z</time>
      </trkpt>
      <trkpt lat="47.71288" lon="6.13139">
        <ele>352.81</ele>
        <time>2018-09-12T09:17:27Z</time>
      </trkpt>
      <trkpt lat="47.7129" lon="6.13132">
        <ele>352.74</ele>
        <time>2018-09-12T09:17:31Z</time>
      </trkpt>
      <trkpt lat="47.71291" lon="6.13123">
        <ele>352.66</ele>
        <time>2018-09-12T09:17:36Z</time>
      </trkpt>
      <trkpt lat="47.71292" lon="6.13116">
        <ele>352.61</ele>
        <time>2018-09-12T09:17:39Z</time>
      </trkpt>
      <trkpt lat="47.71291" lon="6.13107">
        <ele>352.58</ele>
        <time>2018-09-12T09:17:42Z</time>
      </trkpt>
      <trkpt lat="47.71289" lon="6.13099">
        <ele>352.55</ele>
        <time>2018-09-12T09:17:46Z</time>
      </trkpt>
      <trkpt lat="47.71289" lon="6.13091">
        <ele>352.53</ele>
        <time>2018-09-12T09:17:51Z</time>
      </trkpt>
      <trkpt lat="47.71289" lon="6.13084">
        <ele>352.52</ele>
        <time>2018-09-12T09:17:54Z</time>
      </trkpt>
      <trkpt lat="47.71288" lon="6.13077">
        <ele>352.51</ele>
        <time>2018-09-12T09:17:57Z</time>
      </trkpt>
      <trkpt lat="47.71287" lon="6.1307">
        <ele>352.51</ele>
        <time>2018-09-12T09:18:00Z</time>
      </trkpt>
      <trkpt lat="47.71287" lon="6.13062">
        <ele>352.5</ele>
        <time>2018-09-12T09:18:03Z</time>
      </trkpt>
      <trkpt lat="47.71287" lon="6.13053">
        <ele>352.49</ele>
        <time>2018-09-12T09:18:06Z</time>
      </trkpt>
      <trkpt lat="47.71287" lon="6.13045">
        <ele>352.49</ele>
        <time>2018-09-12T09:18:09Z</time>
      </trkpt>
      <trkpt lat="47.71286" lon="6.13035">
        <ele>352.5</ele>
        <time>2018-09-12T09:18:12Z</time>
      </trkpt>
      <trkpt lat="47.71285" lon="6.13026">
        <ele>352.51</ele>
        <time>2018-09-12T09:18:15Z</time>
      </trkpt>
      <trkpt lat="47.71284" lon="6.13017">
        <ele>352.52</ele>
        <time>2018-09-12T09:18:18Z</time>
      </trkpt>
      <trkpt lat="47.71284" lon="6.13009">
        <ele>352.54</ele>
        <time>2018-09-12T09:18:21Z</time>
      </trkpt>
      <trkpt lat="47.71284" lon="6.13003">
        <ele>352.55</ele>
        <time>2018-09-12T09:18:24Z</time>
      </trkpt>
      <trkpt lat="47.71285" lon="6.12996">
        <ele>352.57</ele>
        <time>2018-09-12T09:18:28Z</time>
      </trkpt>
      <trkpt lat="47.71287" lon="6.12989">
        <ele>352.59</ele>
        <time>2018-09-12T09:18:31Z</time>
      </trkpt>
      <trkpt lat="47.71286" lon="6.12983">
        <ele>352.63</ele>
        <time>2018-09-12T09:18:36Z</time>
      </trkpt>
      <trkpt lat="47.7128" lon="6.12976">
        <ele>352.66</ele>
        <time>2018-09-12T09:18:40Z</time>
      </trkpt>
      <trkpt lat="47.71275" lon="6.12971">
        <ele>352.68</ele>
        <time>2018-09-12T09:18:42Z</time>
      </trkpt>
      <trkpt lat="47.71272" lon="6.12966">
        <ele>352.7</ele>
        <time>2018-09-12T09:18:44Z</time>
      </trkpt>
      <trkpt lat="47.71268" lon="6.1296">
        <ele>352.74</ele>
        <time>2018-09-12T09:18:47Z</time>
      </trkpt>
      <trkpt lat="47.71268" lon="6.1295">
        <ele>352.78</ele>
        <time>2018-09-12T09:18:51Z</time>
      </trkpt>
      <trkpt lat="47.71267" lon="6.12943">
        <ele>352.8</ele>
        <time>2018-09-12T09:18:53Z</time>
      </trkpt>
      <trkpt lat="47.71266" lon="6.12936">
        <ele>352.83</ele>
        <time>2018-09-12T09:18:55Z</time>
      </trkpt>
      <trkpt lat="47.71263" lon="6.1293">
        <ele>352.89</ele>
        <time>2018-09-12T09:18:59Z</time>
      </trkpt>
      <trkpt lat="47.71261" lon="6.12923">
        <ele>352.93</ele>
        <time>2018-09-12T09:19:02Z</time>
      </trkpt>
      <trkpt lat="47.71259" lon="6.12916">
        <ele>352.98</ele>
        <time>2018-09-12T09:19:06Z</time>
      </trkpt>
      <trkpt lat="47.71256" lon="6.12909">
        <ele>353.01</ele>
        <time>2018-09-12T09:19:08Z</time>
      </trkpt>
      <trkpt lat="47.71254" lon="6.12902">
        <ele>353.03</ele>
        <time>2018-09-12T09:19:10Z</time>
      </trkpt>
      <trkpt lat="47.71252" lon="6.12895">
        <ele>353.06</ele>
        <time>2018-09-12T09:19:12Z</time>
      </trkpt>
      <trkpt lat="47.71249" lon="6.12887">
        <ele>353.11</ele>
        <time>2018-09-12T09:19:16Z</time>
      </trkpt>
      <trkpt lat="47.71247" lon="6.12881">
        <ele>353.14</ele>
        <time>2018-09-12T09:19:18Z</time>
      </trkpt>
      <trkpt lat="47.71245" lon="6.12874">
        <ele>353.17</ele>
        <time>2018-09-12T09:19:20Z</time>
      </trkpt>
      <trkpt lat="47.71242" lon="6.12865">
        <ele>353.21</ele>
        <time>2018-09-12T09:19:23Z</time>
      </trkpt>
      <trkpt lat="47.71238" lon="6.12861">
        <ele>353.22</ele>
        <time>2018-09-12T09:19:26Z</time>
      </trkpt>
      <trkpt lat="47.71235" lon="6.12855">
        <ele>353.26</ele>
        <time>2018-09-12T09:19:53Z</time>
      </trkpt>
      <trkpt lat="47.71232" lon="6.1285">
        <ele>353.31</ele>
        <time>2018-09-12T09:20:03Z</time>
      </trkpt>
      <trkpt lat="47.71229" lon="6.12845">
        <ele>353.62</ele>
        <time>2018-09-12T09:20:41Z</time>
      </trkpt>
      <trkpt lat="47.71229" lon="6.12852">
        <ele>353.81</ele>
        <time>2018-09-12T09:21:01Z</time>
      </trkpt>
      <trkpt lat="47.71231" lon="6.1286">
        <ele>353.9</ele>
        <time>2018-09-12T09:21:04Z</time>
      </trkpt>
      <trkpt lat="47.71233" lon="6.12866">
        <ele>353.96</ele>
        <time>2018-09-12T09:21:06Z</time>
      </trkpt>
      <trkpt lat="47.71236" lon="6.12873">
        <ele>354.01</ele>
        <time>2018-09-12T09:21:08Z</time>
      </trkpt>
      <trkpt lat="47.71238" lon="6.1288">
        <ele>354.06</ele>
        <time>2018-09-12T09:21:10Z</time>
      </trkpt>
      <trkpt lat="47.71241" lon="6.12888">
        <ele>354.11</ele>
        <time>2018-09-12T09:21:12Z</time>
      </trkpt>
      <trkpt lat="47.71244" lon="6.12895">
        <ele>354.15</ele>
        <time>2018-09-12T09:21:14Z</time>
      </trkpt>
      <trkpt lat="47.71247" lon="6.12901">
        <ele>354.2</ele>
        <time>2018-09-12T09:21:16Z</time>
      </trkpt>
      <trkpt lat="47.7125" lon="6.1291">
        <ele>354.24</ele>
        <time>2018-09-12T09:21:18Z</time>
      </trkpt>
      <trkpt lat="47.71253" lon="6.12919">
        <ele>354.28</ele>
        <time>2018-09-12T09:21:20Z</time>
      </trkpt>
      <trkpt lat="47.71254" lon="6.12925">
        <ele>354.32</ele>
        <time>2018-09-12T09:21:22Z</time>
      </trkpt>
      <trkpt lat="47.71256" lon="6.12932">
        <ele>354.38</ele>
        <time>2018-09-12T09:21:25Z</time>
      </trkpt>
      <trkpt lat="47.71253" lon="6.12939">
        <ele>354.48</ele>
        <time>2018-09-12T09:21:30Z</time>
      </trkpt>
      <trkpt lat="47.71248" lon="6.12944">
        <ele>354.55</ele>
        <time>2018-09-12T09:21:34Z</time>
      </trkpt>
      <trkpt lat="47.71244" lon="6.12947">
        <ele>354.6</ele>
        <time>2018-09-12T09:21:37Z</time>
      </trkpt>
      <trkpt lat="47.71238" lon="6.12951">
        <ele>354.64</ele>
        <time>2018-09-12T09:21:40Z</time>
      </trkpt>
      <trkpt lat="47.71233" lon="6.12953">
        <ele>354.67</ele>
        <time>2018-09-12T09:21:42Z</time>
      </trkpt>
      <trkpt lat="47.71227" lon="6.12956">
        <ele>354.72</ele>
        <time>2018-09-12T09:21:45Z</time>
      </trkpt>
      <trkpt lat="47.71222" lon="6.12959">
        <ele>354.77</ele>
        <time>2018-09-12T09:21:48Z</time>
      </trkpt>
      <trkpt lat="47.71216" lon="6.12961">
        <ele>354.81</ele>
        <time>2018-09-12T09:21:51Z</time>
      </trkpt>
      <trkpt lat="47.71211" lon="6.12964">
        <ele>354.85</ele>
        <time>2018-09-12T09:21:54Z</time>
      </trkpt>
      <trkpt lat="47.71207" lon="6.12967">
        <ele>354.88</ele>
        <time>2018-09-12T09:21:56Z</time>
      </trkpt>
      <trkpt lat="47.71202" lon="6.12971">
        <ele>354.91</ele>
        <time>2018-09-12T09:21:58Z</time>
      </trkpt>
      <trkpt lat="47.71198" lon="6.12974">
        <ele>354.95</ele>
        <time>2018-09-12T09:22:00Z</time>
      </trkpt>
      <trkpt lat="47.71194" lon="6.12978">
        <ele>354.98</ele>
        <time>2018-09-12T09:22:02Z</time>
      </trkpt>
      <trkpt lat="47.71188" lon="6.12984">
        <ele>355.04</ele>
        <time>2018-09-12T09:22:05Z</time>
      </trkpt>
      <trkpt lat="47.71184" lon="6.12987">
        <ele>355.08</ele>
        <time>2018-09-12T09:22:07Z</time>
      </trkpt>
      <trkpt lat="47.7118" lon="6.12989">
        <ele>355.12</ele>
        <time>2018-09-12T09:22:09Z</time>
      </trkpt>
      <trkpt lat="47.71173" lon="6.12993">
        <ele>355.18</ele>
        <time>2018-09-12T09:22:12Z</time>
      </trkpt>
      <trkpt lat="47.71168" lon="6.12995">
        <ele>355.22</ele>
        <time>2018-09-12T09:22:14Z</time>
      </trkpt>
      <trkpt lat="47.71163" lon="6.12998">
        <ele>355.25</ele>
        <time>2018-09-12T09:22:16Z</time>
      </trkpt>
      <trkpt lat="47.71158" lon="6.13002">
        <ele>355.28</ele>
        <time>2018-09-12T09:22:18Z</time>
      </trkpt>
      <trkpt lat="47.71153" lon="6.13005">
        <ele>355.31</ele>
        <time>2018-09-12T09:22:20Z</time>
      </trkpt>
      <trkpt lat="47.71147" lon="6.13008">
        <ele>355.34</ele>
        <time>2018-09-12T09:22:22Z</time>
      </trkpt>
      <trkpt lat="47.71142" lon="6.13012">
        <ele>355.36</ele>
        <time>2018-09-12T09:22:24Z</time>
      </trkpt>
      <trkpt lat="47.71136" lon="6.13016">
        <ele>355.38</ele>
        <time>2018-09-12T09:22:26Z</time>
      </trkpt>
      <trkpt lat="47.71131" lon="6.1302">
        <ele>355.4</ele>
        <time>2018-09-12T09:22:28Z</time>
      </trkpt>
      <trkpt lat="47.71125" lon="6.13024">
        <ele>355.41</ele>
        <time>2018-09-12T09:22:30Z</time>
      </trkpt>
      <trkpt lat="47.71119" lon="6.13028">
        <ele>355.43</ele>
        <time>2018-09-12T09:22:32Z</time>
      </trkpt>
      <trkpt lat="47.71114" lon="6.13032">
        <ele>355.44</ele>
        <time>2018-09-12T09:22:34Z</time>
      </trkpt>
      <trkpt lat="47.71108" lon="6.13036">
        <ele>355.45</ele>
        <time>2018-09-12T09:22:36Z</time>
      </trkpt>
      <trkpt lat="47.71103" lon="6.13041">
        <ele>355.46</ele>
        <time>2018-09-12T09:22:38Z</time>
      </trkpt>
      <trkpt lat="47.71097" lon="6.13045">
        <ele>355.47</ele>
        <time>2018-09-12T09:22:40Z</time>
      </trkpt>
      <trkpt lat="47.71091" lon="6.13049">
        <ele>355.47</ele>
        <time>2018-09-12T09:22:42Z</time>
      </trkpt>
      <trkpt lat="47.71084" lon="6.13052">
        <ele>355.48</ele>
        <time>2018-09-12T09:22:44Z</time>
      </trkpt>
      <trkpt lat="47.71077" lon="6.13056">
        <ele>355.49</ele>
        <time>2018-09-12T09:22:46Z</time>
      </trkpt>
      <trkpt lat="47.71069" lon="6.13059">
        <ele>355.49</ele>
        <time>2018-09-12T09:22:48Z</time>
      </trkpt>
      <trkpt lat="47.71064" lon="6.13062">
        <ele>355.5</ele>
        <time>2018-09-12T09:22:49Z</time>
      </trkpt>
      <trkpt lat="47.71059" lon="6.13065">
        <ele>355.5</ele>
        <time>2018-09-12T09:22:50Z</time>
      </trkpt>
      <trkpt lat="47.71054" lon="6.13066">
        <ele>355.5</ele>
        <time>2018-09-12T09:22:51Z</time>
      </trkpt>
      <trkpt lat="47.7105" lon="6.13068">
        <ele>355.5</ele>
        <time>2018-09-12T09:22:52Z</time>
      </trkpt>
      <trkpt lat="47.71045" lon="6.13069">
        <ele>355.5</ele>
        <time>2018-09-12T09:22:53Z</time>
      </trkpt>
      <trkpt lat="47.7104" lon="6.1307">
        <ele>355.5</ele>
        <time>2018-09-12T09:22:54Z</time>
      </trkpt>
      <trkpt lat="47.71036" lon="6.1307">
        <ele>355.5</ele>
        <time>2018-09-12T09:22:55Z</time>
      </trkpt>
      <trkpt lat="47.71028" lon="6.13071">
        <ele>355.51</ele>
        <time>2018-09-12T09:22:57Z</time>
      </trkpt>
      <trkpt lat="47.7102" lon="6.13072">
        <ele>355.51</ele>
        <time>2018-09-12T09:22:59Z</time>
      </trkpt>
      <trkpt lat="47.71015" lon="6.13073">
        <ele>355.51</ele>
        <time>2018-09-12T09:23:00Z</time>
      </trkpt>
      <trkpt lat="47.7101" lon="6.13074">
        <ele>355.51</ele>
        <time>2018-09-12T09:23:01Z</time>
      </trkpt>
      <trkpt lat="47.71002" lon="6.13076">
        <ele>355.51</ele>
        <time>2018-09-12T09:23:03Z</time>
      </trkpt>
      <trkpt lat="47.70997" lon="6.13076">
        <ele>355.51</ele>
        <time>2018-09-12T09:23:04Z</time>
      </trkpt>
      <trkpt lat="47.70988" lon="6.13078">
        <ele>355.5</ele>
        <time>2018-09-12T09:23:06Z</time>
      </trkpt>
      <trkpt lat="47.70984" lon="6.13079">
        <ele>355.5</ele>
        <time>2018-09-12T09:23:07Z</time>
      </trkpt>
      <trkpt lat="47.70976" lon="6.13081">
        <ele>355.5</ele>
        <time>2018-09-12T09:23:09Z</time>
      </trkpt>
      <trkpt lat="47.70968" lon="6.13085">
        <ele>355.5</ele>
        <time>2018-09-12T09:23:11Z</time>
      </trkpt>
      <trkpt lat="47.70959" lon="6.13089">
        <ele>355.5</ele>
        <time>2018-09-12T09:23:13Z</time>
      </trkpt>
      <trkpt lat="47.70952" lon="6.13092">
        <ele>355.49</ele>
        <time>2018-09-12T09:23:15Z</time>
      </trkpt>
      <trkpt lat="47.70945" lon="6.13095">
        <ele>355.49</ele>
        <time>2018-09-12T09:23:17Z</time>
      </trkpt>
      <trkpt lat="47.70939" lon="6.13097">
        <ele>355.48</ele>
        <time>2018-09-12T09:23:19Z</time>
      </trkpt>
      <trkpt lat="47.70932" lon="6.13099">
        <ele>355.48</ele>
        <time>2018-09-12T09:23:21Z</time>
      </trkpt>
      <trkpt lat="47.70927" lon="6.13101">
        <ele>355.47</ele>
        <time>2018-09-12T09:23:23Z</time>
      </trkpt>
      <trkpt lat="47.70922" lon="6.13102">
        <ele>355.46</ele>
        <time>2018-09-12T09:23:25Z</time>
      </trkpt>
      <trkpt lat="47.70918" lon="6.13102">
        <ele>355.45</ele>
        <time>2018-09-12T09:23:27Z</time>
      </trkpt>
      <trkpt lat="47.70911" lon="6.13101">
        <ele>355.45</ele>
        <time>2018-09-12T09:23:29Z</time>
      </trkpt>
      <trkpt lat="47.70904" lon="6.13099">
        <ele>355.44</ele>
        <time>2018-09-12T09:23:31Z</time>
      </trkpt>
      <trkpt lat="47.70897" lon="6.13098">
        <ele>355.44</ele>
        <time>2018-09-12T09:23:33Z</time>
      </trkpt>
      <trkpt lat="47.70891" lon="6.13098">
        <ele>355.43</ele>
        <time>2018-09-12T09:23:35Z</time>
      </trkpt>
      <trkpt lat="47.70885" lon="6.13098">
        <ele>355.42</ele>
        <time>2018-09-12T09:23:37Z</time>
      </trkpt>
      <trkpt lat="47.70881" lon="6.13098">
        <ele>355.42</ele>
        <time>2018-09-12T09:23:39Z</time>
      </trkpt>
      <trkpt lat="47.70876" lon="6.13098">
        <ele>355.41</ele>
        <time>2018-09-12T09:23:41Z</time>
      </trkpt>
      <trkpt lat="47.70869" lon="6.13101">
        <ele>355.4</ele>
        <time>2018-09-12T09:23:44Z</time>
      </trkpt>
      <trkpt lat="47.70863" lon="6.13103">
        <ele>355.39</ele>
        <time>2018-09-12T09:23:46Z</time>
      </trkpt>
      <trkpt lat="47.70857" lon="6.13106">
        <ele>355.39</ele>
        <time>2018-09-12T09:23:48Z</time>
      </trkpt>
      <trkpt lat="47.7085" lon="6.13107">
        <ele>355.38</ele>
        <time>2018-09-12T09:23:50Z</time>
      </trkpt>
      <trkpt lat="47.70843" lon="6.13106">
        <ele>355.38</ele>
        <time>2018-09-12T09:23:52Z</time>
      </trkpt>
      <trkpt lat="47.70836" lon="6.13105">
        <ele>355.38</ele>
        <time>2018-09-12T09:23:54Z</time>
      </trkpt>
      <trkpt lat="47.7083" lon="6.13104">
        <ele>355.37</ele>
        <time>2018-09-12T09:23:56Z</time>
      </trkpt>
      <trkpt lat="47.70825" lon="6.13103">
        <ele>355.37</ele>
        <time>2018-09-12T09:23:58Z</time>
      </trkpt>
      <trkpt lat="47.7082" lon="6.13103">
        <ele>355.37</ele>
        <time>2018-09-12T09:24:00Z</time>
      </trkpt>
      <trkpt lat="47.70813" lon="6.13104">
        <ele>355.37</ele>
        <time>2018-09-12T09:24:02Z</time>
      </trkpt>
      <trkpt lat="47.70805" lon="6.13107">
        <ele>355.37</ele>
        <time>2018-09-12T09:24:04Z</time>
      </trkpt>
      <trkpt lat="47.70798" lon="6.13111">
        <ele>355.37</ele>
        <time>2018-09-12T09:24:06Z</time>
      </trkpt>
      <trkpt lat="47.7079" lon="6.13115">
        <ele>355.37</ele>
        <time>2018-09-12T09:24:08Z</time>
      </trkpt>
      <trkpt lat="47.70783" lon="6.13119">
        <ele>355.37</ele>
        <time>2018-09-12T09:24:10Z</time>
      </trkpt>
      <trkpt lat="47.70777" lon="6.13121">
        <ele>355.37</ele>
        <time>2018-09-12T09:24:12Z</time>
      </trkpt>
      <trkpt lat="47.70772" lon="6.13124">
        <ele>355.38</ele>
        <time>2018-09-12T09:24:14Z</time>
      </trkpt>
      <trkpt lat="47.70767" lon="6.13128">
        <ele>355.38</ele>
        <time>2018-09-12T09:24:17Z</time>
      </trkpt>
      <trkpt lat="47.70762" lon="6.1313">
        <ele>355.39</ele>
        <time>2018-09-12T09:24:27Z</time>
      </trkpt>
      <trkpt lat="47.70758" lon="6.13126">
        <ele>355.39</ele>
        <time>2018-09-12T09:24:36Z</time>
      </trkpt>
      <trkpt lat="47.70754" lon="6.13124">
        <ele>355.4</ele>
        <time>2018-09-12T09:24:41Z</time>
      </trkpt>
      <trkpt lat="47.70748" lon="6.13125">
        <ele>355.41</ele>
        <time>2018-09-12T09:24:44Z</time>
      </trkpt>
      <trkpt lat="47.70741" lon="6.13126">
        <ele>355.41</ele>
        <time>2018-09-12T09:24:47Z</time>
      </trkpt>
      <trkpt lat="47.70736" lon="6.13125">
        <ele>355.42</ele>
        <time>2018-09-12T09:24:49Z</time>
      </trkpt>
      <trkpt lat="47.70731" lon="6.13124">
        <ele>355.42</ele>
        <time>2018-09-12T09:24:51Z</time>
      </trkpt>
      <trkpt lat="47.70727" lon="6.13123">
        <ele>355.43</ele>
        <time>2018-09-12T09:24:53Z</time>
      </trkpt>
      <trkpt lat="47.70722" lon="6.13123">
        <ele>355.43</ele>
        <time>2018-09-12T09:24:55Z</time>
      </trkpt>
      <trkpt lat="47.70717" lon="6.13124">
        <ele>355.43</ele>
        <time>2018-09-12T09:24:57Z</time>
      </trkpt>
      <trkpt lat="47.70711" lon="6.13124">
        <ele>355.44</ele>
        <time>2018-09-12T09:24:59Z</time>
      </trkpt>
      <trkpt lat="47.70705" lon="6.13123">
        <ele>355.44</ele>
        <time>2018-09-12T09:25:02Z</time>
      </trkpt>
      <trkpt lat="47.70699" lon="6.13123">
        <ele>355.45</ele>
        <time>2018-09-12T09:25:05Z</time>
      </trkpt>
      <trkpt lat="47.70692" lon="6.13122">
        <ele>355.46</ele>
        <time>2018-09-12T09:25:08Z</time>
      </trkpt>
      <trkpt lat="47.70686" lon="6.13121">
        <ele>355.47</ele>
        <time>2018-09-12T09:25:11Z</time>
      </trkpt>
      <trkpt lat="47.70682" lon="6.13122">
        <ele>355.48</ele>
        <time>2018-09-12T09:25:13Z</time>
      </trkpt>
      <trkpt lat="47.70677" lon="6.13123">
        <ele>355.5</ele>
        <time>2018-09-12T09:25:15Z</time>
      </trkpt>
      <trkpt lat="47.70671" lon="6.13125">
        <ele>355.51</ele>
        <time>2018-09-12T09:25:17Z</time>
      </trkpt>
      <trkpt lat="47.70666" lon="6.13127">
        <ele>355.52</ele>
        <time>2018-09-12T09:25:19Z</time>
      </trkpt>
      <trkpt lat="47.7066" lon="6.13127">
        <ele>355.54</ele>
        <time>2018-09-12T09:25:21Z</time>
      </trkpt>
      <trkpt lat="47.70655" lon="6.13129">
        <ele>355.55</ele>
        <time>2018-09-12T09:25:23Z</time>
      </trkpt>
      <trkpt lat="47.70648" lon="6.13133">
        <ele>355.58</ele>
        <time>2018-09-12T09:25:25Z</time>
      </trkpt>
      <trkpt lat="47.70643" lon="6.13136">
        <ele>355.61</ele>
        <time>2018-09-12T09:25:27Z</time>
      </trkpt>
      <trkpt lat="47.70638" lon="6.13137">
        <ele>355.64</ele>
        <time>2018-09-12T09:25:29Z</time>
      </trkpt>
      <trkpt lat="47.70633" lon="6.13139">
        <ele>355.67</ele>
        <time>2018-09-12T09:25:31Z</time>
      </trkpt>
      <trkpt lat="47.70628" lon="6.1314">
        <ele>355.71</ele>
        <time>2018-09-12T09:25:33Z</time>
      </trkpt>
      <trkpt lat="47.70622" lon="6.1314">
        <ele>355.74</ele>
        <time>2018-09-12T09:25:35Z</time>
      </trkpt>
      <trkpt lat="47.70616" lon="6.13139">
        <ele>355.78</ele>
        <time>2018-09-12T09:25:37Z</time>
      </trkpt>
      <trkpt lat="47.70609" lon="6.13137">
        <ele>355.81</ele>
        <time>2018-09-12T09:25:39Z</time>
      </trkpt>
      <trkpt lat="47.70602" lon="6.13135">
        <ele>355.84</ele>
        <time>2018-09-12T09:25:41Z</time>
      </trkpt>
      <trkpt lat="47.70595" lon="6.13136">
        <ele>355.87</ele>
        <time>2018-09-12T09:25:43Z</time>
      </trkpt>
      <trkpt lat="47.70587" lon="6.13135">
        <ele>355.9</ele>
        <time>2018-09-12T09:25:45Z</time>
      </trkpt>
      <trkpt lat="47.70579" lon="6.13136">
        <ele>355.92</ele>
        <time>2018-09-12T09:25:47Z</time>
      </trkpt>
      <trkpt lat="47.70568" lon="6.13141">
        <ele>355.93</ele>
        <time>2018-09-12T09:25:49Z</time>
      </trkpt>
      <trkpt lat="47.70562" lon="6.13145">
        <ele>355.94</ele>
        <time>2018-09-12T09:25:50Z</time>
      </trkpt>
      <trkpt lat="47.70556" lon="6.13148">
        <ele>355.94</ele>
        <time>2018-09-12T09:25:51Z</time>
      </trkpt>
      <trkpt lat="47.7055" lon="6.13148">
        <ele>355.95</ele>
        <time>2018-09-12T09:25:52Z</time>
      </trkpt>
      <trkpt lat="47.70544" lon="6.13149">
        <ele>355.95</ele>
        <time>2018-09-12T09:25:53Z</time>
      </trkpt>
      <trkpt lat="47.70539" lon="6.1315">
        <ele>355.96</ele>
        <time>2018-09-12T09:25:54Z</time>
      </trkpt>
      <trkpt lat="47.70534" lon="6.13149">
        <ele>355.96</ele>
        <time>2018-09-12T09:25:55Z</time>
      </trkpt>
      <trkpt lat="47.70526" lon="6.13149">
        <ele>355.97</ele>
        <time>2018-09-12T09:25:57Z</time>
      </trkpt>
      <trkpt lat="47.7052" lon="6.13148">
        <ele>355.97</ele>
        <time>2018-09-12T09:25:59Z</time>
      </trkpt>
      <trkpt lat="47.70514" lon="6.13145">
        <ele>355.97</ele>
        <time>2018-09-12T09:26:01Z</time>
      </trkpt>
      <trkpt lat="47.70507" lon="6.13143">
        <ele>355.97</ele>
        <time>2018-09-12T09:26:03Z</time>
      </trkpt>
      <trkpt lat="47.705" lon="6.13139">
        <ele>355.97</ele>
        <time>2018-09-12T09:26:05Z</time>
      </trkpt>
      <trkpt lat="47.70492" lon="6.13136">
        <ele>355.98</ele>
        <time>2018-09-12T09:26:07Z</time>
      </trkpt>
      <trkpt lat="47.70484" lon="6.13134">
        <ele>355.98</ele>
        <time>2018-09-12T09:26:09Z</time>
      </trkpt>
      <trkpt lat="47.70479" lon="6.13134">
        <ele>355.98</ele>
        <time>2018-09-12T09:26:10Z</time>
      </trkpt>
      <trkpt lat="47.70471" lon="6.13135">
        <ele>355.98</ele>
        <time>2018-09-12T09:26:12Z</time>
      </trkpt>
      <trkpt lat="47.70463" lon="6.13135">
        <ele>355.98</ele>
        <time>2018-09-12T09:26:14Z</time>
      </trkpt>
      <trkpt lat="47.70457" lon="6.13135">
        <ele>355.98</ele>
        <time>2018-09-12T09:26:16Z</time>
      </trkpt>
      <trkpt lat="47.7045" lon="6.13134">
        <ele>355.98</ele>
        <time>2018-09-12T09:26:18Z</time>
      </trkpt>
      <trkpt lat="47.70442" lon="6.13134">
        <ele>355.98</ele>
        <time>2018-09-12T09:26:20Z</time>
      </trkpt>
      <trkpt lat="47.70438" lon="6.13134">
        <ele>355.98</ele>
        <time>2018-09-12T09:26:21Z</time>
      </trkpt>
      <trkpt lat="47.70433" lon="6.13134">
        <ele>355.98</ele>
        <time>2018-09-12T09:26:22Z</time>
      </trkpt>
      <trkpt lat="47.70428" lon="6.13134">
        <ele>355.98</ele>
        <time>2018-09-12T09:26:23Z</time>
      </trkpt>
      <trkpt lat="47.70424" lon="6.13134">
        <ele>355.98</ele>
        <time>2018-09-12T09:26:24Z</time>
      </trkpt>
      <trkpt lat="47.70415" lon="6.13134">
        <ele>355.98</ele>
        <time>2018-09-12T09:26:26Z</time>
      </trkpt>
      <trkpt lat="47.7041" lon="6.13133">
        <ele>355.98</ele>
        <time>2018-09-12T09:26:27Z</time>
      </trkpt>
      <trkpt lat="47.70402" lon="6.13133">
        <ele>355.98</ele>
        <time>2018-09-12T09:26:29Z</time>
      </trkpt>
      <trkpt lat="47.70395" lon="6.13134">
        <ele>355.98</ele>
        <time>2018-09-12T09:26:31Z</time>
      </trkpt>
      <trkpt lat="47.70389" lon="6.13136">
        <ele>355.97</ele>
        <time>2018-09-12T09:26:33Z</time>
      </trkpt>
      <trkpt lat="47.70382" lon="6.13137">
        <ele>355.97</ele>
        <time>2018-09-12T09:26:35Z</time>
      </trkpt>
      <trkpt lat="47.70375" lon="6.13138">
        <ele>355.97</ele>
        <time>2018-09-12T09:26:37Z</time>
      </trkpt>
      <trkpt lat="47.70366" lon="6.1314">
        <ele>355.97</ele>
        <time>2018-09-12T09:26:39Z</time>
      </trkpt>
      <trkpt lat="47.70359" lon="6.13143">
        <ele>355.96</ele>
        <time>2018-09-12T09:26:41Z</time>
      </trkpt>
      <trkpt lat="47.70354" lon="6.13144">
        <ele>355.96</ele>
        <time>2018-09-12T09:26:42Z</time>
      </trkpt>
      <trkpt lat="47.70349" lon="6.13145">
        <ele>355.96</ele>
        <time>2018-09-12T09:26:43Z</time>
      </trkpt>
      <trkpt lat="47.70341" lon="6.13146">
        <ele>355.95</ele>
        <time>2018-09-12T09:26:45Z</time>
      </trkpt>
      <trkpt lat="47.70336" lon="6.13148">
        <ele>355.95</ele>
        <time>2018-09-12T09:26:46Z</time>
      </trkpt>
      <trkpt lat="47.70331" lon="6.13149">
        <ele>355.94</ele>
        <time>2018-09-12T09:26:47Z</time>
      </trkpt>
      <trkpt lat="47.70326" lon="6.13151">
        <ele>355.91</ele>
        <time>2018-09-12T09:26:48Z</time>
      </trkpt>
      <trkpt lat="47.70321" lon="6.13152">
        <ele>355.88</ele>
        <time>2018-09-12T09:26:49Z</time>
      </trkpt>
      <trkpt lat="47.70316" lon="6.13153">
        <ele>355.87</ele>
        <time>2018-09-12T09:26:50Z</time>
      </trkpt>
      <trkpt lat="47.70311" lon="6.13154">
        <ele>355.86</ele>
        <time>2018-09-12T09:26:51Z</time>
      </trkpt>
      <trkpt lat="47.70305" lon="6.13155">
        <ele>355.84</ele>
        <time>2018-09-12T09:26:52Z</time>
      </trkpt>
      <trkpt lat="47.703" lon="6.13157">
        <ele>355.83</ele>
        <time>2018-09-12T09:26:53Z</time>
      </trkpt>
      <trkpt lat="47.70295" lon="6.13159">
        <ele>355.82</ele>
        <time>2018-09-12T09:26:54Z</time>
      </trkpt>
      <trkpt lat="47.7029" lon="6.13161">
        <ele>355.82</ele>
        <time>2018-09-12T09:26:55Z</time>
      </trkpt>
      <trkpt lat="47.70286" lon="6.13162">
        <ele>355.81</ele>
        <time>2018-09-12T09:26:56Z</time>
      </trkpt>
      <trkpt lat="47.70281" lon="6.13164">
        <ele>355.81</ele>
        <time>2018-09-12T09:26:57Z</time>
      </trkpt>
      <trkpt lat="47.70277" lon="6.13166">
        <ele>355.8</ele>
        <time>2018-09-12T09:26:58Z</time>
      </trkpt>
      <trkpt lat="47.70272" lon="6.13169">
        <ele>355.8</ele>
        <time>2018-09-12T09:26:59Z</time>
      </trkpt>
      <trkpt lat="47.70267" lon="6.13171">
        <ele>355.79</ele>
        <time>2018-09-12T09:27:00Z</time>
      </trkpt>
      <trkpt lat="47.70263" lon="6.13173">
        <ele>355.79</ele>
        <time>2018-09-12T09:27:01Z</time>
      </trkpt>
      <trkpt lat="47.70258" lon="6.13176">
        <ele>355.78</ele>
        <time>2018-09-12T09:27:02Z</time>
      </trkpt>
      <trkpt lat="47.70254" lon="6.13179">
        <ele>355.78</ele>
        <time>2018-09-12T09:27:03Z</time>
      </trkpt>
      <trkpt lat="47.7025" lon="6.13182">
        <ele>355.77</ele>
        <time>2018-09-12T09:27:04Z</time>
      </trkpt>
      <trkpt lat="47.70242" lon="6.13189">
        <ele>355.76</ele>
        <time>2018-09-12T09:27:06Z</time>
      </trkpt>
      <trkpt lat="47.70235" lon="6.13194">
        <ele>355.75</ele>
        <time>2018-09-12T09:27:08Z</time>
      </trkpt>
      <trkpt lat="47.7023" lon="6.13199">
        <ele>355.73</ele>
        <time>2018-09-12T09:27:10Z</time>
      </trkpt>
      <trkpt lat="47.70224" lon="6.13204">
        <ele>355.72</ele>
        <time>2018-09-12T09:27:12Z</time>
      </trkpt>
      <trkpt lat="47.70219" lon="6.13209">
        <ele>355.7</ele>
        <time>2018-09-12T09:27:14Z</time>
      </trkpt>
      <trkpt lat="47.70214" lon="6.13214">
        <ele>355.68</ele>
        <time>2018-09-12T09:27:16Z</time>
      </trkpt>
      <trkpt lat="47.70209" lon="6.13218">
        <ele>355.65</ele>
        <time>2018-09-12T09:27:18Z</time>
      </trkpt>
      <trkpt lat="47.70204" lon="6.1322">
        <ele>355.63</ele>
        <time>2018-09-12T09:27:20Z</time>
      </trkpt>
      <trkpt lat="47.702" lon="6.13223">
        <ele>355.61</ele>
        <time>2018-09-12T09:27:22Z</time>
      </trkpt>
      <trkpt lat="47.70195" lon="6.13228">
        <ele>355.58</ele>
        <time>2018-09-12T09:27:24Z</time>
      </trkpt>
      <trkpt lat="47.70191" lon="6.13234">
        <ele>355.56</ele>
        <time>2018-09-12T09:27:26Z</time>
      </trkpt>
      <trkpt lat="47.70187" lon="6.13239">
        <ele>355.53</ele>
        <time>2018-09-12T09:27:28Z</time>
      </trkpt>
      <trkpt lat="47.70184" lon="6.13243">
        <ele>355.51</ele>
        <time>2018-09-12T09:27:30Z</time>
      </trkpt>
      <trkpt lat="47.7018" lon="6.13249">
        <ele>355.47</ele>
        <time>2018-09-12T09:27:33Z</time>
      </trkpt>
      <trkpt lat="47.70176" lon="6.13255">
        <ele>355.44</ele>
        <time>2018-09-12T09:27:36Z</time>
      </trkpt>
      <trkpt lat="47.70174" lon="6.1326">
        <ele>355.41</ele>
        <time>2018-09-12T09:27:53Z</time>
      </trkpt>
      <trkpt lat="47.70168" lon="6.13261">
        <ele>355.22</ele>
        <time>2018-09-12T09:28:18Z</time>
      </trkpt>
      <trkpt lat="47.70161" lon="6.13261">
        <ele>355.12</ele>
        <time>2018-09-12T09:28:21Z</time>
      </trkpt>
      <trkpt lat="47.70156" lon="6.13261">
        <ele>355.02</ele>
        <time>2018-09-12T09:28:24Z</time>
      </trkpt>
      <trkpt lat="47.70151" lon="6.13261">
        <ele>354.96</ele>
        <time>2018-09-12T09:28:26Z</time>
      </trkpt>
      <trkpt lat="47.70146" lon="6.13262">
        <ele>354.85</ele>
        <time>2018-09-12T09:28:29Z</time>
      </trkpt>
      <trkpt lat="47.70142" lon="6.13265">
        <ele>354.71</ele>
        <time>2018-09-12T09:28:38Z</time>
      </trkpt>
      <trkpt lat="47.70146" lon="6.1327">
        <ele>354.5</ele>
        <time>2018-09-12T09:28:56Z</time>
      </trkpt>
      <trkpt lat="47.70151" lon="6.13272">
        <ele>354.33</ele>
        <time>2018-09-12T09:29:17Z</time>
      </trkpt>
      <trkpt lat="47.70154" lon="6.13278">
        <ele>354.14</ele>
        <time>2018-09-12T09:29:21Z</time>
      </trkpt>
      <trkpt lat="47.70155" lon="6.13285">
        <ele>353.94</ele>
        <time>2018-09-12T09:29:25Z</time>
      </trkpt>
      <trkpt lat="47.70157" lon="6.13292">
        <ele>353.67</ele>
        <time>2018-09-12T09:29:31Z</time>
      </trkpt>
      <trkpt lat="47.7016" lon="6.13299">
        <ele>353.33</ele>
        <time>2018-09-12T09:29:39Z</time>
      </trkpt>
      <trkpt lat="47.7016" lon="6.13306">
        <ele>352.99</ele>
        <time>2018-09-12T09:29:54Z</time>
      </trkpt>
      <trkpt lat="47.70166" lon="6.13308">
        <ele>352.67</ele>
        <time>2018-09-12T09:30:03Z</time>
      </trkpt>
      <trkpt lat="47.70169" lon="6.13314">
        <ele>352.53</ele>
        <time>2018-09-12T09:30:06Z</time>
      </trkpt>
      <trkpt lat="47.7017" lon="6.1332">
        <ele>352.35</ele>
        <time>2018-09-12T09:30:10Z</time>
      </trkpt>
      <trkpt lat="47.70175" lon="6.13323">
        <ele>352.12</ele>
        <time>2018-09-12T09:30:15Z</time>
      </trkpt>
      <trkpt lat="47.70179" lon="6.13328">
        <ele>351.99</ele>
        <time>2018-09-12T09:30:18Z</time>
      </trkpt>
      <trkpt lat="47.70182" lon="6.13333">
        <ele>351.86</ele>
        <time>2018-09-12T09:30:21Z</time>
      </trkpt>
      <trkpt lat="47.70185" lon="6.13339">
        <ele>351.73</ele>
        <time>2018-09-12T09:30:24Z</time>
      </trkpt>
      <trkpt lat="47.70188" lon="6.13344">
        <ele>351.61</ele>
        <time>2018-09-12T09:30:27Z</time>
      </trkpt>
      <trkpt lat="47.70192" lon="6.1335">
        <ele>351.49</ele>
        <time>2018-09-12T09:30:30Z</time>
      </trkpt>
      <trkpt lat="47.70194" lon="6.13357">
        <ele>351.38</ele>
        <time>2018-09-12T09:30:33Z</time>
      </trkpt>
      <trkpt lat="47.70196" lon="6.13364">
        <ele>351.26</ele>
        <time>2018-09-12T09:30:36Z</time>
      </trkpt>
      <trkpt lat="47.70197" lon="6.13371">
        <ele>351.11</ele>
        <time>2018-09-12T09:30:40Z</time>
      </trkpt>
      <trkpt lat="47.70201" lon="6.13375">
        <ele>351</ele>
        <time>2018-09-12T09:30:43Z</time>
      </trkpt>
      <trkpt lat="47.70205" lon="6.13378">
        <ele>350.93</ele>
        <time>2018-09-12T09:30:45Z</time>
      </trkpt>
      <trkpt lat="47.70209" lon="6.13383">
        <ele>350.82</ele>
        <time>2018-09-12T09:30:48Z</time>
      </trkpt>
      <trkpt lat="47.70212" lon="6.13389">
        <ele>350.69</ele>
        <time>2018-09-12T09:30:52Z</time>
      </trkpt>
      <trkpt lat="47.70215" lon="6.13396">
        <ele>350.55</ele>
        <time>2018-09-12T09:30:56Z</time>
      </trkpt>
      <trkpt lat="47.70217" lon="6.13402">
        <ele>350.36</ele>
        <time>2018-09-12T09:31:02Z</time>
      </trkpt>
      <trkpt lat="47.70219" lon="6.1341">
        <ele>350.26</ele>
        <time>2018-09-12T09:31:05Z</time>
      </trkpt>
      <trkpt lat="47.70219" lon="6.1342">
        <ele>350.16</ele>
        <time>2018-09-12T09:31:08Z</time>
      </trkpt>
      <trkpt lat="47.70218" lon="6.1343">
        <ele>350.09</ele>
        <time>2018-09-12T09:31:10Z</time>
      </trkpt>
      <trkpt lat="47.70218" lon="6.13437">
        <ele>350.02</ele>
        <time>2018-09-12T09:31:12Z</time>
      </trkpt>
      <trkpt lat="47.70219" lon="6.13444">
        <ele>349.96</ele>
        <time>2018-09-12T09:31:14Z</time>
      </trkpt>
      <trkpt lat="47.70219" lon="6.13452">
        <ele>349.86</ele>
        <time>2018-09-12T09:31:17Z</time>
      </trkpt>
      <trkpt lat="47.7022" lon="6.13461">
        <ele>349.77</ele>
        <time>2018-09-12T09:31:20Z</time>
      </trkpt>
      <trkpt lat="47.7022" lon="6.13468">
        <ele>349.68</ele>
        <time>2018-09-12T09:31:23Z</time>
      </trkpt>
      <trkpt lat="47.7022" lon="6.13475">
        <ele>349.58</ele>
        <time>2018-09-12T09:31:26Z</time>
      </trkpt>
      <trkpt lat="47.7022" lon="6.13483">
        <ele>349.49</ele>
        <time>2018-09-12T09:31:29Z</time>
      </trkpt>
      <trkpt lat="47.70221" lon="6.13491">
        <ele>349.36</ele>
        <time>2018-09-12T09:31:33Z</time>
      </trkpt>
      <trkpt lat="47.70221" lon="6.13499">
        <ele>349.24</ele>
        <time>2018-09-12T09:31:37Z</time>
      </trkpt>
      <trkpt lat="47.70221" lon="6.13507">
        <ele>349.11</ele>
        <time>2018-09-12T09:31:41Z</time>
      </trkpt>
      <trkpt lat="47.70223" lon="6.13515">
        <ele>348.98</ele>
        <time>2018-09-12T09:31:45Z</time>
      </trkpt>
      <trkpt lat="47.70224" lon="6.13525">
        <ele>348.87</ele>
        <time>2018-09-12T09:31:48Z</time>
      </trkpt>
      <trkpt lat="47.70225" lon="6.13534">
        <ele>348.76</ele>
        <time>2018-09-12T09:31:51Z</time>
      </trkpt>
      <trkpt lat="47.70226" lon="6.13542">
        <ele>348.65</ele>
        <time>2018-09-12T09:31:54Z</time>
      </trkpt>
      <trkpt lat="47.70227" lon="6.13549">
        <ele>348.54</ele>
        <time>2018-09-12T09:31:57Z</time>
      </trkpt>
      <trkpt lat="47.70229" lon="6.13557">
        <ele>348.42</ele>
        <time>2018-09-12T09:32:00Z</time>
      </trkpt>
      <trkpt lat="47.70231" lon="6.13564">
        <ele>348.3</ele>
        <time>2018-09-12T09:32:03Z</time>
      </trkpt>
      <trkpt lat="47.70232" lon="6.13571">
        <ele>348.17</ele>
        <time>2018-09-12T09:32:06Z</time>
      </trkpt>
      <trkpt lat="47.70233" lon="6.13579">
        <ele>347.98</ele>
        <time>2018-09-12T09:32:10Z</time>
      </trkpt>
      <trkpt lat="47.70233" lon="6.13586">
        <ele>347.84</ele>
        <time>2018-09-12T09:32:13Z</time>
      </trkpt>
      <trkpt lat="47.70235" lon="6.13593">
        <ele>347.69</ele>
        <time>2018-09-12T09:32:16Z</time>
      </trkpt>
      <trkpt lat="47.70236" lon="6.13602">
        <ele>347.54</ele>
        <time>2018-09-12T09:32:19Z</time>
      </trkpt>
      <trkpt lat="47.70238" lon="6.1361">
        <ele>347.38</ele>
        <time>2018-09-12T09:32:22Z</time>
      </trkpt>
      <trkpt lat="47.70241" lon="6.13619">
        <ele>347.21</ele>
        <time>2018-09-12T09:32:25Z</time>
      </trkpt>
      <trkpt lat="47.70242" lon="6.13629">
        <ele>347.03</ele>
        <time>2018-09-12T09:32:28Z</time>
      </trkpt>
      <trkpt lat="47.70243" lon="6.13636">
        <ele>346.91</ele>
        <time>2018-09-12T09:32:30Z</time>
      </trkpt>
      <trkpt lat="47.70244" lon="6.13642">
        <ele>346.77</ele>
        <time>2018-09-12T09:32:32Z</time>
      </trkpt>
      <trkpt lat="47.70245" lon="6.13652">
        <ele>346.57</ele>
        <time>2018-09-12T09:32:35Z</time>
      </trkpt>
      <trkpt lat="47.70246" lon="6.1366">
        <ele>346.43</ele>
        <time>2018-09-12T09:32:37Z</time>
      </trkpt>
      <trkpt lat="47.70247" lon="6.13667">
        <ele>346.29</ele>
        <time>2018-09-12T09:32:39Z</time>
      </trkpt>
      <trkpt lat="47.70248" lon="6.13675">
        <ele>346.16</ele>
        <time>2018-09-12T09:32:41Z</time>
      </trkpt>
      <trkpt lat="47.70249" lon="6.13685">
        <ele>346.01</ele>
        <time>2018-09-12T09:32:43Z</time>
      </trkpt>
      <trkpt lat="47.70251" lon="6.13696">
        <ele>345.86</ele>
        <time>2018-09-12T09:32:45Z</time>
      </trkpt>
      <trkpt lat="47.70253" lon="6.13706">
        <ele>345.72</ele>
        <time>2018-09-12T09:32:47Z</time>
      </trkpt>
      <trkpt lat="47.70256" lon="6.13717">
        <ele>345.57</ele>
        <time>2018-09-12T09:32:49Z</time>
      </trkpt>
      <trkpt lat="47.70258" lon="6.13729">
        <ele>345.42</ele>
        <time>2018-09-12T09:32:51Z</time>
      </trkpt>
      <trkpt lat="47.7026" lon="6.13742">
        <ele>345.27</ele>
        <time>2018-09-12T09:32:53Z</time>
      </trkpt>
      <trkpt lat="47.7026" lon="6.13749">
        <ele>345.19</ele>
        <time>2018-09-12T09:32:54Z</time>
      </trkpt>
      <trkpt lat="47.70261" lon="6.13756">
        <ele>345.12</ele>
        <time>2018-09-12T09:32:55Z</time>
      </trkpt>
      <trkpt lat="47.70261" lon="6.1377">
        <ele>344.97</ele>
        <time>2018-09-12T09:32:57Z</time>
      </trkpt>
      <trkpt lat="47.70262" lon="6.13777">
        <ele>344.9</ele>
        <time>2018-09-12T09:32:58Z</time>
      </trkpt>
      <trkpt lat="47.70263" lon="6.13784">
        <ele>344.82</ele>
        <time>2018-09-12T09:32:59Z</time>
      </trkpt>
      <trkpt lat="47.70263" lon="6.13791">
        <ele>344.75</ele>
        <time>2018-09-12T09:33:00Z</time>
      </trkpt>
      <trkpt lat="47.70264" lon="6.13798">
        <ele>344.68</ele>
        <time>2018-09-12T09:33:01Z</time>
      </trkpt>
      <trkpt lat="47.70266" lon="6.1381">
        <ele>344.55</ele>
        <time>2018-09-12T09:33:03Z</time>
      </trkpt>
      <trkpt lat="47.70268" lon="6.13822">
        <ele>344.41</ele>
        <time>2018-09-12T09:33:05Z</time>
      </trkpt>
      <trkpt lat="47.70269" lon="6.13832">
        <ele>344.28</ele>
        <time>2018-09-12T09:33:06Z</time>
      </trkpt>
      <trkpt lat="47.7027" lon="6.13843">
        <ele>344.14</ele>
        <time>2018-09-12T09:33:08Z</time>
      </trkpt>
      <trkpt lat="47.70268" lon="6.13854">
        <ele>344.01</ele>
        <time>2018-09-12T09:33:10Z</time>
      </trkpt>
      <trkpt lat="47.70264" lon="6.13862">
        <ele>343.89</ele>
        <time>2018-09-12T09:33:12Z</time>
      </trkpt>
      <trkpt lat="47.70262" lon="6.1387">
        <ele>343.76</ele>
        <time>2018-09-12T09:33:14Z</time>
      </trkpt>
      <trkpt lat="47.70261" lon="6.13879">
        <ele>343.64</ele>
        <time>2018-09-12T09:33:16Z</time>
      </trkpt>
      <trkpt lat="47.70262" lon="6.13889">
        <ele>343.52</ele>
        <time>2018-09-12T09:33:18Z</time>
      </trkpt>
      <trkpt lat="47.70264" lon="6.13899">
        <ele>342.9</ele>
        <time>2018-09-12T09:33:20Z</time>
      </trkpt>
      <trkpt lat="47.70266" lon="6.1391">
        <ele>342.44</ele>
        <time>2018-09-12T09:33:22Z</time>
      </trkpt>
      <trkpt lat="47.70268" lon="6.13922">
        <ele>341.96</ele>
        <time>2018-09-12T09:33:24Z</time>
      </trkpt>
      <trkpt lat="47.70271" lon="6.13934">
        <ele>341.56</ele>
        <time>2018-09-12T09:33:26Z</time>
      </trkpt>
      <trkpt lat="47.70273" lon="6.13946">
        <ele>341.04</ele>
        <time>2018-09-12T09:33:28Z</time>
      </trkpt>
      <trkpt lat="47.70278" lon="6.13964">
        <ele>340.84</ele>
        <time>2018-09-12T09:33:29Z</time>
      </trkpt>
      <trkpt lat="47.7028" lon="6.13972">
        <ele>340.66</ele>
        <time>2018-09-12T09:33:30Z</time>
      </trkpt>
      <trkpt lat="47.70282" lon="6.1398">
        <ele>340.52</ele>
        <time>2018-09-12T09:33:31Z</time>
      </trkpt>
      <trkpt lat="47.70283" lon="6.13988">
        <ele>340.47</ele>
        <time>2018-09-12T09:33:32Z</time>
      </trkpt>
      <trkpt lat="47.70283" lon="6.13995">
        <ele>340.36</ele>
        <time>2018-09-12T09:33:33Z</time>
      </trkpt>
      <trkpt lat="47.70285" lon="6.14002">
        <ele>340.33</ele>
        <time>2018-09-12T09:33:34Z</time>
      </trkpt>
      <trkpt lat="47.70288" lon="6.14014">
        <ele>340.29</ele>
        <time>2018-09-12T09:33:36Z</time>
      </trkpt>
      <trkpt lat="47.7029" lon="6.14022">
        <ele>340.28</ele>
        <time>2018-09-12T09:33:37Z</time>
      </trkpt>
      <trkpt lat="47.70291" lon="6.14029">
        <ele>340.19</ele>
        <time>2018-09-12T09:33:38Z</time>
      </trkpt>
      <trkpt lat="47.70293" lon="6.1404">
        <ele>340.09</ele>
        <time>2018-09-12T09:33:39Z</time>
      </trkpt>
      <trkpt lat="47.70296" lon="6.14048">
        <ele>339.99</ele>
        <time>2018-09-12T09:33:40Z</time>
      </trkpt>
      <trkpt lat="47.70298" lon="6.14057">
        <ele>339.92</ele>
        <time>2018-09-12T09:33:41Z</time>
      </trkpt>
      <trkpt lat="47.70301" lon="6.14064">
        <ele>339.85</ele>
        <time>2018-09-12T09:33:42Z</time>
      </trkpt>
      <trkpt lat="47.70306" lon="6.14072">
        <ele>339.8</ele>
        <time>2018-09-12T09:33:43Z</time>
      </trkpt>
      <trkpt lat="47.70309" lon="6.14079">
        <ele>339.76</ele>
        <time>2018-09-12T09:33:44Z</time>
      </trkpt>
      <trkpt lat="47.70313" lon="6.14087">
        <ele>339.73</ele>
        <time>2018-09-12T09:33:45Z</time>
      </trkpt>
      <trkpt lat="47.70313" lon="6.14104">
        <ele>339.69</ele>
        <time>2018-09-12T09:33:46Z</time>
      </trkpt>
      <trkpt lat="47.70316" lon="6.14122">
        <ele>339.66</ele>
        <time>2018-09-12T09:33:47Z</time>
      </trkpt>
      <trkpt lat="47.70317" lon="6.14132">
        <ele>339.62</ele>
        <time>2018-09-12T09:33:48Z</time>
      </trkpt>
      <trkpt lat="47.70319" lon="6.14143">
        <ele>339.58</ele>
        <time>2018-09-12T09:33:49Z</time>
      </trkpt>
      <trkpt lat="47.70323" lon="6.14153">
        <ele>339.52</ele>
        <time>2018-09-12T09:33:50Z</time>
      </trkpt>
      <trkpt lat="47.70326" lon="6.14162">
        <ele>339.46</ele>
        <time>2018-09-12T09:33:51Z</time>
      </trkpt>
      <trkpt lat="47.70328" lon="6.14171">
        <ele>339.4</ele>
        <time>2018-09-12T09:33:52Z</time>
      </trkpt>
      <trkpt lat="47.7033" lon="6.14179">
        <ele>339.34</ele>
        <time>2018-09-12T09:33:53Z</time>
      </trkpt>
      <trkpt lat="47.70332" lon="6.14187">
        <ele>339.28</ele>
        <time>2018-09-12T09:33:54Z</time>
      </trkpt>
      <trkpt lat="47.70334" lon="6.14195">
        <ele>339.22</ele>
        <time>2018-09-12T09:33:55Z</time>
      </trkpt>
      <trkpt lat="47.70336" lon="6.14204">
        <ele>339.17</ele>
        <time>2018-09-12T09:33:56Z</time>
      </trkpt>
      <trkpt lat="47.70338" lon="6.14213">
        <ele>339.11</ele>
        <time>2018-09-12T09:33:57Z</time>
      </trkpt>
      <trkpt lat="47.70341" lon="6.14218">
        <ele>339.06</ele>
        <time>2018-09-12T09:33:58Z</time>
      </trkpt>
      <trkpt lat="47.70342" lon="6.14227">
        <ele>339</ele>
        <time>2018-09-12T09:33:59Z</time>
      </trkpt>
      <trkpt lat="47.70342" lon="6.14234">
        <ele>338.94</ele>
        <time>2018-09-12T09:34:00Z</time>
      </trkpt>
      <trkpt lat="47.70341" lon="6.14247">
        <ele>338.82</ele>
        <time>2018-09-12T09:34:02Z</time>
      </trkpt>
      <trkpt lat="47.70334" lon="6.14256">
        <ele>338.74</ele>
        <time>2018-09-12T09:34:04Z</time>
      </trkpt>
      <trkpt lat="47.70328" lon="6.14265">
        <ele>338.71</ele>
        <time>2018-09-12T09:34:06Z</time>
      </trkpt>
      <trkpt lat="47.70323" lon="6.14274">
        <ele>338.62</ele>
        <time>2018-09-12T09:34:08Z</time>
      </trkpt>
      <trkpt lat="47.7032" lon="6.1428">
        <ele>338.51</ele>
        <time>2018-09-12T09:34:09Z</time>
      </trkpt>
      <trkpt lat="47.70317" lon="6.14288">
        <ele>338.41</ele>
        <time>2018-09-12T09:34:10Z</time>
      </trkpt>
      <trkpt lat="47.70314" lon="6.14295">
        <ele>338.3</ele>
        <time>2018-09-12T09:34:11Z</time>
      </trkpt>
      <trkpt lat="47.70308" lon="6.14306">
        <ele>338.11</ele>
        <time>2018-09-12T09:34:13Z</time>
      </trkpt>
      <trkpt lat="47.70304" lon="6.14312">
        <ele>338.08</ele>
        <time>2018-09-12T09:34:14Z</time>
      </trkpt>
      <trkpt lat="47.70296" lon="6.14321">
        <ele>337.92</ele>
        <time>2018-09-12T09:34:16Z</time>
      </trkpt>
      <trkpt lat="47.70291" lon="6.14326">
        <ele>337.83</ele>
        <time>2018-09-12T09:34:17Z</time>
      </trkpt>
      <trkpt lat="47.70287" lon="6.1433">
        <ele>337.74</ele>
        <time>2018-09-12T09:34:18Z</time>
      </trkpt>
      <trkpt lat="47.70283" lon="6.14334">
        <ele>337.64</ele>
        <time>2018-09-12T09:34:19Z</time>
      </trkpt>
      <trkpt lat="47.70278" lon="6.14338">
        <ele>337.53</ele>
        <time>2018-09-12T09:34:20Z</time>
      </trkpt>
      <trkpt lat="47.70273" lon="6.14343">
        <ele>337.39</ele>
        <time>2018-09-12T09:34:21Z</time>
      </trkpt>
      <trkpt lat="47.70268" lon="6.14347">
        <ele>337.21</ele>
        <time>2018-09-12T09:34:22Z</time>
      </trkpt>
      <trkpt lat="47.70264" lon="6.14351">
        <ele>337.03</ele>
        <time>2018-09-12T09:34:23Z</time>
      </trkpt>
      <trkpt lat="47.70258" lon="6.14356">
        <ele>336.84</ele>
        <time>2018-09-12T09:34:24Z</time>
      </trkpt>
      <trkpt lat="47.70252" lon="6.14361">
        <ele>336.63</ele>
        <time>2018-09-12T09:34:25Z</time>
      </trkpt>
      <trkpt lat="47.70247" lon="6.14366">
        <ele>336.41</ele>
        <time>2018-09-12T09:34:26Z</time>
      </trkpt>
      <trkpt lat="47.70242" lon="6.14371">
        <ele>336.17</ele>
        <time>2018-09-12T09:34:27Z</time>
      </trkpt>
      <trkpt lat="47.70237" lon="6.14376">
        <ele>335.93</ele>
        <time>2018-09-12T09:34:28Z</time>
      </trkpt>
      <trkpt lat="47.70232" lon="6.14381">
        <ele>335.68</ele>
        <time>2018-09-12T09:34:29Z</time>
      </trkpt>
      <trkpt lat="47.70226" lon="6.14385">
        <ele>335.43</ele>
        <time>2018-09-12T09:34:30Z</time>
      </trkpt>
      <trkpt lat="47.70221" lon="6.1439">
        <ele>335.16</ele>
        <time>2018-09-12T09:34:31Z</time>
      </trkpt>
      <trkpt lat="47.70216" lon="6.14396">
        <ele>334.88</ele>
        <time>2018-09-12T09:34:32Z</time>
      </trkpt>
      <trkpt lat="47.7021" lon="6.14402">
        <ele>334.54</ele>
        <time>2018-09-12T09:34:33Z</time>
      </trkpt>
      <trkpt lat="47.70204" lon="6.14408">
        <ele>334.18</ele>
        <time>2018-09-12T09:34:34Z</time>
      </trkpt>
      <trkpt lat="47.70198" lon="6.14415">
        <ele>333.83</ele>
        <time>2018-09-12T09:34:35Z</time>
      </trkpt>
      <trkpt lat="47.70192" lon="6.14422">
        <ele>333.5</ele>
        <time>2018-09-12T09:34:36Z</time>
      </trkpt>
      <trkpt lat="47.70186" lon="6.14429">
        <ele>333.18</ele>
        <time>2018-09-12T09:34:37Z</time>
      </trkpt>
      <trkpt lat="47.7018" lon="6.14436">
        <ele>332.86</ele>
        <time>2018-09-12T09:34:38Z</time>
      </trkpt>
      <trkpt lat="47.70175" lon="6.14444">
        <ele>332.55</ele>
        <time>2018-09-12T09:34:39Z</time>
      </trkpt>
      <trkpt lat="47.70171" lon="6.14452">
        <ele>332.24</ele>
        <time>2018-09-12T09:34:40Z</time>
      </trkpt>
      <trkpt lat="47.70166" lon="6.14459">
        <ele>331.91</ele>
        <time>2018-09-12T09:34:41Z</time>
      </trkpt>
      <trkpt lat="47.70162" lon="6.14467">
        <ele>331.69</ele>
        <time>2018-09-12T09:34:42Z</time>
      </trkpt>
      <trkpt lat="47.70159" lon="6.14475">
        <ele>331.53</ele>
        <time>2018-09-12T09:34:43Z</time>
      </trkpt>
      <trkpt lat="47.70155" lon="6.14482">
        <ele>331.35</ele>
        <time>2018-09-12T09:34:44Z</time>
      </trkpt>
      <trkpt lat="47.70152" lon="6.14489">
        <ele>331.16</ele>
        <time>2018-09-12T09:34:45Z</time>
      </trkpt>
      <trkpt lat="47.70149" lon="6.14495">
        <ele>330.94</ele>
        <time>2018-09-12T09:34:46Z</time>
      </trkpt>
      <trkpt lat="47.70145" lon="6.14503">
        <ele>330.35</ele>
        <time>2018-09-12T09:34:48Z</time>
      </trkpt>
      <trkpt lat="47.7014" lon="6.14511">
        <ele>330.15</ele>
        <time>2018-09-12T09:34:50Z</time>
      </trkpt>
      <trkpt lat="47.70136" lon="6.14519">
        <ele>329.61</ele>
        <time>2018-09-12T09:34:52Z</time>
      </trkpt>
      <trkpt lat="47.70131" lon="6.14529">
        <ele>329.32</ele>
        <time>2018-09-12T09:34:54Z</time>
      </trkpt>
      <trkpt lat="47.70128" lon="6.14539">
        <ele>329.14</ele>
        <time>2018-09-12T09:34:56Z</time>
      </trkpt>
      <trkpt lat="47.70123" lon="6.14548">
        <ele>328.94</ele>
        <time>2018-09-12T09:34:58Z</time>
      </trkpt>
      <trkpt lat="47.70118" lon="6.14558">
        <ele>327.09</ele>
        <time>2018-09-12T09:35:00Z</time>
      </trkpt>
      <trkpt lat="47.70115" lon="6.14564">
        <ele>326.12</ele>
        <time>2018-09-12T09:35:01Z</time>
      </trkpt>
      <trkpt lat="47.7011" lon="6.14575">
        <ele>324.34</ele>
        <time>2018-09-12T09:35:03Z</time>
      </trkpt>
      <trkpt lat="47.70107" lon="6.14581">
        <ele>323.56</ele>
        <time>2018-09-12T09:35:04Z</time>
      </trkpt>
      <trkpt lat="47.70102" lon="6.14591">
        <ele>322.17</ele>
        <time>2018-09-12T09:35:06Z</time>
      </trkpt>
      <trkpt lat="47.70099" lon="6.14596">
        <ele>321.59</ele>
        <time>2018-09-12T09:35:07Z</time>
      </trkpt>
      <trkpt lat="47.70096" lon="6.14602">
        <ele>321.08</ele>
        <time>2018-09-12T09:35:08Z</time>
      </trkpt>
      <trkpt lat="47.70093" lon="6.14607">
        <ele>320.62</ele>
        <time>2018-09-12T09:35:09Z</time>
      </trkpt>
      <trkpt lat="47.70091" lon="6.14613">
        <ele>320.18</ele>
        <time>2018-09-12T09:35:10Z</time>
      </trkpt>
      <trkpt lat="47.70088" lon="6.14619">
        <ele>319.73</ele>
        <time>2018-09-12T09:35:11Z</time>
      </trkpt>
      <trkpt lat="47.70085" lon="6.14625">
        <ele>319.32</ele>
        <time>2018-09-12T09:35:12Z</time>
      </trkpt>
      <trkpt lat="47.7008" lon="6.14635">
        <ele>318.54</ele>
        <time>2018-09-12T09:35:14Z</time>
      </trkpt>
      <trkpt lat="47.70074" lon="6.14646">
        <ele>317.81</ele>
        <time>2018-09-12T09:35:16Z</time>
      </trkpt>
      <trkpt lat="47.70072" lon="6.14653">
        <ele>317.47</ele>
        <time>2018-09-12T09:35:17Z</time>
      </trkpt>
      <trkpt lat="47.70069" lon="6.14659">
        <ele>317.16</ele>
        <time>2018-09-12T09:35:18Z</time>
      </trkpt>
      <trkpt lat="47.70064" lon="6.14666">
        <ele>316.82</ele>
        <time>2018-09-12T09:35:19Z</time>
      </trkpt>
      <trkpt lat="47.70059" lon="6.14672">
        <ele>316.43</ele>
        <time>2018-09-12T09:35:20Z</time>
      </trkpt>
      <trkpt lat="47.70053" lon="6.14678">
        <ele>316.04</ele>
        <time>2018-09-12T09:35:21Z</time>
      </trkpt>
      <trkpt lat="47.70047" lon="6.14684">
        <ele>315.66</ele>
        <time>2018-09-12T09:35:22Z</time>
      </trkpt>
      <trkpt lat="47.7004" lon="6.14689">
        <ele>315.3</ele>
        <time>2018-09-12T09:35:23Z</time>
      </trkpt>
      <trkpt lat="47.70034" lon="6.14693">
        <ele>314.87</ele>
        <time>2018-09-12T09:35:24Z</time>
      </trkpt>
      <trkpt lat="47.70028" lon="6.14697">
        <ele>314.46</ele>
        <time>2018-09-12T09:35:25Z</time>
      </trkpt>
      <trkpt lat="47.70021" lon="6.14701">
        <ele>314.1</ele>
        <time>2018-09-12T09:35:26Z</time>
      </trkpt>
      <trkpt lat="47.70015" lon="6.14706">
        <ele>313.76</ele>
        <time>2018-09-12T09:35:27Z</time>
      </trkpt>
      <trkpt lat="47.70009" lon="6.14711">
        <ele>313.41</ele>
        <time>2018-09-12T09:35:28Z</time>
      </trkpt>
      <trkpt lat="47.70003" lon="6.14714">
        <ele>313.09</ele>
        <time>2018-09-12T09:35:29Z</time>
      </trkpt>
      <trkpt lat="47.69997" lon="6.14719">
        <ele>312.82</ele>
        <time>2018-09-12T09:35:30Z</time>
      </trkpt>
      <trkpt lat="47.69991" lon="6.14722">
        <ele>312.57</ele>
        <time>2018-09-12T09:35:31Z</time>
      </trkpt>
      <trkpt lat="47.69985" lon="6.14726">
        <ele>312.32</ele>
        <time>2018-09-12T09:35:32Z</time>
      </trkpt>
      <trkpt lat="47.6998" lon="6.1473">
        <ele>312.1</ele>
        <time>2018-09-12T09:35:33Z</time>
      </trkpt>
      <trkpt lat="47.69975" lon="6.14733">
        <ele>311.84</ele>
        <time>2018-09-12T09:35:34Z</time>
      </trkpt>
      <trkpt lat="47.69969" lon="6.14737">
        <ele>311.58</ele>
        <time>2018-09-12T09:35:35Z</time>
      </trkpt>
      <trkpt lat="47.69964" lon="6.14741">
        <ele>311.35</ele>
        <time>2018-09-12T09:35:36Z</time>
      </trkpt>
      <trkpt lat="47.69959" lon="6.14744">
        <ele>311.15</ele>
        <time>2018-09-12T09:35:37Z</time>
      </trkpt>
      <trkpt lat="47.69953" lon="6.14748">
        <ele>310.95</ele>
        <time>2018-09-12T09:35:38Z</time>
      </trkpt>
      <trkpt lat="47.69948" lon="6.14752">
        <ele>310.71</ele>
        <time>2018-09-12T09:35:39Z</time>
      </trkpt>
      <trkpt lat="47.69943" lon="6.14755">
        <ele>310.51</ele>
        <time>2018-09-12T09:35:40Z</time>
      </trkpt>
      <trkpt lat="47.69937" lon="6.14759">
        <ele>310.31</ele>
        <time>2018-09-12T09:35:41Z</time>
      </trkpt>
      <trkpt lat="47.69932" lon="6.14763">
        <ele>310.11</ele>
        <time>2018-09-12T09:35:42Z</time>
      </trkpt>
      <trkpt lat="47.69927" lon="6.14767">
        <ele>309.9</ele>
        <time>2018-09-12T09:35:43Z</time>
      </trkpt>
      <trkpt lat="47.69921" lon="6.1477">
        <ele>309.68</ele>
        <time>2018-09-12T09:35:44Z</time>
      </trkpt>
      <trkpt lat="47.69915" lon="6.14774">
        <ele>309.47</ele>
        <time>2018-09-12T09:35:45Z</time>
      </trkpt>
      <trkpt lat="47.6991" lon="6.14779">
        <ele>309.29</ele>
        <time>2018-09-12T09:35:46Z</time>
      </trkpt>
      <trkpt lat="47.69904" lon="6.14782">
        <ele>309.15</ele>
        <time>2018-09-12T09:35:47Z</time>
      </trkpt>
      <trkpt lat="47.69898" lon="6.14786">
        <ele>309.02</ele>
        <time>2018-09-12T09:35:48Z</time>
      </trkpt>
      <trkpt lat="47.69893" lon="6.1479">
        <ele>308.9</ele>
        <time>2018-09-12T09:35:49Z</time>
      </trkpt>
      <trkpt lat="47.69888" lon="6.14794">
        <ele>308.78</ele>
        <time>2018-09-12T09:35:50Z</time>
      </trkpt>
      <trkpt lat="47.69883" lon="6.14797">
        <ele>308.67</ele>
        <time>2018-09-12T09:35:51Z</time>
      </trkpt>
      <trkpt lat="47.69878" lon="6.14802">
        <ele>308.56</ele>
        <time>2018-09-12T09:35:52Z</time>
      </trkpt>
      <trkpt lat="47.69873" lon="6.14805">
        <ele>308.42</ele>
        <time>2018-09-12T09:35:53Z</time>
      </trkpt>
      <trkpt lat="47.69867" lon="6.14809">
        <ele>308.25</ele>
        <time>2018-09-12T09:35:54Z</time>
      </trkpt>
      <trkpt lat="47.69862" lon="6.14814">
        <ele>308.08</ele>
        <time>2018-09-12T09:35:55Z</time>
      </trkpt>
      <trkpt lat="47.69857" lon="6.14818">
        <ele>307.91</ele>
        <time>2018-09-12T09:35:56Z</time>
      </trkpt>
      <trkpt lat="47.69851" lon="6.14823">
        <ele>307.71</ele>
        <time>2018-09-12T09:35:57Z</time>
      </trkpt>
      <trkpt lat="47.69846" lon="6.14827">
        <ele>307.51</ele>
        <time>2018-09-12T09:35:58Z</time>
      </trkpt>
      <trkpt lat="47.69841" lon="6.14831">
        <ele>307.3</ele>
        <time>2018-09-12T09:35:59Z</time>
      </trkpt>
      <trkpt lat="47.69837" lon="6.14835">
        <ele>307.05</ele>
        <time>2018-09-12T09:36:00Z</time>
      </trkpt>
      <trkpt lat="47.69833" lon="6.14838">
        <ele>306.74</ele>
        <time>2018-09-12T09:36:01Z</time>
      </trkpt>
      <trkpt lat="47.69829" lon="6.14842">
        <ele>306.36</ele>
        <time>2018-09-12T09:36:02Z</time>
      </trkpt>
      <trkpt lat="47.69824" lon="6.14846">
        <ele>305.96</ele>
        <time>2018-09-12T09:36:03Z</time>
      </trkpt>
      <trkpt lat="47.69818" lon="6.14847">
        <ele>305.53</ele>
        <time>2018-09-12T09:36:04Z</time>
      </trkpt>
      <trkpt lat="47.69812" lon="6.14845">
        <ele>305.06</ele>
        <time>2018-09-12T09:36:05Z</time>
      </trkpt>
      <trkpt lat="47.69806" lon="6.14841">
        <ele>304.57</ele>
        <time>2018-09-12T09:36:06Z</time>
      </trkpt>
      <trkpt lat="47.698" lon="6.14837">
        <ele>304.09</ele>
        <time>2018-09-12T09:36:07Z</time>
      </trkpt>
      <trkpt lat="47.69793" lon="6.14832">
        <ele>303.61</ele>
        <time>2018-09-12T09:36:08Z</time>
      </trkpt>
      <trkpt lat="47.69787" lon="6.14828">
        <ele>303.11</ele>
        <time>2018-09-12T09:36:09Z</time>
      </trkpt>
      <trkpt lat="47.6978" lon="6.14824">
        <ele>302.62</ele>
        <time>2018-09-12T09:36:10Z</time>
      </trkpt>
      <trkpt lat="47.69773" lon="6.1482">
        <ele>302.13</ele>
        <time>2018-09-12T09:36:11Z</time>
      </trkpt>
      <trkpt lat="47.69766" lon="6.14817">
        <ele>301.64</ele>
        <time>2018-09-12T09:36:12Z</time>
      </trkpt>
      <trkpt lat="47.6976" lon="6.14815">
        <ele>301.19</ele>
        <time>2018-09-12T09:36:13Z</time>
      </trkpt>
      <trkpt lat="47.69755" lon="6.14815">
        <ele>300.76</ele>
        <time>2018-09-12T09:36:14Z</time>
      </trkpt>
      <trkpt lat="47.6975" lon="6.14818">
        <ele>300.28</ele>
        <time>2018-09-12T09:36:15Z</time>
      </trkpt>
      <trkpt lat="47.69746" lon="6.14823">
        <ele>299.77</ele>
        <time>2018-09-12T09:36:16Z</time>
      </trkpt>
      <trkpt lat="47.69742" lon="6.14831">
        <ele>299.31</ele>
        <time>2018-09-12T09:36:17Z</time>
      </trkpt>
      <trkpt lat="47.69739" lon="6.1484">
        <ele>298.89</ele>
        <time>2018-09-12T09:36:18Z</time>
      </trkpt>
      <trkpt lat="47.69736" lon="6.14851">
        <ele>298.53</ele>
        <time>2018-09-12T09:36:19Z</time>
      </trkpt>
      <trkpt lat="47.69734" lon="6.14863">
        <ele>298.22</ele>
        <time>2018-09-12T09:36:20Z</time>
      </trkpt>
      <trkpt lat="47.69731" lon="6.14876">
        <ele>297.95</ele>
        <time>2018-09-12T09:36:21Z</time>
      </trkpt>
      <trkpt lat="47.69728" lon="6.14888">
        <ele>297.7</ele>
        <time>2018-09-12T09:36:22Z</time>
      </trkpt>
      <trkpt lat="47.69726" lon="6.149">
        <ele>297.45</ele>
        <time>2018-09-12T09:36:23Z</time>
      </trkpt>
      <trkpt lat="47.69723" lon="6.14913">
        <ele>297.21</ele>
        <time>2018-09-12T09:36:24Z</time>
      </trkpt>
      <trkpt lat="47.6972" lon="6.14926">
        <ele>296.97</ele>
        <time>2018-09-12T09:36:25Z</time>
      </trkpt>
      <trkpt lat="47.69717" lon="6.1494">
        <ele>296.74</ele>
        <time>2018-09-12T09:36:26Z</time>
      </trkpt>
      <trkpt lat="47.69713" lon="6.14954">
        <ele>296.53</ele>
        <time>2018-09-12T09:36:27Z</time>
      </trkpt>
      <trkpt lat="47.69711" lon="6.14969">
        <ele>296.26</ele>
        <time>2018-09-12T09:36:28Z</time>
      </trkpt>
      <trkpt lat="47.69708" lon="6.14984">
        <ele>295.9</ele>
        <time>2018-09-12T09:36:29Z</time>
      </trkpt>
      <trkpt lat="47.69705" lon="6.15">
        <ele>295.48</ele>
        <time>2018-09-12T09:36:30Z</time>
      </trkpt>
      <trkpt lat="47.69702" lon="6.15015">
        <ele>295.02</ele>
        <time>2018-09-12T09:36:31Z</time>
      </trkpt>
      <trkpt lat="47.69698" lon="6.15031">
        <ele>294.57</ele>
        <time>2018-09-12T09:36:32Z</time>
      </trkpt>
      <trkpt lat="47.69696" lon="6.15046">
        <ele>294.09</ele>
        <time>2018-09-12T09:36:33Z</time>
      </trkpt>
      <trkpt lat="47.69693" lon="6.15059">
        <ele>293.69</ele>
        <time>2018-09-12T09:36:34Z</time>
      </trkpt>
      <trkpt lat="47.6969" lon="6.15072">
        <ele>293.28</ele>
        <time>2018-09-12T09:36:35Z</time>
      </trkpt>
      <trkpt lat="47.69687" lon="6.15085">
        <ele>292.86</ele>
        <time>2018-09-12T09:36:36Z</time>
      </trkpt>
      <trkpt lat="47.69683" lon="6.15096">
        <ele>292.3</ele>
        <time>2018-09-12T09:36:37Z</time>
      </trkpt>
      <trkpt lat="47.69678" lon="6.15107">
        <ele>291.72</ele>
        <time>2018-09-12T09:36:38Z</time>
      </trkpt>
      <trkpt lat="47.69672" lon="6.15115">
        <ele>291.08</ele>
        <time>2018-09-12T09:36:39Z</time>
      </trkpt>
      <trkpt lat="47.69665" lon="6.15123">
        <ele>290.4</ele>
        <time>2018-09-12T09:36:40Z</time>
      </trkpt>
      <trkpt lat="47.69658" lon="6.15129">
        <ele>289.73</ele>
        <time>2018-09-12T09:36:41Z</time>
      </trkpt>
      <trkpt lat="47.6965" lon="6.15136">
        <ele>289.11</ele>
        <time>2018-09-12T09:36:42Z</time>
      </trkpt>
      <trkpt lat="47.69643" lon="6.15143">
        <ele>288.53</ele>
        <time>2018-09-12T09:36:43Z</time>
      </trkpt>
      <trkpt lat="47.69635" lon="6.15149">
        <ele>287.99</ele>
        <time>2018-09-12T09:36:44Z</time>
      </trkpt>
      <trkpt lat="47.69627" lon="6.15154">
        <ele>287.51</ele>
        <time>2018-09-12T09:36:45Z</time>
      </trkpt>
      <trkpt lat="47.69618" lon="6.15154">
        <ele>287.01</ele>
        <time>2018-09-12T09:36:46Z</time>
      </trkpt>
      <trkpt lat="47.69608" lon="6.15155">
        <ele>286.39</ele>
        <time>2018-09-12T09:36:47Z</time>
      </trkpt>
      <trkpt lat="47.69599" lon="6.15156">
        <ele>285.68</ele>
        <time>2018-09-12T09:36:48Z</time>
      </trkpt>
      <trkpt lat="47.6959" lon="6.15159">
        <ele>284.96</ele>
        <time>2018-09-12T09:36:49Z</time>
      </trkpt>
      <trkpt lat="47.6958" lon="6.15159">
        <ele>284.33</ele>
        <time>2018-09-12T09:36:50Z</time>
      </trkpt>
      <trkpt lat="47.69571" lon="6.15161">
        <ele>283.75</ele>
        <time>2018-09-12T09:36:51Z</time>
      </trkpt>
      <trkpt lat="47.69562" lon="6.15164">
        <ele>283.18</ele>
        <time>2018-09-12T09:36:52Z</time>
      </trkpt>
      <trkpt lat="47.69554" lon="6.15165">
        <ele>282.61</ele>
        <time>2018-09-12T09:36:53Z</time>
      </trkpt>
      <trkpt lat="47.69546" lon="6.15165">
        <ele>282</ele>
        <time>2018-09-12T09:36:54Z</time>
      </trkpt>
      <trkpt lat="47.69539" lon="6.15164">
        <ele>281.36</ele>
        <time>2018-09-12T09:36:55Z</time>
      </trkpt>
      <trkpt lat="47.69531" lon="6.15163">
        <ele>280.69</ele>
        <time>2018-09-12T09:36:56Z</time>
      </trkpt>
      <trkpt lat="47.69525" lon="6.15158">
        <ele>280.07</ele>
        <time>2018-09-12T09:36:57Z</time>
      </trkpt>
      <trkpt lat="47.6952" lon="6.15152">
        <ele>279.66</ele>
        <time>2018-09-12T09:36:58Z</time>
      </trkpt>
      <trkpt lat="47.69515" lon="6.15146">
        <ele>279.3</ele>
        <time>2018-09-12T09:36:59Z</time>
      </trkpt>
      <trkpt lat="47.69512" lon="6.15139">
        <ele>278.91</ele>
        <time>2018-09-12T09:37:00Z</time>
      </trkpt>
      <trkpt lat="47.69508" lon="6.15133">
        <ele>278.54</ele>
        <time>2018-09-12T09:37:01Z</time>
      </trkpt>
      <trkpt lat="47.69505" lon="6.15127">
        <ele>278.15</ele>
        <time>2018-09-12T09:37:02Z</time>
      </trkpt>
      <trkpt lat="47.69498" lon="6.15119">
        <ele>277.31</ele>
        <time>2018-09-12T09:37:04Z</time>
      </trkpt>
      <trkpt lat="47.69491" lon="6.15114">
        <ele>276.67</ele>
        <time>2018-09-12T09:37:06Z</time>
      </trkpt>
      <trkpt lat="47.69484" lon="6.1511">
        <ele>276.51</ele>
        <time>2018-09-12T09:37:08Z</time>
      </trkpt>
      <trkpt lat="47.69479" lon="6.1511">
        <ele>276.38</ele>
        <time>2018-09-12T09:37:10Z</time>
      </trkpt>
      <trkpt lat="47.69474" lon="6.15109">
        <ele>276.24</ele>
        <time>2018-09-12T09:37:12Z</time>
      </trkpt>
      <trkpt lat="47.69468" lon="6.1511">
        <ele>276.06</ele>
        <time>2018-09-12T09:37:14Z</time>
      </trkpt>
      <trkpt lat="47.69461" lon="6.15112">
        <ele>275.86</ele>
        <time>2018-09-12T09:37:16Z</time>
      </trkpt>
      <trkpt lat="47.69453" lon="6.15114">
        <ele>275.64</ele>
        <time>2018-09-12T09:37:18Z</time>
      </trkpt>
      <trkpt lat="47.69447" lon="6.15117">
        <ele>275.41</ele>
        <time>2018-09-12T09:37:20Z</time>
      </trkpt>
      <trkpt lat="47.69441" lon="6.15118">
        <ele>275.18</ele>
        <time>2018-09-12T09:37:22Z</time>
      </trkpt>
      <trkpt lat="47.69436" lon="6.1512">
        <ele>274.94</ele>
        <time>2018-09-12T09:37:24Z</time>
      </trkpt>
      <trkpt lat="47.6943" lon="6.15122">
        <ele>274.69</ele>
        <time>2018-09-12T09:37:26Z</time>
      </trkpt>
      <trkpt lat="47.69424" lon="6.15123">
        <ele>274.44</ele>
        <time>2018-09-12T09:37:28Z</time>
      </trkpt>
      <trkpt lat="47.69419" lon="6.15124">
        <ele>274.18</ele>
        <time>2018-09-12T09:37:30Z</time>
      </trkpt>
      <trkpt lat="47.69411" lon="6.15125">
        <ele>272.14</ele>
        <time>2018-09-12T09:37:32Z</time>
      </trkpt>
      <trkpt lat="47.69403" lon="6.15127">
        <ele>270.31</ele>
        <time>2018-09-12T09:37:34Z</time>
      </trkpt>
      <trkpt lat="47.69389" lon="6.15129">
        <ele>269.54</ele>
        <time>2018-09-12T09:37:35Z</time>
      </trkpt>
      <trkpt lat="47.69384" lon="6.15132">
        <ele>268.87</ele>
        <time>2018-09-12T09:37:36Z</time>
      </trkpt>
      <trkpt lat="47.69379" lon="6.15133">
        <ele>268.31</ele>
        <time>2018-09-12T09:37:37Z</time>
      </trkpt>
      <trkpt lat="47.69374" lon="6.15135">
        <ele>267.86</ele>
        <time>2018-09-12T09:37:38Z</time>
      </trkpt>
      <trkpt lat="47.6937" lon="6.15137">
        <ele>267.5</ele>
        <time>2018-09-12T09:37:39Z</time>
      </trkpt>
      <trkpt lat="47.69365" lon="6.1514">
        <ele>267.17</ele>
        <time>2018-09-12T09:37:40Z</time>
      </trkpt>
      <trkpt lat="47.6936" lon="6.15144">
        <ele>267.05</ele>
        <time>2018-09-12T09:37:41Z</time>
      </trkpt>
      <trkpt lat="47.69352" lon="6.15148">
        <ele>266.96</ele>
        <time>2018-09-12T09:37:43Z</time>
      </trkpt>
      <trkpt lat="47.69345" lon="6.15152">
        <ele>266.9</ele>
        <time>2018-09-12T09:37:45Z</time>
      </trkpt>
      <trkpt lat="47.69338" lon="6.15156">
        <ele>266.4</ele>
        <time>2018-09-12T09:37:47Z</time>
      </trkpt>
      <trkpt lat="47.69331" lon="6.15161">
        <ele>265.93</ele>
        <time>2018-09-12T09:37:49Z</time>
      </trkpt>
      <trkpt lat="47.69323" lon="6.15166">
        <ele>265.55</ele>
        <time>2018-09-12T09:37:51Z</time>
      </trkpt>
      <trkpt lat="47.69316" lon="6.15171">
        <ele>265.25</ele>
        <time>2018-09-12T09:37:53Z</time>
      </trkpt>
      <trkpt lat="47.69309" lon="6.15177">
        <ele>265.01</ele>
        <time>2018-09-12T09:37:55Z</time>
      </trkpt>
      <trkpt lat="47.69302" lon="6.15182">
        <ele>264.95</ele>
        <time>2018-09-12T09:37:57Z</time>
      </trkpt>
      <trkpt lat="47.69296" lon="6.15187">
        <ele>264.93</ele>
        <time>2018-09-12T09:37:59Z</time>
      </trkpt>
      <trkpt lat="47.6929" lon="6.15193">
        <ele>264.8</ele>
        <time>2018-09-12T09:38:01Z</time>
      </trkpt>
      <trkpt lat="47.69282" lon="6.15198">
        <ele>264.55</ele>
        <time>2018-09-12T09:38:03Z</time>
      </trkpt>
      <trkpt lat="47.69274" lon="6.15203">
        <ele>264.32</ele>
        <time>2018-09-12T09:38:05Z</time>
      </trkpt>
      <trkpt lat="47.6927" lon="6.15206">
        <ele>264.22</ele>
        <time>2018-09-12T09:38:06Z</time>
      </trkpt>
      <trkpt lat="47.69266" lon="6.15208">
        <ele>264.12</ele>
        <time>2018-09-12T09:38:07Z</time>
      </trkpt>
      <trkpt lat="47.69261" lon="6.15211">
        <ele>264.02</ele>
        <time>2018-09-12T09:38:08Z</time>
      </trkpt>
      <trkpt lat="47.69257" lon="6.15213">
        <ele>263.93</ele>
        <time>2018-09-12T09:38:09Z</time>
      </trkpt>
      <trkpt lat="47.69248" lon="6.15217">
        <ele>263.78</ele>
        <time>2018-09-12T09:38:11Z</time>
      </trkpt>
      <trkpt lat="47.69243" lon="6.1522">
        <ele>263.71</ele>
        <time>2018-09-12T09:38:12Z</time>
      </trkpt>
      <trkpt lat="47.69235" lon="6.15223">
        <ele>263.58</ele>
        <time>2018-09-12T09:38:14Z</time>
      </trkpt>
      <trkpt lat="47.69226" lon="6.15226">
        <ele>263.46</ele>
        <time>2018-09-12T09:38:16Z</time>
      </trkpt>
      <trkpt lat="47.69218" lon="6.15228">
        <ele>263.33</ele>
        <time>2018-09-12T09:38:18Z</time>
      </trkpt>
      <trkpt lat="47.69214" lon="6.1523">
        <ele>263.27</ele>
        <time>2018-09-12T09:38:19Z</time>
      </trkpt>
      <trkpt lat="47.69205" lon="6.15233">
        <ele>263.15</ele>
        <time>2018-09-12T09:38:21Z</time>
      </trkpt>
      <trkpt lat="47.69197" lon="6.15236">
        <ele>263.03</ele>
        <time>2018-09-12T09:38:23Z</time>
      </trkpt>
      <trkpt lat="47.69189" lon="6.15241">
        <ele>262.92</ele>
        <time>2018-09-12T09:38:25Z</time>
      </trkpt>
      <trkpt lat="47.69185" lon="6.15245">
        <ele>262.86</ele>
        <time>2018-09-12T09:38:26Z</time>
      </trkpt>
      <trkpt lat="47.69181" lon="6.15249">
        <ele>262.81</ele>
        <time>2018-09-12T09:38:27Z</time>
      </trkpt>
      <trkpt lat="47.69177" lon="6.15253">
        <ele>262.75</ele>
        <time>2018-09-12T09:38:28Z</time>
      </trkpt>
      <trkpt lat="47.69171" lon="6.15263">
        <ele>262.64</ele>
        <time>2018-09-12T09:38:30Z</time>
      </trkpt>
      <trkpt lat="47.69168" lon="6.15268">
        <ele>262.58</ele>
        <time>2018-09-12T09:38:31Z</time>
      </trkpt>
      <trkpt lat="47.69164" lon="6.15273">
        <ele>262.51</ele>
        <time>2018-09-12T09:38:32Z</time>
      </trkpt>
      <trkpt lat="47.69161" lon="6.15278">
        <ele>262.44</ele>
        <time>2018-09-12T09:38:33Z</time>
      </trkpt>
      <trkpt lat="47.69158" lon="6.15283">
        <ele>262.37</ele>
        <time>2018-09-12T09:38:34Z</time>
      </trkpt>
      <trkpt lat="47.69154" lon="6.15288">
        <ele>262.32</ele>
        <time>2018-09-12T09:38:35Z</time>
      </trkpt>
      <trkpt lat="47.6915" lon="6.15293">
        <ele>262.26</ele>
        <time>2018-09-12T09:38:36Z</time>
      </trkpt>
      <trkpt lat="47.69146" lon="6.15297">
        <ele>262.21</ele>
        <time>2018-09-12T09:38:37Z</time>
      </trkpt>
      <trkpt lat="47.69142" lon="6.15301">
        <ele>262.17</ele>
        <time>2018-09-12T09:38:38Z</time>
      </trkpt>
      <trkpt lat="47.69138" lon="6.15304">
        <ele>262.11</ele>
        <time>2018-09-12T09:38:39Z</time>
      </trkpt>
      <trkpt lat="47.69133" lon="6.15306">
        <ele>262.06</ele>
        <time>2018-09-12T09:38:40Z</time>
      </trkpt>
      <trkpt lat="47.69128" lon="6.15309">
        <ele>262.01</ele>
        <time>2018-09-12T09:38:41Z</time>
      </trkpt>
      <trkpt lat="47.69123" lon="6.15312">
        <ele>261.96</ele>
        <time>2018-09-12T09:38:42Z</time>
      </trkpt>
      <trkpt lat="47.69119" lon="6.15313">
        <ele>261.92</ele>
        <time>2018-09-12T09:38:43Z</time>
      </trkpt>
      <trkpt lat="47.69114" lon="6.15315">
        <ele>261.88</ele>
        <time>2018-09-12T09:38:44Z</time>
      </trkpt>
      <trkpt lat="47.6911" lon="6.15317">
        <ele>261.85</ele>
        <time>2018-09-12T09:38:45Z</time>
      </trkpt>
      <trkpt lat="47.69101" lon="6.1532">
        <ele>261.79</ele>
        <time>2018-09-12T09:38:47Z</time>
      </trkpt>
      <trkpt lat="47.69094" lon="6.15322">
        <ele>261.76</ele>
        <time>2018-09-12T09:38:49Z</time>
      </trkpt>
      <trkpt lat="47.69087" lon="6.15325">
        <ele>261.75</ele>
        <time>2018-09-12T09:38:51Z</time>
      </trkpt>
      <trkpt lat="47.69081" lon="6.15327">
        <ele>261.75</ele>
        <time>2018-09-12T09:38:53Z</time>
      </trkpt>
      <trkpt lat="47.69075" lon="6.15328">
        <ele>261.74</ele>
        <time>2018-09-12T09:38:55Z</time>
      </trkpt>
      <trkpt lat="47.6907" lon="6.15329">
        <ele>261.74</ele>
        <time>2018-09-12T09:38:57Z</time>
      </trkpt>
      <trkpt lat="47.69065" lon="6.15331">
        <ele>261.73</ele>
        <time>2018-09-12T09:39:00Z</time>
      </trkpt>
      <trkpt lat="47.69058" lon="6.15334">
        <ele>261.71</ele>
        <time>2018-09-12T09:39:03Z</time>
      </trkpt>
      <trkpt lat="47.69054" lon="6.15336">
        <ele>261.7</ele>
        <time>2018-09-12T09:39:05Z</time>
      </trkpt>
      <trkpt lat="47.69048" lon="6.15338">
        <ele>261.69</ele>
        <time>2018-09-12T09:39:07Z</time>
      </trkpt>
      <trkpt lat="47.69043" lon="6.1534">
        <ele>261.67</ele>
        <time>2018-09-12T09:39:09Z</time>
      </trkpt>
      <trkpt lat="47.69038" lon="6.15343">
        <ele>261.66</ele>
        <time>2018-09-12T09:39:11Z</time>
      </trkpt>
      <trkpt lat="47.69033" lon="6.15345">
        <ele>261.64</ele>
        <time>2018-09-12T09:39:13Z</time>
      </trkpt>
      <trkpt lat="47.69027" lon="6.15347">
        <ele>261.63</ele>
        <time>2018-09-12T09:39:15Z</time>
      </trkpt>
      <trkpt lat="47.69022" lon="6.15349">
        <ele>261.61</ele>
        <time>2018-09-12T09:39:17Z</time>
      </trkpt>
      <trkpt lat="47.69017" lon="6.15352">
        <ele>261.6</ele>
        <time>2018-09-12T09:39:19Z</time>
      </trkpt>
      <trkpt lat="47.69011" lon="6.15354">
        <ele>261.58</ele>
        <time>2018-09-12T09:39:21Z</time>
      </trkpt>
      <trkpt lat="47.69005" lon="6.15358">
        <ele>261.56</ele>
        <time>2018-09-12T09:39:23Z</time>
      </trkpt>
      <trkpt lat="47.68999" lon="6.15363">
        <ele>261.54</ele>
        <time>2018-09-12T09:39:25Z</time>
      </trkpt>
      <trkpt lat="47.68994" lon="6.1537">
        <ele>261.53</ele>
        <time>2018-09-12T09:39:27Z</time>
      </trkpt>
      <trkpt lat="47.68988" lon="6.15377">
        <ele>261.51</ele>
        <time>2018-09-12T09:39:29Z</time>
      </trkpt>
      <trkpt lat="47.68984" lon="6.15385">
        <ele>261.49</ele>
        <time>2018-09-12T09:39:31Z</time>
      </trkpt>
      <trkpt lat="47.68979" lon="6.15395">
        <ele>261.47</ele>
        <time>2018-09-12T09:39:33Z</time>
      </trkpt>
      <trkpt lat="47.68975" lon="6.15403">
        <ele>261.45</ele>
        <time>2018-09-12T09:39:35Z</time>
      </trkpt>
      <trkpt lat="47.68971" lon="6.15411">
        <ele>261.43</ele>
        <time>2018-09-12T09:39:37Z</time>
      </trkpt>
      <trkpt lat="47.68968" lon="6.15417">
        <ele>261.41</ele>
        <time>2018-09-12T09:39:39Z</time>
      </trkpt>
      <trkpt lat="47.68966" lon="6.15424">
        <ele>261.39</ele>
        <time>2018-09-12T09:39:41Z</time>
      </trkpt>
      <trkpt lat="47.68963" lon="6.15432">
        <ele>261.38</ele>
        <time>2018-09-12T09:39:43Z</time>
      </trkpt>
      <trkpt lat="47.68962" lon="6.15439">
        <ele>261.36</ele>
        <time>2018-09-12T09:39:45Z</time>
      </trkpt>
      <trkpt lat="47.6896" lon="6.15445">
        <ele>261.35</ele>
        <time>2018-09-12T09:39:47Z</time>
      </trkpt>
      <trkpt lat="47.68958" lon="6.15452">
        <ele>261.33</ele>
        <time>2018-09-12T09:39:49Z</time>
      </trkpt>
      <trkpt lat="47.68957" lon="6.15459">
        <ele>261.32</ele>
        <time>2018-09-12T09:39:51Z</time>
      </trkpt>
      <trkpt lat="47.68955" lon="6.15467">
        <ele>261.31</ele>
        <time>2018-09-12T09:39:53Z</time>
      </trkpt>
      <trkpt lat="47.68954" lon="6.15474">
        <ele>261.3</ele>
        <time>2018-09-12T09:39:55Z</time>
      </trkpt>
      <trkpt lat="47.68952" lon="6.15482">
        <ele>261.29</ele>
        <time>2018-09-12T09:39:57Z</time>
      </trkpt>
      <trkpt lat="47.6895" lon="6.15489">
        <ele>261.28</ele>
        <time>2018-09-12T09:39:59Z</time>
      </trkpt>
      <trkpt lat="47.68948" lon="6.15496">
        <ele>261.27</ele>
        <time>2018-09-12T09:40:01Z</time>
      </trkpt>
      <trkpt lat="47.68946" lon="6.15503">
        <ele>261.26</ele>
        <time>2018-09-12T09:40:03Z</time>
      </trkpt>
      <trkpt lat="47.68944" lon="6.15509">
        <ele>261.26</ele>
        <time>2018-09-12T09:40:05Z</time>
      </trkpt>
      <trkpt lat="47.68942" lon="6.15517">
        <ele>261.25</ele>
        <time>2018-09-12T09:40:07Z</time>
      </trkpt>
      <trkpt lat="47.6894" lon="6.15524">
        <ele>261.24</ele>
        <time>2018-09-12T09:40:09Z</time>
      </trkpt>
      <trkpt lat="47.68937" lon="6.15531">
        <ele>261.24</ele>
        <time>2018-09-12T09:40:11Z</time>
      </trkpt>
      <trkpt lat="47.68934" lon="6.15538">
        <ele>261.24</ele>
        <time>2018-09-12T09:40:13Z</time>
      </trkpt>
      <trkpt lat="47.68929" lon="6.15546">
        <ele>261.21</ele>
        <time>2018-09-12T09:40:15Z</time>
      </trkpt>
      <trkpt lat="47.68925" lon="6.15555">
        <ele>261.21</ele>
        <time>2018-09-12T09:40:17Z</time>
      </trkpt>
      <trkpt lat="47.68921" lon="6.15564">
        <ele>261.21</ele>
        <time>2018-09-12T09:40:19Z</time>
      </trkpt>
      <trkpt lat="47.68917" lon="6.15573">
        <ele>261.23</ele>
        <time>2018-09-12T09:40:21Z</time>
      </trkpt>
      <trkpt lat="47.68912" lon="6.15583">
        <ele>261.27</ele>
        <time>2018-09-12T09:40:23Z</time>
      </trkpt>
      <trkpt lat="47.68908" lon="6.15593">
        <ele>261.3</ele>
        <time>2018-09-12T09:40:25Z</time>
      </trkpt>
      <trkpt lat="47.68901" lon="6.15606">
        <ele>261.31</ele>
        <time>2018-09-12T09:40:26Z</time>
      </trkpt>
      <trkpt lat="47.68897" lon="6.15615">
        <ele>261.33</ele>
        <time>2018-09-12T09:40:28Z</time>
      </trkpt>
      <trkpt lat="47.68893" lon="6.15624">
        <ele>261.33</ele>
        <time>2018-09-12T09:40:30Z</time>
      </trkpt>
      <trkpt lat="47.68889" lon="6.15632">
        <ele>261.34</ele>
        <time>2018-09-12T09:40:32Z</time>
      </trkpt>
      <trkpt lat="47.68884" lon="6.15642">
        <ele>261.37</ele>
        <time>2018-09-12T09:40:34Z</time>
      </trkpt>
      <trkpt lat="47.68881" lon="6.15647">
        <ele>261.38</ele>
        <time>2018-09-12T09:40:35Z</time>
      </trkpt>
      <trkpt lat="47.68879" lon="6.15653">
        <ele>261.39</ele>
        <time>2018-09-12T09:40:36Z</time>
      </trkpt>
      <trkpt lat="47.68874" lon="6.15663">
        <ele>261.42</ele>
        <time>2018-09-12T09:40:38Z</time>
      </trkpt>
      <trkpt lat="47.68869" lon="6.15672">
        <ele>261.43</ele>
        <time>2018-09-12T09:40:40Z</time>
      </trkpt>
      <trkpt lat="47.68865" lon="6.15682">
        <ele>261.45</ele>
        <time>2018-09-12T09:40:42Z</time>
      </trkpt>
      <trkpt lat="47.6886" lon="6.15691">
        <ele>261.47</ele>
        <time>2018-09-12T09:40:44Z</time>
      </trkpt>
      <trkpt lat="47.68855" lon="6.15702">
        <ele>261.49</ele>
        <time>2018-09-12T09:40:46Z</time>
      </trkpt>
      <trkpt lat="47.68849" lon="6.15714">
        <ele>261.51</ele>
        <time>2018-09-12T09:40:48Z</time>
      </trkpt>
      <trkpt lat="47.68847" lon="6.15721">
        <ele>261.51</ele>
        <time>2018-09-12T09:40:49Z</time>
      </trkpt>
      <trkpt lat="47.68845" lon="6.15727">
        <ele>261.52</ele>
        <time>2018-09-12T09:40:50Z</time>
      </trkpt>
      <trkpt lat="47.68842" lon="6.15734">
        <ele>261.52</ele>
        <time>2018-09-12T09:40:51Z</time>
      </trkpt>
      <trkpt lat="47.6884" lon="6.15741">
        <ele>261.53</ele>
        <time>2018-09-12T09:40:52Z</time>
      </trkpt>
      <trkpt lat="47.68838" lon="6.15748">
        <ele>261.53</ele>
        <time>2018-09-12T09:40:53Z</time>
      </trkpt>
      <trkpt lat="47.68835" lon="6.15755">
        <ele>261.53</ele>
        <time>2018-09-12T09:40:54Z</time>
      </trkpt>
      <trkpt lat="47.68832" lon="6.15762">
        <ele>261.52</ele>
        <time>2018-09-12T09:40:55Z</time>
      </trkpt>
      <trkpt lat="47.68829" lon="6.1577">
        <ele>261.52</ele>
        <time>2018-09-12T09:40:56Z</time>
      </trkpt>
      <trkpt lat="47.68827" lon="6.15778">
        <ele>261.52</ele>
        <time>2018-09-12T09:40:57Z</time>
      </trkpt>
      <trkpt lat="47.68823" lon="6.15785">
        <ele>261.53</ele>
        <time>2018-09-12T09:40:58Z</time>
      </trkpt>
      <trkpt lat="47.6882" lon="6.15793">
        <ele>261.53</ele>
        <time>2018-09-12T09:40:59Z</time>
      </trkpt>
      <trkpt lat="47.68815" lon="6.15801">
        <ele>261.53</ele>
        <time>2018-09-12T09:41:00Z</time>
      </trkpt>
      <trkpt lat="47.68811" lon="6.15808">
        <ele>261.53</ele>
        <time>2018-09-12T09:41:01Z</time>
      </trkpt>
      <trkpt lat="47.68805" lon="6.15815">
        <ele>261.51</ele>
        <time>2018-09-12T09:41:02Z</time>
      </trkpt>
      <trkpt lat="47.688" lon="6.15823">
        <ele>261.49</ele>
        <time>2018-09-12T09:41:03Z</time>
      </trkpt>
      <trkpt lat="47.68794" lon="6.1583">
        <ele>261.46</ele>
        <time>2018-09-12T09:41:04Z</time>
      </trkpt>
      <trkpt lat="47.68787" lon="6.15836">
        <ele>261.42</ele>
        <time>2018-09-12T09:41:05Z</time>
      </trkpt>
      <trkpt lat="47.6878" lon="6.15843">
        <ele>261.38</ele>
        <time>2018-09-12T09:41:06Z</time>
      </trkpt>
      <trkpt lat="47.68773" lon="6.15849">
        <ele>261.33</ele>
        <time>2018-09-12T09:41:07Z</time>
      </trkpt>
      <trkpt lat="47.68767" lon="6.15856">
        <ele>261.29</ele>
        <time>2018-09-12T09:41:08Z</time>
      </trkpt>
      <trkpt lat="47.6876" lon="6.15863">
        <ele>261.23</ele>
        <time>2018-09-12T09:41:09Z</time>
      </trkpt>
      <trkpt lat="47.68753" lon="6.1587">
        <ele>261.19</ele>
        <time>2018-09-12T09:41:10Z</time>
      </trkpt>
      <trkpt lat="47.68746" lon="6.15877">
        <ele>261.15</ele>
        <time>2018-09-12T09:41:11Z</time>
      </trkpt>
      <trkpt lat="47.68738" lon="6.15883">
        <ele>261.09</ele>
        <time>2018-09-12T09:41:12Z</time>
      </trkpt>
      <trkpt lat="47.68731" lon="6.15889">
        <ele>261.04</ele>
        <time>2018-09-12T09:41:13Z</time>
      </trkpt>
      <trkpt lat="47.68723" lon="6.15895">
        <ele>261</ele>
        <time>2018-09-12T09:41:14Z</time>
      </trkpt>
      <trkpt lat="47.68715" lon="6.15901">
        <ele>260.96</ele>
        <time>2018-09-12T09:41:15Z</time>
      </trkpt>
      <trkpt lat="47.68707" lon="6.15906">
        <ele>260.91</ele>
        <time>2018-09-12T09:41:16Z</time>
      </trkpt>
      <trkpt lat="47.687" lon="6.15912">
        <ele>260.84</ele>
        <time>2018-09-12T09:41:17Z</time>
      </trkpt>
      <trkpt lat="47.68692" lon="6.15917">
        <ele>260.73</ele>
        <time>2018-09-12T09:41:18Z</time>
      </trkpt>
      <trkpt lat="47.68684" lon="6.15922">
        <ele>260.62</ele>
        <time>2018-09-12T09:41:19Z</time>
      </trkpt>
      <trkpt lat="47.68675" lon="6.15928">
        <ele>260.51</ele>
        <time>2018-09-12T09:41:20Z</time>
      </trkpt>
      <trkpt lat="47.68667" lon="6.15933">
        <ele>260.4</ele>
        <time>2018-09-12T09:41:21Z</time>
      </trkpt>
      <trkpt lat="47.68658" lon="6.15938">
        <ele>260.28</ele>
        <time>2018-09-12T09:41:22Z</time>
      </trkpt>
      <trkpt lat="47.68649" lon="6.15942">
        <ele>260.17</ele>
        <time>2018-09-12T09:41:23Z</time>
      </trkpt>
      <trkpt lat="47.6864" lon="6.15943">
        <ele>260.06</ele>
        <time>2018-09-12T09:41:24Z</time>
      </trkpt>
      <trkpt lat="47.68631" lon="6.15946">
        <ele>259.94</ele>
        <time>2018-09-12T09:41:25Z</time>
      </trkpt>
      <trkpt lat="47.68621" lon="6.15949">
        <ele>259.82</ele>
        <time>2018-09-12T09:41:26Z</time>
      </trkpt>
      <trkpt lat="47.68612" lon="6.15951">
        <ele>259.69</ele>
        <time>2018-09-12T09:41:27Z</time>
      </trkpt>
      <trkpt lat="47.68602" lon="6.15954">
        <ele>259.55</ele>
        <time>2018-09-12T09:41:28Z</time>
      </trkpt>
      <trkpt lat="47.68592" lon="6.15956">
        <ele>259.42</ele>
        <time>2018-09-12T09:41:29Z</time>
      </trkpt>
      <trkpt lat="47.68582" lon="6.1596">
        <ele>259.33</ele>
        <time>2018-09-12T09:41:30Z</time>
      </trkpt>
      <trkpt lat="47.68573" lon="6.15964">
        <ele>259.24</ele>
        <time>2018-09-12T09:41:31Z</time>
      </trkpt>
      <trkpt lat="47.68564" lon="6.1597">
        <ele>259.16</ele>
        <time>2018-09-12T09:41:32Z</time>
      </trkpt>
      <trkpt lat="47.68555" lon="6.15977">
        <ele>259.07</ele>
        <time>2018-09-12T09:41:33Z</time>
      </trkpt>
      <trkpt lat="47.68546" lon="6.15986">
        <ele>258.98</ele>
        <time>2018-09-12T09:41:34Z</time>
      </trkpt>
      <trkpt lat="47.68537" lon="6.15995">
        <ele>258.88</ele>
        <time>2018-09-12T09:41:35Z</time>
      </trkpt>
      <trkpt lat="47.68529" lon="6.16004">
        <ele>258.81</ele>
        <time>2018-09-12T09:41:36Z</time>
      </trkpt>
      <trkpt lat="47.68521" lon="6.16013">
        <ele>258.76</ele>
        <time>2018-09-12T09:41:37Z</time>
      </trkpt>
      <trkpt lat="47.68513" lon="6.16022">
        <ele>258.74</ele>
        <time>2018-09-12T09:41:38Z</time>
      </trkpt>
      <trkpt lat="47.68505" lon="6.16031">
        <ele>258.72</ele>
        <time>2018-09-12T09:41:39Z</time>
      </trkpt>
      <trkpt lat="47.68497" lon="6.1604">
        <ele>258.69</ele>
        <time>2018-09-12T09:41:40Z</time>
      </trkpt>
      <trkpt lat="47.68489" lon="6.16048">
        <ele>258.66</ele>
        <time>2018-09-12T09:41:41Z</time>
      </trkpt>
      <trkpt lat="47.68482" lon="6.16056">
        <ele>258.6</ele>
        <time>2018-09-12T09:41:42Z</time>
      </trkpt>
      <trkpt lat="47.68474" lon="6.16064">
        <ele>258.53</ele>
        <time>2018-09-12T09:41:43Z</time>
      </trkpt>
      <trkpt lat="47.68467" lon="6.1607">
        <ele>258.45</ele>
        <time>2018-09-12T09:41:44Z</time>
      </trkpt>
      <trkpt lat="47.6846" lon="6.16077">
        <ele>258.37</ele>
        <time>2018-09-12T09:41:45Z</time>
      </trkpt>
      <trkpt lat="47.68453" lon="6.16084">
        <ele>258.32</ele>
        <time>2018-09-12T09:41:46Z</time>
      </trkpt>
      <trkpt lat="47.68447" lon="6.1609">
        <ele>258.23</ele>
        <time>2018-09-12T09:41:47Z</time>
      </trkpt>
      <trkpt lat="47.6844" lon="6.16097">
        <ele>258.16</ele>
        <time>2018-09-12T09:41:48Z</time>
      </trkpt>
      <trkpt lat="47.68434" lon="6.16103">
        <ele>258.08</ele>
        <time>2018-09-12T09:41:49Z</time>
      </trkpt>
      <trkpt lat="47.68429" lon="6.16109">
        <ele>258.01</ele>
        <time>2018-09-12T09:41:50Z</time>
      </trkpt>
      <trkpt lat="47.68424" lon="6.16115">
        <ele>257.91</ele>
        <time>2018-09-12T09:41:51Z</time>
      </trkpt>
      <trkpt lat="47.6842" lon="6.16122">
        <ele>257.77</ele>
        <time>2018-09-12T09:41:52Z</time>
      </trkpt>
      <trkpt lat="47.68417" lon="6.16128">
        <ele>257.57</ele>
        <time>2018-09-12T09:41:53Z</time>
      </trkpt>
      <trkpt lat="47.68414" lon="6.16134">
        <ele>257.34</ele>
        <time>2018-09-12T09:41:54Z</time>
      </trkpt>
      <trkpt lat="47.68411" lon="6.16141">
        <ele>257.08</ele>
        <time>2018-09-12T09:41:55Z</time>
      </trkpt>
      <trkpt lat="47.68407" lon="6.16147">
        <ele>256.83</ele>
        <time>2018-09-12T09:41:56Z</time>
      </trkpt>
      <trkpt lat="47.68404" lon="6.16154">
        <ele>256.58</ele>
        <time>2018-09-12T09:41:57Z</time>
      </trkpt>
      <trkpt lat="47.684" lon="6.16161">
        <ele>256.34</ele>
        <time>2018-09-12T09:41:58Z</time>
      </trkpt>
      <trkpt lat="47.68396" lon="6.16167">
        <ele>256.18</ele>
        <time>2018-09-12T09:41:59Z</time>
      </trkpt>
      <trkpt lat="47.68393" lon="6.16174">
        <ele>256.07</ele>
        <time>2018-09-12T09:42:00Z</time>
      </trkpt>
      <trkpt lat="47.68389" lon="6.16181">
        <ele>256.01</ele>
        <time>2018-09-12T09:42:01Z</time>
      </trkpt>
      <trkpt lat="47.68386" lon="6.16188">
        <ele>255.93</ele>
        <time>2018-09-12T09:42:02Z</time>
      </trkpt>
      <trkpt lat="47.68382" lon="6.16195">
        <ele>255.82</ele>
        <time>2018-09-12T09:42:03Z</time>
      </trkpt>
      <trkpt lat="47.68379" lon="6.16201">
        <ele>255.73</ele>
        <time>2018-09-12T09:42:04Z</time>
      </trkpt>
      <trkpt lat="47.68376" lon="6.16206">
        <ele>255.62</ele>
        <time>2018-09-12T09:42:05Z</time>
      </trkpt>
      <trkpt lat="47.68372" lon="6.16211">
        <ele>255.5</ele>
        <time>2018-09-12T09:42:06Z</time>
      </trkpt>
      <trkpt lat="47.68368" lon="6.16215">
        <ele>255.34</ele>
        <time>2018-09-12T09:42:07Z</time>
      </trkpt>
      <trkpt lat="47.68361" lon="6.16223">
        <ele>254.95</ele>
        <time>2018-09-12T09:42:09Z</time>
      </trkpt>
      <trkpt lat="47.68356" lon="6.16231">
        <ele>254.51</ele>
        <time>2018-09-12T09:42:11Z</time>
      </trkpt>
      <trkpt lat="47.68351" lon="6.16238">
        <ele>254.37</ele>
        <time>2018-09-12T09:42:13Z</time>
      </trkpt>
      <trkpt lat="47.68346" lon="6.16246">
        <ele>254.3</ele>
        <time>2018-09-12T09:42:15Z</time>
      </trkpt>
      <trkpt lat="47.68341" lon="6.16256">
        <ele>254.21</ele>
        <time>2018-09-12T09:42:17Z</time>
      </trkpt>
      <trkpt lat="47.68338" lon="6.16264">
        <ele>253.7</ele>
        <time>2018-09-12T09:42:19Z</time>
      </trkpt>
      <trkpt lat="47.68335" lon="6.1627">
        <ele>253.63</ele>
        <time>2018-09-12T09:42:20Z</time>
      </trkpt>
      <trkpt lat="47.6833" lon="6.16281">
        <ele>252.9</ele>
        <time>2018-09-12T09:42:22Z</time>
      </trkpt>
      <trkpt lat="47.68327" lon="6.16287">
        <ele>252.55</ele>
        <time>2018-09-12T09:42:23Z</time>
      </trkpt>
      <trkpt lat="47.68324" lon="6.16293">
        <ele>252.24</ele>
        <time>2018-09-12T09:42:24Z</time>
      </trkpt>
      <trkpt lat="47.68321" lon="6.16299">
        <ele>251.95</ele>
        <time>2018-09-12T09:42:25Z</time>
      </trkpt>
      <trkpt lat="47.68318" lon="6.16304">
        <ele>251.69</ele>
        <time>2018-09-12T09:42:26Z</time>
      </trkpt>
      <trkpt lat="47.68313" lon="6.16314">
        <ele>251.27</ele>
        <time>2018-09-12T09:42:28Z</time>
      </trkpt>
      <trkpt lat="47.68308" lon="6.16324">
        <ele>251.17</ele>
        <time>2018-09-12T09:42:30Z</time>
      </trkpt>
      <trkpt lat="47.68305" lon="6.16328">
        <ele>251.1</ele>
        <time>2018-09-12T09:42:32Z</time>
      </trkpt>
      <trkpt lat="47.68299" lon="6.16329">
        <ele>251.03</ele>
        <time>2018-09-12T09:42:34Z</time>
      </trkpt>
      <trkpt lat="47.68293" lon="6.16327">
        <ele>250.94</ele>
        <time>2018-09-12T09:42:36Z</time>
      </trkpt>
      <trkpt lat="47.68286" lon="6.16323">
        <ele>250.83</ele>
        <time>2018-09-12T09:42:38Z</time>
      </trkpt>
      <trkpt lat="47.6828" lon="6.1632">
        <ele>250.71</ele>
        <time>2018-09-12T09:42:40Z</time>
      </trkpt>
      <trkpt lat="47.68273" lon="6.16315">
        <ele>250.6</ele>
        <time>2018-09-12T09:42:42Z</time>
      </trkpt>
      <trkpt lat="47.68267" lon="6.16311">
        <ele>250.48</ele>
        <time>2018-09-12T09:42:44Z</time>
      </trkpt>
      <trkpt lat="47.68255" lon="6.16303">
        <ele>250.01</ele>
        <time>2018-09-12T09:42:46Z</time>
      </trkpt>
      <trkpt lat="47.6825" lon="6.16298">
        <ele>249.77</ele>
        <time>2018-09-12T09:42:48Z</time>
      </trkpt>
      <trkpt lat="47.68245" lon="6.16294">
        <ele>249.65</ele>
        <time>2018-09-12T09:42:50Z</time>
      </trkpt>
      <trkpt lat="47.6824" lon="6.16289">
        <ele>249.54</ele>
        <time>2018-09-12T09:42:52Z</time>
      </trkpt>
      <trkpt lat="47.68235" lon="6.16284">
        <ele>249.42</ele>
        <time>2018-09-12T09:42:54Z</time>
      </trkpt>
      <trkpt lat="47.6823" lon="6.16279">
        <ele>248.5</ele>
        <time>2018-09-12T09:42:56Z</time>
      </trkpt>
      <trkpt lat="47.68224" lon="6.16273">
        <ele>247.73</ele>
        <time>2018-09-12T09:42:58Z</time>
      </trkpt>
      <trkpt lat="47.68217" lon="6.16267">
        <ele>247.56</ele>
        <time>2018-09-12T09:43:00Z</time>
      </trkpt>
      <trkpt lat="47.68211" lon="6.16262">
        <ele>247.49</ele>
        <time>2018-09-12T09:43:02Z</time>
      </trkpt>
      <trkpt lat="47.68205" lon="6.16256">
        <ele>247.45</ele>
        <time>2018-09-12T09:43:04Z</time>
      </trkpt>
      <trkpt lat="47.68199" lon="6.16251">
        <ele>247.4</ele>
        <time>2018-09-12T09:43:06Z</time>
      </trkpt>
      <trkpt lat="47.68193" lon="6.16248">
        <ele>247.35</ele>
        <time>2018-09-12T09:43:08Z</time>
      </trkpt>
      <trkpt lat="47.68186" lon="6.16248">
        <ele>247.29</ele>
        <time>2018-09-12T09:43:10Z</time>
      </trkpt>
      <trkpt lat="47.6818" lon="6.16252">
        <ele>247.24</ele>
        <time>2018-09-12T09:43:12Z</time>
      </trkpt>
      <trkpt lat="47.68177" lon="6.16259">
        <ele>247.18</ele>
        <time>2018-09-12T09:43:14Z</time>
      </trkpt>
      <trkpt lat="47.68175" lon="6.16268">
        <ele>247.12</ele>
        <time>2018-09-12T09:43:16Z</time>
      </trkpt>
      <trkpt lat="47.68175" lon="6.16277">
        <ele>247.06</ele>
        <time>2018-09-12T09:43:18Z</time>
      </trkpt>
      <trkpt lat="47.68174" lon="6.16287">
        <ele>247</ele>
        <time>2018-09-12T09:43:20Z</time>
      </trkpt>
      <trkpt lat="47.68174" lon="6.16297">
        <ele>246.72</ele>
        <time>2018-09-12T09:43:22Z</time>
      </trkpt>
      <trkpt lat="47.68174" lon="6.16308">
        <ele>246.35</ele>
        <time>2018-09-12T09:43:24Z</time>
      </trkpt>
      <trkpt lat="47.68173" lon="6.16319">
        <ele>245.92</ele>
        <time>2018-09-12T09:43:26Z</time>
      </trkpt>
      <trkpt lat="47.68171" lon="6.16331">
        <ele>245.8</ele>
        <time>2018-09-12T09:43:28Z</time>
      </trkpt>
      <trkpt lat="47.6817" lon="6.16341">
        <ele>245.76</ele>
        <time>2018-09-12T09:43:30Z</time>
      </trkpt>
      <trkpt lat="47.68168" lon="6.16351">
        <ele>245.72</ele>
        <time>2018-09-12T09:43:32Z</time>
      </trkpt>
      <trkpt lat="47.68165" lon="6.1636">
        <ele>245.68</ele>
        <time>2018-09-12T09:43:34Z</time>
      </trkpt>
      <trkpt lat="47.68162" lon="6.1637">
        <ele>245.64</ele>
        <time>2018-09-12T09:43:36Z</time>
      </trkpt>
      <trkpt lat="47.68159" lon="6.1638">
        <ele>245.31</ele>
        <time>2018-09-12T09:43:38Z</time>
      </trkpt>
      <trkpt lat="47.68156" lon="6.16391">
        <ele>245.12</ele>
        <time>2018-09-12T09:43:40Z</time>
      </trkpt>
      <trkpt lat="47.68153" lon="6.16401">
        <ele>245.05</ele>
        <time>2018-09-12T09:43:42Z</time>
      </trkpt>
      <trkpt lat="47.68151" lon="6.16411">
        <ele>244.92</ele>
        <time>2018-09-12T09:43:44Z</time>
      </trkpt>
      <trkpt lat="47.68148" lon="6.16421">
        <ele>244.86</ele>
        <time>2018-09-12T09:43:46Z</time>
      </trkpt>
      <trkpt lat="47.68145" lon="6.16431">
        <ele>244.83</ele>
        <time>2018-09-12T09:43:48Z</time>
      </trkpt>
      <trkpt lat="47.68143" lon="6.1644">
        <ele>244.8</ele>
        <time>2018-09-12T09:43:50Z</time>
      </trkpt>
      <trkpt lat="47.68141" lon="6.16449">
        <ele>244.77</ele>
        <time>2018-09-12T09:43:52Z</time>
      </trkpt>
      <trkpt lat="47.68139" lon="6.16457">
        <ele>244.74</ele>
        <time>2018-09-12T09:43:54Z</time>
      </trkpt>
      <trkpt lat="47.68137" lon="6.16465">
        <ele>244.71</ele>
        <time>2018-09-12T09:43:56Z</time>
      </trkpt>
      <trkpt lat="47.68135" lon="6.16472">
        <ele>244.67</ele>
        <time>2018-09-12T09:43:58Z</time>
      </trkpt>
      <trkpt lat="47.68133" lon="6.16478">
        <ele>244.64</ele>
        <time>2018-09-12T09:44:00Z</time>
      </trkpt>
      <trkpt lat="47.68131" lon="6.16486">
        <ele>244.58</ele>
        <time>2018-09-12T09:44:03Z</time>
      </trkpt>
      <trkpt lat="47.68126" lon="6.16489">
        <ele>244.53</ele>
        <time>2018-09-12T09:44:06Z</time>
      </trkpt>
      <trkpt lat="47.6812" lon="6.16487">
        <ele>244.47</ele>
        <time>2018-09-12T09:44:09Z</time>
      </trkpt>
      <trkpt lat="47.68115" lon="6.16483">
        <ele>244.42</ele>
        <time>2018-09-12T09:44:12Z</time>
      </trkpt>
      <trkpt lat="47.68109" lon="6.16481">
        <ele>244.36</ele>
        <time>2018-09-12T09:44:15Z</time>
      </trkpt>
      <trkpt lat="47.68103" lon="6.16479">
        <ele>244.3</ele>
        <time>2018-09-12T09:44:18Z</time>
      </trkpt>
      <trkpt lat="47.68096" lon="6.16477">
        <ele>244.24</ele>
        <time>2018-09-12T09:44:21Z</time>
      </trkpt>
      <trkpt lat="47.68091" lon="6.16475">
        <ele>244.19</ele>
        <time>2018-09-12T09:44:24Z</time>
      </trkpt>
      <trkpt lat="47.68085" lon="6.16475">
        <ele>244.14</ele>
        <time>2018-09-12T09:44:27Z</time>
      </trkpt>
      <trkpt lat="47.68082" lon="6.16479">
        <ele>244.09</ele>
        <time>2018-09-12T09:44:30Z</time>
      </trkpt>
      <trkpt lat="47.6808" lon="6.16486">
        <ele>244.04</ele>
        <time>2018-09-12T09:44:33Z</time>
      </trkpt>
      <trkpt lat="47.68081" lon="6.16493">
        <ele>243.99</ele>
        <time>2018-09-12T09:44:36Z</time>
      </trkpt>
      <trkpt lat="47.68086" lon="6.16501">
        <ele>243.94</ele>
        <time>2018-09-12T09:44:39Z</time>
      </trkpt>
      <trkpt lat="47.68089" lon="6.16507">
        <ele>243.91</ele>
        <time>2018-09-12T09:44:41Z</time>
      </trkpt>
      <trkpt lat="47.68093" lon="6.16514">
        <ele>243.75</ele>
        <time>2018-09-12T09:44:43Z</time>
      </trkpt>
      <trkpt lat="47.68098" lon="6.16523">
        <ele>243.56</ele>
        <time>2018-09-12T09:44:45Z</time>
      </trkpt>
      <trkpt lat="47.68103" lon="6.16532">
        <ele>243.36</ele>
        <time>2018-09-12T09:44:47Z</time>
      </trkpt>
      <trkpt lat="47.6811" lon="6.1654">
        <ele>243.18</ele>
        <time>2018-09-12T09:44:49Z</time>
      </trkpt>
      <trkpt lat="47.68117" lon="6.16548">
        <ele>243.05</ele>
        <time>2018-09-12T09:44:51Z</time>
      </trkpt>
      <trkpt lat="47.68121" lon="6.16552">
        <ele>242.99</ele>
        <time>2018-09-12T09:44:52Z</time>
      </trkpt>
      <trkpt lat="47.68125" lon="6.16555">
        <ele>242.94</ele>
        <time>2018-09-12T09:44:53Z</time>
      </trkpt>
      <trkpt lat="47.68137" lon="6.16563">
        <ele>242.89</ele>
        <time>2018-09-12T09:44:54Z</time>
      </trkpt>
      <trkpt lat="47.68142" lon="6.16567">
        <ele>242.84</ele>
        <time>2018-09-12T09:44:55Z</time>
      </trkpt>
      <trkpt lat="47.68146" lon="6.1657">
        <ele>242.8</ele>
        <time>2018-09-12T09:44:56Z</time>
      </trkpt>
      <trkpt lat="47.68152" lon="6.16577">
        <ele>242.74</ele>
        <time>2018-09-12T09:44:58Z</time>
      </trkpt>
      <trkpt lat="47.68159" lon="6.16582">
        <ele>242.72</ele>
        <time>2018-09-12T09:45:00Z</time>
      </trkpt>
      <trkpt lat="47.68163" lon="6.16583">
        <ele>242.71</ele>
        <time>2018-09-12T09:45:02Z</time>
      </trkpt>
      <trkpt lat="47.68169" lon="6.16585">
        <ele>242.7</ele>
        <time>2018-09-12T09:45:05Z</time>
      </trkpt>
      <trkpt lat="47.68173" lon="6.16588">
        <ele>242.69</ele>
        <time>2018-09-12T09:45:07Z</time>
      </trkpt>
      <trkpt lat="47.68178" lon="6.16592">
        <ele>242.67</ele>
        <time>2018-09-12T09:45:09Z</time>
      </trkpt>
      <trkpt lat="47.68183" lon="6.16596">
        <ele>242.65</ele>
        <time>2018-09-12T09:45:11Z</time>
      </trkpt>
      <trkpt lat="47.68188" lon="6.16598">
        <ele>242.64</ele>
        <time>2018-09-12T09:45:13Z</time>
      </trkpt>
      <trkpt lat="47.68193" lon="6.16601">
        <ele>242.62</ele>
        <time>2018-09-12T09:45:15Z</time>
      </trkpt>
      <trkpt lat="47.68199" lon="6.16604">
        <ele>242.6</ele>
        <time>2018-09-12T09:45:17Z</time>
      </trkpt>
      <trkpt lat="47.68205" lon="6.16608">
        <ele>242.57</ele>
        <time>2018-09-12T09:45:19Z</time>
      </trkpt>
      <trkpt lat="47.6821" lon="6.1661">
        <ele>242.55</ele>
        <time>2018-09-12T09:45:21Z</time>
      </trkpt>
      <trkpt lat="47.68215" lon="6.16613">
        <ele>242.53</ele>
        <time>2018-09-12T09:45:23Z</time>
      </trkpt>
      <trkpt lat="47.6822" lon="6.16615">
        <ele>242.51</ele>
        <time>2018-09-12T09:45:25Z</time>
      </trkpt>
      <trkpt lat="47.68226" lon="6.16614">
        <ele>242.48</ele>
        <time>2018-09-12T09:45:27Z</time>
      </trkpt>
      <trkpt lat="47.68229" lon="6.16609">
        <ele>242.46</ele>
        <time>2018-09-12T09:45:29Z</time>
      </trkpt>
      <trkpt lat="47.68226" lon="6.16602">
        <ele>242.42</ele>
        <time>2018-09-12T09:45:32Z</time>
      </trkpt>
      <trkpt lat="47.6822" lon="6.16602">
        <ele>242.39</ele>
        <time>2018-09-12T09:45:35Z</time>
      </trkpt>
    </trkseg>
  </trk>
</gpx>